<?xml version="1.0" encoding="UTF-8" standalone="no" ?>
<gpx xmlns="http://www.topografix.com/GPX/1/1" xmlns:xsi="http://www.w3.org/2001/XMLSchema-instance" xsi:schemaLocation="http://www.topografix.com/GPX/1/1 http://www.topografix.com/GPX/1/1/gpx.xsd" version="1.1" creator="VisuGPX - https://www.visugpx.com">
  <metadata>
    <name>RDN LALBENQUE 2024 Vtt 42Km 650d++</name>
    <desc><![CDATA[RDN LALBENQUE 2024 Vtt  42KM 650d+ : Comme pour le 20Km les 12 premiers km sont roulants jusqu'au 1er ravito. La suite est plus accidentée mais sans grosse difficulté technique. Ca passe partout mais il est possible de rajouter des petites boucles plus techniques du 55Km sur le retour si vous avez encore les jambes.Ce parcours s'adresse à ceux qui n'aiment pas trop les gros dénivelés et parties techniques.]]></desc>
  </metadata>
  <trk>
    <name><![CDATA[RDN 2024 Vtt 42km 700d+]]></name>
    <desc><![CDATA[





























































































































































































































































































































































































































































































































































































































]]></desc>
    <trkseg>
      <trkpt lat="44.33831" lon="1.54529">
        <ele>274.1</ele>
        <time>2024-11-28T00:34:07.136Z</time>
      </trkpt>
      <trkpt lat="44.33831" lon="1.54529">
        <ele>274.1</ele>
        <time>2024-11-28T00:34:07.136Z</time>
      </trkpt>
      <trkpt lat="44.33831" lon="1.54529">
        <ele>274.1</ele>
        <time>2024-11-28T00:34:07.136Z</time>
      </trkpt>
      <trkpt lat="44.33831" lon="1.54529">
        <ele>274.1</ele>
        <time>2024-11-27T21:04:08.839Z</time>
      </trkpt>
      <trkpt lat="44.33831" lon="1.54529">
        <ele>274.1</ele>
        <time>2024-11-27T21:04:08.839Z</time>
      </trkpt>
      <trkpt lat="44.33826" lon="1.54544">
        <ele>274.1</ele>
        <time>2024-11-27T21:04:10.625Z</time>
      </trkpt>
      <trkpt lat="44.33822" lon="1.54567">
        <ele>273.6</ele>
        <time>2024-11-27T21:04:13.078Z</time>
      </trkpt>
      <trkpt lat="44.33821" lon="1.54571">
        <ele>273.5</ele>
        <time>2024-11-27T21:04:13.444Z</time>
      </trkpt>
      <trkpt lat="44.3381" lon="1.54636">
        <ele>269.5</ele>
        <time>2024-11-27T21:04:19.830Z</time>
      </trkpt>
      <trkpt lat="44.33801" lon="1.54661">
        <ele>268.4</ele>
        <time>2024-11-27T21:04:22.363Z</time>
      </trkpt>
      <trkpt lat="44.33793" lon="1.54686">
        <ele>267.5</ele>
        <time>2024-11-27T21:04:24.825Z</time>
      </trkpt>
      <trkpt lat="44.33773" lon="1.54731">
        <ele>265.6</ele>
        <time>2024-11-27T21:04:29.589Z</time>
      </trkpt>
      <trkpt lat="44.33765" lon="1.5473">
        <ele>265.6</ele>
        <time>2024-11-27T21:04:30.556Z</time>
      </trkpt>
      <trkpt lat="44.33761" lon="1.54739">
        <ele>265</ele>
        <time>2024-11-27T21:04:31.524Z</time>
      </trkpt>
      <trkpt lat="44.3376" lon="1.54741">
        <ele>264.9</ele>
        <time>2024-11-27T21:04:31.698Z</time>
      </trkpt>
      <trkpt lat="44.33762" lon="1.54749">
        <ele>264.5</ele>
        <time>2024-11-27T21:04:32.456Z</time>
      </trkpt>
      <trkpt lat="44.33758" lon="1.54757">
        <ele>264.2</ele>
        <time>2024-11-27T21:04:33.328Z</time>
      </trkpt>
      <trkpt lat="44.33747" lon="1.54773">
        <ele>263.8</ele>
        <time>2024-11-27T21:04:35.334Z</time>
      </trkpt>
      <trkpt lat="44.33741" lon="1.54783">
        <ele>262.7</ele>
        <time>2024-11-27T21:04:36.491Z</time>
      </trkpt>
      <trkpt lat="44.33733" lon="1.5479">
        <ele>261.7</ele>
        <time>2024-11-27T21:04:37.695Z</time>
      </trkpt>
      <trkpt lat="44.33695" lon="1.54802">
        <ele>261</ele>
        <time>2024-11-27T21:04:42.817Z</time>
      </trkpt>
      <trkpt lat="44.33687" lon="1.54807">
        <ele>259.9</ele>
        <time>2024-11-27T21:04:44.063Z</time>
      </trkpt>
      <trkpt lat="44.33676" lon="1.54822">
        <ele>259.1</ele>
        <time>2024-11-27T21:04:46.493Z</time>
      </trkpt>
      <trkpt lat="44.33671" lon="1.54832">
        <ele>259.8</ele>
        <time>2024-11-27T21:04:47.891Z</time>
      </trkpt>
      <trkpt lat="44.33664" lon="1.54851">
        <ele>259.2</ele>
        <time>2024-11-27T21:04:50.748Z</time>
      </trkpt>
      <trkpt lat="44.33651" lon="1.54874">
        <ele>258.7</ele>
        <time>2024-11-27T21:04:56.089Z</time>
      </trkpt>
      <trkpt lat="44.33641" lon="1.54887">
        <ele>258.9</ele>
        <time>2024-11-27T21:05:00.377Z</time>
      </trkpt>
      <trkpt lat="44.33641" lon="1.54899">
        <ele>259.1</ele>
        <time>2024-11-27T21:05:03.509Z</time>
      </trkpt>
      <trkpt lat="44.33627" lon="1.54978">
        <ele>264.4</ele>
        <time>2024-11-27T21:05:28.054Z</time>
      </trkpt>
      <trkpt lat="44.33613" lon="1.55032">
        <ele>269.1</ele>
        <time>2024-11-27T21:05:49.385Z</time>
      </trkpt>
      <trkpt lat="44.33609" lon="1.55045">
        <ele>269.7</ele>
        <time>2024-11-27T21:05:54.896Z</time>
      </trkpt>
      <trkpt lat="44.3357" lon="1.55182">
        <ele>274.5</ele>
        <time>2024-11-27T21:06:53.113Z</time>
      </trkpt>
      <trkpt lat="44.33562" lon="1.55243">
        <ele>274.8</ele>
        <time>2024-11-27T21:07:07.231Z</time>
      </trkpt>
      <trkpt lat="44.33563" lon="1.55298">
        <ele>274.7</ele>
        <time>2024-11-27T21:07:17.832Z</time>
      </trkpt>
      <trkpt lat="44.33565" lon="1.55323">
        <ele>274</ele>
        <time>2024-11-27T21:07:22.484Z</time>
      </trkpt>
      <trkpt lat="44.33582" lon="1.55408">
        <ele>267.6</ele>
        <time>2024-11-27T21:07:37.425Z</time>
      </trkpt>
      <trkpt lat="44.33574" lon="1.55451">
        <ele>265.8</ele>
        <time>2024-11-27T21:07:44.774Z</time>
      </trkpt>
      <trkpt lat="44.33533" lon="1.55508">
        <ele>262.3</ele>
        <time>2024-11-27T21:07:59.290Z</time>
      </trkpt>
      <trkpt lat="44.33523" lon="1.55527">
        <ele>261.9</ele>
        <time>2024-11-27T21:08:04.047Z</time>
      </trkpt>
      <trkpt lat="44.33519" lon="1.55551">
        <ele>259.1</ele>
        <time>2024-11-27T21:08:09.266Z</time>
      </trkpt>
      <trkpt lat="44.33516" lon="1.55551">
        <ele>258.6</ele>
        <time>2024-11-27T21:08:10.149Z</time>
      </trkpt>
      <trkpt lat="44.33516" lon="1.55578">
        <ele>257.9</ele>
        <time>2024-11-27T21:08:14.447Z</time>
      </trkpt>
      <trkpt lat="44.33511" lon="1.55618">
        <ele>258.7</ele>
        <time>2024-11-27T21:08:22.456Z</time>
      </trkpt>
      <trkpt lat="44.33489" lon="1.55693">
        <ele>261.7</ele>
        <time>2024-11-27T21:08:44.503Z</time>
      </trkpt>
      <trkpt lat="44.33478" lon="1.55718">
        <ele>262.5</ele>
        <time>2024-11-27T21:08:53.570Z</time>
      </trkpt>
      <trkpt lat="44.33432" lon="1.558">
        <ele>265.7</ele>
        <time>2024-11-27T21:09:22.010Z</time>
      </trkpt>
      <trkpt lat="44.33407" lon="1.55874">
        <ele>267.7</ele>
        <time>2024-11-27T21:09:41.397Z</time>
      </trkpt>
      <trkpt lat="44.33367" lon="1.56019">
        <ele>272.5</ele>
        <time>2024-11-27T21:10:17.572Z</time>
      </trkpt>
      <trkpt lat="44.33359" lon="1.56043">
        <ele>273.7</ele>
        <time>2024-11-27T21:10:23.740Z</time>
      </trkpt>
      <trkpt lat="44.33338" lon="1.5608">
        <ele>274.9</ele>
        <time>2024-11-27T21:10:34.910Z</time>
      </trkpt>
      <trkpt lat="44.33338" lon="1.56096">
        <ele>275.2</ele>
        <time>2024-11-27T21:10:40.420Z</time>
      </trkpt>
      <trkpt lat="44.33322" lon="1.56177">
        <ele>276.8</ele>
        <time>2024-11-27T21:11:09.385Z</time>
      </trkpt>
      <trkpt lat="44.33317" lon="1.56227">
        <ele>278.8</ele>
        <time>2024-11-27T21:11:28.123Z</time>
      </trkpt>
      <trkpt lat="44.33317" lon="1.56262">
        <ele>280.2</ele>
        <time>2024-11-27T21:11:42.292Z</time>
      </trkpt>
      <trkpt lat="44.33323" lon="1.56327">
        <ele>283.9</ele>
        <time>2024-11-27T21:12:10.407Z</time>
      </trkpt>
      <trkpt lat="44.33325" lon="1.56367">
        <ele>286.5</ele>
        <time>2024-11-27T21:12:27.771Z</time>
      </trkpt>
      <trkpt lat="44.33334" lon="1.56458">
        <ele>291.9</ele>
        <time>2024-11-27T21:13:05.642Z</time>
      </trkpt>
      <trkpt lat="44.33331" lon="1.56496">
        <ele>292.9</ele>
        <time>2024-11-27T21:13:20.312Z</time>
      </trkpt>
      <trkpt lat="44.33307" lon="1.56652">
        <ele>291.4</ele>
        <time>2024-11-27T21:14:07.182Z</time>
      </trkpt>
      <trkpt lat="44.333" lon="1.56722">
        <ele>289.4</ele>
        <time>2024-11-27T21:14:23.412Z</time>
      </trkpt>
      <trkpt lat="44.33299" lon="1.56763">
        <ele>289.5</ele>
        <time>2024-11-27T21:14:32.483Z</time>
      </trkpt>
      <trkpt lat="44.33303" lon="1.56843">
        <ele>290.2</ele>
        <time>2024-11-27T21:14:49.441Z</time>
      </trkpt>
      <trkpt lat="44.3332" lon="1.57066">
        <ele>289.5</ele>
        <time>2024-11-27T21:15:34.198Z</time>
      </trkpt>
      <trkpt lat="44.33321" lon="1.57105">
        <ele>289.2</ele>
        <time>2024-11-27T21:15:41.761Z</time>
      </trkpt>
      <trkpt lat="44.33292" lon="1.57335">
        <ele>286.5</ele>
        <time>2024-11-27T21:16:28.323Z</time>
      </trkpt>
      <trkpt lat="44.33271" lon="1.57437">
        <ele>285.9</ele>
        <time>2024-11-27T21:16:52.133Z</time>
      </trkpt>
      <trkpt lat="44.33239" lon="1.57543">
        <ele>286.8</ele>
        <time>2024-11-27T21:17:24.029Z</time>
      </trkpt>
      <trkpt lat="44.3317" lon="1.57723">
        <ele>291.7</ele>
        <time>2024-11-27T21:18:23.938Z</time>
      </trkpt>
      <trkpt lat="44.33154" lon="1.57775">
        <ele>291</ele>
        <time>2024-11-27T21:18:38.114Z</time>
      </trkpt>
      <trkpt lat="44.33142" lon="1.57829">
        <ele>291.6</ele>
        <time>2024-11-27T21:18:50.765Z</time>
      </trkpt>
      <trkpt lat="44.33102" lon="1.57978">
        <ele>288.5</ele>
        <time>2024-11-27T21:19:23.850Z</time>
      </trkpt>
      <trkpt lat="44.33069" lon="1.58141">
        <ele>288.5</ele>
        <time>2024-11-27T21:20:00.873Z</time>
      </trkpt>
      <trkpt lat="44.3306" lon="1.58174">
        <ele>288</ele>
        <time>2024-11-27T21:20:09.631Z</time>
      </trkpt>
      <trkpt lat="44.33064" lon="1.5818">
        <ele>288</ele>
        <time>2024-11-27T21:20:11.813Z</time>
      </trkpt>
      <trkpt lat="44.33071" lon="1.5821">
        <ele>288.3</ele>
        <time>2024-11-27T21:20:20.103Z</time>
      </trkpt>
      <trkpt lat="44.33096" lon="1.58279">
        <ele>287.9</ele>
        <time>2024-11-27T21:20:42.514Z</time>
      </trkpt>
      <trkpt lat="44.33193" lon="1.58652">
        <ele>300.4</ele>
        <time>2024-11-27T21:23:04.141Z</time>
      </trkpt>
      <trkpt lat="44.33207" lon="1.58686">
        <ele>302.1</ele>
        <time>2024-11-27T21:23:16.526Z</time>
      </trkpt>
      <trkpt lat="44.3321" lon="1.58709">
        <ele>302.3</ele>
        <time>2024-11-27T21:23:23.445Z</time>
      </trkpt>
      <trkpt lat="44.33309" lon="1.5868">
        <ele>299</ele>
        <time>2024-11-27T21:23:56.544Z</time>
      </trkpt>
      <trkpt lat="44.33461" lon="1.58621">
        <ele>297</ele>
        <time>2024-11-27T21:24:39.207Z</time>
      </trkpt>
      <trkpt lat="44.33475" lon="1.58619">
        <ele>296.9</ele>
        <time>2024-11-27T21:24:43.021Z</time>
      </trkpt>
      <trkpt lat="44.33484" lon="1.58622">
        <ele>296.7</ele>
        <time>2024-11-27T21:24:45.554Z</time>
      </trkpt>
      <trkpt lat="44.3349" lon="1.58628">
        <ele>296.8</ele>
        <time>2024-11-27T21:24:47.591Z</time>
      </trkpt>
      <trkpt lat="44.33497" lon="1.5864">
        <ele>297</ele>
        <time>2024-11-27T21:24:50.454Z</time>
      </trkpt>
      <trkpt lat="44.33514" lon="1.58683">
        <ele>294.2</ele>
        <time>2024-11-27T21:24:59.674Z</time>
      </trkpt>
      <trkpt lat="44.33536" lon="1.58713">
        <ele>292.5</ele>
        <time>2024-11-27T21:25:07.918Z</time>
      </trkpt>
      <trkpt lat="44.33547" lon="1.58716">
        <ele>291.7</ele>
        <time>2024-11-27T21:25:10.981Z</time>
      </trkpt>
      <trkpt lat="44.33564" lon="1.5871">
        <ele>291.3</ele>
        <time>2024-11-27T21:25:15.531Z</time>
      </trkpt>
      <trkpt lat="44.3359" lon="1.58703">
        <ele>290.9</ele>
        <time>2024-11-27T21:25:20.873Z</time>
      </trkpt>
      <trkpt lat="44.3359" lon="1.58703">
        <ele>290.9</ele>
        <time>2024-11-27T21:25:20.960Z</time>
      </trkpt>
      <trkpt lat="44.33631" lon="1.58702">
        <ele>290</ele>
        <time>2024-11-27T21:25:29.073Z</time>
      </trkpt>
      <trkpt lat="44.33687" lon="1.58679">
        <ele>288.1</ele>
        <time>2024-11-27T21:25:40.472Z</time>
      </trkpt>
      <trkpt lat="44.33711" lon="1.58672">
        <ele>287.2</ele>
        <time>2024-11-27T21:25:45.402Z</time>
      </trkpt>
      <trkpt lat="44.33736" lon="1.5867">
        <ele>286.4</ele>
        <time>2024-11-27T21:25:50.550Z</time>
      </trkpt>
      <trkpt lat="44.33768" lon="1.58673">
        <ele>285.3</ele>
        <time>2024-11-27T21:25:57.322Z</time>
      </trkpt>
      <trkpt lat="44.33822" lon="1.5867">
        <ele>285.5</ele>
        <time>2024-11-27T21:26:09.326Z</time>
      </trkpt>
      <trkpt lat="44.33899" lon="1.58648">
        <ele>285.7</ele>
        <time>2024-11-27T21:26:28.636Z</time>
      </trkpt>
      <trkpt lat="44.34049" lon="1.58596">
        <ele>287</ele>
        <time>2024-11-27T21:27:10.335Z</time>
      </trkpt>
      <trkpt lat="44.34072" lon="1.58592">
        <ele>286.4</ele>
        <time>2024-11-27T21:27:16.079Z</time>
      </trkpt>
      <trkpt lat="44.34089" lon="1.58594">
        <ele>285.9</ele>
        <time>2024-11-27T21:27:20.130Z</time>
      </trkpt>
      <trkpt lat="44.34152" lon="1.58619">
        <ele>285</ele>
        <time>2024-11-27T21:27:35.298Z</time>
      </trkpt>
      <trkpt lat="44.34205" lon="1.58687">
        <ele>284</ele>
        <time>2024-11-27T21:27:51.903Z</time>
      </trkpt>
      <trkpt lat="44.3422" lon="1.58698">
        <ele>284</ele>
        <time>2024-11-27T21:27:55.829Z</time>
      </trkpt>
      <trkpt lat="44.3426" lon="1.58705">
        <ele>283.8</ele>
        <time>2024-11-27T21:28:05.575Z</time>
      </trkpt>
      <trkpt lat="44.34266" lon="1.58712">
        <ele>283.8</ele>
        <time>2024-11-27T21:28:07.703Z</time>
      </trkpt>
      <trkpt lat="44.34303" lon="1.5879">
        <ele>282.5</ele>
        <time>2024-11-27T21:28:24.216Z</time>
      </trkpt>
      <trkpt lat="44.34316" lon="1.58818">
        <ele>282.8</ele>
        <time>2024-11-27T21:28:30.574Z</time>
      </trkpt>
      <trkpt lat="44.34358" lon="1.58908">
        <ele>283</ele>
        <time>2024-11-27T21:28:51.593Z</time>
      </trkpt>
      <trkpt lat="44.34397" lon="1.58968">
        <ele>283.6</ele>
        <time>2024-11-27T21:29:07.083Z</time>
      </trkpt>
      <trkpt lat="44.34399" lon="1.58972">
        <ele>283.6</ele>
        <time>2024-11-27T21:29:07.998Z</time>
      </trkpt>
      <trkpt lat="44.34434" lon="1.59023">
        <ele>283.9</ele>
        <time>2024-11-27T21:29:24.521Z</time>
      </trkpt>
      <trkpt lat="44.34482" lon="1.59081">
        <ele>283</ele>
        <time>2024-11-27T21:29:44.766Z</time>
      </trkpt>
      <trkpt lat="44.34585" lon="1.59195">
        <ele>282</ele>
        <time>2024-11-27T21:30:25.135Z</time>
      </trkpt>
      <trkpt lat="44.34632" lon="1.59226">
        <ele>282.4</ele>
        <time>2024-11-27T21:30:41.004Z</time>
      </trkpt>
      <trkpt lat="44.34633" lon="1.59274">
        <ele>282.3</ele>
        <time>2024-11-27T21:30:51.219Z</time>
      </trkpt>
      <trkpt lat="44.34631" lon="1.59413">
        <ele>280.7</ele>
        <time>2024-11-27T21:31:19.726Z</time>
      </trkpt>
      <trkpt lat="44.34623" lon="1.59537">
        <ele>278.5</ele>
        <time>2024-11-27T21:31:44.524Z</time>
      </trkpt>
      <trkpt lat="44.34622" lon="1.59584">
        <ele>277.2</ele>
        <time>2024-11-27T21:31:53.808Z</time>
      </trkpt>
      <trkpt lat="44.34625" lon="1.59656">
        <ele>277</ele>
        <time>2024-11-27T21:32:07.898Z</time>
      </trkpt>
      <trkpt lat="44.34636" lon="1.59778">
        <ele>276.1</ele>
        <time>2024-11-27T21:32:31.991Z</time>
      </trkpt>
      <trkpt lat="44.34642" lon="1.59819">
        <ele>275.8</ele>
        <time>2024-11-27T21:32:40.346Z</time>
      </trkpt>
      <trkpt lat="44.34714" lon="1.59774">
        <ele>273.1</ele>
        <time>2024-11-27T21:33:03.665Z</time>
      </trkpt>
      <trkpt lat="44.34783" lon="1.59743">
        <ele>274.3</ele>
        <time>2024-11-27T21:33:28.722Z</time>
      </trkpt>
      <trkpt lat="44.3486" lon="1.59688">
        <ele>277.2</ele>
        <time>2024-11-27T21:34:00.974Z</time>
      </trkpt>
      <trkpt lat="44.34898" lon="1.59668">
        <ele>276.7</ele>
        <time>2024-11-27T21:34:14.927Z</time>
      </trkpt>
      <trkpt lat="44.34966" lon="1.59609">
        <ele>274.3</ele>
        <time>2024-11-27T21:34:39.050Z</time>
      </trkpt>
      <trkpt lat="44.35006" lon="1.59567">
        <ele>274.8</ele>
        <time>2024-11-27T21:34:53.547Z</time>
      </trkpt>
      <trkpt lat="44.35023" lon="1.59559">
        <ele>275.7</ele>
        <time>2024-11-27T21:34:58.887Z</time>
      </trkpt>
      <trkpt lat="44.35043" lon="1.59562">
        <ele>275.9</ele>
        <time>2024-11-27T21:35:04.811Z</time>
      </trkpt>
      <trkpt lat="44.35065" lon="1.5957">
        <ele>276</ele>
        <time>2024-11-27T21:35:11.459Z</time>
      </trkpt>
      <trkpt lat="44.35111" lon="1.59598">
        <ele>276.5</ele>
        <time>2024-11-27T21:35:26.212Z</time>
      </trkpt>
      <trkpt lat="44.35149" lon="1.59612">
        <ele>275.7</ele>
        <time>2024-11-27T21:35:37.469Z</time>
      </trkpt>
      <trkpt lat="44.35163" lon="1.59612">
        <ele>275.2</ele>
        <time>2024-11-27T21:35:41.371Z</time>
      </trkpt>
      <trkpt lat="44.35175" lon="1.59605">
        <ele>274.7</ele>
        <time>2024-11-27T21:35:45.043Z</time>
      </trkpt>
      <trkpt lat="44.35229" lon="1.59504">
        <ele>270.1</ele>
        <time>2024-11-27T21:36:10.961Z</time>
      </trkpt>
      <trkpt lat="44.35277" lon="1.59405">
        <ele>272.4</ele>
        <time>2024-11-27T21:36:37.822Z</time>
      </trkpt>
      <trkpt lat="44.35351" lon="1.59283">
        <ele>273.9</ele>
        <time>2024-11-27T21:37:14.493Z</time>
      </trkpt>
      <trkpt lat="44.35369" lon="1.59285">
        <ele>273.7</ele>
        <time>2024-11-27T21:37:19.841Z</time>
      </trkpt>
      <trkpt lat="44.35385" lon="1.59299">
        <ele>273.2</ele>
        <time>2024-11-27T21:37:25.437Z</time>
      </trkpt>
      <trkpt lat="44.35406" lon="1.59355">
        <ele>271.5</ele>
        <time>2024-11-27T21:37:33.174Z</time>
      </trkpt>
      <trkpt lat="44.35428" lon="1.59399">
        <ele>270.4</ele>
        <time>2024-11-27T21:37:39.794Z</time>
      </trkpt>
      <trkpt lat="44.35454" lon="1.5938">
        <ele>271.4</ele>
        <time>2024-11-27T21:37:49.098Z</time>
      </trkpt>
      <trkpt lat="44.35529" lon="1.59376">
        <ele>274.4</ele>
        <time>2024-11-27T21:38:17.404Z</time>
      </trkpt>
      <trkpt lat="44.35571" lon="1.59364">
        <ele>273.3</ele>
        <time>2024-11-27T21:38:35.536Z</time>
      </trkpt>
      <trkpt lat="44.35619" lon="1.59229">
        <ele>276</ele>
        <time>2024-11-27T21:39:19.182Z</time>
      </trkpt>
      <trkpt lat="44.35657" lon="1.59158">
        <ele>277.3</ele>
        <time>2024-11-27T21:39:46.205Z</time>
      </trkpt>
      <trkpt lat="44.35684" lon="1.59092">
        <ele>278.8</ele>
        <time>2024-11-27T21:40:10.302Z</time>
      </trkpt>
      <trkpt lat="44.35691" lon="1.59047">
        <ele>280.2</ele>
        <time>2024-11-27T21:40:24.882Z</time>
      </trkpt>
      <trkpt lat="44.35702" lon="1.5902">
        <ele>281</ele>
        <time>2024-11-27T21:40:34.513Z</time>
      </trkpt>
      <trkpt lat="44.35709" lon="1.58987">
        <ele>281.2</ele>
        <time>2024-11-27T21:40:45.025Z</time>
      </trkpt>
      <trkpt lat="44.35708" lon="1.58938">
        <ele>281.5</ele>
        <time>2024-11-27T21:40:59.598Z</time>
      </trkpt>
      <trkpt lat="44.35711" lon="1.58892">
        <ele>282</ele>
        <time>2024-11-27T21:41:12.242Z</time>
      </trkpt>
      <trkpt lat="44.3571" lon="1.58859">
        <ele>282</ele>
        <time>2024-11-27T21:41:20.737Z</time>
      </trkpt>
      <trkpt lat="44.35713" lon="1.58848">
        <ele>282.3</ele>
        <time>2024-11-27T21:41:23.546Z</time>
      </trkpt>
      <trkpt lat="44.35732" lon="1.58817">
        <ele>282.7</ele>
        <time>2024-11-27T21:41:32.982Z</time>
      </trkpt>
      <trkpt lat="44.35755" lon="1.58763">
        <ele>282.3</ele>
        <time>2024-11-27T21:41:46.741Z</time>
      </trkpt>
      <trkpt lat="44.35773" lon="1.58711">
        <ele>282.1</ele>
        <time>2024-11-27T21:41:58.805Z</time>
      </trkpt>
      <trkpt lat="44.35797" lon="1.58657">
        <ele>281.2</ele>
        <time>2024-11-27T21:42:11.595Z</time>
      </trkpt>
      <trkpt lat="44.35826" lon="1.58552">
        <ele>280</ele>
        <time>2024-11-27T21:42:33.778Z</time>
      </trkpt>
      <trkpt lat="44.35828" lon="1.58539">
        <ele>280</ele>
        <time>2024-11-27T21:42:36.381Z</time>
      </trkpt>
      <trkpt lat="44.35823" lon="1.58494">
        <ele>279.4</ele>
        <time>2024-11-27T21:42:45.170Z</time>
      </trkpt>
      <trkpt lat="44.35823" lon="1.58474">
        <ele>278.7</ele>
        <time>2024-11-27T21:42:49.313Z</time>
      </trkpt>
      <trkpt lat="44.35835" lon="1.58374">
        <ele>277.6</ele>
        <time>2024-11-27T21:43:10.524Z</time>
      </trkpt>
      <trkpt lat="44.35987" lon="1.58232">
        <ele>278.8</ele>
        <time>2024-11-27T21:44:13.922Z</time>
      </trkpt>
      <trkpt lat="44.36003" lon="1.58218">
        <ele>278.7</ele>
        <time>2024-11-27T21:44:19.946Z</time>
      </trkpt>
      <trkpt lat="44.36069" lon="1.58072">
        <ele>276.8</ele>
        <time>2024-11-27T21:44:56.052Z</time>
      </trkpt>
      <trkpt lat="44.36076" lon="1.58041">
        <ele>276.3</ele>
        <time>2024-11-27T21:45:02.626Z</time>
      </trkpt>
      <trkpt lat="44.36086" lon="1.58031">
        <ele>276.2</ele>
        <time>2024-11-27T21:45:06.322Z</time>
      </trkpt>
      <trkpt lat="44.36116" lon="1.58016">
        <ele>276.6</ele>
        <time>2024-11-27T21:45:15.224Z</time>
      </trkpt>
      <trkpt lat="44.36188" lon="1.58005">
        <ele>275.9</ele>
        <time>2024-11-27T21:45:35.524Z</time>
      </trkpt>
      <trkpt lat="44.36216" lon="1.58017">
        <ele>274.6</ele>
        <time>2024-11-27T21:45:43.697Z</time>
      </trkpt>
      <trkpt lat="44.3624" lon="1.58033">
        <ele>273.2</ele>
        <time>2024-11-27T21:45:50.907Z</time>
      </trkpt>
      <trkpt lat="44.3628" lon="1.5805">
        <ele>270.9</ele>
        <time>2024-11-27T21:46:02.633Z</time>
      </trkpt>
      <trkpt lat="44.36299" lon="1.58075">
        <ele>270.4</ele>
        <time>2024-11-27T21:46:10.113Z</time>
      </trkpt>
      <trkpt lat="44.36346" lon="1.58084">
        <ele>271</ele>
        <time>2024-11-27T21:46:23.982Z</time>
      </trkpt>
      <trkpt lat="44.3636" lon="1.58087">
        <ele>271.1</ele>
      </trkpt>
      <trkpt lat="44.3642" lon="1.58008">
        <ele>270.4</ele>
        <time>2024-11-27T21:47:05.695Z</time>
      </trkpt>
      <trkpt lat="44.36446" lon="1.57976">
        <ele>270.2</ele>
        <time>2024-11-27T21:47:14.882Z</time>
      </trkpt>
      <trkpt lat="44.3648" lon="1.57914">
        <ele>269.2</ele>
        <time>2024-11-27T21:47:29.770Z</time>
      </trkpt>
      <trkpt lat="44.36503" lon="1.57885">
        <ele>268.8</ele>
        <time>2024-11-27T21:47:38.081Z</time>
      </trkpt>
      <trkpt lat="44.36553" lon="1.57781">
        <ele>266</ele>
        <time>2024-11-27T21:48:02.258Z</time>
      </trkpt>
      <trkpt lat="44.36581" lon="1.57727">
        <ele>263.3</ele>
        <time>2024-11-27T21:48:15.243Z</time>
      </trkpt>
      <trkpt lat="44.36587" lon="1.5772">
        <ele>262.6</ele>
        <time>2024-11-27T21:48:17.523Z</time>
      </trkpt>
      <trkpt lat="44.36576" lon="1.57702">
        <ele>261.5</ele>
        <time>2024-11-27T21:48:22.415Z</time>
      </trkpt>
      <trkpt lat="44.36587" lon="1.5772">
        <ele>262.6</ele>
        <time>2024-11-27T21:48:27.325Z</time>
      </trkpt>
      <trkpt lat="44.36645" lon="1.57837">
        <ele>259.4</ele>
        <time>2024-11-27T21:48:56.247Z</time>
      </trkpt>
      <trkpt lat="44.3666" lon="1.57872">
        <ele>258.5</ele>
        <time>2024-11-27T21:49:04.901Z</time>
      </trkpt>
      <trkpt lat="44.36678" lon="1.57924">
        <ele>257.1</ele>
        <time>2024-11-27T21:49:17.318Z</time>
      </trkpt>
      <trkpt lat="44.36695" lon="1.57955">
        <ele>256.8</ele>
        <time>2024-11-27T21:49:26.047Z</time>
      </trkpt>
      <trkpt lat="44.36738" lon="1.57966">
        <ele>259.1</ele>
        <time>2024-11-27T21:49:39.656Z</time>
      </trkpt>
      <trkpt lat="44.36761" lon="1.57977">
        <ele>260.7</ele>
        <time>2024-11-27T21:49:47.749Z</time>
      </trkpt>
      <trkpt lat="44.36777" lon="1.57989">
        <ele>262.2</ele>
        <time>2024-11-27T21:49:54.170Z</time>
      </trkpt>
      <trkpt lat="44.36787" lon="1.58004">
        <ele>263.1</ele>
        <time>2024-11-27T21:49:59.148Z</time>
      </trkpt>
      <trkpt lat="44.36791" lon="1.58006">
        <ele>263.1</ele>
        <time>2024-11-27T21:50:00.647Z</time>
      </trkpt>
      <trkpt lat="44.36865" lon="1.57956">
        <ele>262.3</ele>
        <time>2024-11-27T21:50:26.518Z</time>
      </trkpt>
      <trkpt lat="44.3688" lon="1.57951">
        <ele>262.1</ele>
        <time>2024-11-27T21:50:30.888Z</time>
      </trkpt>
      <trkpt lat="44.36888" lon="1.57954">
        <ele>262</ele>
        <time>2024-11-27T21:50:33.055Z</time>
      </trkpt>
      <trkpt lat="44.36964" lon="1.58015">
        <ele>257.3</ele>
        <time>2024-11-27T21:50:56.775Z</time>
      </trkpt>
      <trkpt lat="44.36992" lon="1.5804">
        <ele>256.3</ele>
        <time>2024-11-27T21:51:05.244Z</time>
      </trkpt>
      <trkpt lat="44.37004" lon="1.58055">
        <ele>255.9</ele>
        <time>2024-11-27T21:51:09.419Z</time>
      </trkpt>
      <trkpt lat="44.3702" lon="1.58068">
        <ele>255.1</ele>
        <time>2024-11-27T21:51:14.314Z</time>
      </trkpt>
      <trkpt lat="44.37064" lon="1.58099">
        <ele>253.3</ele>
        <time>2024-11-27T21:51:26.629Z</time>
      </trkpt>
      <trkpt lat="44.3707" lon="1.58095">
        <ele>253.3</ele>
        <time>2024-11-27T21:51:28.488Z</time>
      </trkpt>
      <trkpt lat="44.37111" lon="1.58087">
        <ele>253</ele>
        <time>2024-11-27T21:51:38.972Z</time>
      </trkpt>
      <trkpt lat="44.37201" lon="1.58036">
        <ele>248.6</ele>
        <time>2024-11-27T21:52:02.943Z</time>
      </trkpt>
      <trkpt lat="44.37257" lon="1.57971">
        <ele>245.5</ele>
        <time>2024-11-27T21:52:20.111Z</time>
      </trkpt>
      <trkpt lat="44.3727" lon="1.57949">
        <ele>244</ele>
        <time>2024-11-27T21:52:24.744Z</time>
      </trkpt>
      <trkpt lat="44.37307" lon="1.57865">
        <ele>234.3</ele>
        <time>2024-11-27T21:52:40.854Z</time>
      </trkpt>
      <trkpt lat="44.37307" lon="1.57865">
        <ele>234.2</ele>
        <time>2024-11-27T21:52:40.907Z</time>
      </trkpt>
      <trkpt lat="44.37331" lon="1.57835">
        <ele>229.5</ele>
        <time>2024-11-27T21:52:48.356Z</time>
      </trkpt>
      <trkpt lat="44.37336" lon="1.57824">
        <ele>228.7</ele>
        <time>2024-11-27T21:52:50.703Z</time>
      </trkpt>
      <trkpt lat="44.37339" lon="1.57798">
        <ele>228</ele>
        <time>2024-11-27T21:52:55.426Z</time>
      </trkpt>
      <trkpt lat="44.37333" lon="1.57748">
        <ele>228.4</ele>
        <time>2024-11-27T21:53:05.219Z</time>
      </trkpt>
      <trkpt lat="44.37316" lon="1.57719">
        <ele>230.8</ele>
        <time>2024-11-27T21:53:13.756Z</time>
      </trkpt>
      <trkpt lat="44.3731" lon="1.57705">
        <ele>231.1</ele>
        <time>2024-11-27T21:53:18.518Z</time>
      </trkpt>
      <trkpt lat="44.37302" lon="1.5768">
        <ele>231.6</ele>
        <time>2024-11-27T21:53:27.387Z</time>
      </trkpt>
      <trkpt lat="44.37301" lon="1.57669">
        <ele>232.3</ele>
        <time>2024-11-27T21:53:31.208Z</time>
      </trkpt>
      <trkpt lat="44.37304" lon="1.57653">
        <ele>233.8</ele>
        <time>2024-11-27T21:53:37.574Z</time>
      </trkpt>
      <trkpt lat="44.37382" lon="1.57532">
        <ele>245.3</ele>
        <time>2024-11-27T21:54:45.798Z</time>
      </trkpt>
      <trkpt lat="44.37401" lon="1.57518">
        <ele>246.3</ele>
        <time>2024-11-27T21:54:59.361Z</time>
      </trkpt>
      <trkpt lat="44.37422" lon="1.57524">
        <ele>248.4</ele>
        <time>2024-11-27T21:55:12.195Z</time>
      </trkpt>
      <trkpt lat="44.37428" lon="1.57519">
        <ele>248.8</ele>
        <time>2024-11-27T21:55:16.034Z</time>
      </trkpt>
      <trkpt lat="44.37463" lon="1.57508">
        <ele>250.7</ele>
        <time>2024-11-27T21:55:36.633Z</time>
      </trkpt>
      <trkpt lat="44.37485" lon="1.57496">
        <ele>251.5</ele>
        <time>2024-11-27T21:55:49.989Z</time>
      </trkpt>
      <trkpt lat="44.37511" lon="1.57475">
        <ele>252.3</ele>
        <time>2024-11-27T21:56:05.607Z</time>
      </trkpt>
      <trkpt lat="44.37535" lon="1.57446">
        <ele>253</ele>
        <time>2024-11-27T21:56:22.877Z</time>
      </trkpt>
      <trkpt lat="44.37592" lon="1.57324">
        <ele>256.1</ele>
        <time>2024-11-27T21:57:15.846Z</time>
      </trkpt>
      <trkpt lat="44.37722" lon="1.57108">
        <ele>261.1</ele>
        <time>2024-11-27T21:58:52.450Z</time>
      </trkpt>
      <trkpt lat="44.37761" lon="1.56975">
        <ele>264.5</ele>
        <time>2024-11-27T21:59:39.217Z</time>
      </trkpt>
      <trkpt lat="44.37784" lon="1.56928">
        <ele>266.5</ele>
        <time>2024-11-27T21:59:56.574Z</time>
      </trkpt>
      <trkpt lat="44.37803" lon="1.56899">
        <ele>267</ele>
        <time>2024-11-27T22:00:08.319Z</time>
      </trkpt>
      <trkpt lat="44.37799" lon="1.56879">
        <ele>267</ele>
        <time>2024-11-27T22:00:12.766Z</time>
      </trkpt>
      <trkpt lat="44.37795" lon="1.56757">
        <ele>268.4</ele>
        <time>2024-11-27T22:00:36.801Z</time>
      </trkpt>
      <trkpt lat="44.37791" lon="1.56719">
        <ele>268.5</ele>
        <time>2024-11-27T22:00:43.774Z</time>
      </trkpt>
      <trkpt lat="44.37783" lon="1.56687">
        <ele>269</ele>
        <time>2024-11-27T22:00:49.707Z</time>
      </trkpt>
      <trkpt lat="44.37774" lon="1.56668">
        <ele>268.9</ele>
        <time>2024-11-27T22:00:53.467Z</time>
      </trkpt>
      <trkpt lat="44.37764" lon="1.56654">
        <ele>268.7</ele>
        <time>2024-11-27T22:00:56.805Z</time>
      </trkpt>
      <trkpt lat="44.37786" lon="1.56574">
        <ele>269</ele>
        <time>2024-11-27T22:01:16.549Z</time>
      </trkpt>
      <trkpt lat="44.37803" lon="1.56497">
        <ele>266.4</ele>
        <time>2024-11-27T22:01:34.099Z</time>
      </trkpt>
      <trkpt lat="44.37834" lon="1.5644">
        <ele>267.1</ele>
        <time>2024-11-27T22:01:48.804Z</time>
      </trkpt>
      <trkpt lat="44.37889" lon="1.56367">
        <ele>267</ele>
        <time>2024-11-27T22:02:09.208Z</time>
      </trkpt>
      <trkpt lat="44.37932" lon="1.56298">
        <ele>263.8</ele>
        <time>2024-11-27T22:02:25.541Z</time>
      </trkpt>
      <trkpt lat="44.37947" lon="1.5628">
        <ele>262.1</ele>
        <time>2024-11-27T22:02:30.202Z</time>
      </trkpt>
      <trkpt lat="44.37992" lon="1.56243">
        <ele>257</ele>
        <time>2024-11-27T22:02:42.862Z</time>
      </trkpt>
      <trkpt lat="44.38014" lon="1.5623">
        <ele>256.1</ele>
        <time>2024-11-27T22:02:48.658Z</time>
      </trkpt>
      <trkpt lat="44.38038" lon="1.56224">
        <ele>256</ele>
        <time>2024-11-27T22:02:54.610Z</time>
      </trkpt>
      <trkpt lat="44.38049" lon="1.56225">
        <ele>256</ele>
        <time>2024-11-27T22:02:57.345Z</time>
      </trkpt>
      <trkpt lat="44.38055" lon="1.56228">
        <ele>256</ele>
        <time>2024-11-27T22:02:59.021Z</time>
      </trkpt>
      <trkpt lat="44.38075" lon="1.56239">
        <ele>255.6</ele>
        <time>2024-11-27T22:03:04.276Z</time>
      </trkpt>
      <trkpt lat="44.38083" lon="1.56249">
        <ele>255</ele>
        <time>2024-11-27T22:03:07.085Z</time>
      </trkpt>
      <trkpt lat="44.3815" lon="1.56359">
        <ele>250.2</ele>
        <time>2024-11-27T22:03:34.765Z</time>
      </trkpt>
      <trkpt lat="44.38169" lon="1.56384">
        <ele>249.9</ele>
        <time>2024-11-27T22:03:42.217Z</time>
      </trkpt>
      <trkpt lat="44.38188" lon="1.56401">
        <ele>251.4</ele>
        <time>2024-11-27T22:03:49.055Z</time>
      </trkpt>
      <trkpt lat="44.38216" lon="1.56335">
        <ele>249.6</ele>
        <time>2024-11-27T22:04:01.719Z</time>
      </trkpt>
      <trkpt lat="44.38222" lon="1.56338">
        <ele>250.3</ele>
        <time>2024-11-27T22:04:04.541Z</time>
      </trkpt>
      <trkpt lat="44.38226" lon="1.56337">
        <ele>250.6</ele>
        <time>2024-11-27T22:04:06.227Z</time>
      </trkpt>
      <trkpt lat="44.38243" lon="1.56317">
        <ele>251.5</ele>
        <time>2024-11-27T22:04:16.500Z</time>
      </trkpt>
      <trkpt lat="44.3832" lon="1.56298">
        <ele>258.4</ele>
        <time>2024-11-27T22:04:55.072Z</time>
      </trkpt>
      <trkpt lat="44.38343" lon="1.56286">
        <ele>260</ele>
        <time>2024-11-27T22:05:07.962Z</time>
      </trkpt>
      <trkpt lat="44.38354" lon="1.56286">
        <ele>260.8</ele>
        <time>2024-11-27T22:05:13.285Z</time>
      </trkpt>
      <trkpt lat="44.38361" lon="1.5629">
        <ele>261.4</ele>
        <time>2024-11-27T22:05:17.339Z</time>
      </trkpt>
      <trkpt lat="44.38407" lon="1.56351">
        <ele>262.1</ele>
        <time>2024-11-27T22:05:44.939Z</time>
      </trkpt>
      <trkpt lat="44.38417" lon="1.5635">
        <ele>262</ele>
        <time>2024-11-27T22:05:49.147Z</time>
      </trkpt>
      <trkpt lat="44.38436" lon="1.56339">
        <ele>261.2</ele>
        <time>2024-11-27T22:05:56.507Z</time>
      </trkpt>
      <trkpt lat="44.3845" lon="1.56339">
        <ele>260.4</ele>
        <time>2024-11-27T22:06:01.598Z</time>
      </trkpt>
      <trkpt lat="44.38478" lon="1.56373">
        <ele>258</ele>
        <time>2024-11-27T22:06:13.554Z</time>
      </trkpt>
      <trkpt lat="44.38533" lon="1.56448">
        <ele>258.1</ele>
        <time>2024-11-27T22:06:38.680Z</time>
      </trkpt>
      <trkpt lat="44.38533" lon="1.56448">
        <ele>258.1</ele>
        <time>2024-11-27T22:06:38.857Z</time>
      </trkpt>
      <trkpt lat="44.38604" lon="1.56562">
        <ele>262.1</ele>
        <time>2024-11-27T22:07:15.063Z</time>
      </trkpt>
      <trkpt lat="44.38619" lon="1.5656">
        <ele>261.7</ele>
        <time>2024-11-27T22:07:19.961Z</time>
      </trkpt>
      <trkpt lat="44.38701" lon="1.56581">
        <ele>259.9</ele>
        <time>2024-11-27T22:07:44.108Z</time>
      </trkpt>
      <trkpt lat="44.38757" lon="1.5659">
        <ele>258.8</ele>
        <time>2024-11-27T22:08:00.192Z</time>
      </trkpt>
      <trkpt lat="44.38772" lon="1.56589">
        <ele>258.8</ele>
        <time>2024-11-27T22:08:04.792Z</time>
      </trkpt>
      <trkpt lat="44.38805" lon="1.56577">
        <ele>259</ele>
        <time>2024-11-27T22:08:14.631Z</time>
      </trkpt>
      <trkpt lat="44.3882" lon="1.56576">
        <ele>259</ele>
        <time>2024-11-27T22:08:19.103Z</time>
      </trkpt>
      <trkpt lat="44.38841" lon="1.56584">
        <ele>259.3</ele>
        <time>2024-11-27T22:08:25.101Z</time>
      </trkpt>
      <trkpt lat="44.38865" lon="1.56598">
        <ele>259.4</ele>
        <time>2024-11-27T22:08:32.225Z</time>
      </trkpt>
      <trkpt lat="44.38884" lon="1.56618">
        <ele>258.8</ele>
        <time>2024-11-27T22:08:38.485Z</time>
      </trkpt>
      <trkpt lat="44.38884" lon="1.56658">
        <ele>256.7</ele>
        <time>2024-11-27T22:08:45.717Z</time>
      </trkpt>
      <trkpt lat="44.38884" lon="1.56658">
        <ele>256.6</ele>
        <time>2024-11-27T22:08:45.772Z</time>
      </trkpt>
      <trkpt lat="44.3888" lon="1.56701">
        <ele>253.5</ele>
        <time>2024-11-27T22:08:53.262Z</time>
      </trkpt>
      <trkpt lat="44.38858" lon="1.56723">
        <ele>252.2</ele>
        <time>2024-11-27T22:08:59.592Z</time>
      </trkpt>
      <trkpt lat="44.38842" lon="1.56768">
        <ele>251</ele>
        <time>2024-11-27T22:09:07.833Z</time>
      </trkpt>
      <trkpt lat="44.38852" lon="1.56786">
        <ele>249</ele>
        <time>2024-11-27T22:09:11.414Z</time>
      </trkpt>
      <trkpt lat="44.38863" lon="1.568">
        <ele>247.3</ele>
        <time>2024-11-27T22:09:14.669Z</time>
      </trkpt>
      <trkpt lat="44.3891" lon="1.56835">
        <ele>240.6</ele>
        <time>2024-11-27T22:09:26.752Z</time>
      </trkpt>
      <trkpt lat="44.38916" lon="1.56845">
        <ele>239.6</ele>
        <time>2024-11-27T22:09:28.928Z</time>
      </trkpt>
      <trkpt lat="44.38924" lon="1.56868">
        <ele>238.7</ele>
        <time>2024-11-27T22:09:32.983Z</time>
      </trkpt>
      <trkpt lat="44.38935" lon="1.56904">
        <ele>236.6</ele>
        <time>2024-11-27T22:09:39.344Z</time>
      </trkpt>
      <trkpt lat="44.38948" lon="1.56935">
        <ele>234.7</ele>
        <time>2024-11-27T22:09:45.357Z</time>
      </trkpt>
      <trkpt lat="44.38964" lon="1.56951">
        <ele>233.6</ele>
        <time>2024-11-27T22:09:49.821Z</time>
      </trkpt>
      <trkpt lat="44.38985" lon="1.56963">
        <ele>231.6</ele>
        <time>2024-11-27T22:09:55.200Z</time>
      </trkpt>
      <trkpt lat="44.39001" lon="1.56963">
        <ele>230.3</ele>
        <time>2024-11-27T22:09:59.071Z</time>
      </trkpt>
      <trkpt lat="44.39072" lon="1.56929">
        <ele>225.7</ele>
        <time>2024-11-27T22:10:17.452Z</time>
      </trkpt>
      <trkpt lat="44.39148" lon="1.56919">
        <ele>221.4</ele>
        <time>2024-11-27T22:10:35.803Z</time>
      </trkpt>
      <trkpt lat="44.39201" lon="1.56925">
        <ele>218</ele>
        <time>2024-11-27T22:10:48.545Z</time>
      </trkpt>
      <trkpt lat="44.3926" lon="1.56918">
        <ele>214.6</ele>
        <time>2024-11-27T22:11:02.504Z</time>
      </trkpt>
      <trkpt lat="44.39274" lon="1.56919">
        <ele>214</ele>
        <time>2024-11-27T22:11:05.836Z</time>
      </trkpt>
      <trkpt lat="44.39305" lon="1.56927">
        <ele>211.9</ele>
        <time>2024-11-27T22:11:13.503Z</time>
      </trkpt>
      <trkpt lat="44.39349" lon="1.56962">
        <ele>209.5</ele>
        <time>2024-11-27T22:11:25.508Z</time>
      </trkpt>
      <trkpt lat="44.39371" lon="1.56972">
        <ele>206.7</ele>
        <time>2024-11-27T22:11:30.896Z</time>
      </trkpt>
      <trkpt lat="44.39394" lon="1.56971">
        <ele>206</ele>
        <time>2024-11-27T22:11:36.139Z</time>
      </trkpt>
      <trkpt lat="44.39442" lon="1.56953">
        <ele>204.1</ele>
        <time>2024-11-27T22:11:47.709Z</time>
      </trkpt>
      <trkpt lat="44.39467" lon="1.56949">
        <ele>202.6</ele>
        <time>2024-11-27T22:11:53.511Z</time>
      </trkpt>
      <trkpt lat="44.39489" lon="1.56956">
        <ele>201.9</ele>
        <time>2024-11-27T22:11:58.886Z</time>
      </trkpt>
      <trkpt lat="44.39527" lon="1.5698">
        <ele>197.7</ele>
        <time>2024-11-27T22:12:08.948Z</time>
      </trkpt>
      <trkpt lat="44.39556" lon="1.56972">
        <ele>196.3</ele>
        <time>2024-11-27T22:12:16.445Z</time>
      </trkpt>
      <trkpt lat="44.39563" lon="1.56985">
        <ele>197.4</ele>
        <time>2024-11-27T22:12:19.144Z</time>
      </trkpt>
      <trkpt lat="44.39576" lon="1.57028">
        <ele>195.7</ele>
        <time>2024-11-27T22:12:27.533Z</time>
      </trkpt>
      <trkpt lat="44.39597" lon="1.57082">
        <ele>195.6</ele>
        <time>2024-11-27T22:12:38.555Z</time>
      </trkpt>
      <trkpt lat="44.39644" lon="1.57171">
        <ele>194.5</ele>
        <time>2024-11-27T22:12:58.381Z</time>
      </trkpt>
      <trkpt lat="44.39676" lon="1.57244">
        <ele>195</ele>
        <time>2024-11-27T22:13:13.908Z</time>
      </trkpt>
      <trkpt lat="44.39686" lon="1.57277">
        <ele>193.5</ele>
        <time>2024-11-27T22:13:20.696Z</time>
      </trkpt>
      <trkpt lat="44.39692" lon="1.57288">
        <ele>192.9</ele>
        <time>2024-11-27T22:13:23.345Z</time>
      </trkpt>
      <trkpt lat="44.397" lon="1.57291">
        <ele>192.3</ele>
        <time>2024-11-27T22:13:25.576Z</time>
      </trkpt>
      <trkpt lat="44.39726" lon="1.5729">
        <ele>191.5</ele>
        <time>2024-11-27T22:13:32.921Z</time>
      </trkpt>
      <trkpt lat="44.39753" lon="1.5728">
        <ele>190.9</ele>
        <time>2024-11-27T22:13:40.872Z</time>
      </trkpt>
      <trkpt lat="44.39777" lon="1.57284">
        <ele>190.7</ele>
        <time>2024-11-27T22:13:47.930Z</time>
      </trkpt>
      <trkpt lat="44.39793" lon="1.57296">
        <ele>190.9</ele>
        <time>2024-11-27T22:13:53.544Z</time>
      </trkpt>
      <trkpt lat="44.39814" lon="1.5732">
        <ele>190</ele>
        <time>2024-11-27T22:14:02.950Z</time>
      </trkpt>
      <trkpt lat="44.39828" lon="1.57332">
        <ele>189.3</ele>
        <time>2024-11-27T22:14:08.969Z</time>
      </trkpt>
      <trkpt lat="44.39876" lon="1.57361">
        <ele>190.1</ele>
        <time>2024-11-27T22:14:29.402Z</time>
      </trkpt>
      <trkpt lat="44.39897" lon="1.57352">
        <ele>190</ele>
        <time>2024-11-27T22:14:38.889Z</time>
      </trkpt>
      <trkpt lat="44.39908" lon="1.57353">
        <ele>190.1</ele>
        <time>2024-11-27T22:14:43.872Z</time>
      </trkpt>
      <trkpt lat="44.39937" lon="1.57368">
        <ele>189.5</ele>
        <time>2024-11-27T22:14:57.898Z</time>
      </trkpt>
      <trkpt lat="44.39993" lon="1.57404">
        <ele>189.8</ele>
        <time>2024-11-27T22:15:27.386Z</time>
      </trkpt>
      <trkpt lat="44.40034" lon="1.5742">
        <ele>187.8</ele>
        <time>2024-11-27T22:15:43.565Z</time>
      </trkpt>
      <trkpt lat="44.40068" lon="1.57423">
        <ele>189.3</ele>
        <time>2024-11-27T22:15:58.765Z</time>
      </trkpt>
      <trkpt lat="44.40109" lon="1.57422">
        <ele>194.5</ele>
        <time>2024-11-27T22:16:21.335Z</time>
      </trkpt>
      <trkpt lat="44.40128" lon="1.57399">
        <ele>199.6</ele>
        <time>2024-11-27T22:16:36.783Z</time>
      </trkpt>
      <trkpt lat="44.40141" lon="1.57378">
        <ele>202.3</ele>
        <time>2024-11-27T22:16:49.924Z</time>
      </trkpt>
      <trkpt lat="44.40152" lon="1.5734">
        <ele>206.5</ele>
        <time>2024-11-27T22:17:10.575Z</time>
      </trkpt>
      <trkpt lat="44.40161" lon="1.57298">
        <ele>209.6</ele>
        <time>2024-11-27T22:17:34.461Z</time>
      </trkpt>
      <trkpt lat="44.40166" lon="1.57216">
        <ele>211.5</ele>
        <time>2024-11-27T22:18:27.339Z</time>
      </trkpt>
      <trkpt lat="44.40177" lon="1.57188">
        <ele>213.4</ele>
        <time>2024-11-27T22:18:45.930Z</time>
      </trkpt>
      <trkpt lat="44.40168" lon="1.57135">
        <ele>218.5</ele>
        <time>2024-11-27T22:19:15.666Z</time>
      </trkpt>
      <trkpt lat="44.40169" lon="1.57114">
        <ele>220.9</ele>
        <time>2024-11-27T22:19:26.334Z</time>
      </trkpt>
      <trkpt lat="44.40179" lon="1.57093">
        <ele>223.4</ele>
        <time>2024-11-27T22:19:39.353Z</time>
      </trkpt>
      <trkpt lat="44.40202" lon="1.57055">
        <ele>226.8</ele>
        <time>2024-11-27T22:20:03.407Z</time>
      </trkpt>
      <trkpt lat="44.40231" lon="1.57018">
        <ele>231.2</ele>
        <time>2024-11-27T22:20:29.022Z</time>
      </trkpt>
      <trkpt lat="44.40274" lon="1.56972">
        <ele>235.9</ele>
        <time>2024-11-27T22:21:01.875Z</time>
      </trkpt>
      <trkpt lat="44.40303" lon="1.56928">
        <ele>237.6</ele>
        <time>2024-11-27T22:21:25.022Z</time>
      </trkpt>
      <trkpt lat="44.40303" lon="1.56928">
        <ele>237.6</ele>
        <time>2024-11-27T22:21:25.034Z</time>
      </trkpt>
      <trkpt lat="44.40319" lon="1.569">
        <ele>238.3</ele>
        <time>2024-11-27T22:21:37.984Z</time>
      </trkpt>
      <trkpt lat="44.4033" lon="1.56869">
        <ele>238.1</ele>
        <time>2024-11-27T22:21:49.913Z</time>
      </trkpt>
      <trkpt lat="44.40333" lon="1.56853">
        <ele>238</ele>
        <time>2024-11-27T22:21:55.463Z</time>
      </trkpt>
      <trkpt lat="44.4032" lon="1.56841">
        <ele>238.9</ele>
        <time>2024-11-27T22:22:02.692Z</time>
      </trkpt>
      <trkpt lat="44.40196" lon="1.5665">
        <ele>243.3</ele>
      </trkpt>
      <trkpt lat="44.40083" lon="1.56521">
        <ele>244.8</ele>
      </trkpt>
      <trkpt lat="44.39988" lon="1.56396">
        <ele>251.9</ele>
      </trkpt>
      <trkpt lat="44.39884" lon="1.56263">
        <ele>256.9</ele>
      </trkpt>
      <trkpt lat="44.39804" lon="1.56129">
        <ele>252.6</ele>
        <time>2024-11-27T22:26:49.035Z</time>
      </trkpt>
      <trkpt lat="44.39847" lon="1.56077">
        <ele>250.3</ele>
        <time>2024-11-27T22:27:04.712Z</time>
      </trkpt>
      <trkpt lat="44.39921" lon="1.55997">
        <ele>242.7</ele>
        <time>2024-11-27T22:27:27.890Z</time>
      </trkpt>
      <trkpt lat="44.40029" lon="1.55861">
        <ele>233.9</ele>
        <time>2024-11-27T22:28:03.012Z</time>
      </trkpt>
      <trkpt lat="44.40064" lon="1.5583">
        <ele>231</ele>
        <time>2024-11-27T22:28:13.394Z</time>
      </trkpt>
      <trkpt lat="44.40093" lon="1.559">
        <ele>229.1</ele>
        <time>2024-11-27T22:28:28.426Z</time>
      </trkpt>
      <trkpt lat="44.40112" lon="1.55935">
        <ele>228</ele>
        <time>2024-11-27T22:28:37.025Z</time>
      </trkpt>
      <trkpt lat="44.40129" lon="1.5596">
        <ele>228</ele>
        <time>2024-11-27T22:28:44.438Z</time>
      </trkpt>
      <trkpt lat="44.40174" lon="1.56014">
        <ele>226.9</ele>
        <time>2024-11-27T22:29:04.059Z</time>
      </trkpt>
      <trkpt lat="44.40227" lon="1.55836">
        <ele>233.3</ele>
        <time>2024-11-27T22:30:08.855Z</time>
      </trkpt>
      <trkpt lat="44.40276" lon="1.55785">
        <ele>237.8</ele>
        <time>2024-11-27T22:30:43.908Z</time>
      </trkpt>
      <trkpt lat="44.40285" lon="1.55782">
        <ele>238.7</ele>
        <time>2024-11-27T22:30:49.115Z</time>
      </trkpt>
      <trkpt lat="44.40324" lon="1.55787">
        <ele>242.6</ele>
        <time>2024-11-27T22:31:13.205Z</time>
      </trkpt>
      <trkpt lat="44.40367" lon="1.55788">
        <ele>246.4</ele>
        <time>2024-11-27T22:31:40.848Z</time>
      </trkpt>
      <trkpt lat="44.40389" lon="1.558">
        <ele>248</ele>
        <time>2024-11-27T22:31:55.842Z</time>
      </trkpt>
      <trkpt lat="44.40436" lon="1.55784">
        <ele>252.2</ele>
        <time>2024-11-27T22:32:25.592Z</time>
      </trkpt>
      <trkpt lat="44.40461" lon="1.5578">
        <ele>253.5</ele>
        <time>2024-11-27T22:32:40.263Z</time>
      </trkpt>
      <trkpt lat="44.40502" lon="1.55763">
        <ele>254.5</ele>
        <time>2024-11-27T22:33:01.584Z</time>
      </trkpt>
      <trkpt lat="44.40518" lon="1.5576">
        <ele>254</ele>
        <time>2024-11-27T22:33:08.994Z</time>
      </trkpt>
      <trkpt lat="44.40528" lon="1.55755">
        <ele>253.8</ele>
        <time>2024-11-27T22:33:13.075Z</time>
      </trkpt>
      <trkpt lat="44.40534" lon="1.55749">
        <ele>254</ele>
        <time>2024-11-27T22:33:15.985Z</time>
      </trkpt>
      <trkpt lat="44.4054" lon="1.55753">
        <ele>253.9</ele>
        <time>2024-11-27T22:33:18.472Z</time>
      </trkpt>
      <trkpt lat="44.40551" lon="1.55721">
        <ele>254.2</ele>
        <time>2024-11-27T22:33:24.256Z</time>
      </trkpt>
      <trkpt lat="44.40593" lon="1.55617">
        <ele>252.3</ele>
        <time>2024-11-27T22:33:38.316Z</time>
      </trkpt>
      <trkpt lat="44.406" lon="1.55628">
        <ele>251.8</ele>
        <time>2024-11-27T22:33:41.037Z</time>
      </trkpt>
      <trkpt lat="44.40619" lon="1.55648">
        <ele>250.4</ele>
        <time>2024-11-27T22:33:47.018Z</time>
      </trkpt>
      <trkpt lat="44.4067" lon="1.55693">
        <ele>246.7</ele>
        <time>2024-11-27T22:34:01.718Z</time>
      </trkpt>
      <trkpt lat="44.40704" lon="1.55711">
        <ele>244.3</ele>
        <time>2024-11-27T22:34:10.773Z</time>
      </trkpt>
      <trkpt lat="44.40741" lon="1.5571">
        <ele>241.6</ele>
        <time>2024-11-27T22:34:19.977Z</time>
      </trkpt>
      <trkpt lat="44.40772" lon="1.55724">
        <ele>240.2</ele>
        <time>2024-11-27T22:34:27.991Z</time>
      </trkpt>
      <trkpt lat="44.40898" lon="1.55763">
        <ele>237.1</ele>
        <time>2024-11-27T22:35:01.070Z</time>
      </trkpt>
      <trkpt lat="44.41" lon="1.55816">
        <ele>234.4</ele>
        <time>2024-11-27T22:35:28.333Z</time>
      </trkpt>
      <trkpt lat="44.41024" lon="1.55804">
        <ele>233</ele>
        <time>2024-11-27T22:35:34.572Z</time>
      </trkpt>
      <trkpt lat="44.41079" lon="1.55766">
        <ele>228.8</ele>
        <time>2024-11-27T22:35:49.313Z</time>
      </trkpt>
      <trkpt lat="44.41123" lon="1.55723">
        <ele>225</ele>
        <time>2024-11-27T22:36:02.042Z</time>
      </trkpt>
      <trkpt lat="44.4113" lon="1.55711">
        <ele>224</ele>
        <time>2024-11-27T22:36:04.672Z</time>
      </trkpt>
      <trkpt lat="44.41133" lon="1.55684">
        <ele>222.9</ele>
        <time>2024-11-27T22:36:09.279Z</time>
      </trkpt>
      <trkpt lat="44.4114" lon="1.55678">
        <ele>223.1</ele>
        <time>2024-11-27T22:36:11.149Z</time>
      </trkpt>
      <trkpt lat="44.4115" lon="1.55684">
        <ele>221.9</ele>
        <time>2024-11-27T22:36:13.696Z</time>
      </trkpt>
      <trkpt lat="44.41164" lon="1.55698">
        <ele>219.6</ele>
        <time>2024-11-27T22:36:17.798Z</time>
      </trkpt>
      <trkpt lat="44.41197" lon="1.55708">
        <ele>216.3</ele>
        <time>2024-11-27T22:36:25.694Z</time>
      </trkpt>
      <trkpt lat="44.41234" lon="1.55714">
        <ele>212.5</ele>
        <time>2024-11-27T22:36:34.161Z</time>
      </trkpt>
      <trkpt lat="44.4132" lon="1.55757">
        <ele>204</ele>
        <time>2024-11-27T22:36:54.641Z</time>
      </trkpt>
      <trkpt lat="44.41337" lon="1.55765">
        <ele>202.6</ele>
        <time>2024-11-27T22:36:58.754Z</time>
      </trkpt>
      <trkpt lat="44.41403" lon="1.55783">
        <ele>196.4</ele>
        <time>2024-11-27T22:37:13.317Z</time>
      </trkpt>
      <trkpt lat="44.41428" lon="1.55794">
        <ele>193.8</ele>
        <time>2024-11-27T22:37:19.131Z</time>
      </trkpt>
      <trkpt lat="44.41445" lon="1.55806">
        <ele>191.1</ele>
        <time>2024-11-27T22:37:23.302Z</time>
      </trkpt>
      <trkpt lat="44.41515" lon="1.55805">
        <ele>184.9</ele>
        <time>2024-11-27T22:37:39.579Z</time>
      </trkpt>
      <trkpt lat="44.4157" lon="1.55809">
        <ele>182.4</ele>
        <time>2024-11-27T22:37:56.691Z</time>
      </trkpt>
      <trkpt lat="44.4157" lon="1.55809">
        <ele>182.4</ele>
      </trkpt>
      <trkpt lat="44.41565" lon="1.55774">
        <ele>182.7</ele>
      </trkpt>
      <trkpt lat="44.41561" lon="1.5573">
        <ele>184</ele>
      </trkpt>
      <trkpt lat="44.41554" lon="1.55698">
        <ele>183.1</ele>
      </trkpt>
      <trkpt lat="44.4153" lon="1.55604">
        <ele>185</ele>
      </trkpt>
      <trkpt lat="44.4153" lon="1.55565">
        <ele>185.9</ele>
      </trkpt>
      <trkpt lat="44.41563" lon="1.554">
        <ele>191</ele>
      </trkpt>
      <trkpt lat="44.41558" lon="1.55359">
        <ele>188.5</ele>
      </trkpt>
      <trkpt lat="44.41534" lon="1.55287">
        <ele>191.8</ele>
      </trkpt>
      <trkpt lat="44.41491" lon="1.55204">
        <ele>194</ele>
      </trkpt>
      <trkpt lat="44.41422" lon="1.55127">
        <ele>197.3</ele>
      </trkpt>
      <trkpt lat="44.41387" lon="1.55099">
        <ele>199.5</ele>
      </trkpt>
      <trkpt lat="44.41373" lon="1.55086">
        <ele>199.9</ele>
      </trkpt>
      <trkpt lat="44.41349" lon="1.55043">
        <ele>203.3</ele>
      </trkpt>
      <trkpt lat="44.41333" lon="1.55029">
        <ele>201.2</ele>
      </trkpt>
      <trkpt lat="44.4133" lon="1.54973">
        <ele>204.7</ele>
      </trkpt>
      <trkpt lat="44.41324" lon="1.54923">
        <ele>207.8</ele>
      </trkpt>
      <trkpt lat="44.41325" lon="1.54879">
        <ele>210</ele>
      </trkpt>
      <trkpt lat="44.4132" lon="1.54834">
        <ele>212.9</ele>
      </trkpt>
      <trkpt lat="44.41307" lon="1.54741">
        <ele>218</ele>
      </trkpt>
      <trkpt lat="44.41315" lon="1.54731">
        <ele>218</ele>
      </trkpt>
      <trkpt lat="44.41321" lon="1.54727">
        <ele>218</ele>
      </trkpt>
      <trkpt lat="44.41343" lon="1.54727">
        <ele>219</ele>
      </trkpt>
      <trkpt lat="44.41357" lon="1.54707">
        <ele>220.5</ele>
      </trkpt>
      <trkpt lat="44.41365" lon="1.54685">
        <ele>221.4</ele>
      </trkpt>
      <trkpt lat="44.41369" lon="1.54668">
        <ele>221.5</ele>
      </trkpt>
      <trkpt lat="44.41367" lon="1.54658">
        <ele>221.7</ele>
      </trkpt>
      <trkpt lat="44.41336" lon="1.54575">
        <ele>225.7</ele>
      </trkpt>
      <trkpt lat="44.41331" lon="1.54521">
        <ele>227.4</ele>
      </trkpt>
      <trkpt lat="44.41333" lon="1.5452">
        <ele>227.4</ele>
      </trkpt>
      <trkpt lat="44.41374" lon="1.54505">
        <ele>230.7</ele>
      </trkpt>
      <trkpt lat="44.41442" lon="1.54446">
        <ele>234.9</ele>
      </trkpt>
      <trkpt lat="44.41525" lon="1.54353">
        <ele>238.7</ele>
      </trkpt>
      <trkpt lat="44.41566" lon="1.54318">
        <ele>241.1</ele>
      </trkpt>
      <trkpt lat="44.41634" lon="1.54272">
        <ele>245</ele>
      </trkpt>
      <trkpt lat="44.41658" lon="1.54256">
        <ele>247.2</ele>
      </trkpt>
      <trkpt lat="44.4166" lon="1.54252">
        <ele>247.4</ele>
      </trkpt>
      <trkpt lat="44.41665" lon="1.54244">
        <ele>247.9</ele>
      </trkpt>
      <trkpt lat="44.41668" lon="1.54241">
        <ele>248</ele>
        <time>2024-11-27T22:52:33.658Z</time>
      </trkpt>
      <trkpt lat="44.41678" lon="1.54228">
        <ele>248.4</ele>
        <time>2024-11-27T22:52:35.895Z</time>
      </trkpt>
      <trkpt lat="44.41708" lon="1.54158">
        <ele>249.7</ele>
        <time>2024-11-27T22:52:45.541Z</time>
      </trkpt>
      <trkpt lat="44.41731" lon="1.54112">
        <ele>247.7</ele>
        <time>2024-11-27T22:52:53.212Z</time>
      </trkpt>
      <trkpt lat="44.41745" lon="1.54086">
        <ele>245.6</ele>
        <time>2024-11-27T22:52:58.049Z</time>
      </trkpt>
      <trkpt lat="44.41643" lon="1.53985">
        <ele>251.3</ele>
      </trkpt>
      <trkpt lat="44.4159" lon="1.53942">
        <ele>251.3</ele>
      </trkpt>
      <trkpt lat="44.4144" lon="1.5379">
        <ele>253.8</ele>
        <time>2024-11-27T22:54:30.036Z</time>
      </trkpt>
      <trkpt lat="44.41485" lon="1.53692">
        <ele>253.5</ele>
        <time>2024-11-27T22:54:48.339Z</time>
      </trkpt>
      <trkpt lat="44.41577" lon="1.53524">
        <ele>250.7</ele>
        <time>2024-11-27T22:55:12.838Z</time>
      </trkpt>
      <trkpt lat="44.41616" lon="1.53453">
        <ele>248.9</ele>
        <time>2024-11-27T22:55:22.150Z</time>
      </trkpt>
      <trkpt lat="44.41644" lon="1.53401">
        <ele>248.1</ele>
        <time>2024-11-27T22:55:29.193Z</time>
      </trkpt>
      <trkpt lat="44.41669" lon="1.5333">
        <ele>249.1</ele>
        <time>2024-11-27T22:55:38.656Z</time>
      </trkpt>
      <trkpt lat="44.41673" lon="1.53307">
        <ele>249.4</ele>
        <time>2024-11-27T22:55:41.796Z</time>
      </trkpt>
      <trkpt lat="44.41702" lon="1.53041">
        <ele>249.9</ele>
        <time>2024-11-27T22:56:28.244Z</time>
      </trkpt>
      <trkpt lat="44.41626" lon="1.52899">
        <ele>247.9</ele>
        <time>2024-11-27T22:56:50.366Z</time>
      </trkpt>
      <trkpt lat="44.41605" lon="1.52871">
        <ele>247.7</ele>
        <time>2024-11-27T22:56:55.993Z</time>
      </trkpt>
      <trkpt lat="44.41564" lon="1.52829">
        <ele>248.5</ele>
        <time>2024-11-27T22:57:06.720Z</time>
      </trkpt>
      <trkpt lat="44.41561" lon="1.52823">
        <ele>248.6</ele>
        <time>2024-11-27T22:57:08.008Z</time>
      </trkpt>
      <trkpt lat="44.41562" lon="1.52814">
        <ele>248.9</ele>
        <time>2024-11-27T22:57:09.529Z</time>
      </trkpt>
      <trkpt lat="44.41583" lon="1.52767">
        <ele>250.6</ele>
        <time>2024-11-27T22:57:18.201Z</time>
      </trkpt>
      <trkpt lat="44.41623" lon="1.52688">
        <ele>248.5</ele>
        <time>2024-11-27T22:57:31.435Z</time>
      </trkpt>
      <trkpt lat="44.41643" lon="1.52646">
        <ele>246.9</ele>
        <time>2024-11-27T22:57:37.294Z</time>
      </trkpt>
      <trkpt lat="44.41647" lon="1.5263">
        <ele>246.7</ele>
        <time>2024-11-27T22:57:39.224Z</time>
      </trkpt>
      <trkpt lat="44.41648" lon="1.52605">
        <ele>246.3</ele>
        <time>2024-11-27T22:57:41.967Z</time>
      </trkpt>
      <trkpt lat="44.41642" lon="1.52557">
        <ele>246.2</ele>
        <time>2024-11-27T22:57:47.195Z</time>
      </trkpt>
      <trkpt lat="44.41612" lon="1.52393">
        <ele>243</ele>
        <time>2024-11-27T22:58:04.985Z</time>
      </trkpt>
      <trkpt lat="44.41609" lon="1.5236">
        <ele>241.4</ele>
        <time>2024-11-27T22:58:08.452Z</time>
      </trkpt>
      <trkpt lat="44.41607" lon="1.52314">
        <ele>239.3</ele>
        <time>2024-11-27T22:58:13.236Z</time>
      </trkpt>
      <trkpt lat="44.4161" lon="1.52256">
        <ele>236.8</ele>
        <time>2024-11-27T22:58:19.072Z</time>
      </trkpt>
      <trkpt lat="44.41609" lon="1.52224">
        <ele>234.6</ele>
        <time>2024-11-27T22:58:22.355Z</time>
      </trkpt>
      <trkpt lat="44.41604" lon="1.52096">
        <ele>229.1</ele>
        <time>2024-11-27T22:58:35.137Z</time>
      </trkpt>
      <trkpt lat="44.41606" lon="1.52091">
        <ele>229.7</ele>
        <time>2024-12-03T13:59:27Z</time>
      </trkpt>
      <trkpt lat="44.41606" lon="1.52091">
        <ele>229.7</ele>
        <time>2024-12-03T13:59:26Z</time>
      </trkpt>
      <trkpt lat="44.41606" lon="1.52092">
        <ele>229.7</ele>
        <time>2024-12-03T13:59:25Z</time>
      </trkpt>
      <trkpt lat="44.41606" lon="1.52092">
        <ele>229.7</ele>
        <time>2024-12-03T13:59:24Z</time>
      </trkpt>
      <trkpt lat="44.41606" lon="1.52092">
        <ele>229.7</ele>
        <time>2024-12-03T13:59:22Z</time>
      </trkpt>
      <trkpt lat="44.41606" lon="1.52092">
        <ele>229.7</ele>
        <time>2024-12-03T13:59:21Z</time>
      </trkpt>
      <trkpt lat="44.41606" lon="1.52092">
        <ele>229.7</ele>
        <time>2024-12-03T13:59:20Z</time>
      </trkpt>
      <trkpt lat="44.41606" lon="1.52092">
        <ele>229.8</ele>
        <time>2024-12-03T13:59:18Z</time>
      </trkpt>
      <trkpt lat="44.41607" lon="1.52092">
        <ele>229.8</ele>
        <time>2024-12-03T13:59:17Z</time>
      </trkpt>
      <trkpt lat="44.41607" lon="1.52092">
        <ele>229.9</ele>
        <time>2024-12-03T13:59:16Z</time>
      </trkpt>
      <trkpt lat="44.41607" lon="1.52092">
        <ele>229.9</ele>
        <time>2024-12-03T13:59:15Z</time>
      </trkpt>
      <trkpt lat="44.41607" lon="1.52092">
        <ele>229.9</ele>
        <time>2024-12-03T13:59:14Z</time>
      </trkpt>
      <trkpt lat="44.41607" lon="1.52091">
        <ele>229.8</ele>
        <time>2024-12-03T13:59:13Z</time>
      </trkpt>
      <trkpt lat="44.41606" lon="1.52092">
        <ele>229.8</ele>
        <time>2024-12-03T13:59:12Z</time>
      </trkpt>
      <trkpt lat="44.41607" lon="1.52093">
        <ele>230</ele>
        <time>2024-12-03T13:59:10Z</time>
      </trkpt>
      <trkpt lat="44.41608" lon="1.52093">
        <ele>230.3</ele>
        <time>2024-12-03T13:59:09Z</time>
      </trkpt>
      <trkpt lat="44.41609" lon="1.52093">
        <ele>230.4</ele>
        <time>2024-12-03T13:59:08Z</time>
      </trkpt>
      <trkpt lat="44.4161" lon="1.52092">
        <ele>230.6</ele>
        <time>2024-12-03T13:59:07Z</time>
      </trkpt>
      <trkpt lat="44.4161" lon="1.52091">
        <ele>230.8</ele>
        <time>2024-12-03T13:59:06Z</time>
      </trkpt>
      <trkpt lat="44.41612" lon="1.5209">
        <ele>231</ele>
        <time>2024-12-03T13:59:05Z</time>
      </trkpt>
      <trkpt lat="44.41613" lon="1.52091">
        <ele>231</ele>
        <time>2024-12-03T13:59:04Z</time>
      </trkpt>
      <trkpt lat="44.41614" lon="1.52091">
        <ele>231</ele>
        <time>2024-12-03T13:59:03Z</time>
      </trkpt>
      <trkpt lat="44.41614" lon="1.52092">
        <ele>231</ele>
        <time>2024-12-03T13:59:02Z</time>
      </trkpt>
      <trkpt lat="44.41614" lon="1.52093">
        <ele>231</ele>
        <time>2024-12-03T13:59:01Z</time>
      </trkpt>
      <trkpt lat="44.41615" lon="1.52093">
        <ele>231</ele>
        <time>2024-12-03T13:59:00Z</time>
      </trkpt>
      <trkpt lat="44.41615" lon="1.52094">
        <ele>231.1</ele>
        <time>2024-12-03T13:58:59Z</time>
      </trkpt>
      <trkpt lat="44.41616" lon="1.52095">
        <ele>231.1</ele>
        <time>2024-12-03T13:58:58Z</time>
      </trkpt>
      <trkpt lat="44.41617" lon="1.52096">
        <ele>231.1</ele>
        <time>2024-12-03T13:58:57Z</time>
      </trkpt>
      <trkpt lat="44.41618" lon="1.52098">
        <ele>231.1</ele>
        <time>2024-12-03T13:58:56Z</time>
      </trkpt>
      <trkpt lat="44.41618" lon="1.52099">
        <ele>231.1</ele>
        <time>2024-12-03T13:58:55Z</time>
      </trkpt>
      <trkpt lat="44.41619" lon="1.521">
        <ele>231.2</ele>
        <time>2024-12-03T13:58:54Z</time>
      </trkpt>
      <trkpt lat="44.41619" lon="1.52103">
        <ele>231.2</ele>
        <time>2024-12-03T13:58:53Z</time>
      </trkpt>
      <trkpt lat="44.41619" lon="1.52105">
        <ele>231.2</ele>
        <time>2024-12-03T13:58:52Z</time>
      </trkpt>
      <trkpt lat="44.41619" lon="1.52107">
        <ele>231.2</ele>
        <time>2024-12-03T13:58:50Z</time>
      </trkpt>
      <trkpt lat="44.4162" lon="1.52108">
        <ele>231.3</ele>
        <time>2024-12-03T13:58:49Z</time>
      </trkpt>
      <trkpt lat="44.41621" lon="1.52109">
        <ele>231.3</ele>
        <time>2024-12-03T13:58:48Z</time>
      </trkpt>
      <trkpt lat="44.41621" lon="1.52111">
        <ele>231.4</ele>
        <time>2024-12-03T13:58:47Z</time>
      </trkpt>
      <trkpt lat="44.41622" lon="1.52111">
        <ele>231.4</ele>
        <time>2024-12-03T13:58:46Z</time>
      </trkpt>
      <trkpt lat="44.41622" lon="1.52113">
        <ele>231.5</ele>
        <time>2024-12-03T13:58:45Z</time>
      </trkpt>
      <trkpt lat="44.41622" lon="1.52114">
        <ele>231.5</ele>
        <time>2024-12-03T13:58:44Z</time>
      </trkpt>
      <trkpt lat="44.41622" lon="1.52115">
        <ele>231.5</ele>
        <time>2024-12-03T13:58:43Z</time>
      </trkpt>
      <trkpt lat="44.41622" lon="1.52116">
        <ele>231.6</ele>
        <time>2024-12-03T13:58:42Z</time>
      </trkpt>
      <trkpt lat="44.41623" lon="1.52118">
        <ele>231.7</ele>
        <time>2024-12-03T13:58:41Z</time>
      </trkpt>
      <trkpt lat="44.41623" lon="1.5212">
        <ele>231.7</ele>
        <time>2024-12-03T13:58:40Z</time>
      </trkpt>
      <trkpt lat="44.41624" lon="1.5212">
        <ele>231.8</ele>
        <time>2024-12-03T13:58:39Z</time>
      </trkpt>
      <trkpt lat="44.41625" lon="1.5212">
        <ele>231.8</ele>
        <time>2024-12-03T13:58:38Z</time>
      </trkpt>
      <trkpt lat="44.41626" lon="1.52121">
        <ele>231.9</ele>
        <time>2024-12-03T13:58:37Z</time>
      </trkpt>
      <trkpt lat="44.41627" lon="1.52121">
        <ele>231.9</ele>
        <time>2024-12-03T13:58:36Z</time>
      </trkpt>
      <trkpt lat="44.41628" lon="1.52121">
        <ele>232</ele>
        <time>2024-12-03T13:58:35Z</time>
      </trkpt>
      <trkpt lat="44.41629" lon="1.52121">
        <ele>232</ele>
        <time>2024-12-03T13:58:34Z</time>
      </trkpt>
      <trkpt lat="44.4163" lon="1.52121">
        <ele>232.1</ele>
        <time>2024-12-03T13:58:33Z</time>
      </trkpt>
      <trkpt lat="44.41631" lon="1.52122">
        <ele>232.1</ele>
        <time>2024-12-03T13:58:32Z</time>
      </trkpt>
      <trkpt lat="44.41631" lon="1.52122">
        <ele>232.1</ele>
        <time>2024-12-03T13:58:31Z</time>
      </trkpt>
      <trkpt lat="44.41632" lon="1.52121">
        <ele>232.1</ele>
        <time>2024-12-03T13:58:30Z</time>
      </trkpt>
      <trkpt lat="44.41633" lon="1.52121">
        <ele>232.2</ele>
        <time>2024-12-03T13:58:29Z</time>
      </trkpt>
      <trkpt lat="44.41634" lon="1.52121">
        <ele>232.2</ele>
        <time>2024-12-03T13:58:28Z</time>
      </trkpt>
      <trkpt lat="44.41635" lon="1.52122">
        <ele>232.2</ele>
        <time>2024-12-03T13:58:27Z</time>
      </trkpt>
      <trkpt lat="44.41635" lon="1.52122">
        <ele>232.3</ele>
        <time>2024-12-03T13:58:26Z</time>
      </trkpt>
      <trkpt lat="44.41636" lon="1.52123">
        <ele>232.3</ele>
        <time>2024-12-03T13:58:25Z</time>
      </trkpt>
      <trkpt lat="44.41637" lon="1.52123">
        <ele>232.4</ele>
        <time>2024-12-03T13:58:24Z</time>
      </trkpt>
      <trkpt lat="44.41639" lon="1.52123">
        <ele>232.4</ele>
        <time>2024-12-03T13:58:23Z</time>
      </trkpt>
      <trkpt lat="44.4164" lon="1.52124">
        <ele>232.3</ele>
        <time>2024-12-03T13:58:22Z</time>
      </trkpt>
      <trkpt lat="44.41641" lon="1.52124">
        <ele>232.3</ele>
        <time>2024-12-03T13:58:21Z</time>
      </trkpt>
      <trkpt lat="44.41642" lon="1.52124">
        <ele>232.2</ele>
        <time>2024-12-03T13:58:20Z</time>
      </trkpt>
      <trkpt lat="44.41642" lon="1.52124">
        <ele>232.2</ele>
        <time>2024-12-03T13:58:19Z</time>
      </trkpt>
      <trkpt lat="44.41641" lon="1.52124">
        <ele>232.2</ele>
        <time>2024-12-03T13:58:18Z</time>
      </trkpt>
      <trkpt lat="44.41641" lon="1.52124">
        <ele>232.2</ele>
        <time>2024-12-03T13:58:17Z</time>
      </trkpt>
      <trkpt lat="44.41641" lon="1.52124">
        <ele>232.2</ele>
        <time>2024-12-03T13:58:16Z</time>
      </trkpt>
      <trkpt lat="44.41641" lon="1.52124">
        <ele>232.2</ele>
        <time>2024-12-03T13:58:15Z</time>
      </trkpt>
      <trkpt lat="44.41642" lon="1.52123">
        <ele>232.2</ele>
        <time>2024-12-03T13:58:14Z</time>
      </trkpt>
      <trkpt lat="44.41643" lon="1.52123">
        <ele>232.1</ele>
        <time>2024-12-03T13:58:13Z</time>
      </trkpt>
      <trkpt lat="44.41643" lon="1.52124">
        <ele>232</ele>
        <time>2024-12-03T13:58:12Z</time>
      </trkpt>
      <trkpt lat="44.41645" lon="1.52126">
        <ele>232</ele>
        <time>2024-12-03T13:58:10Z</time>
      </trkpt>
      <trkpt lat="44.41646" lon="1.52127">
        <ele>232</ele>
        <time>2024-12-03T13:58:09Z</time>
      </trkpt>
      <trkpt lat="44.41647" lon="1.52129">
        <ele>232</ele>
        <time>2024-12-03T13:58:08Z</time>
      </trkpt>
      <trkpt lat="44.41647" lon="1.5213">
        <ele>232</ele>
        <time>2024-12-03T13:58:07Z</time>
      </trkpt>
      <trkpt lat="44.41647" lon="1.5213">
        <ele>232</ele>
        <time>2024-12-03T13:58:06Z</time>
      </trkpt>
      <trkpt lat="44.41648" lon="1.52131">
        <ele>232</ele>
        <time>2024-12-03T13:58:05Z</time>
      </trkpt>
      <trkpt lat="44.41648" lon="1.52132">
        <ele>232</ele>
        <time>2024-12-03T13:58:04Z</time>
      </trkpt>
      <trkpt lat="44.41648" lon="1.52133">
        <ele>232</ele>
        <time>2024-12-03T13:58:03Z</time>
      </trkpt>
      <trkpt lat="44.41649" lon="1.52135">
        <ele>232.1</ele>
        <time>2024-12-03T13:58:02Z</time>
      </trkpt>
      <trkpt lat="44.4165" lon="1.52135">
        <ele>232.1</ele>
        <time>2024-12-03T13:58:01Z</time>
      </trkpt>
      <trkpt lat="44.4165" lon="1.52136">
        <ele>232.1</ele>
        <time>2024-12-03T13:58:00Z</time>
      </trkpt>
      <trkpt lat="44.41651" lon="1.52137">
        <ele>232.1</ele>
        <time>2024-12-03T13:57:59Z</time>
      </trkpt>
      <trkpt lat="44.41652" lon="1.52139">
        <ele>232.1</ele>
        <time>2024-12-03T13:57:58Z</time>
      </trkpt>
      <trkpt lat="44.41653" lon="1.5214">
        <ele>232.1</ele>
        <time>2024-12-03T13:57:57Z</time>
      </trkpt>
      <trkpt lat="44.41653" lon="1.52142">
        <ele>232.1</ele>
        <time>2024-12-03T13:57:56Z</time>
      </trkpt>
      <trkpt lat="44.41653" lon="1.52144">
        <ele>232.1</ele>
        <time>2024-12-03T13:57:55Z</time>
      </trkpt>
      <trkpt lat="44.41653" lon="1.52145">
        <ele>232.2</ele>
        <time>2024-12-03T13:57:54Z</time>
      </trkpt>
      <trkpt lat="44.41653" lon="1.52146">
        <ele>232.2</ele>
        <time>2024-12-03T13:57:53Z</time>
      </trkpt>
      <trkpt lat="44.41654" lon="1.52147">
        <ele>232.2</ele>
        <time>2024-12-03T13:57:52Z</time>
      </trkpt>
      <trkpt lat="44.41654" lon="1.52147">
        <ele>232.2</ele>
        <time>2024-12-03T13:57:51Z</time>
      </trkpt>
      <trkpt lat="44.41654" lon="1.52149">
        <ele>232.3</ele>
        <time>2024-12-03T13:57:50Z</time>
      </trkpt>
      <trkpt lat="44.41654" lon="1.5215">
        <ele>232.3</ele>
        <time>2024-12-03T13:57:49Z</time>
      </trkpt>
      <trkpt lat="44.41654" lon="1.52152">
        <ele>232.4</ele>
        <time>2024-12-03T13:57:48Z</time>
      </trkpt>
      <trkpt lat="44.41654" lon="1.52152">
        <ele>232.4</ele>
        <time>2024-12-03T13:57:47Z</time>
      </trkpt>
      <trkpt lat="44.41654" lon="1.52153">
        <ele>232.4</ele>
        <time>2024-12-03T13:57:46Z</time>
      </trkpt>
      <trkpt lat="44.41655" lon="1.52155">
        <ele>232.4</ele>
        <time>2024-12-03T13:57:45Z</time>
      </trkpt>
      <trkpt lat="44.41655" lon="1.52156">
        <ele>232.4</ele>
        <time>2024-12-03T13:57:44Z</time>
      </trkpt>
      <trkpt lat="44.41656" lon="1.52156">
        <ele>232.4</ele>
        <time>2024-12-03T13:57:43Z</time>
      </trkpt>
      <trkpt lat="44.41657" lon="1.52157">
        <ele>232.4</ele>
        <time>2024-12-03T13:57:42Z</time>
      </trkpt>
      <trkpt lat="44.41658" lon="1.52157">
        <ele>232.3</ele>
        <time>2024-12-03T13:57:41Z</time>
      </trkpt>
      <trkpt lat="44.41659" lon="1.52158">
        <ele>232.2</ele>
        <time>2024-12-03T13:57:40Z</time>
      </trkpt>
      <trkpt lat="44.4166" lon="1.52159">
        <ele>232.2</ele>
        <time>2024-12-03T13:57:39Z</time>
      </trkpt>
      <trkpt lat="44.41661" lon="1.5216">
        <ele>232.2</ele>
        <time>2024-12-03T13:57:38Z</time>
      </trkpt>
      <trkpt lat="44.41662" lon="1.5216">
        <ele>232.1</ele>
        <time>2024-12-03T13:57:37Z</time>
      </trkpt>
      <trkpt lat="44.41663" lon="1.52162">
        <ele>232.1</ele>
        <time>2024-12-03T13:57:36Z</time>
      </trkpt>
      <trkpt lat="44.41664" lon="1.52164">
        <ele>232.1</ele>
        <time>2024-12-03T13:57:35Z</time>
      </trkpt>
      <trkpt lat="44.41664" lon="1.52165">
        <ele>232.1</ele>
        <time>2024-12-03T13:57:34Z</time>
      </trkpt>
      <trkpt lat="44.41664" lon="1.52166">
        <ele>232.1</ele>
        <time>2024-12-03T13:57:33Z</time>
      </trkpt>
      <trkpt lat="44.41665" lon="1.52167">
        <ele>232.1</ele>
        <time>2024-12-03T13:57:32Z</time>
      </trkpt>
      <trkpt lat="44.41665" lon="1.52167">
        <ele>232.2</ele>
        <time>2024-12-03T13:57:31Z</time>
      </trkpt>
      <trkpt lat="44.41666" lon="1.52169">
        <ele>232.2</ele>
        <time>2024-12-03T13:57:30Z</time>
      </trkpt>
      <trkpt lat="44.41666" lon="1.5217">
        <ele>232.3</ele>
        <time>2024-12-03T13:57:29Z</time>
      </trkpt>
      <trkpt lat="44.41667" lon="1.52172">
        <ele>232.3</ele>
        <time>2024-12-03T13:57:28Z</time>
      </trkpt>
      <trkpt lat="44.41668" lon="1.52173">
        <ele>232.3</ele>
        <time>2024-12-03T13:57:27Z</time>
      </trkpt>
      <trkpt lat="44.41668" lon="1.52173">
        <ele>232.3</ele>
        <time>2024-12-03T13:57:26Z</time>
      </trkpt>
      <trkpt lat="44.41669" lon="1.52174">
        <ele>232.2</ele>
        <time>2024-12-03T13:57:25Z</time>
      </trkpt>
      <trkpt lat="44.4167" lon="1.52174">
        <ele>232.2</ele>
        <time>2024-12-03T13:57:24Z</time>
      </trkpt>
      <trkpt lat="44.41671" lon="1.52176">
        <ele>232.2</ele>
        <time>2024-12-03T13:57:23Z</time>
      </trkpt>
      <trkpt lat="44.41672" lon="1.52177">
        <ele>232.1</ele>
        <time>2024-12-03T13:57:22Z</time>
      </trkpt>
      <trkpt lat="44.41673" lon="1.52177">
        <ele>232.1</ele>
        <time>2024-12-03T13:57:21Z</time>
      </trkpt>
      <trkpt lat="44.41673" lon="1.52179">
        <ele>232.2</ele>
        <time>2024-12-03T13:57:20Z</time>
      </trkpt>
      <trkpt lat="44.41674" lon="1.5218">
        <ele>232.2</ele>
        <time>2024-12-03T13:57:19Z</time>
      </trkpt>
      <trkpt lat="44.41674" lon="1.5218">
        <ele>232.1</ele>
        <time>2024-12-03T13:57:18Z</time>
      </trkpt>
      <trkpt lat="44.41674" lon="1.5218">
        <ele>232.1</ele>
        <time>2024-12-03T13:57:17Z</time>
      </trkpt>
      <trkpt lat="44.41674" lon="1.5218">
        <ele>232.1</ele>
        <time>2024-12-03T13:57:16Z</time>
      </trkpt>
      <trkpt lat="44.41674" lon="1.5218">
        <ele>232.1</ele>
        <time>2024-12-03T13:57:15Z</time>
      </trkpt>
      <trkpt lat="44.41674" lon="1.52179">
        <ele>232.1</ele>
        <time>2024-12-03T13:57:14Z</time>
      </trkpt>
      <trkpt lat="44.41674" lon="1.52179">
        <ele>232.1</ele>
        <time>2024-12-03T13:57:13Z</time>
      </trkpt>
      <trkpt lat="44.41674" lon="1.52179">
        <ele>232.1</ele>
        <time>2024-12-03T13:57:12Z</time>
      </trkpt>
      <trkpt lat="44.41674" lon="1.5218">
        <ele>232.2</ele>
        <time>2024-12-03T13:57:11Z</time>
      </trkpt>
      <trkpt lat="44.41675" lon="1.52181">
        <ele>232.2</ele>
        <time>2024-12-03T13:57:10Z</time>
      </trkpt>
      <trkpt lat="44.41675" lon="1.52182">
        <ele>232.2</ele>
        <time>2024-12-03T13:57:09Z</time>
      </trkpt>
      <trkpt lat="44.41676" lon="1.52183">
        <ele>232.2</ele>
        <time>2024-12-03T13:57:08Z</time>
      </trkpt>
      <trkpt lat="44.41676" lon="1.52184">
        <ele>232.3</ele>
        <time>2024-12-03T13:57:06Z</time>
      </trkpt>
      <trkpt lat="44.41676" lon="1.52185">
        <ele>232.3</ele>
        <time>2024-12-03T13:57:05Z</time>
      </trkpt>
      <trkpt lat="44.41677" lon="1.52186">
        <ele>232.3</ele>
        <time>2024-12-03T13:57:04Z</time>
      </trkpt>
      <trkpt lat="44.41678" lon="1.52187">
        <ele>232.3</ele>
        <time>2024-12-03T13:57:03Z</time>
      </trkpt>
      <trkpt lat="44.41679" lon="1.52188">
        <ele>232.2</ele>
        <time>2024-12-03T13:57:02Z</time>
      </trkpt>
      <trkpt lat="44.4168" lon="1.52189">
        <ele>232.2</ele>
        <time>2024-12-03T13:57:01Z</time>
      </trkpt>
      <trkpt lat="44.41681" lon="1.5219">
        <ele>232.2</ele>
        <time>2024-12-03T13:57:00Z</time>
      </trkpt>
      <trkpt lat="44.41681" lon="1.52192">
        <ele>232.2</ele>
        <time>2024-12-03T13:56:59Z</time>
      </trkpt>
      <trkpt lat="44.41682" lon="1.52193">
        <ele>232.2</ele>
        <time>2024-12-03T13:56:58Z</time>
      </trkpt>
      <trkpt lat="44.41682" lon="1.52193">
        <ele>232.2</ele>
        <time>2024-12-03T13:56:57Z</time>
      </trkpt>
      <trkpt lat="44.41683" lon="1.52194">
        <ele>232.3</ele>
        <time>2024-12-03T13:56:56Z</time>
      </trkpt>
      <trkpt lat="44.41683" lon="1.52195">
        <ele>232.3</ele>
        <time>2024-12-03T13:56:55Z</time>
      </trkpt>
      <trkpt lat="44.41684" lon="1.52197">
        <ele>232.3</ele>
        <time>2024-12-03T13:56:54Z</time>
      </trkpt>
      <trkpt lat="44.41685" lon="1.52197">
        <ele>232.3</ele>
        <time>2024-12-03T13:56:53Z</time>
      </trkpt>
      <trkpt lat="44.41685" lon="1.52198">
        <ele>232.3</ele>
        <time>2024-12-03T13:56:52Z</time>
      </trkpt>
      <trkpt lat="44.41686" lon="1.52198">
        <ele>232.3</ele>
        <time>2024-12-03T13:56:51Z</time>
      </trkpt>
      <trkpt lat="44.41687" lon="1.52199">
        <ele>232.3</ele>
        <time>2024-12-03T13:56:50Z</time>
      </trkpt>
      <trkpt lat="44.41687" lon="1.522">
        <ele>232.3</ele>
        <time>2024-12-03T13:56:49Z</time>
      </trkpt>
      <trkpt lat="44.41688" lon="1.522">
        <ele>232.3</ele>
        <time>2024-12-03T13:56:48Z</time>
      </trkpt>
      <trkpt lat="44.41689" lon="1.52202">
        <ele>232.3</ele>
        <time>2024-12-03T13:56:47Z</time>
      </trkpt>
      <trkpt lat="44.41689" lon="1.52202">
        <ele>232.3</ele>
        <time>2024-12-03T13:56:46Z</time>
      </trkpt>
      <trkpt lat="44.4169" lon="1.52203">
        <ele>232.3</ele>
        <time>2024-12-03T13:56:45Z</time>
      </trkpt>
      <trkpt lat="44.41691" lon="1.52204">
        <ele>232.4</ele>
        <time>2024-12-03T13:56:44Z</time>
      </trkpt>
      <trkpt lat="44.41692" lon="1.52205">
        <ele>232.4</ele>
        <time>2024-12-03T13:56:43Z</time>
      </trkpt>
      <trkpt lat="44.41693" lon="1.52205">
        <ele>232.3</ele>
        <time>2024-12-03T13:56:42Z</time>
      </trkpt>
      <trkpt lat="44.41693" lon="1.52206">
        <ele>232.3</ele>
        <time>2024-12-03T13:56:41Z</time>
      </trkpt>
      <trkpt lat="44.41694" lon="1.52206">
        <ele>232.3</ele>
        <time>2024-12-03T13:56:40Z</time>
      </trkpt>
      <trkpt lat="44.41695" lon="1.52207">
        <ele>232.3</ele>
        <time>2024-12-03T13:56:39Z</time>
      </trkpt>
      <trkpt lat="44.41695" lon="1.52207">
        <ele>232.3</ele>
        <time>2024-12-03T13:56:38Z</time>
      </trkpt>
      <trkpt lat="44.41695" lon="1.52208">
        <ele>232.3</ele>
        <time>2024-12-03T13:56:37Z</time>
      </trkpt>
      <trkpt lat="44.41697" lon="1.52208">
        <ele>232.1</ele>
        <time>2024-12-03T13:56:36Z</time>
      </trkpt>
      <trkpt lat="44.41697" lon="1.52208">
        <ele>232.1</ele>
        <time>2024-12-03T13:56:34Z</time>
      </trkpt>
      <trkpt lat="44.41698" lon="1.52208">
        <ele>231.9</ele>
        <time>2024-12-03T13:56:33Z</time>
      </trkpt>
      <trkpt lat="44.41699" lon="1.52207">
        <ele>231.7</ele>
        <time>2024-12-03T13:56:32Z</time>
      </trkpt>
      <trkpt lat="44.41699" lon="1.52206">
        <ele>231.6</ele>
        <time>2024-12-03T13:56:31Z</time>
      </trkpt>
      <trkpt lat="44.417" lon="1.52205">
        <ele>231.4</ele>
        <time>2024-12-03T13:56:30Z</time>
      </trkpt>
      <trkpt lat="44.41701" lon="1.52204">
        <ele>231.2</ele>
        <time>2024-12-03T13:56:29Z</time>
      </trkpt>
      <trkpt lat="44.41702" lon="1.52203">
        <ele>230.9</ele>
        <time>2024-12-03T13:56:28Z</time>
      </trkpt>
      <trkpt lat="44.41703" lon="1.52203">
        <ele>230.6</ele>
        <time>2024-12-03T13:56:27Z</time>
      </trkpt>
      <trkpt lat="44.41705" lon="1.52203">
        <ele>230.4</ele>
        <time>2024-12-03T13:56:26Z</time>
      </trkpt>
      <trkpt lat="44.41705" lon="1.52203">
        <ele>230.4</ele>
        <time>2024-12-03T13:56:25Z</time>
      </trkpt>
      <trkpt lat="44.41706" lon="1.52204">
        <ele>230.4</ele>
        <time>2024-12-03T13:56:24Z</time>
      </trkpt>
      <trkpt lat="44.41708" lon="1.52206">
        <ele>230.3</ele>
        <time>2024-12-03T13:56:23Z</time>
      </trkpt>
      <trkpt lat="44.41709" lon="1.52206">
        <ele>230.1</ele>
        <time>2024-12-03T13:56:22Z</time>
      </trkpt>
      <trkpt lat="44.41711" lon="1.52207">
        <ele>229.9</ele>
        <time>2024-12-03T13:56:21Z</time>
      </trkpt>
      <trkpt lat="44.41712" lon="1.52207">
        <ele>229.8</ele>
        <time>2024-12-03T13:56:20Z</time>
      </trkpt>
      <trkpt lat="44.41712" lon="1.52207">
        <ele>229.8</ele>
        <time>2024-12-03T13:56:19Z</time>
      </trkpt>
      <trkpt lat="44.41714" lon="1.52208">
        <ele>229.7</ele>
        <time>2024-12-03T13:56:18Z</time>
      </trkpt>
      <trkpt lat="44.41714" lon="1.52208">
        <ele>229.6</ele>
        <time>2024-12-03T13:56:17Z</time>
      </trkpt>
      <trkpt lat="44.41715" lon="1.52209">
        <ele>229.6</ele>
        <time>2024-12-03T13:56:16Z</time>
      </trkpt>
      <trkpt lat="44.41715" lon="1.52209">
        <ele>229.6</ele>
        <time>2024-12-03T13:56:15Z</time>
      </trkpt>
      <trkpt lat="44.41716" lon="1.52209">
        <ele>229.5</ele>
        <time>2024-12-03T13:56:14Z</time>
      </trkpt>
      <trkpt lat="44.41716" lon="1.52208">
        <ele>229.4</ele>
        <time>2024-12-03T13:56:13Z</time>
      </trkpt>
      <trkpt lat="44.41717" lon="1.52208">
        <ele>229.2</ele>
        <time>2024-12-03T13:56:12Z</time>
      </trkpt>
      <trkpt lat="44.41717" lon="1.52207">
        <ele>229.1</ele>
        <time>2024-12-03T13:56:11Z</time>
      </trkpt>
      <trkpt lat="44.41718" lon="1.52205">
        <ele>228.8</ele>
        <time>2024-12-03T13:56:10Z</time>
      </trkpt>
      <trkpt lat="44.41718" lon="1.52205">
        <ele>228.7</ele>
        <time>2024-12-03T13:56:09Z</time>
      </trkpt>
      <trkpt lat="44.41719" lon="1.52205">
        <ele>228.6</ele>
        <time>2024-12-03T13:56:08Z</time>
      </trkpt>
      <trkpt lat="44.41719" lon="1.52205">
        <ele>228.6</ele>
        <time>2024-12-03T13:56:07Z</time>
      </trkpt>
      <trkpt lat="44.4172" lon="1.52205">
        <ele>228.5</ele>
        <time>2024-12-03T13:56:06Z</time>
      </trkpt>
      <trkpt lat="44.41721" lon="1.52206">
        <ele>228.5</ele>
        <time>2024-12-03T13:56:05Z</time>
      </trkpt>
      <trkpt lat="44.41722" lon="1.52207">
        <ele>228.4</ele>
        <time>2024-12-03T13:56:04Z</time>
      </trkpt>
      <trkpt lat="44.41722" lon="1.52207">
        <ele>228.4</ele>
        <time>2024-12-03T13:56:03Z</time>
      </trkpt>
      <trkpt lat="44.41722" lon="1.52207">
        <ele>228.4</ele>
        <time>2024-12-03T13:56:02Z</time>
      </trkpt>
      <trkpt lat="44.41722" lon="1.52207">
        <ele>228.3</ele>
        <time>2024-12-03T13:56:01Z</time>
      </trkpt>
      <trkpt lat="44.41722" lon="1.52206">
        <ele>228.2</ele>
        <time>2024-12-03T13:56:00Z</time>
      </trkpt>
      <trkpt lat="44.41722" lon="1.52206">
        <ele>228.2</ele>
        <time>2024-12-03T13:55:59Z</time>
      </trkpt>
      <trkpt lat="44.41722" lon="1.52205">
        <ele>228</ele>
        <time>2024-12-03T13:55:58Z</time>
      </trkpt>
      <trkpt lat="44.41723" lon="1.52203">
        <ele>227.8</ele>
        <time>2024-12-03T13:55:57Z</time>
      </trkpt>
      <trkpt lat="44.41723" lon="1.52202">
        <ele>227.6</ele>
        <time>2024-12-03T13:55:56Z</time>
      </trkpt>
      <trkpt lat="44.41723" lon="1.522">
        <ele>227.4</ele>
        <time>2024-12-03T13:55:55Z</time>
      </trkpt>
      <trkpt lat="44.41724" lon="1.52199">
        <ele>227.1</ele>
        <time>2024-12-03T13:55:54Z</time>
      </trkpt>
      <trkpt lat="44.41725" lon="1.52198">
        <ele>226.7</ele>
        <time>2024-12-03T13:55:53Z</time>
      </trkpt>
      <trkpt lat="44.41725" lon="1.52198">
        <ele>226.4</ele>
        <time>2024-12-03T13:55:52Z</time>
      </trkpt>
      <trkpt lat="44.41726" lon="1.52197">
        <ele>226.1</ele>
        <time>2024-12-03T13:55:51Z</time>
      </trkpt>
      <trkpt lat="44.41727" lon="1.52197">
        <ele>225.7</ele>
        <time>2024-12-03T13:55:50Z</time>
      </trkpt>
      <trkpt lat="44.41728" lon="1.52197">
        <ele>225.5</ele>
        <time>2024-12-03T13:55:49Z</time>
      </trkpt>
      <trkpt lat="44.41728" lon="1.52197">
        <ele>225.4</ele>
        <time>2024-12-03T13:55:48Z</time>
      </trkpt>
      <trkpt lat="44.41729" lon="1.52198">
        <ele>225.3</ele>
        <time>2024-12-03T13:55:47Z</time>
      </trkpt>
      <trkpt lat="44.41729" lon="1.52198">
        <ele>225.3</ele>
        <time>2024-12-03T13:55:46Z</time>
      </trkpt>
      <trkpt lat="44.41729" lon="1.52199">
        <ele>225.2</ele>
        <time>2024-12-03T13:55:45Z</time>
      </trkpt>
      <trkpt lat="44.41729" lon="1.52199">
        <ele>225.3</ele>
        <time>2024-12-03T13:55:44Z</time>
      </trkpt>
      <trkpt lat="44.41729" lon="1.52199">
        <ele>225.3</ele>
        <time>2024-12-03T13:55:43Z</time>
      </trkpt>
      <trkpt lat="44.41729" lon="1.52198">
        <ele>225.3</ele>
        <time>2024-12-03T13:55:42Z</time>
      </trkpt>
      <trkpt lat="44.41729" lon="1.52197">
        <ele>225.3</ele>
        <time>2024-12-03T13:55:41Z</time>
      </trkpt>
      <trkpt lat="44.41729" lon="1.52197">
        <ele>225.1</ele>
        <time>2024-12-03T13:55:40Z</time>
      </trkpt>
      <trkpt lat="44.4173" lon="1.52198">
        <ele>225</ele>
        <time>2024-12-03T13:55:39Z</time>
      </trkpt>
      <trkpt lat="44.4173" lon="1.52198">
        <ele>224.9</ele>
        <time>2024-12-03T13:55:38Z</time>
      </trkpt>
      <trkpt lat="44.4173" lon="1.52199">
        <ele>224.9</ele>
        <time>2024-12-03T13:55:37Z</time>
      </trkpt>
      <trkpt lat="44.41731" lon="1.52199">
        <ele>224.9</ele>
        <time>2024-12-03T13:55:36Z</time>
      </trkpt>
      <trkpt lat="44.41731" lon="1.522">
        <ele>224.9</ele>
        <time>2024-12-03T13:55:35Z</time>
      </trkpt>
      <trkpt lat="44.41731" lon="1.52201">
        <ele>225</ele>
        <time>2024-12-03T13:55:34Z</time>
      </trkpt>
      <trkpt lat="44.41731" lon="1.52202">
        <ele>225.1</ele>
        <time>2024-12-03T13:55:33Z</time>
      </trkpt>
      <trkpt lat="44.41732" lon="1.52203">
        <ele>225</ele>
        <time>2024-12-03T13:55:32Z</time>
      </trkpt>
      <trkpt lat="44.41732" lon="1.52204">
        <ele>225</ele>
        <time>2024-12-03T13:55:31Z</time>
      </trkpt>
      <trkpt lat="44.41733" lon="1.52205">
        <ele>224.9</ele>
        <time>2024-12-03T13:55:30Z</time>
      </trkpt>
      <trkpt lat="44.41735" lon="1.52206">
        <ele>224.6</ele>
        <time>2024-12-03T13:55:28Z</time>
      </trkpt>
      <trkpt lat="44.41736" lon="1.52207">
        <ele>224.5</ele>
        <time>2024-12-03T13:55:27Z</time>
      </trkpt>
      <trkpt lat="44.41736" lon="1.52208">
        <ele>224.3</ele>
        <time>2024-12-03T13:55:26Z</time>
      </trkpt>
      <trkpt lat="44.41737" lon="1.52209">
        <ele>224.2</ele>
        <time>2024-12-03T13:55:25Z</time>
      </trkpt>
      <trkpt lat="44.41738" lon="1.52209">
        <ele>224.1</ele>
        <time>2024-12-03T13:55:24Z</time>
      </trkpt>
      <trkpt lat="44.41739" lon="1.5221">
        <ele>224</ele>
        <time>2024-12-03T13:55:22Z</time>
      </trkpt>
      <trkpt lat="44.41739" lon="1.52211">
        <ele>224</ele>
        <time>2024-12-03T13:55:21Z</time>
      </trkpt>
      <trkpt lat="44.4174" lon="1.52211">
        <ele>223.9</ele>
        <time>2024-12-03T13:55:20Z</time>
      </trkpt>
      <trkpt lat="44.4174" lon="1.52212">
        <ele>223.9</ele>
        <time>2024-12-03T13:55:19Z</time>
      </trkpt>
      <trkpt lat="44.41741" lon="1.52213">
        <ele>223.8</ele>
        <time>2024-12-03T13:55:18Z</time>
      </trkpt>
      <trkpt lat="44.41742" lon="1.52215">
        <ele>223.8</ele>
        <time>2024-12-03T13:55:17Z</time>
      </trkpt>
      <trkpt lat="44.41743" lon="1.52215">
        <ele>223.7</ele>
        <time>2024-12-03T13:55:16Z</time>
      </trkpt>
      <trkpt lat="44.41743" lon="1.52216">
        <ele>223.7</ele>
        <time>2024-12-03T13:55:15Z</time>
      </trkpt>
      <trkpt lat="44.41744" lon="1.52217">
        <ele>223.7</ele>
        <time>2024-12-03T13:55:14Z</time>
      </trkpt>
      <trkpt lat="44.41744" lon="1.52217">
        <ele>223.6</ele>
        <time>2024-12-03T13:55:13Z</time>
      </trkpt>
      <trkpt lat="44.41745" lon="1.52218">
        <ele>223.5</ele>
        <time>2024-12-03T13:55:12Z</time>
      </trkpt>
      <trkpt lat="44.41747" lon="1.52219">
        <ele>223.3</ele>
        <time>2024-12-03T13:55:10Z</time>
      </trkpt>
      <trkpt lat="44.41748" lon="1.52219">
        <ele>223.1</ele>
        <time>2024-12-03T13:55:09Z</time>
      </trkpt>
      <trkpt lat="44.41748" lon="1.5222">
        <ele>223.1</ele>
        <time>2024-12-03T13:55:08Z</time>
      </trkpt>
      <trkpt lat="44.41749" lon="1.5222">
        <ele>223</ele>
        <time>2024-12-03T13:55:07Z</time>
      </trkpt>
      <trkpt lat="44.4175" lon="1.52221">
        <ele>222.9</ele>
        <time>2024-12-03T13:55:06Z</time>
      </trkpt>
      <trkpt lat="44.4175" lon="1.52221">
        <ele>222.7</ele>
        <time>2024-12-03T13:55:05Z</time>
      </trkpt>
      <trkpt lat="44.4175" lon="1.52221">
        <ele>222.8</ele>
        <time>2024-12-03T13:55:04Z</time>
      </trkpt>
      <trkpt lat="44.4175" lon="1.52221">
        <ele>222.9</ele>
        <time>2024-12-03T13:55:03Z</time>
      </trkpt>
      <trkpt lat="44.4175" lon="1.52222">
        <ele>223</ele>
        <time>2024-12-03T13:55:02Z</time>
      </trkpt>
      <trkpt lat="44.41751" lon="1.52223">
        <ele>223</ele>
        <time>2024-12-03T13:55:01Z</time>
      </trkpt>
      <trkpt lat="44.41752" lon="1.52223">
        <ele>223</ele>
        <time>2024-12-03T13:55:00Z</time>
      </trkpt>
      <trkpt lat="44.41752" lon="1.52223">
        <ele>223</ele>
        <time>2024-12-03T13:54:59Z</time>
      </trkpt>
      <trkpt lat="44.41752" lon="1.52223">
        <ele>223</ele>
        <time>2024-12-03T13:54:58Z</time>
      </trkpt>
      <trkpt lat="44.41752" lon="1.52223">
        <ele>223</ele>
        <time>2024-12-03T13:54:57Z</time>
      </trkpt>
      <trkpt lat="44.41753" lon="1.52223">
        <ele>223</ele>
        <time>2024-12-03T13:54:56Z</time>
      </trkpt>
      <trkpt lat="44.41754" lon="1.52224">
        <ele>223.1</ele>
        <time>2024-12-03T13:54:54Z</time>
      </trkpt>
      <trkpt lat="44.41754" lon="1.52224">
        <ele>223.1</ele>
        <time>2024-12-03T13:54:53Z</time>
      </trkpt>
      <trkpt lat="44.41754" lon="1.52224">
        <ele>223.1</ele>
        <time>2024-12-03T13:54:52Z</time>
      </trkpt>
      <trkpt lat="44.41755" lon="1.52224">
        <ele>223.1</ele>
        <time>2024-12-03T13:54:51Z</time>
      </trkpt>
      <trkpt lat="44.41755" lon="1.52224">
        <ele>223.1</ele>
        <time>2024-12-03T13:54:50Z</time>
      </trkpt>
      <trkpt lat="44.41755" lon="1.52225">
        <ele>223.2</ele>
        <time>2024-12-03T13:54:49Z</time>
      </trkpt>
      <trkpt lat="44.41754" lon="1.52223">
        <ele>223</ele>
        <time>2024-12-03T13:54:48Z</time>
      </trkpt>
      <trkpt lat="44.41754" lon="1.52223">
        <ele>223</ele>
        <time>2024-12-03T13:54:47Z</time>
      </trkpt>
      <trkpt lat="44.41753" lon="1.52223">
        <ele>223</ele>
        <time>2024-12-03T13:54:46Z</time>
      </trkpt>
      <trkpt lat="44.41753" lon="1.52222">
        <ele>222.9</ele>
        <time>2024-12-03T13:54:45Z</time>
      </trkpt>
      <trkpt lat="44.41753" lon="1.52223">
        <ele>223</ele>
        <time>2024-12-03T13:54:44Z</time>
      </trkpt>
      <trkpt lat="44.41753" lon="1.52224">
        <ele>223.1</ele>
        <time>2024-12-03T13:54:43Z</time>
      </trkpt>
      <trkpt lat="44.41754" lon="1.52224">
        <ele>223.1</ele>
        <time>2024-12-03T13:54:42Z</time>
      </trkpt>
      <trkpt lat="44.41754" lon="1.52224">
        <ele>223.1</ele>
        <time>2024-12-03T13:54:41Z</time>
      </trkpt>
      <trkpt lat="44.41755" lon="1.52224">
        <ele>223.1</ele>
        <time>2024-12-03T13:54:40Z</time>
      </trkpt>
      <trkpt lat="44.41755" lon="1.52224">
        <ele>223.1</ele>
        <time>2024-12-03T13:54:39Z</time>
      </trkpt>
      <trkpt lat="44.41755" lon="1.52223">
        <ele>222.9</ele>
        <time>2024-12-03T13:54:38Z</time>
      </trkpt>
      <trkpt lat="44.41756" lon="1.52222">
        <ele>222.8</ele>
        <time>2024-12-03T13:54:37Z</time>
      </trkpt>
      <trkpt lat="44.41756" lon="1.52221">
        <ele>222.5</ele>
        <time>2024-12-03T13:54:36Z</time>
      </trkpt>
      <trkpt lat="44.41756" lon="1.5222">
        <ele>222.5</ele>
        <time>2024-12-03T13:54:35Z</time>
      </trkpt>
      <trkpt lat="44.41756" lon="1.5222">
        <ele>222.4</ele>
        <time>2024-12-03T13:54:34Z</time>
      </trkpt>
      <trkpt lat="44.41756" lon="1.52219">
        <ele>222.3</ele>
        <time>2024-12-03T13:54:33Z</time>
      </trkpt>
      <trkpt lat="44.41756" lon="1.52218">
        <ele>222.1</ele>
        <time>2024-12-03T13:54:32Z</time>
      </trkpt>
      <trkpt lat="44.41757" lon="1.52217">
        <ele>221.9</ele>
        <time>2024-12-03T13:54:31Z</time>
      </trkpt>
      <trkpt lat="44.41757" lon="1.52216">
        <ele>221.7</ele>
        <time>2024-12-03T13:54:30Z</time>
      </trkpt>
      <trkpt lat="44.41757" lon="1.52215">
        <ele>221.7</ele>
        <time>2024-12-03T13:54:29Z</time>
      </trkpt>
      <trkpt lat="44.41757" lon="1.52215">
        <ele>221.7</ele>
        <time>2024-12-03T13:54:28Z</time>
      </trkpt>
      <trkpt lat="44.41757" lon="1.52215">
        <ele>221.6</ele>
        <time>2024-12-03T13:54:27Z</time>
      </trkpt>
      <trkpt lat="44.41757" lon="1.52214">
        <ele>221.5</ele>
        <time>2024-12-03T13:54:26Z</time>
      </trkpt>
      <trkpt lat="44.41757" lon="1.52214">
        <ele>221.5</ele>
        <time>2024-12-03T13:54:25Z</time>
      </trkpt>
      <trkpt lat="44.41758" lon="1.52213">
        <ele>221.3</ele>
        <time>2024-12-03T13:54:24Z</time>
      </trkpt>
      <trkpt lat="44.41758" lon="1.52213">
        <ele>221.3</ele>
        <time>2024-12-03T13:54:22Z</time>
      </trkpt>
      <trkpt lat="44.41758" lon="1.52212">
        <ele>221.2</ele>
        <time>2024-12-03T13:54:21Z</time>
      </trkpt>
      <trkpt lat="44.41758" lon="1.52211">
        <ele>221.1</ele>
        <time>2024-12-03T13:54:20Z</time>
      </trkpt>
      <trkpt lat="44.41758" lon="1.5221">
        <ele>221</ele>
        <time>2024-12-03T13:54:19Z</time>
      </trkpt>
      <trkpt lat="44.41758" lon="1.52209">
        <ele>220.8</ele>
        <time>2024-12-03T13:54:18Z</time>
      </trkpt>
      <trkpt lat="44.41759" lon="1.52208">
        <ele>220.6</ele>
        <time>2024-12-03T13:54:17Z</time>
      </trkpt>
      <trkpt lat="44.41759" lon="1.52207">
        <ele>220.5</ele>
        <time>2024-12-03T13:54:16Z</time>
      </trkpt>
      <trkpt lat="44.41759" lon="1.52206">
        <ele>220.4</ele>
        <time>2024-12-03T13:54:15Z</time>
      </trkpt>
      <trkpt lat="44.41759" lon="1.52205">
        <ele>220.2</ele>
        <time>2024-12-03T13:54:14Z</time>
      </trkpt>
      <trkpt lat="44.41759" lon="1.52204">
        <ele>220.1</ele>
        <time>2024-12-03T13:54:13Z</time>
      </trkpt>
      <trkpt lat="44.41759" lon="1.52204">
        <ele>220</ele>
        <time>2024-12-03T13:54:12Z</time>
      </trkpt>
      <trkpt lat="44.41759" lon="1.52203">
        <ele>219.9</ele>
        <time>2024-12-03T13:54:11Z</time>
      </trkpt>
      <trkpt lat="44.41759" lon="1.52203">
        <ele>219.9</ele>
        <time>2024-12-03T13:54:10Z</time>
      </trkpt>
      <trkpt lat="44.41759" lon="1.52203">
        <ele>219.9</ele>
        <time>2024-12-03T13:54:09Z</time>
      </trkpt>
      <trkpt lat="44.41759" lon="1.52203">
        <ele>219.9</ele>
        <time>2024-12-03T13:54:08Z</time>
      </trkpt>
      <trkpt lat="44.41759" lon="1.52203">
        <ele>219.9</ele>
        <time>2024-12-03T13:54:06Z</time>
      </trkpt>
      <trkpt lat="44.41759" lon="1.52204">
        <ele>219.9</ele>
        <time>2024-12-03T13:54:05Z</time>
      </trkpt>
      <trkpt lat="44.41759" lon="1.52203">
        <ele>219.9</ele>
        <time>2024-12-03T13:54:04Z</time>
      </trkpt>
      <trkpt lat="44.41758" lon="1.52203">
        <ele>219.8</ele>
        <time>2024-12-03T13:54:03Z</time>
      </trkpt>
      <trkpt lat="44.41758" lon="1.52203">
        <ele>219.8</ele>
        <time>2024-12-03T13:54:02Z</time>
      </trkpt>
      <trkpt lat="44.41759" lon="1.52202">
        <ele>219.8</ele>
        <time>2024-12-03T13:54:01Z</time>
      </trkpt>
      <trkpt lat="44.41759" lon="1.52202">
        <ele>219.7</ele>
        <time>2024-12-03T13:54:00Z</time>
      </trkpt>
      <trkpt lat="44.41758" lon="1.52202">
        <ele>219.7</ele>
        <time>2024-12-03T13:53:59Z</time>
      </trkpt>
      <trkpt lat="44.41758" lon="1.52201">
        <ele>219.6</ele>
        <time>2024-12-03T13:53:58Z</time>
      </trkpt>
      <trkpt lat="44.41758" lon="1.522">
        <ele>219.4</ele>
        <time>2024-12-03T13:53:57Z</time>
      </trkpt>
      <trkpt lat="44.41759" lon="1.52199">
        <ele>219.3</ele>
        <time>2024-12-03T13:53:56Z</time>
      </trkpt>
      <trkpt lat="44.41759" lon="1.52198">
        <ele>219.2</ele>
        <time>2024-12-03T13:53:55Z</time>
      </trkpt>
      <trkpt lat="44.4176" lon="1.52197">
        <ele>219</ele>
        <time>2024-12-03T13:53:54Z</time>
      </trkpt>
      <trkpt lat="44.4176" lon="1.52194">
        <ele>218.7</ele>
        <time>2024-12-03T13:53:52Z</time>
      </trkpt>
      <trkpt lat="44.4176" lon="1.52193">
        <ele>218.5</ele>
        <time>2024-12-03T13:53:51Z</time>
      </trkpt>
      <trkpt lat="44.4176" lon="1.52192">
        <ele>218.5</ele>
        <time>2024-12-03T13:53:50Z</time>
      </trkpt>
      <trkpt lat="44.41761" lon="1.52191">
        <ele>218.4</ele>
        <time>2024-12-03T13:53:49Z</time>
      </trkpt>
      <trkpt lat="44.41761" lon="1.5219">
        <ele>218.3</ele>
        <time>2024-12-03T13:53:48Z</time>
      </trkpt>
      <trkpt lat="44.41761" lon="1.52189">
        <ele>218.2</ele>
        <time>2024-12-03T13:53:47Z</time>
      </trkpt>
      <trkpt lat="44.41761" lon="1.52188">
        <ele>218</ele>
        <time>2024-12-03T13:53:46Z</time>
      </trkpt>
      <trkpt lat="44.4176" lon="1.52186">
        <ele>217.8</ele>
        <time>2024-12-03T13:53:45Z</time>
      </trkpt>
      <trkpt lat="44.4176" lon="1.52185">
        <ele>217.7</ele>
        <time>2024-12-03T13:53:44Z</time>
      </trkpt>
      <trkpt lat="44.4176" lon="1.52184">
        <ele>217.5</ele>
        <time>2024-12-03T13:53:43Z</time>
      </trkpt>
      <trkpt lat="44.4176" lon="1.52182">
        <ele>217.3</ele>
        <time>2024-12-03T13:53:42Z</time>
      </trkpt>
      <trkpt lat="44.41759" lon="1.5218">
        <ele>217.1</ele>
        <time>2024-12-03T13:53:41Z</time>
      </trkpt>
      <trkpt lat="44.41759" lon="1.52178">
        <ele>216.9</ele>
        <time>2024-12-03T13:53:40Z</time>
      </trkpt>
      <trkpt lat="44.41759" lon="1.52177">
        <ele>216.8</ele>
        <time>2024-12-03T13:53:39Z</time>
      </trkpt>
      <trkpt lat="44.41759" lon="1.52176">
        <ele>216.7</ele>
        <time>2024-12-03T13:53:38Z</time>
      </trkpt>
      <trkpt lat="44.41759" lon="1.52176">
        <ele>216.6</ele>
        <time>2024-12-03T13:53:37Z</time>
      </trkpt>
      <trkpt lat="44.41759" lon="1.52174">
        <ele>216.5</ele>
        <time>2024-12-03T13:53:36Z</time>
      </trkpt>
      <trkpt lat="44.41759" lon="1.52173">
        <ele>216.3</ele>
        <time>2024-12-03T13:53:34Z</time>
      </trkpt>
      <trkpt lat="44.41759" lon="1.52172">
        <ele>216.2</ele>
        <time>2024-12-03T13:53:33Z</time>
      </trkpt>
      <trkpt lat="44.41759" lon="1.52171">
        <ele>216.1</ele>
        <time>2024-12-03T13:53:32Z</time>
      </trkpt>
      <trkpt lat="44.41759" lon="1.5217">
        <ele>216</ele>
        <time>2024-12-03T13:53:31Z</time>
      </trkpt>
      <trkpt lat="44.41758" lon="1.52169">
        <ele>215.9</ele>
        <time>2024-12-03T13:53:30Z</time>
      </trkpt>
      <trkpt lat="44.41758" lon="1.52168">
        <ele>215.7</ele>
        <time>2024-12-03T13:53:29Z</time>
      </trkpt>
      <trkpt lat="44.41758" lon="1.52166">
        <ele>215.5</ele>
        <time>2024-12-03T13:53:28Z</time>
      </trkpt>
      <trkpt lat="44.41758" lon="1.52164">
        <ele>215.3</ele>
        <time>2024-12-03T13:53:27Z</time>
      </trkpt>
      <trkpt lat="44.41758" lon="1.52163">
        <ele>215.1</ele>
        <time>2024-12-03T13:53:26Z</time>
      </trkpt>
      <trkpt lat="44.41758" lon="1.52162">
        <ele>215</ele>
        <time>2024-12-03T13:53:25Z</time>
      </trkpt>
      <trkpt lat="44.41759" lon="1.52161">
        <ele>214.9</ele>
        <time>2024-12-03T13:53:24Z</time>
      </trkpt>
      <trkpt lat="44.41759" lon="1.5216">
        <ele>214.8</ele>
        <time>2024-12-03T13:53:23Z</time>
      </trkpt>
      <trkpt lat="44.41759" lon="1.52159">
        <ele>214.7</ele>
        <time>2024-12-03T13:53:22Z</time>
      </trkpt>
      <trkpt lat="44.41759" lon="1.52159">
        <ele>214.7</ele>
        <time>2024-12-03T13:53:21Z</time>
      </trkpt>
      <trkpt lat="44.41759" lon="1.52158">
        <ele>214.5</ele>
        <time>2024-12-03T13:53:20Z</time>
      </trkpt>
      <trkpt lat="44.41758" lon="1.52156">
        <ele>214.3</ele>
        <time>2024-12-03T13:53:19Z</time>
      </trkpt>
      <trkpt lat="44.41758" lon="1.52154">
        <ele>214</ele>
        <time>2024-12-03T13:53:18Z</time>
      </trkpt>
      <trkpt lat="44.41758" lon="1.52154">
        <ele>214</ele>
        <time>2024-12-03T13:53:17Z</time>
      </trkpt>
      <trkpt lat="44.41758" lon="1.52152">
        <ele>213.7</ele>
        <time>2024-12-03T13:53:16Z</time>
      </trkpt>
      <trkpt lat="44.41758" lon="1.52151">
        <ele>213.6</ele>
        <time>2024-12-03T13:53:15Z</time>
      </trkpt>
      <trkpt lat="44.41757" lon="1.52149">
        <ele>213.4</ele>
        <time>2024-12-03T13:53:14Z</time>
      </trkpt>
      <trkpt lat="44.41757" lon="1.52147">
        <ele>213</ele>
        <time>2024-12-03T13:53:13Z</time>
      </trkpt>
      <trkpt lat="44.41757" lon="1.52145">
        <ele>212.8</ele>
        <time>2024-12-03T13:53:12Z</time>
      </trkpt>
      <trkpt lat="44.41756" lon="1.52144">
        <ele>212.6</ele>
        <time>2024-12-03T13:53:11Z</time>
      </trkpt>
      <trkpt lat="44.41756" lon="1.52142">
        <ele>212.3</ele>
        <time>2024-12-03T13:53:10Z</time>
      </trkpt>
      <trkpt lat="44.41756" lon="1.52141">
        <ele>212.1</ele>
        <time>2024-12-03T13:53:09Z</time>
      </trkpt>
      <trkpt lat="44.41756" lon="1.5214">
        <ele>211.9</ele>
        <time>2024-12-03T13:53:08Z</time>
      </trkpt>
      <trkpt lat="44.41756" lon="1.52137">
        <ele>211.7</ele>
        <time>2024-12-03T13:53:07Z</time>
      </trkpt>
      <trkpt lat="44.41756" lon="1.52136">
        <ele>211.7</ele>
        <time>2024-12-03T13:53:06Z</time>
      </trkpt>
      <trkpt lat="44.41757" lon="1.52135">
        <ele>211.7</ele>
        <time>2024-12-03T13:53:05Z</time>
      </trkpt>
      <trkpt lat="44.41758" lon="1.52134">
        <ele>211.8</ele>
        <time>2024-12-03T13:53:04Z</time>
      </trkpt>
      <trkpt lat="44.41758" lon="1.52134">
        <ele>211.8</ele>
        <time>2024-12-03T13:53:03Z</time>
      </trkpt>
      <trkpt lat="44.41759" lon="1.52134">
        <ele>211.9</ele>
        <time>2024-12-03T13:53:02Z</time>
      </trkpt>
      <trkpt lat="44.4176" lon="1.52133">
        <ele>212</ele>
        <time>2024-12-03T13:53:01Z</time>
      </trkpt>
      <trkpt lat="44.4176" lon="1.52132">
        <ele>212</ele>
        <time>2024-12-03T13:53:00Z</time>
      </trkpt>
      <trkpt lat="44.4176" lon="1.52132">
        <ele>211.9</ele>
        <time>2024-12-03T13:52:59Z</time>
      </trkpt>
      <trkpt lat="44.41761" lon="1.5213">
        <ele>212</ele>
        <time>2024-12-03T13:52:58Z</time>
      </trkpt>
      <trkpt lat="44.41761" lon="1.52129">
        <ele>212</ele>
        <time>2024-12-03T13:52:57Z</time>
      </trkpt>
      <trkpt lat="44.41761" lon="1.5213">
        <ele>212</ele>
        <time>2024-12-03T13:52:56Z</time>
      </trkpt>
      <trkpt lat="44.41762" lon="1.52131">
        <ele>212.1</ele>
        <time>2024-12-03T13:52:55Z</time>
      </trkpt>
      <trkpt lat="44.41762" lon="1.52132">
        <ele>212.2</ele>
        <time>2024-12-03T13:52:54Z</time>
      </trkpt>
      <trkpt lat="44.41763" lon="1.52132">
        <ele>212.4</ele>
        <time>2024-12-03T13:52:53Z</time>
      </trkpt>
      <trkpt lat="44.41763" lon="1.52131">
        <ele>212.4</ele>
        <time>2024-12-03T13:52:52Z</time>
      </trkpt>
      <trkpt lat="44.41763" lon="1.52129">
        <ele>212.4</ele>
        <time>2024-12-03T13:52:51Z</time>
      </trkpt>
      <trkpt lat="44.41763" lon="1.52128">
        <ele>212.2</ele>
        <time>2024-12-03T13:52:50Z</time>
      </trkpt>
      <trkpt lat="44.41762" lon="1.52126">
        <ele>211.9</ele>
        <time>2024-12-03T13:52:48Z</time>
      </trkpt>
      <trkpt lat="44.41762" lon="1.52124">
        <ele>211.9</ele>
        <time>2024-12-03T13:52:47Z</time>
      </trkpt>
      <trkpt lat="44.41763" lon="1.52123">
        <ele>211.9</ele>
        <time>2024-12-03T13:52:46Z</time>
      </trkpt>
      <trkpt lat="44.41763" lon="1.52122">
        <ele>211.9</ele>
        <time>2024-12-03T13:52:45Z</time>
      </trkpt>
      <trkpt lat="44.41763" lon="1.52122">
        <ele>211.9</ele>
        <time>2024-12-03T13:52:44Z</time>
      </trkpt>
      <trkpt lat="44.41763" lon="1.52122">
        <ele>211.9</ele>
        <time>2024-12-03T13:52:43Z</time>
      </trkpt>
      <trkpt lat="44.41763" lon="1.52122">
        <ele>211.9</ele>
        <time>2024-12-03T13:52:42Z</time>
      </trkpt>
      <trkpt lat="44.41763" lon="1.52122">
        <ele>211.8</ele>
        <time>2024-12-03T13:52:41Z</time>
      </trkpt>
      <trkpt lat="44.41763" lon="1.52122">
        <ele>211.8</ele>
        <time>2024-12-03T13:52:40Z</time>
      </trkpt>
      <trkpt lat="44.41762" lon="1.52122">
        <ele>211.7</ele>
        <time>2024-12-03T13:52:39Z</time>
      </trkpt>
      <trkpt lat="44.41762" lon="1.52122">
        <ele>211.7</ele>
        <time>2024-12-03T13:52:38Z</time>
      </trkpt>
      <trkpt lat="44.41762" lon="1.52122">
        <ele>211.7</ele>
        <time>2024-12-03T13:52:37Z</time>
      </trkpt>
      <trkpt lat="44.41762" lon="1.52121">
        <ele>211.7</ele>
        <time>2024-12-03T13:52:36Z</time>
      </trkpt>
      <trkpt lat="44.41762" lon="1.52121">
        <ele>211.7</ele>
        <time>2024-12-03T13:52:35Z</time>
      </trkpt>
      <trkpt lat="44.41762" lon="1.5212">
        <ele>211.6</ele>
        <time>2024-12-03T13:52:34Z</time>
      </trkpt>
      <trkpt lat="44.41762" lon="1.52121">
        <ele>211.5</ele>
        <time>2024-12-03T13:52:33Z</time>
      </trkpt>
      <trkpt lat="44.41761" lon="1.52121">
        <ele>211.5</ele>
        <time>2024-12-03T13:52:32Z</time>
      </trkpt>
      <trkpt lat="44.41761" lon="1.52121">
        <ele>211.5</ele>
        <time>2024-12-03T13:52:31Z</time>
      </trkpt>
      <trkpt lat="44.41762" lon="1.5212">
        <ele>211.5</ele>
        <time>2024-12-03T13:52:30Z</time>
      </trkpt>
      <trkpt lat="44.41762" lon="1.5212">
        <ele>211.5</ele>
        <time>2024-12-03T13:52:29Z</time>
      </trkpt>
      <trkpt lat="44.41762" lon="1.5212">
        <ele>211.5</ele>
        <time>2024-12-03T13:52:28Z</time>
      </trkpt>
      <trkpt lat="44.41762" lon="1.5212">
        <ele>211.5</ele>
        <time>2024-12-03T13:52:27Z</time>
      </trkpt>
      <trkpt lat="44.41762" lon="1.5212">
        <ele>211.6</ele>
        <time>2024-12-03T13:52:26Z</time>
      </trkpt>
      <trkpt lat="44.41762" lon="1.5212">
        <ele>211.6</ele>
        <time>2024-12-03T13:52:25Z</time>
      </trkpt>
      <trkpt lat="44.41763" lon="1.5212">
        <ele>211.7</ele>
        <time>2024-12-03T13:52:24Z</time>
      </trkpt>
      <trkpt lat="44.41763" lon="1.5212">
        <ele>211.7</ele>
        <time>2024-12-03T13:52:23Z</time>
      </trkpt>
      <trkpt lat="44.41763" lon="1.5212">
        <ele>211.7</ele>
        <time>2024-12-03T13:52:22Z</time>
      </trkpt>
      <trkpt lat="44.41763" lon="1.52119">
        <ele>211.7</ele>
        <time>2024-12-03T13:52:21Z</time>
      </trkpt>
      <trkpt lat="44.41763" lon="1.52119">
        <ele>211.6</ele>
        <time>2024-12-03T13:52:20Z</time>
      </trkpt>
      <trkpt lat="44.41762" lon="1.52119">
        <ele>211.6</ele>
        <time>2024-12-03T13:52:19Z</time>
      </trkpt>
      <trkpt lat="44.41762" lon="1.52119">
        <ele>211.5</ele>
        <time>2024-12-03T13:52:18Z</time>
      </trkpt>
      <trkpt lat="44.41762" lon="1.52119">
        <ele>211.5</ele>
        <time>2024-12-03T13:52:17Z</time>
      </trkpt>
      <trkpt lat="44.41762" lon="1.52119">
        <ele>211.6</ele>
        <time>2024-12-03T13:52:16Z</time>
      </trkpt>
      <trkpt lat="44.41762" lon="1.52118">
        <ele>211.6</ele>
        <time>2024-12-03T13:52:15Z</time>
      </trkpt>
      <trkpt lat="44.41763" lon="1.52118">
        <ele>211.6</ele>
        <time>2024-12-03T13:52:14Z</time>
      </trkpt>
      <trkpt lat="44.41763" lon="1.52118">
        <ele>211.6</ele>
        <time>2024-12-03T13:52:12Z</time>
      </trkpt>
      <trkpt lat="44.41763" lon="1.52118">
        <ele>211.6</ele>
        <time>2024-12-03T13:52:11Z</time>
      </trkpt>
      <trkpt lat="44.41763" lon="1.52117">
        <ele>211.6</ele>
        <time>2024-12-03T13:52:10Z</time>
      </trkpt>
      <trkpt lat="44.41763" lon="1.52117">
        <ele>211.6</ele>
        <time>2024-12-03T13:52:09Z</time>
      </trkpt>
      <trkpt lat="44.41763" lon="1.52117">
        <ele>211.6</ele>
        <time>2024-12-03T13:52:08Z</time>
      </trkpt>
      <trkpt lat="44.41764" lon="1.52119">
        <ele>211.9</ele>
        <time>2024-12-03T13:52:07Z</time>
      </trkpt>
      <trkpt lat="44.41764" lon="1.52119">
        <ele>212</ele>
        <time>2024-12-03T13:52:06Z</time>
      </trkpt>
      <trkpt lat="44.41764" lon="1.52119">
        <ele>212</ele>
        <time>2024-12-03T13:52:05Z</time>
      </trkpt>
      <trkpt lat="44.41765" lon="1.52119">
        <ele>212.3</ele>
        <time>2024-12-03T13:52:04Z</time>
      </trkpt>
      <trkpt lat="44.41766" lon="1.52118">
        <ele>212.5</ele>
        <time>2024-12-03T13:52:03Z</time>
      </trkpt>
      <trkpt lat="44.41767" lon="1.52118">
        <ele>212.5</ele>
        <time>2024-12-03T13:52:02Z</time>
      </trkpt>
      <trkpt lat="44.41767" lon="1.52118">
        <ele>212.6</ele>
        <time>2024-12-03T13:52:01Z</time>
      </trkpt>
      <trkpt lat="44.41767" lon="1.52117">
        <ele>212.6</ele>
        <time>2024-12-03T13:52:00Z</time>
      </trkpt>
      <trkpt lat="44.41767" lon="1.52116">
        <ele>212.6</ele>
        <time>2024-12-03T13:51:59Z</time>
      </trkpt>
      <trkpt lat="44.41768" lon="1.52116">
        <ele>212.6</ele>
        <time>2024-12-03T13:51:58Z</time>
      </trkpt>
      <trkpt lat="44.41768" lon="1.52115">
        <ele>212.7</ele>
        <time>2024-12-03T13:51:57Z</time>
      </trkpt>
      <trkpt lat="44.41768" lon="1.52114">
        <ele>212.6</ele>
        <time>2024-12-03T13:51:56Z</time>
      </trkpt>
      <trkpt lat="44.41768" lon="1.52113">
        <ele>212.6</ele>
        <time>2024-12-03T13:51:55Z</time>
      </trkpt>
      <trkpt lat="44.41768" lon="1.52111">
        <ele>212.5</ele>
        <time>2024-12-03T13:51:54Z</time>
      </trkpt>
      <trkpt lat="44.41768" lon="1.5211">
        <ele>212.4</ele>
        <time>2024-12-03T13:51:53Z</time>
      </trkpt>
      <trkpt lat="44.41767" lon="1.52108">
        <ele>212.2</ele>
        <time>2024-12-03T13:51:52Z</time>
      </trkpt>
      <trkpt lat="44.41767" lon="1.52107">
        <ele>212.1</ele>
        <time>2024-12-03T13:51:51Z</time>
      </trkpt>
      <trkpt lat="44.41767" lon="1.52106">
        <ele>211.9</ele>
        <time>2024-12-03T13:51:50Z</time>
      </trkpt>
      <trkpt lat="44.41767" lon="1.52105">
        <ele>211.8</ele>
        <time>2024-12-03T13:51:49Z</time>
      </trkpt>
      <trkpt lat="44.41766" lon="1.52105">
        <ele>211.7</ele>
        <time>2024-12-03T13:51:48Z</time>
      </trkpt>
      <trkpt lat="44.41766" lon="1.52104">
        <ele>211.6</ele>
        <time>2024-12-03T13:51:47Z</time>
      </trkpt>
      <trkpt lat="44.41766" lon="1.52102">
        <ele>211.3</ele>
        <time>2024-12-03T13:51:46Z</time>
      </trkpt>
      <trkpt lat="44.41765" lon="1.52101">
        <ele>211.1</ele>
        <time>2024-12-03T13:51:45Z</time>
      </trkpt>
      <trkpt lat="44.41765" lon="1.521">
        <ele>210.9</ele>
        <time>2024-12-03T13:51:44Z</time>
      </trkpt>
      <trkpt lat="44.41764" lon="1.52099">
        <ele>210.7</ele>
        <time>2024-12-03T13:51:43Z</time>
      </trkpt>
      <trkpt lat="44.41764" lon="1.52097">
        <ele>210.6</ele>
        <time>2024-12-03T13:51:42Z</time>
      </trkpt>
      <trkpt lat="44.41764" lon="1.52096">
        <ele>210.5</ele>
        <time>2024-12-03T13:51:41Z</time>
      </trkpt>
      <trkpt lat="44.41764" lon="1.52095">
        <ele>210.4</ele>
        <time>2024-12-03T13:51:40Z</time>
      </trkpt>
      <trkpt lat="44.41764" lon="1.52094">
        <ele>210.4</ele>
        <time>2024-12-03T13:51:39Z</time>
      </trkpt>
      <trkpt lat="44.41764" lon="1.52093">
        <ele>210.3</ele>
        <time>2024-12-03T13:51:38Z</time>
      </trkpt>
      <trkpt lat="44.41764" lon="1.52093">
        <ele>210.2</ele>
        <time>2024-12-03T13:51:37Z</time>
      </trkpt>
      <trkpt lat="44.41764" lon="1.52092">
        <ele>210.1</ele>
        <time>2024-12-03T13:51:36Z</time>
      </trkpt>
      <trkpt lat="44.41764" lon="1.52091">
        <ele>209.9</ele>
        <time>2024-12-03T13:51:35Z</time>
      </trkpt>
      <trkpt lat="44.41763" lon="1.52089">
        <ele>209.8</ele>
        <time>2024-12-03T13:51:34Z</time>
      </trkpt>
      <trkpt lat="44.41763" lon="1.52088">
        <ele>209.6</ele>
        <time>2024-12-03T13:51:33Z</time>
      </trkpt>
      <trkpt lat="44.41763" lon="1.52087">
        <ele>209.4</ele>
        <time>2024-12-03T13:51:32Z</time>
      </trkpt>
      <trkpt lat="44.41762" lon="1.52086">
        <ele>209.2</ele>
        <time>2024-12-03T13:51:31Z</time>
      </trkpt>
      <trkpt lat="44.41762" lon="1.52086">
        <ele>209.1</ele>
        <time>2024-12-03T13:51:30Z</time>
      </trkpt>
      <trkpt lat="44.41762" lon="1.52085">
        <ele>208.9</ele>
        <time>2024-12-03T13:51:29Z</time>
      </trkpt>
      <trkpt lat="44.41761" lon="1.52084">
        <ele>208.7</ele>
        <time>2024-12-03T13:51:28Z</time>
      </trkpt>
      <trkpt lat="44.41761" lon="1.52083">
        <ele>208.5</ele>
        <time>2024-12-03T13:51:27Z</time>
      </trkpt>
      <trkpt lat="44.41761" lon="1.52083">
        <ele>208.3</ele>
        <time>2024-12-03T13:51:26Z</time>
      </trkpt>
      <trkpt lat="44.4176" lon="1.52081">
        <ele>208.1</ele>
        <time>2024-12-03T13:51:25Z</time>
      </trkpt>
      <trkpt lat="44.4176" lon="1.5208">
        <ele>207.8</ele>
        <time>2024-12-03T13:51:24Z</time>
      </trkpt>
      <trkpt lat="44.41759" lon="1.52079">
        <ele>207.6</ele>
        <time>2024-12-03T13:51:23Z</time>
      </trkpt>
      <trkpt lat="44.41759" lon="1.52078">
        <ele>207.4</ele>
        <time>2024-12-03T13:51:22Z</time>
      </trkpt>
      <trkpt lat="44.41758" lon="1.52076">
        <ele>207.1</ele>
        <time>2024-12-03T13:51:21Z</time>
      </trkpt>
      <trkpt lat="44.41758" lon="1.52075">
        <ele>206.9</ele>
        <time>2024-12-03T13:51:20Z</time>
      </trkpt>
      <trkpt lat="44.41758" lon="1.52074">
        <ele>206.7</ele>
        <time>2024-12-03T13:51:19Z</time>
      </trkpt>
      <trkpt lat="44.41757" lon="1.52073">
        <ele>206.5</ele>
        <time>2024-12-03T13:51:18Z</time>
      </trkpt>
      <trkpt lat="44.41757" lon="1.52072">
        <ele>206.4</ele>
        <time>2024-12-03T13:51:17Z</time>
      </trkpt>
      <trkpt lat="44.41757" lon="1.5207">
        <ele>206.1</ele>
        <time>2024-12-03T13:51:16Z</time>
      </trkpt>
      <trkpt lat="44.41756" lon="1.52068">
        <ele>205.8</ele>
        <time>2024-12-03T13:51:15Z</time>
      </trkpt>
      <trkpt lat="44.41756" lon="1.52067">
        <ele>205.7</ele>
        <time>2024-12-03T13:51:14Z</time>
      </trkpt>
      <trkpt lat="44.41756" lon="1.52067">
        <ele>205.7</ele>
        <time>2024-12-03T13:51:13Z</time>
      </trkpt>
      <trkpt lat="44.41756" lon="1.52067">
        <ele>205.7</ele>
        <time>2024-12-03T13:51:12Z</time>
      </trkpt>
      <trkpt lat="44.41757" lon="1.52066">
        <ele>205.7</ele>
        <time>2024-12-03T13:51:11Z</time>
      </trkpt>
      <trkpt lat="44.41757" lon="1.52066">
        <ele>205.8</ele>
        <time>2024-12-03T13:51:10Z</time>
      </trkpt>
      <trkpt lat="44.41757" lon="1.52066">
        <ele>205.8</ele>
        <time>2024-12-03T13:51:09Z</time>
      </trkpt>
      <trkpt lat="44.41757" lon="1.52066">
        <ele>205.8</ele>
        <time>2024-12-03T13:51:08Z</time>
      </trkpt>
      <trkpt lat="44.41757" lon="1.52066">
        <ele>205.8</ele>
        <time>2024-12-03T13:51:07Z</time>
      </trkpt>
      <trkpt lat="44.41757" lon="1.52066">
        <ele>205.9</ele>
        <time>2024-12-03T13:51:06Z</time>
      </trkpt>
      <trkpt lat="44.41757" lon="1.52065">
        <ele>205.9</ele>
        <time>2024-12-03T13:51:05Z</time>
      </trkpt>
      <trkpt lat="44.41757" lon="1.52065">
        <ele>205.9</ele>
        <time>2024-12-03T13:51:04Z</time>
      </trkpt>
      <trkpt lat="44.41757" lon="1.52065">
        <ele>205.8</ele>
        <time>2024-12-03T13:51:03Z</time>
      </trkpt>
      <trkpt lat="44.41757" lon="1.52065">
        <ele>205.8</ele>
        <time>2024-12-03T13:51:02Z</time>
      </trkpt>
      <trkpt lat="44.41757" lon="1.52065">
        <ele>205.8</ele>
        <time>2024-12-03T13:51:01Z</time>
      </trkpt>
      <trkpt lat="44.41756" lon="1.52064">
        <ele>205.5</ele>
        <time>2024-12-03T13:51:00Z</time>
      </trkpt>
      <trkpt lat="44.41756" lon="1.52064">
        <ele>205.5</ele>
        <time>2024-12-03T13:50:59Z</time>
      </trkpt>
      <trkpt lat="44.41755" lon="1.52063">
        <ele>205.1</ele>
        <time>2024-12-03T13:50:58Z</time>
      </trkpt>
      <trkpt lat="44.41754" lon="1.5206">
        <ele>204.6</ele>
        <time>2024-12-03T13:50:56Z</time>
      </trkpt>
      <trkpt lat="44.41754" lon="1.52059">
        <ele>204.4</ele>
        <time>2024-12-03T13:50:55Z</time>
      </trkpt>
      <trkpt lat="44.41754" lon="1.52058">
        <ele>204.3</ele>
        <time>2024-12-03T13:50:54Z</time>
      </trkpt>
      <trkpt lat="44.41754" lon="1.52057">
        <ele>204.1</ele>
        <time>2024-12-03T13:50:53Z</time>
      </trkpt>
      <trkpt lat="44.41753" lon="1.52057">
        <ele>204</ele>
        <time>2024-12-03T13:50:52Z</time>
      </trkpt>
      <trkpt lat="44.41753" lon="1.52056">
        <ele>203.8</ele>
        <time>2024-12-03T13:50:51Z</time>
      </trkpt>
      <trkpt lat="44.41753" lon="1.52055">
        <ele>203.8</ele>
        <time>2024-12-03T13:50:50Z</time>
      </trkpt>
      <trkpt lat="44.41753" lon="1.52054">
        <ele>203.7</ele>
        <time>2024-12-03T13:50:49Z</time>
      </trkpt>
      <trkpt lat="44.41753" lon="1.52053">
        <ele>203.6</ele>
        <time>2024-12-03T13:50:48Z</time>
      </trkpt>
      <trkpt lat="44.41753" lon="1.52053">
        <ele>203.6</ele>
        <time>2024-12-03T13:50:47Z</time>
      </trkpt>
      <trkpt lat="44.41753" lon="1.52051">
        <ele>203.5</ele>
        <time>2024-12-03T13:50:46Z</time>
      </trkpt>
      <trkpt lat="44.41753" lon="1.5205">
        <ele>203.4</ele>
        <time>2024-12-03T13:50:45Z</time>
      </trkpt>
      <trkpt lat="44.41753" lon="1.52048">
        <ele>203.3</ele>
        <time>2024-12-03T13:50:44Z</time>
      </trkpt>
      <trkpt lat="44.41753" lon="1.52047">
        <ele>203.2</ele>
        <time>2024-12-03T13:50:43Z</time>
      </trkpt>
      <trkpt lat="44.41753" lon="1.52046">
        <ele>203.1</ele>
        <time>2024-12-03T13:50:42Z</time>
      </trkpt>
      <trkpt lat="44.41753" lon="1.52044">
        <ele>203</ele>
        <time>2024-12-03T13:50:41Z</time>
      </trkpt>
      <trkpt lat="44.41753" lon="1.52043">
        <ele>202.9</ele>
        <time>2024-12-03T13:50:40Z</time>
      </trkpt>
      <trkpt lat="44.41754" lon="1.52041">
        <ele>202.9</ele>
        <time>2024-12-03T13:50:39Z</time>
      </trkpt>
      <trkpt lat="44.41754" lon="1.5204">
        <ele>202.8</ele>
        <time>2024-12-03T13:50:38Z</time>
      </trkpt>
      <trkpt lat="44.41754" lon="1.52039">
        <ele>202.7</ele>
        <time>2024-12-03T13:50:37Z</time>
      </trkpt>
      <trkpt lat="44.41754" lon="1.52038">
        <ele>202.6</ele>
        <time>2024-12-03T13:50:36Z</time>
      </trkpt>
      <trkpt lat="44.41754" lon="1.52037">
        <ele>202.5</ele>
        <time>2024-12-03T13:50:35Z</time>
      </trkpt>
      <trkpt lat="44.41754" lon="1.52036">
        <ele>202.4</ele>
        <time>2024-12-03T13:50:34Z</time>
      </trkpt>
      <trkpt lat="44.41754" lon="1.52034">
        <ele>202.3</ele>
        <time>2024-12-03T13:50:33Z</time>
      </trkpt>
      <trkpt lat="44.41753" lon="1.52033">
        <ele>202.2</ele>
        <time>2024-12-03T13:50:32Z</time>
      </trkpt>
      <trkpt lat="44.41753" lon="1.52032">
        <ele>202.1</ele>
        <time>2024-12-03T13:50:31Z</time>
      </trkpt>
      <trkpt lat="44.41753" lon="1.52032">
        <ele>202</ele>
        <time>2024-12-03T13:50:30Z</time>
      </trkpt>
      <trkpt lat="44.41753" lon="1.52032">
        <ele>202.1</ele>
        <time>2024-12-03T13:50:29Z</time>
      </trkpt>
      <trkpt lat="44.41753" lon="1.52032">
        <ele>202</ele>
        <time>2024-12-03T13:50:28Z</time>
      </trkpt>
      <trkpt lat="44.41753" lon="1.52031">
        <ele>202</ele>
        <time>2024-12-03T13:50:27Z</time>
      </trkpt>
      <trkpt lat="44.41753" lon="1.5203">
        <ele>201.9</ele>
        <time>2024-12-03T13:50:26Z</time>
      </trkpt>
      <trkpt lat="44.41753" lon="1.5203">
        <ele>201.9</ele>
        <time>2024-12-03T13:50:24Z</time>
      </trkpt>
      <trkpt lat="44.41753" lon="1.52029">
        <ele>201.8</ele>
        <time>2024-12-03T13:50:23Z</time>
      </trkpt>
      <trkpt lat="44.41754" lon="1.52029">
        <ele>201.9</ele>
        <time>2024-12-03T13:50:22Z</time>
      </trkpt>
      <trkpt lat="44.41754" lon="1.52029">
        <ele>201.9</ele>
        <time>2024-12-03T13:50:21Z</time>
      </trkpt>
      <trkpt lat="44.41754" lon="1.52028">
        <ele>201.9</ele>
        <time>2024-12-03T13:50:20Z</time>
      </trkpt>
      <trkpt lat="44.41754" lon="1.52027">
        <ele>201.8</ele>
        <time>2024-12-03T13:50:19Z</time>
      </trkpt>
      <trkpt lat="44.41754" lon="1.52026">
        <ele>201.7</ele>
        <time>2024-12-03T13:50:18Z</time>
      </trkpt>
      <trkpt lat="44.41754" lon="1.52026">
        <ele>201.7</ele>
        <time>2024-12-03T13:50:17Z</time>
      </trkpt>
      <trkpt lat="44.41754" lon="1.52026">
        <ele>201.7</ele>
        <time>2024-12-03T13:50:16Z</time>
      </trkpt>
      <trkpt lat="44.41754" lon="1.52025">
        <ele>201.6</ele>
        <time>2024-12-03T13:50:15Z</time>
      </trkpt>
      <trkpt lat="44.41754" lon="1.52024">
        <ele>201.4</ele>
        <time>2024-12-03T13:50:14Z</time>
      </trkpt>
      <trkpt lat="44.41754" lon="1.52023">
        <ele>201.3</ele>
        <time>2024-12-03T13:50:13Z</time>
      </trkpt>
      <trkpt lat="44.41754" lon="1.52022">
        <ele>201.2</ele>
        <time>2024-12-03T13:50:12Z</time>
      </trkpt>
      <trkpt lat="44.41754" lon="1.52022">
        <ele>201.2</ele>
        <time>2024-12-03T13:50:11Z</time>
      </trkpt>
      <trkpt lat="44.41755" lon="1.52021">
        <ele>201.3</ele>
        <time>2024-12-03T13:50:10Z</time>
      </trkpt>
      <trkpt lat="44.41755" lon="1.52021">
        <ele>201.3</ele>
        <time>2024-12-03T13:50:09Z</time>
      </trkpt>
      <trkpt lat="44.41755" lon="1.5202">
        <ele>201.2</ele>
        <time>2024-12-03T13:50:08Z</time>
      </trkpt>
      <trkpt lat="44.41755" lon="1.52019">
        <ele>201</ele>
        <time>2024-12-03T13:50:07Z</time>
      </trkpt>
      <trkpt lat="44.41755" lon="1.52018">
        <ele>201</ele>
        <time>2024-12-03T13:50:06Z</time>
      </trkpt>
      <trkpt lat="44.41756" lon="1.52017">
        <ele>200.9</ele>
        <time>2024-12-03T13:50:05Z</time>
      </trkpt>
      <trkpt lat="44.41756" lon="1.52017">
        <ele>200.9</ele>
        <time>2024-12-03T13:50:04Z</time>
      </trkpt>
      <trkpt lat="44.41756" lon="1.52016">
        <ele>200.9</ele>
        <time>2024-12-03T13:50:03Z</time>
      </trkpt>
      <trkpt lat="44.41756" lon="1.52016">
        <ele>200.9</ele>
        <time>2024-12-03T13:50:02Z</time>
      </trkpt>
      <trkpt lat="44.41757" lon="1.52014">
        <ele>200.7</ele>
        <time>2024-12-03T13:50:01Z</time>
      </trkpt>
      <trkpt lat="44.41757" lon="1.52012">
        <ele>200.5</ele>
        <time>2024-12-03T13:50:00Z</time>
      </trkpt>
      <trkpt lat="44.41757" lon="1.52011">
        <ele>200.4</ele>
        <time>2024-12-03T13:49:59Z</time>
      </trkpt>
      <trkpt lat="44.41757" lon="1.5201">
        <ele>200.3</ele>
        <time>2024-12-03T13:49:58Z</time>
      </trkpt>
      <trkpt lat="44.41757" lon="1.5201">
        <ele>200.2</ele>
        <time>2024-12-03T13:49:57Z</time>
      </trkpt>
      <trkpt lat="44.41757" lon="1.52009">
        <ele>200.2</ele>
        <time>2024-12-03T13:49:56Z</time>
      </trkpt>
      <trkpt lat="44.41757" lon="1.52008">
        <ele>200</ele>
        <time>2024-12-03T13:49:55Z</time>
      </trkpt>
      <trkpt lat="44.41758" lon="1.52006">
        <ele>199.9</ele>
        <time>2024-12-03T13:49:54Z</time>
      </trkpt>
      <trkpt lat="44.41758" lon="1.52004">
        <ele>199.7</ele>
        <time>2024-12-03T13:49:53Z</time>
      </trkpt>
      <trkpt lat="44.41758" lon="1.52003">
        <ele>199.6</ele>
        <time>2024-12-03T13:49:52Z</time>
      </trkpt>
      <trkpt lat="44.41758" lon="1.52001">
        <ele>199.4</ele>
        <time>2024-12-03T13:49:51Z</time>
      </trkpt>
      <trkpt lat="44.41759" lon="1.52">
        <ele>199.2</ele>
        <time>2024-12-03T13:49:50Z</time>
      </trkpt>
      <trkpt lat="44.41759" lon="1.51998">
        <ele>199.1</ele>
        <time>2024-12-03T13:49:49Z</time>
      </trkpt>
      <trkpt lat="44.41759" lon="1.51997">
        <ele>199.1</ele>
        <time>2024-12-03T13:49:48Z</time>
      </trkpt>
      <trkpt lat="44.4176" lon="1.51996">
        <ele>199</ele>
        <time>2024-12-03T13:49:47Z</time>
      </trkpt>
      <trkpt lat="44.4176" lon="1.51995">
        <ele>199</ele>
        <time>2024-12-03T13:49:46Z</time>
      </trkpt>
      <trkpt lat="44.41759" lon="1.51993">
        <ele>198.8</ele>
        <time>2024-12-03T13:49:45Z</time>
      </trkpt>
      <trkpt lat="44.41759" lon="1.51992">
        <ele>198.6</ele>
        <time>2024-12-03T13:49:44Z</time>
      </trkpt>
      <trkpt lat="44.41759" lon="1.51991">
        <ele>198.5</ele>
        <time>2024-12-03T13:49:43Z</time>
      </trkpt>
      <trkpt lat="44.41759" lon="1.5199">
        <ele>198.5</ele>
        <time>2024-12-03T13:49:42Z</time>
      </trkpt>
      <trkpt lat="44.41759" lon="1.51989">
        <ele>198.4</ele>
        <time>2024-12-03T13:49:41Z</time>
      </trkpt>
      <trkpt lat="44.4176" lon="1.51988">
        <ele>198.4</ele>
        <time>2024-12-03T13:49:40Z</time>
      </trkpt>
      <trkpt lat="44.4176" lon="1.51987">
        <ele>198.3</ele>
        <time>2024-12-03T13:49:39Z</time>
      </trkpt>
      <trkpt lat="44.41761" lon="1.51986">
        <ele>198.2</ele>
        <time>2024-12-03T13:49:38Z</time>
      </trkpt>
      <trkpt lat="44.41761" lon="1.51985">
        <ele>198.1</ele>
        <time>2024-12-03T13:49:37Z</time>
      </trkpt>
      <trkpt lat="44.41761" lon="1.51983">
        <ele>198</ele>
        <time>2024-12-03T13:49:36Z</time>
      </trkpt>
      <trkpt lat="44.41761" lon="1.51983">
        <ele>198</ele>
        <time>2024-12-03T13:49:35Z</time>
      </trkpt>
      <trkpt lat="44.41762" lon="1.51982">
        <ele>197.9</ele>
        <time>2024-12-03T13:49:34Z</time>
      </trkpt>
      <trkpt lat="44.41762" lon="1.51981">
        <ele>197.8</ele>
        <time>2024-12-03T13:49:33Z</time>
      </trkpt>
      <trkpt lat="44.41762" lon="1.51979">
        <ele>197.7</ele>
        <time>2024-12-03T13:49:32Z</time>
      </trkpt>
      <trkpt lat="44.41763" lon="1.51978">
        <ele>197.6</ele>
        <time>2024-12-03T13:49:31Z</time>
      </trkpt>
      <trkpt lat="44.41763" lon="1.51976">
        <ele>197.4</ele>
        <time>2024-12-03T13:49:30Z</time>
      </trkpt>
      <trkpt lat="44.41763" lon="1.51975">
        <ele>197.3</ele>
        <time>2024-12-03T13:49:29Z</time>
      </trkpt>
      <trkpt lat="44.41763" lon="1.51974">
        <ele>197.2</ele>
        <time>2024-12-03T13:49:28Z</time>
      </trkpt>
      <trkpt lat="44.41763" lon="1.51973">
        <ele>197</ele>
        <time>2024-12-03T13:49:27Z</time>
      </trkpt>
      <trkpt lat="44.41763" lon="1.51972">
        <ele>197</ele>
        <time>2024-12-03T13:49:26Z</time>
      </trkpt>
      <trkpt lat="44.41763" lon="1.51971">
        <ele>197</ele>
        <time>2024-12-03T13:49:25Z</time>
      </trkpt>
      <trkpt lat="44.41764" lon="1.5197">
        <ele>196.9</ele>
        <time>2024-12-03T13:49:24Z</time>
      </trkpt>
      <trkpt lat="44.41765" lon="1.51967">
        <ele>196.8</ele>
        <time>2024-12-03T13:49:23Z</time>
      </trkpt>
      <trkpt lat="44.41766" lon="1.51966">
        <ele>196.7</ele>
        <time>2024-12-03T13:49:22Z</time>
      </trkpt>
      <trkpt lat="44.41766" lon="1.51965">
        <ele>196.6</ele>
        <time>2024-12-03T13:49:21Z</time>
      </trkpt>
      <trkpt lat="44.41767" lon="1.51964">
        <ele>196.5</ele>
        <time>2024-12-03T13:49:20Z</time>
      </trkpt>
      <trkpt lat="44.41768" lon="1.51963">
        <ele>196.4</ele>
        <time>2024-12-03T13:49:19Z</time>
      </trkpt>
      <trkpt lat="44.41768" lon="1.51963">
        <ele>196.3</ele>
        <time>2024-12-03T13:49:18Z</time>
      </trkpt>
      <trkpt lat="44.41769" lon="1.51962">
        <ele>196.2</ele>
        <time>2024-12-03T13:49:17Z</time>
      </trkpt>
      <trkpt lat="44.4177" lon="1.51962">
        <ele>196.2</ele>
        <time>2024-12-03T13:49:16Z</time>
      </trkpt>
      <trkpt lat="44.4177" lon="1.51961">
        <ele>196</ele>
        <time>2024-12-03T13:49:15Z</time>
      </trkpt>
      <trkpt lat="44.41771" lon="1.5196">
        <ele>195.9</ele>
        <time>2024-12-03T13:49:14Z</time>
      </trkpt>
      <trkpt lat="44.41772" lon="1.51959">
        <ele>195.7</ele>
        <time>2024-12-03T13:49:13Z</time>
      </trkpt>
      <trkpt lat="44.41773" lon="1.51958">
        <ele>195.5</ele>
        <time>2024-12-03T13:49:12Z</time>
      </trkpt>
      <trkpt lat="44.41773" lon="1.51958">
        <ele>195.5</ele>
        <time>2024-12-03T13:49:11Z</time>
      </trkpt>
      <trkpt lat="44.41773" lon="1.51956">
        <ele>195.2</ele>
        <time>2024-12-03T13:49:10Z</time>
      </trkpt>
      <trkpt lat="44.41774" lon="1.51954">
        <ele>194.9</ele>
        <time>2024-12-03T13:49:09Z</time>
      </trkpt>
      <trkpt lat="44.41775" lon="1.51954">
        <ele>194.7</ele>
        <time>2024-12-03T13:49:08Z</time>
      </trkpt>
      <trkpt lat="44.41776" lon="1.51954">
        <ele>194.7</ele>
        <time>2024-12-03T13:49:07Z</time>
      </trkpt>
      <trkpt lat="44.41776" lon="1.51954">
        <ele>194.7</ele>
        <time>2024-12-03T13:49:06Z</time>
      </trkpt>
      <trkpt lat="44.41777" lon="1.51954">
        <ele>194.5</ele>
        <time>2024-12-03T13:49:05Z</time>
      </trkpt>
      <trkpt lat="44.41777" lon="1.51953">
        <ele>194.3</ele>
        <time>2024-12-03T13:49:04Z</time>
      </trkpt>
      <trkpt lat="44.41778" lon="1.51953">
        <ele>194.3</ele>
        <time>2024-12-03T13:49:03Z</time>
      </trkpt>
      <trkpt lat="44.41779" lon="1.51952">
        <ele>194.3</ele>
        <time>2024-12-03T13:49:02Z</time>
      </trkpt>
      <trkpt lat="44.41779" lon="1.51951">
        <ele>194.2</ele>
        <time>2024-12-03T13:49:01Z</time>
      </trkpt>
      <trkpt lat="44.41779" lon="1.5195">
        <ele>194.1</ele>
        <time>2024-12-03T13:49:00Z</time>
      </trkpt>
      <trkpt lat="44.4178" lon="1.51949">
        <ele>194</ele>
        <time>2024-12-03T13:48:59Z</time>
      </trkpt>
      <trkpt lat="44.4178" lon="1.51948">
        <ele>193.9</ele>
        <time>2024-12-03T13:48:58Z</time>
      </trkpt>
      <trkpt lat="44.41781" lon="1.51947">
        <ele>193.8</ele>
        <time>2024-12-03T13:48:57Z</time>
      </trkpt>
      <trkpt lat="44.41781" lon="1.51946">
        <ele>193.7</ele>
        <time>2024-12-03T13:48:56Z</time>
      </trkpt>
      <trkpt lat="44.41783" lon="1.51944">
        <ele>193.5</ele>
        <time>2024-12-03T13:48:55Z</time>
      </trkpt>
      <trkpt lat="44.41784" lon="1.51943">
        <ele>193.6</ele>
        <time>2024-12-03T13:48:54Z</time>
      </trkpt>
      <trkpt lat="44.41784" lon="1.51943">
        <ele>193.6</ele>
        <time>2024-12-03T13:48:53Z</time>
      </trkpt>
      <trkpt lat="44.41784" lon="1.51942">
        <ele>193.6</ele>
        <time>2024-12-03T13:48:52Z</time>
      </trkpt>
      <trkpt lat="44.41784" lon="1.51942">
        <ele>193.6</ele>
        <time>2024-12-03T13:48:51Z</time>
      </trkpt>
      <trkpt lat="44.41784" lon="1.51942">
        <ele>193.6</ele>
        <time>2024-12-03T13:48:50Z</time>
      </trkpt>
      <trkpt lat="44.41784" lon="1.51941">
        <ele>193.5</ele>
        <time>2024-12-03T13:48:49Z</time>
      </trkpt>
      <trkpt lat="44.41784" lon="1.51941">
        <ele>193.5</ele>
        <time>2024-12-03T13:48:48Z</time>
      </trkpt>
      <trkpt lat="44.41785" lon="1.51941">
        <ele>193.5</ele>
        <time>2024-12-03T13:48:47Z</time>
      </trkpt>
      <trkpt lat="44.41785" lon="1.51941">
        <ele>193.6</ele>
        <time>2024-12-03T13:48:46Z</time>
      </trkpt>
      <trkpt lat="44.41784" lon="1.51941">
        <ele>193.5</ele>
        <time>2024-12-03T13:48:45Z</time>
      </trkpt>
      <trkpt lat="44.41784" lon="1.5194">
        <ele>193.4</ele>
        <time>2024-12-03T13:48:44Z</time>
      </trkpt>
      <trkpt lat="44.41784" lon="1.51938">
        <ele>193.4</ele>
        <time>2024-12-03T13:48:43Z</time>
      </trkpt>
      <trkpt lat="44.41785" lon="1.51937">
        <ele>193.3</ele>
        <time>2024-12-03T13:48:42Z</time>
      </trkpt>
      <trkpt lat="44.41785" lon="1.51936">
        <ele>193.3</ele>
        <time>2024-12-03T13:48:41Z</time>
      </trkpt>
      <trkpt lat="44.41786" lon="1.51936">
        <ele>193.3</ele>
        <time>2024-12-03T13:48:40Z</time>
      </trkpt>
      <trkpt lat="44.41787" lon="1.51935">
        <ele>193.3</ele>
        <time>2024-12-03T13:48:39Z</time>
      </trkpt>
      <trkpt lat="44.41788" lon="1.51934">
        <ele>193.3</ele>
        <time>2024-12-03T13:48:38Z</time>
      </trkpt>
      <trkpt lat="44.41789" lon="1.51933">
        <ele>193.2</ele>
        <time>2024-12-03T13:48:37Z</time>
      </trkpt>
      <trkpt lat="44.4179" lon="1.51932">
        <ele>193.1</ele>
        <time>2024-12-03T13:48:36Z</time>
      </trkpt>
      <trkpt lat="44.4179" lon="1.51932">
        <ele>193.1</ele>
        <time>2024-12-03T13:48:35Z</time>
      </trkpt>
      <trkpt lat="44.41791" lon="1.51932">
        <ele>193.1</ele>
        <time>2024-12-03T13:48:34Z</time>
      </trkpt>
      <trkpt lat="44.41792" lon="1.51931">
        <ele>193</ele>
        <time>2024-12-03T13:48:33Z</time>
      </trkpt>
      <trkpt lat="44.41792" lon="1.51931">
        <ele>193</ele>
        <time>2024-12-03T13:48:32Z</time>
      </trkpt>
      <trkpt lat="44.41793" lon="1.5193">
        <ele>192.9</ele>
        <time>2024-12-03T13:48:31Z</time>
      </trkpt>
      <trkpt lat="44.41794" lon="1.51929">
        <ele>192.8</ele>
        <time>2024-12-03T13:48:30Z</time>
      </trkpt>
      <trkpt lat="44.41795" lon="1.51929">
        <ele>192.7</ele>
        <time>2024-12-03T13:48:29Z</time>
      </trkpt>
      <trkpt lat="44.41795" lon="1.51928">
        <ele>192.7</ele>
        <time>2024-12-03T13:48:28Z</time>
      </trkpt>
      <trkpt lat="44.41796" lon="1.51927">
        <ele>192.6</ele>
        <time>2024-12-03T13:48:27Z</time>
      </trkpt>
      <trkpt lat="44.41796" lon="1.51927">
        <ele>192.5</ele>
        <time>2024-12-03T13:48:26Z</time>
      </trkpt>
      <trkpt lat="44.41797" lon="1.51926">
        <ele>192.4</ele>
        <time>2024-12-03T13:48:25Z</time>
      </trkpt>
      <trkpt lat="44.41797" lon="1.51926">
        <ele>192.2</ele>
        <time>2024-12-03T13:48:24Z</time>
      </trkpt>
      <trkpt lat="44.41798" lon="1.51925">
        <ele>192.1</ele>
        <time>2024-12-03T13:48:23Z</time>
      </trkpt>
      <trkpt lat="44.41799" lon="1.51924">
        <ele>191.9</ele>
        <time>2024-12-03T13:48:22Z</time>
      </trkpt>
      <trkpt lat="44.41799" lon="1.51923">
        <ele>191.8</ele>
        <time>2024-12-03T13:48:21Z</time>
      </trkpt>
      <trkpt lat="44.418" lon="1.51922">
        <ele>191.5</ele>
        <time>2024-12-03T13:48:20Z</time>
      </trkpt>
      <trkpt lat="44.41801" lon="1.51921">
        <ele>191.3</ele>
        <time>2024-12-03T13:48:19Z</time>
      </trkpt>
      <trkpt lat="44.41802" lon="1.5192">
        <ele>191</ele>
        <time>2024-12-03T13:48:18Z</time>
      </trkpt>
      <trkpt lat="44.41803" lon="1.51919">
        <ele>190.8</ele>
        <time>2024-12-03T13:48:17Z</time>
      </trkpt>
      <trkpt lat="44.41803" lon="1.51919">
        <ele>190.6</ele>
        <time>2024-12-03T13:48:16Z</time>
      </trkpt>
      <trkpt lat="44.41804" lon="1.51918">
        <ele>190.4</ele>
        <time>2024-12-03T13:48:15Z</time>
      </trkpt>
      <trkpt lat="44.41804" lon="1.51917">
        <ele>190.2</ele>
        <time>2024-12-03T13:48:14Z</time>
      </trkpt>
      <trkpt lat="44.41804" lon="1.51916">
        <ele>190.1</ele>
        <time>2024-12-03T13:48:13Z</time>
      </trkpt>
      <trkpt lat="44.41804" lon="1.51915">
        <ele>190.1</ele>
        <time>2024-12-03T13:48:12Z</time>
      </trkpt>
      <trkpt lat="44.41805" lon="1.51914">
        <ele>190</ele>
        <time>2024-12-03T13:48:11Z</time>
      </trkpt>
      <trkpt lat="44.41805" lon="1.51912">
        <ele>189.9</ele>
        <time>2024-12-03T13:48:10Z</time>
      </trkpt>
      <trkpt lat="44.41806" lon="1.5191">
        <ele>189.8</ele>
        <time>2024-12-03T13:48:09Z</time>
      </trkpt>
      <trkpt lat="44.41807" lon="1.51909">
        <ele>189.9</ele>
        <time>2024-12-03T13:48:08Z</time>
      </trkpt>
      <trkpt lat="44.41807" lon="1.51909">
        <ele>189.9</ele>
        <time>2024-12-03T13:48:07Z</time>
      </trkpt>
      <trkpt lat="44.41808" lon="1.51908">
        <ele>190</ele>
        <time>2024-12-03T13:48:06Z</time>
      </trkpt>
      <trkpt lat="44.41808" lon="1.51907">
        <ele>190</ele>
        <time>2024-12-03T13:48:05Z</time>
      </trkpt>
      <trkpt lat="44.4181" lon="1.51905">
        <ele>190.2</ele>
        <time>2024-12-03T13:48:04Z</time>
      </trkpt>
      <trkpt lat="44.41811" lon="1.51905">
        <ele>190.2</ele>
        <time>2024-12-03T13:48:03Z</time>
      </trkpt>
      <trkpt lat="44.41811" lon="1.51904">
        <ele>190.1</ele>
        <time>2024-12-03T13:48:02Z</time>
      </trkpt>
      <trkpt lat="44.41812" lon="1.51901">
        <ele>190.1</ele>
        <time>2024-12-03T13:48:01Z</time>
      </trkpt>
      <trkpt lat="44.41813" lon="1.519">
        <ele>190</ele>
        <time>2024-12-03T13:48:00Z</time>
      </trkpt>
      <trkpt lat="44.41813" lon="1.51899">
        <ele>189.9</ele>
        <time>2024-12-03T13:47:59Z</time>
      </trkpt>
      <trkpt lat="44.41813" lon="1.51897">
        <ele>189.8</ele>
        <time>2024-12-03T13:47:58Z</time>
      </trkpt>
      <trkpt lat="44.41814" lon="1.51896">
        <ele>189.7</ele>
        <time>2024-12-03T13:47:57Z</time>
      </trkpt>
      <trkpt lat="44.41814" lon="1.51895">
        <ele>189.6</ele>
        <time>2024-12-03T13:47:56Z</time>
      </trkpt>
      <trkpt lat="44.41815" lon="1.51894">
        <ele>189.6</ele>
        <time>2024-12-03T13:47:55Z</time>
      </trkpt>
      <trkpt lat="44.41815" lon="1.51893">
        <ele>189.5</ele>
        <time>2024-12-03T13:47:54Z</time>
      </trkpt>
      <trkpt lat="44.41815" lon="1.51893">
        <ele>189.4</ele>
        <time>2024-12-03T13:47:53Z</time>
      </trkpt>
      <trkpt lat="44.41816" lon="1.51892">
        <ele>189.4</ele>
        <time>2024-12-03T13:47:52Z</time>
      </trkpt>
      <trkpt lat="44.41816" lon="1.51892">
        <ele>189.3</ele>
        <time>2024-12-03T13:47:51Z</time>
      </trkpt>
      <trkpt lat="44.41817" lon="1.5189">
        <ele>189.2</ele>
        <time>2024-12-03T13:47:50Z</time>
      </trkpt>
      <trkpt lat="44.41819" lon="1.51889">
        <ele>189</ele>
        <time>2024-12-03T13:47:49Z</time>
      </trkpt>
      <trkpt lat="44.4182" lon="1.51888">
        <ele>189</ele>
        <time>2024-12-03T13:47:48Z</time>
      </trkpt>
      <trkpt lat="44.41821" lon="1.51887">
        <ele>189</ele>
        <time>2024-12-03T13:47:47Z</time>
      </trkpt>
      <trkpt lat="44.41822" lon="1.51885">
        <ele>188.9</ele>
        <time>2024-12-03T13:47:46Z</time>
      </trkpt>
      <trkpt lat="44.41823" lon="1.51884">
        <ele>188.9</ele>
        <time>2024-12-03T13:47:45Z</time>
      </trkpt>
      <trkpt lat="44.41823" lon="1.51883">
        <ele>188.8</ele>
        <time>2024-12-03T13:47:44Z</time>
      </trkpt>
      <trkpt lat="44.41824" lon="1.51883">
        <ele>188.8</ele>
        <time>2024-12-03T13:47:43Z</time>
      </trkpt>
      <trkpt lat="44.41824" lon="1.51882">
        <ele>188.7</ele>
        <time>2024-12-03T13:47:42Z</time>
      </trkpt>
      <trkpt lat="44.41825" lon="1.51881">
        <ele>188.7</ele>
        <time>2024-12-03T13:47:41Z</time>
      </trkpt>
      <trkpt lat="44.41825" lon="1.5188">
        <ele>188.6</ele>
        <time>2024-12-03T13:47:40Z</time>
      </trkpt>
      <trkpt lat="44.41825" lon="1.51879">
        <ele>188.6</ele>
        <time>2024-12-03T13:47:39Z</time>
      </trkpt>
      <trkpt lat="44.41826" lon="1.51878">
        <ele>188.5</ele>
        <time>2024-12-03T13:47:38Z</time>
      </trkpt>
      <trkpt lat="44.41827" lon="1.51877">
        <ele>188.3</ele>
        <time>2024-12-03T13:47:37Z</time>
      </trkpt>
      <trkpt lat="44.41828" lon="1.51876">
        <ele>188.2</ele>
        <time>2024-12-03T13:47:36Z</time>
      </trkpt>
      <trkpt lat="44.41828" lon="1.51875">
        <ele>188</ele>
        <time>2024-12-03T13:47:35Z</time>
      </trkpt>
      <trkpt lat="44.41829" lon="1.51873">
        <ele>187.9</ele>
        <time>2024-12-03T13:47:34Z</time>
      </trkpt>
      <trkpt lat="44.4183" lon="1.51873">
        <ele>187.7</ele>
        <time>2024-12-03T13:47:33Z</time>
      </trkpt>
      <trkpt lat="44.4183" lon="1.51872">
        <ele>187.6</ele>
        <time>2024-12-03T13:47:32Z</time>
      </trkpt>
      <trkpt lat="44.41831" lon="1.51872">
        <ele>187.5</ele>
        <time>2024-12-03T13:47:31Z</time>
      </trkpt>
      <trkpt lat="44.41832" lon="1.51871">
        <ele>187.3</ele>
        <time>2024-12-03T13:47:30Z</time>
      </trkpt>
      <trkpt lat="44.41833" lon="1.5187">
        <ele>187.1</ele>
        <time>2024-12-03T13:47:29Z</time>
      </trkpt>
      <trkpt lat="44.41833" lon="1.51869">
        <ele>186.9</ele>
        <time>2024-12-03T13:47:28Z</time>
      </trkpt>
      <trkpt lat="44.41834" lon="1.51868">
        <ele>186.9</ele>
        <time>2024-12-03T13:47:27Z</time>
      </trkpt>
      <trkpt lat="44.41836" lon="1.51867">
        <ele>187</ele>
        <time>2024-12-03T13:47:26Z</time>
      </trkpt>
      <trkpt lat="44.41836" lon="1.51866">
        <ele>187</ele>
        <time>2024-12-03T13:47:25Z</time>
      </trkpt>
      <trkpt lat="44.41837" lon="1.51865">
        <ele>187</ele>
        <time>2024-12-03T13:47:24Z</time>
      </trkpt>
      <trkpt lat="44.41838" lon="1.51865">
        <ele>187.1</ele>
        <time>2024-12-03T13:47:23Z</time>
      </trkpt>
      <trkpt lat="44.41839" lon="1.51863">
        <ele>187</ele>
        <time>2024-12-03T13:47:22Z</time>
      </trkpt>
      <trkpt lat="44.41839" lon="1.51862">
        <ele>187</ele>
        <time>2024-12-03T13:47:21Z</time>
      </trkpt>
      <trkpt lat="44.4184" lon="1.51861">
        <ele>187</ele>
        <time>2024-12-03T13:47:20Z</time>
      </trkpt>
      <trkpt lat="44.41841" lon="1.5186">
        <ele>187</ele>
        <time>2024-12-03T13:47:19Z</time>
      </trkpt>
      <trkpt lat="44.41841" lon="1.51859">
        <ele>187</ele>
        <time>2024-12-03T13:47:18Z</time>
      </trkpt>
      <trkpt lat="44.41841" lon="1.51859">
        <ele>187</ele>
        <time>2024-12-03T13:47:17Z</time>
      </trkpt>
      <trkpt lat="44.41841" lon="1.51858">
        <ele>187</ele>
        <time>2024-12-03T13:47:16Z</time>
      </trkpt>
      <trkpt lat="44.41842" lon="1.51857">
        <ele>187</ele>
        <time>2024-12-03T13:47:15Z</time>
      </trkpt>
      <trkpt lat="44.41842" lon="1.51856">
        <ele>186.9</ele>
        <time>2024-12-03T13:47:14Z</time>
      </trkpt>
      <trkpt lat="44.41843" lon="1.51856">
        <ele>187</ele>
        <time>2024-12-03T13:47:13Z</time>
      </trkpt>
      <trkpt lat="44.41844" lon="1.51855">
        <ele>187</ele>
        <time>2024-12-03T13:47:12Z</time>
      </trkpt>
      <trkpt lat="44.41845" lon="1.51855">
        <ele>187.1</ele>
        <time>2024-12-03T13:47:11Z</time>
      </trkpt>
      <trkpt lat="44.41845" lon="1.51854">
        <ele>187.1</ele>
        <time>2024-12-03T13:47:10Z</time>
      </trkpt>
      <trkpt lat="44.41846" lon="1.51854">
        <ele>187</ele>
        <time>2024-12-03T13:47:09Z</time>
      </trkpt>
      <trkpt lat="44.41846" lon="1.51853">
        <ele>187</ele>
        <time>2024-12-03T13:47:08Z</time>
      </trkpt>
      <trkpt lat="44.41846" lon="1.51853">
        <ele>187</ele>
        <time>2024-12-03T13:47:07Z</time>
      </trkpt>
      <trkpt lat="44.41846" lon="1.51853">
        <ele>187</ele>
        <time>2024-12-03T13:47:06Z</time>
      </trkpt>
      <trkpt lat="44.41846" lon="1.51852">
        <ele>186.9</ele>
        <time>2024-12-03T13:47:05Z</time>
      </trkpt>
      <trkpt lat="44.41846" lon="1.51852">
        <ele>186.9</ele>
        <time>2024-12-03T13:47:04Z</time>
      </trkpt>
      <trkpt lat="44.41845" lon="1.51852">
        <ele>186.9</ele>
        <time>2024-12-03T13:47:03Z</time>
      </trkpt>
      <trkpt lat="44.41845" lon="1.51852">
        <ele>186.9</ele>
        <time>2024-12-03T13:47:02Z</time>
      </trkpt>
      <trkpt lat="44.41846" lon="1.5185">
        <ele>186.7</ele>
        <time>2024-12-03T13:47:00Z</time>
      </trkpt>
      <trkpt lat="44.41847" lon="1.5185">
        <ele>186.8</ele>
        <time>2024-12-03T13:46:59Z</time>
      </trkpt>
      <trkpt lat="44.41848" lon="1.51849">
        <ele>186.8</ele>
        <time>2024-12-03T13:46:58Z</time>
      </trkpt>
      <trkpt lat="44.41849" lon="1.51849">
        <ele>186.7</ele>
        <time>2024-12-03T13:46:57Z</time>
      </trkpt>
      <trkpt lat="44.41849" lon="1.51848">
        <ele>186.7</ele>
        <time>2024-12-03T13:46:56Z</time>
      </trkpt>
      <trkpt lat="44.4185" lon="1.51848">
        <ele>186.7</ele>
        <time>2024-12-03T13:46:55Z</time>
      </trkpt>
      <trkpt lat="44.4185" lon="1.51847">
        <ele>186.6</ele>
        <time>2024-12-03T13:46:54Z</time>
      </trkpt>
      <trkpt lat="44.41851" lon="1.51847">
        <ele>186.5</ele>
        <time>2024-12-03T13:46:53Z</time>
      </trkpt>
      <trkpt lat="44.41852" lon="1.51845">
        <ele>186.4</ele>
        <time>2024-12-03T13:46:52Z</time>
      </trkpt>
      <trkpt lat="44.41852" lon="1.51844">
        <ele>186.3</ele>
        <time>2024-12-03T13:46:51Z</time>
      </trkpt>
      <trkpt lat="44.41853" lon="1.51844">
        <ele>186.2</ele>
        <time>2024-12-03T13:46:50Z</time>
      </trkpt>
      <trkpt lat="44.41854" lon="1.51842">
        <ele>185.8</ele>
        <time>2024-12-03T13:46:49Z</time>
      </trkpt>
      <trkpt lat="44.41855" lon="1.5184">
        <ele>185.5</ele>
        <time>2024-12-03T13:46:48Z</time>
      </trkpt>
      <trkpt lat="44.41856" lon="1.51838">
        <ele>185.3</ele>
        <time>2024-12-03T13:46:47Z</time>
      </trkpt>
      <trkpt lat="44.41857" lon="1.51837">
        <ele>185</ele>
        <time>2024-12-03T13:46:46Z</time>
      </trkpt>
      <trkpt lat="44.41857" lon="1.51835">
        <ele>184.6</ele>
        <time>2024-12-03T13:46:45Z</time>
      </trkpt>
      <trkpt lat="44.41858" lon="1.51834">
        <ele>184.4</ele>
        <time>2024-12-03T13:46:44Z</time>
      </trkpt>
      <trkpt lat="44.41858" lon="1.51833">
        <ele>184.2</ele>
        <time>2024-12-03T13:46:43Z</time>
      </trkpt>
      <trkpt lat="44.41858" lon="1.51833">
        <ele>184.2</ele>
        <time>2024-12-03T13:46:42Z</time>
      </trkpt>
      <trkpt lat="44.41859" lon="1.51832">
        <ele>184.2</ele>
        <time>2024-12-03T13:46:41Z</time>
      </trkpt>
      <trkpt lat="44.4186" lon="1.5183">
        <ele>184</ele>
        <time>2024-12-03T13:46:40Z</time>
      </trkpt>
      <trkpt lat="44.4186" lon="1.5183">
        <ele>183.9</ele>
        <time>2024-12-03T13:46:39Z</time>
      </trkpt>
      <trkpt lat="44.41861" lon="1.51829">
        <ele>183.8</ele>
        <time>2024-12-03T13:46:38Z</time>
      </trkpt>
      <trkpt lat="44.41862" lon="1.51828">
        <ele>183.9</ele>
        <time>2024-12-03T13:46:37Z</time>
      </trkpt>
      <trkpt lat="44.41862" lon="1.51827">
        <ele>184</ele>
        <time>2024-12-03T13:46:36Z</time>
      </trkpt>
      <trkpt lat="44.41863" lon="1.51826">
        <ele>184.1</ele>
        <time>2024-12-03T13:46:35Z</time>
      </trkpt>
      <trkpt lat="44.41863" lon="1.51825">
        <ele>184</ele>
        <time>2024-12-03T13:46:34Z</time>
      </trkpt>
      <trkpt lat="44.41864" lon="1.51824">
        <ele>184</ele>
        <time>2024-12-03T13:46:33Z</time>
      </trkpt>
      <trkpt lat="44.41864" lon="1.51823">
        <ele>184</ele>
        <time>2024-12-03T13:46:32Z</time>
      </trkpt>
      <trkpt lat="44.41864" lon="1.51822">
        <ele>184</ele>
        <time>2024-12-03T13:46:31Z</time>
      </trkpt>
      <trkpt lat="44.41865" lon="1.5182">
        <ele>184</ele>
        <time>2024-12-03T13:46:30Z</time>
      </trkpt>
      <trkpt lat="44.41866" lon="1.51819">
        <ele>183.9</ele>
        <time>2024-12-03T13:46:29Z</time>
      </trkpt>
      <trkpt lat="44.41866" lon="1.51817">
        <ele>183.8</ele>
        <time>2024-12-03T13:46:28Z</time>
      </trkpt>
      <trkpt lat="44.41866" lon="1.51817">
        <ele>183.8</ele>
        <time>2024-12-03T13:46:27Z</time>
      </trkpt>
      <trkpt lat="44.41867" lon="1.51816">
        <ele>183.8</ele>
        <time>2024-12-03T13:46:26Z</time>
      </trkpt>
      <trkpt lat="44.41867" lon="1.51815">
        <ele>183.8</ele>
        <time>2024-12-03T13:46:25Z</time>
      </trkpt>
      <trkpt lat="44.41867" lon="1.51814">
        <ele>183.7</ele>
        <time>2024-12-03T13:46:24Z</time>
      </trkpt>
      <trkpt lat="44.41868" lon="1.51813">
        <ele>183.7</ele>
        <time>2024-12-03T13:46:23Z</time>
      </trkpt>
      <trkpt lat="44.41869" lon="1.51812">
        <ele>183.6</ele>
        <time>2024-12-03T13:46:22Z</time>
      </trkpt>
      <trkpt lat="44.4187" lon="1.51811">
        <ele>183.5</ele>
        <time>2024-12-03T13:46:21Z</time>
      </trkpt>
      <trkpt lat="44.4187" lon="1.5181">
        <ele>183.4</ele>
        <time>2024-12-03T13:46:20Z</time>
      </trkpt>
      <trkpt lat="44.41871" lon="1.51809">
        <ele>183.3</ele>
        <time>2024-12-03T13:46:19Z</time>
      </trkpt>
      <trkpt lat="44.41871" lon="1.51808">
        <ele>183.3</ele>
        <time>2024-12-03T13:46:18Z</time>
      </trkpt>
      <trkpt lat="44.41872" lon="1.51808">
        <ele>183.2</ele>
        <time>2024-12-03T13:46:17Z</time>
      </trkpt>
      <trkpt lat="44.41872" lon="1.51808">
        <ele>183.2</ele>
        <time>2024-12-03T13:46:16Z</time>
      </trkpt>
      <trkpt lat="44.41873" lon="1.51807">
        <ele>183.2</ele>
        <time>2024-12-03T13:46:14Z</time>
      </trkpt>
      <trkpt lat="44.41874" lon="1.51807">
        <ele>183.1</ele>
        <time>2024-12-03T13:46:13Z</time>
      </trkpt>
      <trkpt lat="44.41875" lon="1.51806">
        <ele>183.1</ele>
        <time>2024-12-03T13:46:12Z</time>
      </trkpt>
      <trkpt lat="44.41876" lon="1.51806">
        <ele>183.1</ele>
        <time>2024-12-03T13:46:11Z</time>
      </trkpt>
      <trkpt lat="44.41877" lon="1.51806">
        <ele>183</ele>
        <time>2024-12-03T13:46:10Z</time>
      </trkpt>
      <trkpt lat="44.41877" lon="1.51805">
        <ele>183</ele>
        <time>2024-12-03T13:46:09Z</time>
      </trkpt>
      <trkpt lat="44.41878" lon="1.51805">
        <ele>183</ele>
        <time>2024-12-03T13:46:08Z</time>
      </trkpt>
      <trkpt lat="44.4188" lon="1.51804">
        <ele>183</ele>
        <time>2024-12-03T13:46:07Z</time>
      </trkpt>
      <trkpt lat="44.41881" lon="1.51804">
        <ele>182.9</ele>
        <time>2024-12-03T13:46:06Z</time>
      </trkpt>
      <trkpt lat="44.41882" lon="1.51803">
        <ele>182.9</ele>
        <time>2024-12-03T13:46:05Z</time>
      </trkpt>
      <trkpt lat="44.41883" lon="1.51802">
        <ele>182.8</ele>
        <time>2024-12-03T13:46:04Z</time>
      </trkpt>
      <trkpt lat="44.41884" lon="1.51801">
        <ele>182.7</ele>
        <time>2024-12-03T13:46:03Z</time>
      </trkpt>
      <trkpt lat="44.41885" lon="1.518">
        <ele>182.6</ele>
        <time>2024-12-03T13:46:02Z</time>
      </trkpt>
      <trkpt lat="44.41885" lon="1.51799">
        <ele>182.5</ele>
        <time>2024-12-03T13:46:01Z</time>
      </trkpt>
      <trkpt lat="44.41886" lon="1.51799">
        <ele>182.5</ele>
        <time>2024-12-03T13:46:00Z</time>
      </trkpt>
      <trkpt lat="44.41886" lon="1.51799">
        <ele>182.4</ele>
        <time>2024-12-03T13:45:59Z</time>
      </trkpt>
      <trkpt lat="44.41887" lon="1.51798">
        <ele>182.3</ele>
        <time>2024-12-03T13:45:58Z</time>
      </trkpt>
      <trkpt lat="44.41888" lon="1.51797">
        <ele>182.2</ele>
        <time>2024-12-03T13:45:57Z</time>
      </trkpt>
      <trkpt lat="44.41889" lon="1.51796">
        <ele>182</ele>
        <time>2024-12-03T13:45:56Z</time>
      </trkpt>
      <trkpt lat="44.41889" lon="1.51794">
        <ele>181.9</ele>
        <time>2024-12-03T13:45:55Z</time>
      </trkpt>
      <trkpt lat="44.41891" lon="1.51793">
        <ele>182</ele>
        <time>2024-12-03T13:45:54Z</time>
      </trkpt>
      <trkpt lat="44.41891" lon="1.51793">
        <ele>182</ele>
        <time>2024-12-03T13:45:53Z</time>
      </trkpt>
      <trkpt lat="44.41891" lon="1.51791">
        <ele>181.9</ele>
        <time>2024-12-03T13:45:52Z</time>
      </trkpt>
      <trkpt lat="44.41892" lon="1.5179">
        <ele>181.8</ele>
        <time>2024-12-03T13:45:51Z</time>
      </trkpt>
      <trkpt lat="44.41892" lon="1.51788">
        <ele>181.6</ele>
        <time>2024-12-03T13:45:50Z</time>
      </trkpt>
      <trkpt lat="44.41893" lon="1.51787">
        <ele>181.6</ele>
        <time>2024-12-03T13:45:49Z</time>
      </trkpt>
      <trkpt lat="44.41894" lon="1.51786">
        <ele>181.6</ele>
        <time>2024-12-03T13:45:48Z</time>
      </trkpt>
      <trkpt lat="44.41895" lon="1.51785">
        <ele>181.7</ele>
        <time>2024-12-03T13:45:47Z</time>
      </trkpt>
      <trkpt lat="44.41895" lon="1.51784">
        <ele>181.6</ele>
        <time>2024-12-03T13:45:46Z</time>
      </trkpt>
      <trkpt lat="44.41896" lon="1.51783">
        <ele>181.5</ele>
        <time>2024-12-03T13:45:45Z</time>
      </trkpt>
      <trkpt lat="44.41896" lon="1.51782">
        <ele>181.5</ele>
        <time>2024-12-03T13:45:44Z</time>
      </trkpt>
      <trkpt lat="44.41897" lon="1.51781">
        <ele>181.4</ele>
        <time>2024-12-03T13:45:43Z</time>
      </trkpt>
      <trkpt lat="44.41897" lon="1.5178">
        <ele>181.3</ele>
        <time>2024-12-03T13:45:42Z</time>
      </trkpt>
      <trkpt lat="44.41898" lon="1.51779">
        <ele>181.2</ele>
        <time>2024-12-03T13:45:41Z</time>
      </trkpt>
      <trkpt lat="44.41898" lon="1.51779">
        <ele>181.2</ele>
        <time>2024-12-03T13:45:40Z</time>
      </trkpt>
      <trkpt lat="44.41898" lon="1.5178">
        <ele>181.2</ele>
        <time>2024-12-03T13:45:38Z</time>
      </trkpt>
      <trkpt lat="44.41899" lon="1.5178">
        <ele>181.4</ele>
        <time>2024-12-03T13:45:37Z</time>
      </trkpt>
      <trkpt lat="44.41899" lon="1.5178">
        <ele>181.4</ele>
        <time>2024-12-03T13:45:36Z</time>
      </trkpt>
      <trkpt lat="44.419" lon="1.51779">
        <ele>181.4</ele>
        <time>2024-12-03T13:45:35Z</time>
      </trkpt>
      <trkpt lat="44.41901" lon="1.51779">
        <ele>181.4</ele>
        <time>2024-12-03T13:45:34Z</time>
      </trkpt>
      <trkpt lat="44.41901" lon="1.51778">
        <ele>181.4</ele>
        <time>2024-12-03T13:45:33Z</time>
      </trkpt>
      <trkpt lat="44.41902" lon="1.51778">
        <ele>181.4</ele>
        <time>2024-12-03T13:45:32Z</time>
      </trkpt>
      <trkpt lat="44.41903" lon="1.51777">
        <ele>181.5</ele>
        <time>2024-12-03T13:45:31Z</time>
      </trkpt>
      <trkpt lat="44.41904" lon="1.51776">
        <ele>181.5</ele>
        <time>2024-12-03T13:45:30Z</time>
      </trkpt>
      <trkpt lat="44.41904" lon="1.51775">
        <ele>181.5</ele>
        <time>2024-12-03T13:45:29Z</time>
      </trkpt>
      <trkpt lat="44.41905" lon="1.51773">
        <ele>181.5</ele>
        <time>2024-12-03T13:45:28Z</time>
      </trkpt>
      <trkpt lat="44.41905" lon="1.51772">
        <ele>181.5</ele>
        <time>2024-12-03T13:45:27Z</time>
      </trkpt>
      <trkpt lat="44.41906" lon="1.51771">
        <ele>181.4</ele>
        <time>2024-12-03T13:45:26Z</time>
      </trkpt>
      <trkpt lat="44.41907" lon="1.51769">
        <ele>181.4</ele>
        <time>2024-12-03T13:45:25Z</time>
      </trkpt>
      <trkpt lat="44.41907" lon="1.51769">
        <ele>181.3</ele>
        <time>2024-12-03T13:45:24Z</time>
      </trkpt>
      <trkpt lat="44.41908" lon="1.51768">
        <ele>181.3</ele>
        <time>2024-12-03T13:45:23Z</time>
      </trkpt>
      <trkpt lat="44.41908" lon="1.51768">
        <ele>181.3</ele>
        <time>2024-12-03T13:45:22Z</time>
      </trkpt>
      <trkpt lat="44.41909" lon="1.51765">
        <ele>181.1</ele>
        <time>2024-12-03T13:45:21Z</time>
      </trkpt>
      <trkpt lat="44.4191" lon="1.51764">
        <ele>181</ele>
        <time>2024-12-03T13:45:20Z</time>
      </trkpt>
      <trkpt lat="44.41911" lon="1.51763">
        <ele>180.9</ele>
        <time>2024-12-03T13:45:19Z</time>
      </trkpt>
      <trkpt lat="44.41912" lon="1.51762">
        <ele>180.8</ele>
        <time>2024-12-03T13:45:18Z</time>
      </trkpt>
      <trkpt lat="44.41912" lon="1.5176">
        <ele>180.6</ele>
        <time>2024-12-03T13:45:17Z</time>
      </trkpt>
      <trkpt lat="44.41913" lon="1.51759">
        <ele>180.4</ele>
        <time>2024-12-03T13:45:16Z</time>
      </trkpt>
      <trkpt lat="44.41913" lon="1.51757">
        <ele>180.2</ele>
        <time>2024-12-03T13:45:15Z</time>
      </trkpt>
      <trkpt lat="44.41914" lon="1.51756">
        <ele>180</ele>
        <time>2024-12-03T13:45:14Z</time>
      </trkpt>
      <trkpt lat="44.41914" lon="1.51755">
        <ele>179.9</ele>
        <time>2024-12-03T13:45:13Z</time>
      </trkpt>
      <trkpt lat="44.41914" lon="1.51754">
        <ele>179.8</ele>
        <time>2024-12-03T13:45:12Z</time>
      </trkpt>
      <trkpt lat="44.41914" lon="1.51753">
        <ele>179.6</ele>
        <time>2024-12-03T13:45:11Z</time>
      </trkpt>
      <trkpt lat="44.41915" lon="1.51752">
        <ele>179.4</ele>
        <time>2024-12-03T13:45:10Z</time>
      </trkpt>
      <trkpt lat="44.41916" lon="1.5175">
        <ele>179.1</ele>
        <time>2024-12-03T13:45:09Z</time>
      </trkpt>
      <trkpt lat="44.41917" lon="1.51748">
        <ele>179</ele>
        <time>2024-12-03T13:45:08Z</time>
      </trkpt>
      <trkpt lat="44.41918" lon="1.51747">
        <ele>179</ele>
        <time>2024-12-03T13:45:06Z</time>
      </trkpt>
      <trkpt lat="44.41918" lon="1.51747">
        <ele>179.1</ele>
        <time>2024-12-03T13:45:05Z</time>
      </trkpt>
      <trkpt lat="44.41919" lon="1.51746">
        <ele>179.2</ele>
        <time>2024-12-03T13:45:04Z</time>
      </trkpt>
      <trkpt lat="44.4192" lon="1.51746">
        <ele>179.2</ele>
        <time>2024-12-03T13:45:03Z</time>
      </trkpt>
      <trkpt lat="44.4192" lon="1.51745">
        <ele>179.3</ele>
        <time>2024-12-03T13:45:02Z</time>
      </trkpt>
      <trkpt lat="44.41921" lon="1.51744">
        <ele>179.3</ele>
        <time>2024-12-03T13:45:01Z</time>
      </trkpt>
      <trkpt lat="44.41922" lon="1.51744">
        <ele>179.3</ele>
        <time>2024-12-03T13:45:00Z</time>
      </trkpt>
      <trkpt lat="44.41923" lon="1.51742">
        <ele>179.3</ele>
        <time>2024-12-03T13:44:59Z</time>
      </trkpt>
      <trkpt lat="44.41923" lon="1.51741">
        <ele>179.2</ele>
        <time>2024-12-03T13:44:58Z</time>
      </trkpt>
      <trkpt lat="44.41924" lon="1.51741">
        <ele>179.2</ele>
        <time>2024-12-03T13:44:57Z</time>
      </trkpt>
      <trkpt lat="44.41925" lon="1.51739">
        <ele>179.2</ele>
        <time>2024-12-03T13:44:56Z</time>
      </trkpt>
      <trkpt lat="44.41925" lon="1.51738">
        <ele>179.1</ele>
        <time>2024-12-03T13:44:55Z</time>
      </trkpt>
      <trkpt lat="44.41927" lon="1.51737">
        <ele>179.1</ele>
        <time>2024-12-03T13:44:54Z</time>
      </trkpt>
      <trkpt lat="44.41928" lon="1.51736">
        <ele>179</ele>
        <time>2024-12-03T13:44:53Z</time>
      </trkpt>
      <trkpt lat="44.41928" lon="1.51735">
        <ele>179</ele>
        <time>2024-12-03T13:44:52Z</time>
      </trkpt>
      <trkpt lat="44.4193" lon="1.51733">
        <ele>178.8</ele>
        <time>2024-12-03T13:44:50Z</time>
      </trkpt>
      <trkpt lat="44.4193" lon="1.51732">
        <ele>178.7</ele>
        <time>2024-12-03T13:44:49Z</time>
      </trkpt>
      <trkpt lat="44.4193" lon="1.51731">
        <ele>178.6</ele>
        <time>2024-12-03T13:44:48Z</time>
      </trkpt>
      <trkpt lat="44.4193" lon="1.51731">
        <ele>178.6</ele>
        <time>2024-12-03T13:44:47Z</time>
      </trkpt>
      <trkpt lat="44.4193" lon="1.5173">
        <ele>178.5</ele>
        <time>2024-12-03T13:44:46Z</time>
      </trkpt>
      <trkpt lat="44.4193" lon="1.5173">
        <ele>178.4</ele>
        <time>2024-12-03T13:44:45Z</time>
      </trkpt>
      <trkpt lat="44.4193" lon="1.51729">
        <ele>178.3</ele>
        <time>2024-12-03T13:44:44Z</time>
      </trkpt>
      <trkpt lat="44.41931" lon="1.51728">
        <ele>178.2</ele>
        <time>2024-12-03T13:44:43Z</time>
      </trkpt>
      <trkpt lat="44.41932" lon="1.51728">
        <ele>178.2</ele>
        <time>2024-12-03T13:44:42Z</time>
      </trkpt>
      <trkpt lat="44.41933" lon="1.51727">
        <ele>178.1</ele>
        <time>2024-12-03T13:44:41Z</time>
      </trkpt>
      <trkpt lat="44.41934" lon="1.51726">
        <ele>178</ele>
        <time>2024-12-03T13:44:40Z</time>
      </trkpt>
      <trkpt lat="44.41935" lon="1.51725">
        <ele>177.8</ele>
        <time>2024-12-03T13:44:39Z</time>
      </trkpt>
      <trkpt lat="44.41936" lon="1.51725">
        <ele>177.7</ele>
        <time>2024-12-03T13:44:38Z</time>
      </trkpt>
      <trkpt lat="44.41937" lon="1.51724">
        <ele>177.5</ele>
        <time>2024-12-03T13:44:37Z</time>
      </trkpt>
      <trkpt lat="44.41938" lon="1.51723">
        <ele>177.4</ele>
        <time>2024-12-03T13:44:36Z</time>
      </trkpt>
      <trkpt lat="44.41938" lon="1.51723">
        <ele>177.3</ele>
        <time>2024-12-03T13:44:35Z</time>
      </trkpt>
      <trkpt lat="44.4194" lon="1.51722">
        <ele>177.2</ele>
        <time>2024-12-03T13:44:34Z</time>
      </trkpt>
      <trkpt lat="44.41941" lon="1.51721">
        <ele>177.1</ele>
        <time>2024-12-03T13:44:33Z</time>
      </trkpt>
      <trkpt lat="44.41941" lon="1.5172">
        <ele>177.1</ele>
        <time>2024-12-03T13:44:32Z</time>
      </trkpt>
      <trkpt lat="44.41941" lon="1.51719">
        <ele>177.1</ele>
        <time>2024-12-03T13:44:31Z</time>
      </trkpt>
      <trkpt lat="44.41942" lon="1.51718">
        <ele>177</ele>
        <time>2024-12-03T13:44:30Z</time>
      </trkpt>
      <trkpt lat="44.41942" lon="1.51713">
        <ele>176.9</ele>
        <time>2024-12-03T13:44:28Z</time>
      </trkpt>
      <trkpt lat="44.41942" lon="1.51712">
        <ele>176.9</ele>
        <time>2024-12-03T13:44:27Z</time>
      </trkpt>
      <trkpt lat="44.41942" lon="1.51711">
        <ele>176.8</ele>
        <time>2024-12-03T13:44:26Z</time>
      </trkpt>
      <trkpt lat="44.41943" lon="1.5171">
        <ele>176.8</ele>
        <time>2024-12-03T13:44:25Z</time>
      </trkpt>
      <trkpt lat="44.41944" lon="1.51708">
        <ele>176.6</ele>
        <time>2024-12-03T13:44:24Z</time>
      </trkpt>
      <trkpt lat="44.41945" lon="1.51708">
        <ele>176.5</ele>
        <time>2024-12-03T13:44:23Z</time>
      </trkpt>
      <trkpt lat="44.41946" lon="1.51707">
        <ele>176.5</ele>
        <time>2024-12-03T13:44:22Z</time>
      </trkpt>
      <trkpt lat="44.41947" lon="1.51706">
        <ele>176.5</ele>
        <time>2024-12-03T13:44:21Z</time>
      </trkpt>
      <trkpt lat="44.41949" lon="1.51705">
        <ele>176.4</ele>
        <time>2024-12-03T13:44:20Z</time>
      </trkpt>
      <trkpt lat="44.41951" lon="1.51704">
        <ele>176.4</ele>
        <time>2024-12-03T13:44:19Z</time>
      </trkpt>
      <trkpt lat="44.41951" lon="1.51704">
        <ele>176.3</ele>
        <time>2024-12-03T13:44:18Z</time>
      </trkpt>
      <trkpt lat="44.41952" lon="1.51704">
        <ele>176.3</ele>
        <time>2024-12-03T13:44:17Z</time>
      </trkpt>
      <trkpt lat="44.41953" lon="1.51703">
        <ele>176.3</ele>
        <time>2024-12-03T13:44:16Z</time>
      </trkpt>
      <trkpt lat="44.41955" lon="1.51702">
        <ele>176.2</ele>
        <time>2024-12-03T13:44:15Z</time>
      </trkpt>
      <trkpt lat="44.41956" lon="1.51702">
        <ele>176.1</ele>
        <time>2024-12-03T13:44:14Z</time>
      </trkpt>
      <trkpt lat="44.41957" lon="1.51701">
        <ele>176</ele>
        <time>2024-12-03T13:44:13Z</time>
      </trkpt>
      <trkpt lat="44.41957" lon="1.51701">
        <ele>176</ele>
        <time>2024-12-03T13:44:12Z</time>
      </trkpt>
      <trkpt lat="44.41958" lon="1.517">
        <ele>175.8</ele>
        <time>2024-12-03T13:44:11Z</time>
      </trkpt>
      <trkpt lat="44.4196" lon="1.51699">
        <ele>175.6</ele>
        <time>2024-12-03T13:44:10Z</time>
      </trkpt>
      <trkpt lat="44.4196" lon="1.51699">
        <ele>175.6</ele>
        <time>2024-12-03T13:44:09Z</time>
      </trkpt>
      <trkpt lat="44.41961" lon="1.51698">
        <ele>175.4</ele>
        <time>2024-12-03T13:44:08Z</time>
      </trkpt>
      <trkpt lat="44.41961" lon="1.51698">
        <ele>175.4</ele>
        <time>2024-12-03T13:44:07Z</time>
      </trkpt>
      <trkpt lat="44.41962" lon="1.51697">
        <ele>175.1</ele>
        <time>2024-12-03T13:44:06Z</time>
      </trkpt>
      <trkpt lat="44.41963" lon="1.51696">
        <ele>174.9</ele>
        <time>2024-12-03T13:44:05Z</time>
      </trkpt>
      <trkpt lat="44.41964" lon="1.51693">
        <ele>174.7</ele>
        <time>2024-12-03T13:44:04Z</time>
      </trkpt>
      <trkpt lat="44.41965" lon="1.51692">
        <ele>174.7</ele>
        <time>2024-12-03T13:44:03Z</time>
      </trkpt>
      <trkpt lat="44.41966" lon="1.51691">
        <ele>174.7</ele>
        <time>2024-12-03T13:44:02Z</time>
      </trkpt>
      <trkpt lat="44.41967" lon="1.5169">
        <ele>174.7</ele>
        <time>2024-12-03T13:44:00Z</time>
      </trkpt>
      <trkpt lat="44.41967" lon="1.51689">
        <ele>174.7</ele>
        <time>2024-12-03T13:43:59Z</time>
      </trkpt>
      <trkpt lat="44.41968" lon="1.51688">
        <ele>174.7</ele>
        <time>2024-12-03T13:43:58Z</time>
      </trkpt>
      <trkpt lat="44.41969" lon="1.51687">
        <ele>174.6</ele>
        <time>2024-12-03T13:43:57Z</time>
      </trkpt>
      <trkpt lat="44.4197" lon="1.51688">
        <ele>174.5</ele>
        <time>2024-12-03T13:43:56Z</time>
      </trkpt>
      <trkpt lat="44.4197" lon="1.51688">
        <ele>174.4</ele>
        <time>2024-12-03T13:43:55Z</time>
      </trkpt>
      <trkpt lat="44.41972" lon="1.51687">
        <ele>174.4</ele>
        <time>2024-12-03T13:43:54Z</time>
      </trkpt>
      <trkpt lat="44.41973" lon="1.51686">
        <ele>174.3</ele>
        <time>2024-12-03T13:43:53Z</time>
      </trkpt>
      <trkpt lat="44.41974" lon="1.51686">
        <ele>174.3</ele>
        <time>2024-12-03T13:43:52Z</time>
      </trkpt>
      <trkpt lat="44.41975" lon="1.51685">
        <ele>174.3</ele>
        <time>2024-12-03T13:43:51Z</time>
      </trkpt>
      <trkpt lat="44.41976" lon="1.51684">
        <ele>174.3</ele>
        <time>2024-12-03T13:43:50Z</time>
      </trkpt>
      <trkpt lat="44.41977" lon="1.51684">
        <ele>174.3</ele>
        <time>2024-12-03T13:43:49Z</time>
      </trkpt>
      <trkpt lat="44.41978" lon="1.51683">
        <ele>174.3</ele>
        <time>2024-12-03T13:43:48Z</time>
      </trkpt>
      <trkpt lat="44.41979" lon="1.51682">
        <ele>174.2</ele>
        <time>2024-12-03T13:43:47Z</time>
      </trkpt>
      <trkpt lat="44.4198" lon="1.51682">
        <ele>174.2</ele>
        <time>2024-12-03T13:43:46Z</time>
      </trkpt>
      <trkpt lat="44.41981" lon="1.51681">
        <ele>174.2</ele>
        <time>2024-12-03T13:43:45Z</time>
      </trkpt>
      <trkpt lat="44.41982" lon="1.5168">
        <ele>174.1</ele>
        <time>2024-12-03T13:43:44Z</time>
      </trkpt>
      <trkpt lat="44.41984" lon="1.5168">
        <ele>174.1</ele>
        <time>2024-12-03T13:43:42Z</time>
      </trkpt>
      <trkpt lat="44.41984" lon="1.51679">
        <ele>174</ele>
        <time>2024-12-03T13:43:41Z</time>
      </trkpt>
      <trkpt lat="44.41985" lon="1.51679">
        <ele>174</ele>
        <time>2024-12-03T13:43:40Z</time>
      </trkpt>
      <trkpt lat="44.41987" lon="1.51678">
        <ele>173.9</ele>
        <time>2024-12-03T13:43:39Z</time>
      </trkpt>
      <trkpt lat="44.41987" lon="1.51677">
        <ele>173.8</ele>
        <time>2024-12-03T13:43:38Z</time>
      </trkpt>
      <trkpt lat="44.41988" lon="1.51676">
        <ele>173.7</ele>
        <time>2024-12-03T13:43:37Z</time>
      </trkpt>
      <trkpt lat="44.41989" lon="1.51675">
        <ele>173.6</ele>
        <time>2024-12-03T13:43:36Z</time>
      </trkpt>
      <trkpt lat="44.4199" lon="1.51675">
        <ele>173.5</ele>
        <time>2024-12-03T13:43:35Z</time>
      </trkpt>
      <trkpt lat="44.41991" lon="1.51674">
        <ele>173.5</ele>
        <time>2024-12-03T13:43:34Z</time>
      </trkpt>
      <trkpt lat="44.41992" lon="1.51674">
        <ele>173.4</ele>
        <time>2024-12-03T13:43:33Z</time>
      </trkpt>
      <trkpt lat="44.41993" lon="1.51673">
        <ele>173.2</ele>
        <time>2024-12-03T13:43:32Z</time>
      </trkpt>
      <trkpt lat="44.41994" lon="1.51672">
        <ele>173.1</ele>
        <time>2024-12-03T13:43:31Z</time>
      </trkpt>
      <trkpt lat="44.41995" lon="1.51672">
        <ele>173</ele>
        <time>2024-12-03T13:43:30Z</time>
      </trkpt>
      <trkpt lat="44.41995" lon="1.51672">
        <ele>172.9</ele>
        <time>2024-12-03T13:43:28Z</time>
      </trkpt>
      <trkpt lat="44.41996" lon="1.51671">
        <ele>172.8</ele>
        <time>2024-12-03T13:43:27Z</time>
      </trkpt>
      <trkpt lat="44.41997" lon="1.51671">
        <ele>172.7</ele>
        <time>2024-12-03T13:43:26Z</time>
      </trkpt>
      <trkpt lat="44.41998" lon="1.51671">
        <ele>172.6</ele>
        <time>2024-12-03T13:43:25Z</time>
      </trkpt>
      <trkpt lat="44.42" lon="1.5167">
        <ele>172.4</ele>
        <time>2024-12-03T13:43:24Z</time>
      </trkpt>
      <trkpt lat="44.42001" lon="1.5167">
        <ele>172.3</ele>
        <time>2024-12-03T13:43:23Z</time>
      </trkpt>
      <trkpt lat="44.42002" lon="1.51669">
        <ele>172.2</ele>
        <time>2024-12-03T13:43:22Z</time>
      </trkpt>
      <trkpt lat="44.42003" lon="1.51669">
        <ele>172.1</ele>
        <time>2024-12-03T13:43:21Z</time>
      </trkpt>
      <trkpt lat="44.42003" lon="1.51669">
        <ele>172</ele>
        <time>2024-12-03T13:43:20Z</time>
      </trkpt>
      <trkpt lat="44.42003" lon="1.51668">
        <ele>171.9</ele>
        <time>2024-12-03T13:43:19Z</time>
      </trkpt>
      <trkpt lat="44.42004" lon="1.51668">
        <ele>171.9</ele>
        <time>2024-12-03T13:43:18Z</time>
      </trkpt>
      <trkpt lat="44.42005" lon="1.51668">
        <ele>171.8</ele>
        <time>2024-12-03T13:43:17Z</time>
      </trkpt>
      <trkpt lat="44.42006" lon="1.51667">
        <ele>171.6</ele>
        <time>2024-12-03T13:43:16Z</time>
      </trkpt>
      <trkpt lat="44.42007" lon="1.51666">
        <ele>171.5</ele>
        <time>2024-12-03T13:43:15Z</time>
      </trkpt>
      <trkpt lat="44.42008" lon="1.51666">
        <ele>171.5</ele>
        <time>2024-12-03T13:43:14Z</time>
      </trkpt>
      <trkpt lat="44.42008" lon="1.51666">
        <ele>171.5</ele>
        <time>2024-12-03T13:43:13Z</time>
      </trkpt>
      <trkpt lat="44.42008" lon="1.51666">
        <ele>171.5</ele>
        <time>2024-12-03T13:43:12Z</time>
      </trkpt>
      <trkpt lat="44.42008" lon="1.51666">
        <ele>171.5</ele>
        <time>2024-12-03T13:43:11Z</time>
      </trkpt>
      <trkpt lat="44.42009" lon="1.51666">
        <ele>171.4</ele>
        <time>2024-12-03T13:43:10Z</time>
      </trkpt>
      <trkpt lat="44.4201" lon="1.51666">
        <ele>171.3</ele>
        <time>2024-12-03T13:43:09Z</time>
      </trkpt>
      <trkpt lat="44.42011" lon="1.51666">
        <ele>171.3</ele>
        <time>2024-12-03T13:43:08Z</time>
      </trkpt>
      <trkpt lat="44.42013" lon="1.51665">
        <ele>171.2</ele>
        <time>2024-12-03T13:43:07Z</time>
      </trkpt>
      <trkpt lat="44.42014" lon="1.51665">
        <ele>171.2</ele>
        <time>2024-12-03T13:43:06Z</time>
      </trkpt>
      <trkpt lat="44.42014" lon="1.51665">
        <ele>171.2</ele>
        <time>2024-12-03T13:43:05Z</time>
      </trkpt>
      <trkpt lat="44.42015" lon="1.51664">
        <ele>171.2</ele>
        <time>2024-12-03T13:43:04Z</time>
      </trkpt>
      <trkpt lat="44.42016" lon="1.51663">
        <ele>171.2</ele>
        <time>2024-12-03T13:43:03Z</time>
      </trkpt>
      <trkpt lat="44.42017" lon="1.51663">
        <ele>171.2</ele>
        <time>2024-12-03T13:43:02Z</time>
      </trkpt>
      <trkpt lat="44.42018" lon="1.51662">
        <ele>171.1</ele>
        <time>2024-12-03T13:43:01Z</time>
      </trkpt>
      <trkpt lat="44.42019" lon="1.51661">
        <ele>171.1</ele>
        <time>2024-12-03T13:43:00Z</time>
      </trkpt>
      <trkpt lat="44.4202" lon="1.51661">
        <ele>171</ele>
        <time>2024-12-03T13:42:59Z</time>
      </trkpt>
      <trkpt lat="44.42022" lon="1.5166">
        <ele>171</ele>
        <time>2024-12-03T13:42:58Z</time>
      </trkpt>
      <trkpt lat="44.42022" lon="1.5166">
        <ele>171</ele>
        <time>2024-12-03T13:42:57Z</time>
      </trkpt>
      <trkpt lat="44.42023" lon="1.51659">
        <ele>170.9</ele>
        <time>2024-12-03T13:42:56Z</time>
      </trkpt>
      <trkpt lat="44.42024" lon="1.51659">
        <ele>170.9</ele>
        <time>2024-12-03T13:42:55Z</time>
      </trkpt>
      <trkpt lat="44.42026" lon="1.51657">
        <ele>170.9</ele>
        <time>2024-12-03T13:42:54Z</time>
      </trkpt>
      <trkpt lat="44.42027" lon="1.51657">
        <ele>170.8</ele>
        <time>2024-12-03T13:42:53Z</time>
      </trkpt>
      <trkpt lat="44.42027" lon="1.51656">
        <ele>170.8</ele>
        <time>2024-12-03T13:42:52Z</time>
      </trkpt>
      <trkpt lat="44.42027" lon="1.51656">
        <ele>170.8</ele>
        <time>2024-12-03T13:42:51Z</time>
      </trkpt>
      <trkpt lat="44.42028" lon="1.51655">
        <ele>170.8</ele>
        <time>2024-12-03T13:42:50Z</time>
      </trkpt>
      <trkpt lat="44.42029" lon="1.51655">
        <ele>170.8</ele>
        <time>2024-12-03T13:42:49Z</time>
      </trkpt>
      <trkpt lat="44.4203" lon="1.51654">
        <ele>170.8</ele>
        <time>2024-12-03T13:42:48Z</time>
      </trkpt>
      <trkpt lat="44.42032" lon="1.51653">
        <ele>170.8</ele>
        <time>2024-12-03T13:42:47Z</time>
      </trkpt>
      <trkpt lat="44.42033" lon="1.51652">
        <ele>170.8</ele>
        <time>2024-12-03T13:42:46Z</time>
      </trkpt>
      <trkpt lat="44.42034" lon="1.51652">
        <ele>170.8</ele>
        <time>2024-12-03T13:42:45Z</time>
      </trkpt>
      <trkpt lat="44.42035" lon="1.51651">
        <ele>170.8</ele>
        <time>2024-12-03T13:42:44Z</time>
      </trkpt>
      <trkpt lat="44.42037" lon="1.5165">
        <ele>170.8</ele>
        <time>2024-12-03T13:42:43Z</time>
      </trkpt>
      <trkpt lat="44.42038" lon="1.5165">
        <ele>170.8</ele>
        <time>2024-12-03T13:42:42Z</time>
      </trkpt>
      <trkpt lat="44.42039" lon="1.51649">
        <ele>170.8</ele>
        <time>2024-12-03T13:42:40Z</time>
      </trkpt>
      <trkpt lat="44.4204" lon="1.51649">
        <ele>170.7</ele>
        <time>2024-12-03T13:42:39Z</time>
      </trkpt>
      <trkpt lat="44.4204" lon="1.51649">
        <ele>170.7</ele>
        <time>2024-12-03T13:42:38Z</time>
      </trkpt>
      <trkpt lat="44.42041" lon="1.51648">
        <ele>170.7</ele>
        <time>2024-12-03T13:42:37Z</time>
      </trkpt>
      <trkpt lat="44.42042" lon="1.51648">
        <ele>170.7</ele>
        <time>2024-12-03T13:42:36Z</time>
      </trkpt>
      <trkpt lat="44.42043" lon="1.51647">
        <ele>170.7</ele>
        <time>2024-12-03T13:42:35Z</time>
      </trkpt>
      <trkpt lat="44.42044" lon="1.51646">
        <ele>170.6</ele>
        <time>2024-12-03T13:42:34Z</time>
      </trkpt>
      <trkpt lat="44.42045" lon="1.51645">
        <ele>170.6</ele>
        <time>2024-12-03T13:42:33Z</time>
      </trkpt>
      <trkpt lat="44.42046" lon="1.51644">
        <ele>170.6</ele>
        <time>2024-12-03T13:42:32Z</time>
      </trkpt>
      <trkpt lat="44.42046" lon="1.51643">
        <ele>170.6</ele>
        <time>2024-12-03T13:42:31Z</time>
      </trkpt>
      <trkpt lat="44.42047" lon="1.51642">
        <ele>170.5</ele>
        <time>2024-12-03T13:42:30Z</time>
      </trkpt>
      <trkpt lat="44.42048" lon="1.51641">
        <ele>170.5</ele>
        <time>2024-12-03T13:42:29Z</time>
      </trkpt>
      <trkpt lat="44.42048" lon="1.5164">
        <ele>170.5</ele>
        <time>2024-12-03T13:42:28Z</time>
      </trkpt>
      <trkpt lat="44.42049" lon="1.51639">
        <ele>170.5</ele>
        <time>2024-12-03T13:42:27Z</time>
      </trkpt>
      <trkpt lat="44.4205" lon="1.51638">
        <ele>170.4</ele>
        <time>2024-12-03T13:42:26Z</time>
      </trkpt>
      <trkpt lat="44.4205" lon="1.51638">
        <ele>170.4</ele>
        <time>2024-12-03T13:42:25Z</time>
      </trkpt>
      <trkpt lat="44.42052" lon="1.51636">
        <ele>170.3</ele>
        <time>2024-12-03T13:42:24Z</time>
      </trkpt>
      <trkpt lat="44.42053" lon="1.51635">
        <ele>170.3</ele>
        <time>2024-12-03T13:42:23Z</time>
      </trkpt>
      <trkpt lat="44.42054" lon="1.51634">
        <ele>170.2</ele>
        <time>2024-12-03T13:42:22Z</time>
      </trkpt>
      <trkpt lat="44.42055" lon="1.51633">
        <ele>170</ele>
        <time>2024-12-03T13:42:21Z</time>
      </trkpt>
      <trkpt lat="44.42057" lon="1.51632">
        <ele>170</ele>
        <time>2024-12-03T13:42:20Z</time>
      </trkpt>
      <trkpt lat="44.42058" lon="1.51631">
        <ele>170</ele>
        <time>2024-12-03T13:42:19Z</time>
      </trkpt>
      <trkpt lat="44.42058" lon="1.5163">
        <ele>170</ele>
        <time>2024-12-03T13:42:18Z</time>
      </trkpt>
      <trkpt lat="44.42059" lon="1.5163">
        <ele>170</ele>
        <time>2024-12-03T13:42:17Z</time>
      </trkpt>
      <trkpt lat="44.4206" lon="1.51629">
        <ele>170</ele>
        <time>2024-12-03T13:42:16Z</time>
      </trkpt>
      <trkpt lat="44.42061" lon="1.51628">
        <ele>170</ele>
        <time>2024-12-03T13:42:15Z</time>
      </trkpt>
      <trkpt lat="44.42062" lon="1.51627">
        <ele>170</ele>
        <time>2024-12-03T13:42:14Z</time>
      </trkpt>
      <trkpt lat="44.42062" lon="1.51627">
        <ele>169.9</ele>
        <time>2024-12-03T13:42:13Z</time>
      </trkpt>
      <trkpt lat="44.42063" lon="1.51626">
        <ele>169.9</ele>
        <time>2024-12-03T13:42:12Z</time>
      </trkpt>
      <trkpt lat="44.42064" lon="1.51624">
        <ele>169.8</ele>
        <time>2024-12-03T13:42:11Z</time>
      </trkpt>
      <trkpt lat="44.42064" lon="1.51624">
        <ele>169.8</ele>
        <time>2024-12-03T13:42:10Z</time>
      </trkpt>
      <trkpt lat="44.42064" lon="1.51622">
        <ele>169.7</ele>
        <time>2024-12-03T13:42:09Z</time>
      </trkpt>
      <trkpt lat="44.42065" lon="1.51621">
        <ele>169.6</ele>
        <time>2024-12-03T13:42:08Z</time>
      </trkpt>
      <trkpt lat="44.42066" lon="1.51619">
        <ele>169.4</ele>
        <time>2024-12-03T13:42:07Z</time>
      </trkpt>
      <trkpt lat="44.42066" lon="1.51617">
        <ele>169.3</ele>
        <time>2024-12-03T13:42:06Z</time>
      </trkpt>
      <trkpt lat="44.42067" lon="1.51616">
        <ele>169.1</ele>
        <time>2024-12-03T13:42:05Z</time>
      </trkpt>
      <trkpt lat="44.42067" lon="1.51614">
        <ele>169</ele>
        <time>2024-12-03T13:42:04Z</time>
      </trkpt>
      <trkpt lat="44.42067" lon="1.51613">
        <ele>168.9</ele>
        <time>2024-12-03T13:42:03Z</time>
      </trkpt>
      <trkpt lat="44.42067" lon="1.51612">
        <ele>168.8</ele>
        <time>2024-12-03T13:42:02Z</time>
      </trkpt>
      <trkpt lat="44.42068" lon="1.51611">
        <ele>168.7</ele>
        <time>2024-12-03T13:42:01Z</time>
      </trkpt>
      <trkpt lat="44.42068" lon="1.5161">
        <ele>168.7</ele>
        <time>2024-12-03T13:42:00Z</time>
      </trkpt>
      <trkpt lat="44.42069" lon="1.51609">
        <ele>168.6</ele>
        <time>2024-12-03T13:41:59Z</time>
      </trkpt>
      <trkpt lat="44.4207" lon="1.51608">
        <ele>168.6</ele>
        <time>2024-12-03T13:41:58Z</time>
      </trkpt>
      <trkpt lat="44.4207" lon="1.51607">
        <ele>168.6</ele>
        <time>2024-12-03T13:41:57Z</time>
      </trkpt>
      <trkpt lat="44.42071" lon="1.51606">
        <ele>168.5</ele>
        <time>2024-12-03T13:41:56Z</time>
      </trkpt>
      <trkpt lat="44.42071" lon="1.51605">
        <ele>168.5</ele>
        <time>2024-12-03T13:41:55Z</time>
      </trkpt>
      <trkpt lat="44.42072" lon="1.51604">
        <ele>168.3</ele>
        <time>2024-12-03T13:41:54Z</time>
      </trkpt>
      <trkpt lat="44.42073" lon="1.51603">
        <ele>168.3</ele>
        <time>2024-12-03T13:41:53Z</time>
      </trkpt>
      <trkpt lat="44.42074" lon="1.51602">
        <ele>168.2</ele>
        <time>2024-12-03T13:41:52Z</time>
      </trkpt>
      <trkpt lat="44.42074" lon="1.51601">
        <ele>168.1</ele>
        <time>2024-12-03T13:41:51Z</time>
      </trkpt>
      <trkpt lat="44.42075" lon="1.51601">
        <ele>168</ele>
        <time>2024-12-03T13:41:50Z</time>
      </trkpt>
      <trkpt lat="44.42075" lon="1.516">
        <ele>167.9</ele>
        <time>2024-12-03T13:41:49Z</time>
      </trkpt>
      <trkpt lat="44.42076" lon="1.516">
        <ele>167.9</ele>
        <time>2024-12-03T13:41:48Z</time>
      </trkpt>
      <trkpt lat="44.42077" lon="1.51598">
        <ele>167.7</ele>
        <time>2024-12-03T13:41:47Z</time>
      </trkpt>
      <trkpt lat="44.42077" lon="1.51598">
        <ele>167.6</ele>
        <time>2024-12-03T13:41:46Z</time>
      </trkpt>
      <trkpt lat="44.42077" lon="1.51598">
        <ele>167.6</ele>
        <time>2024-12-03T13:41:45Z</time>
      </trkpt>
      <trkpt lat="44.42078" lon="1.51596">
        <ele>167.4</ele>
        <time>2024-12-03T13:41:44Z</time>
      </trkpt>
      <trkpt lat="44.42079" lon="1.51596">
        <ele>167.3</ele>
        <time>2024-12-03T13:41:43Z</time>
      </trkpt>
      <trkpt lat="44.4208" lon="1.51595">
        <ele>167.1</ele>
        <time>2024-12-03T13:41:42Z</time>
      </trkpt>
      <trkpt lat="44.42081" lon="1.51594">
        <ele>166.9</ele>
        <time>2024-12-03T13:41:41Z</time>
      </trkpt>
      <trkpt lat="44.42082" lon="1.51593">
        <ele>166.7</ele>
        <time>2024-12-03T13:41:40Z</time>
      </trkpt>
      <trkpt lat="44.42083" lon="1.51591">
        <ele>166.4</ele>
        <time>2024-12-03T13:41:39Z</time>
      </trkpt>
      <trkpt lat="44.42084" lon="1.51589">
        <ele>166.2</ele>
        <time>2024-12-03T13:41:38Z</time>
      </trkpt>
      <trkpt lat="44.42084" lon="1.51587">
        <ele>166.2</ele>
        <time>2024-12-03T13:41:37Z</time>
      </trkpt>
      <trkpt lat="44.42085" lon="1.51586">
        <ele>166.2</ele>
        <time>2024-12-03T13:41:36Z</time>
      </trkpt>
      <trkpt lat="44.42085" lon="1.51585">
        <ele>166.2</ele>
        <time>2024-12-03T13:41:35Z</time>
      </trkpt>
      <trkpt lat="44.42086" lon="1.51584">
        <ele>166.1</ele>
        <time>2024-12-03T13:41:34Z</time>
      </trkpt>
      <trkpt lat="44.42087" lon="1.51583">
        <ele>166.2</ele>
        <time>2024-12-03T13:41:33Z</time>
      </trkpt>
      <trkpt lat="44.42087" lon="1.51582">
        <ele>166.2</ele>
        <time>2024-12-03T13:41:32Z</time>
      </trkpt>
      <trkpt lat="44.42087" lon="1.51581">
        <ele>166.2</ele>
        <time>2024-12-03T13:41:31Z</time>
      </trkpt>
      <trkpt lat="44.42088" lon="1.5158">
        <ele>166.3</ele>
        <time>2024-12-03T13:41:30Z</time>
      </trkpt>
      <trkpt lat="44.42088" lon="1.5158">
        <ele>166.3</ele>
        <time>2024-12-03T13:41:29Z</time>
      </trkpt>
      <trkpt lat="44.42089" lon="1.51579">
        <ele>166.3</ele>
        <time>2024-12-03T13:41:28Z</time>
      </trkpt>
      <trkpt lat="44.4209" lon="1.51579">
        <ele>166.4</ele>
        <time>2024-12-03T13:41:27Z</time>
      </trkpt>
      <trkpt lat="44.42091" lon="1.51578">
        <ele>166.4</ele>
        <time>2024-12-03T13:41:26Z</time>
      </trkpt>
      <trkpt lat="44.42092" lon="1.51578">
        <ele>166.4</ele>
        <time>2024-12-03T13:41:25Z</time>
      </trkpt>
      <trkpt lat="44.42093" lon="1.51576">
        <ele>166.4</ele>
        <time>2024-12-03T13:41:24Z</time>
      </trkpt>
      <trkpt lat="44.42094" lon="1.51576">
        <ele>166.4</ele>
        <time>2024-12-03T13:41:23Z</time>
      </trkpt>
      <trkpt lat="44.42094" lon="1.51575">
        <ele>166.4</ele>
        <time>2024-12-03T13:41:22Z</time>
      </trkpt>
      <trkpt lat="44.42096" lon="1.51573">
        <ele>166.4</ele>
        <time>2024-12-03T13:41:21Z</time>
      </trkpt>
      <trkpt lat="44.42096" lon="1.51572">
        <ele>166.3</ele>
        <time>2024-12-03T13:41:20Z</time>
      </trkpt>
      <trkpt lat="44.42098" lon="1.51571">
        <ele>166.3</ele>
        <time>2024-12-03T13:41:19Z</time>
      </trkpt>
      <trkpt lat="44.42098" lon="1.51571">
        <ele>166.2</ele>
        <time>2024-12-03T13:41:18Z</time>
      </trkpt>
      <trkpt lat="44.42099" lon="1.5157">
        <ele>166.2</ele>
        <time>2024-12-03T13:41:17Z</time>
      </trkpt>
      <trkpt lat="44.421" lon="1.51569">
        <ele>166.1</ele>
        <time>2024-12-03T13:41:16Z</time>
      </trkpt>
      <trkpt lat="44.42102" lon="1.51567">
        <ele>165.9</ele>
        <time>2024-12-03T13:41:14Z</time>
      </trkpt>
      <trkpt lat="44.42102" lon="1.51566">
        <ele>165.8</ele>
        <time>2024-12-03T13:41:13Z</time>
      </trkpt>
      <trkpt lat="44.42103" lon="1.51565">
        <ele>165.7</ele>
        <time>2024-12-03T13:41:12Z</time>
      </trkpt>
      <trkpt lat="44.42103" lon="1.51564">
        <ele>165.6</ele>
        <time>2024-12-03T13:41:11Z</time>
      </trkpt>
      <trkpt lat="44.42104" lon="1.51563">
        <ele>165.5</ele>
        <time>2024-12-03T13:41:10Z</time>
      </trkpt>
      <trkpt lat="44.42104" lon="1.51562">
        <ele>165.4</ele>
        <time>2024-12-03T13:41:09Z</time>
      </trkpt>
      <trkpt lat="44.42105" lon="1.51561">
        <ele>165.3</ele>
        <time>2024-12-03T13:41:08Z</time>
      </trkpt>
      <trkpt lat="44.42106" lon="1.51561">
        <ele>165.2</ele>
        <time>2024-12-03T13:41:07Z</time>
      </trkpt>
      <trkpt lat="44.42106" lon="1.5156">
        <ele>165</ele>
        <time>2024-12-03T13:41:06Z</time>
      </trkpt>
      <trkpt lat="44.42107" lon="1.51559">
        <ele>164.9</ele>
        <time>2024-12-03T13:41:05Z</time>
      </trkpt>
      <trkpt lat="44.42108" lon="1.51558">
        <ele>164.7</ele>
        <time>2024-12-03T13:41:04Z</time>
      </trkpt>
      <trkpt lat="44.42109" lon="1.51557">
        <ele>164.5</ele>
        <time>2024-12-03T13:41:03Z</time>
      </trkpt>
      <trkpt lat="44.4211" lon="1.51555">
        <ele>164.2</ele>
        <time>2024-12-03T13:41:02Z</time>
      </trkpt>
      <trkpt lat="44.4211" lon="1.51554">
        <ele>164.2</ele>
        <time>2024-12-03T13:41:01Z</time>
      </trkpt>
      <trkpt lat="44.42111" lon="1.51553">
        <ele>164.2</ele>
        <time>2024-12-03T13:41:00Z</time>
      </trkpt>
      <trkpt lat="44.42111" lon="1.51552">
        <ele>164.2</ele>
        <time>2024-12-03T13:40:59Z</time>
      </trkpt>
      <trkpt lat="44.42112" lon="1.51551">
        <ele>164.3</ele>
        <time>2024-12-03T13:40:58Z</time>
      </trkpt>
      <trkpt lat="44.42113" lon="1.51549">
        <ele>164.4</ele>
        <time>2024-12-03T13:40:57Z</time>
      </trkpt>
      <trkpt lat="44.42114" lon="1.51547">
        <ele>164.6</ele>
        <time>2024-12-03T13:40:56Z</time>
      </trkpt>
      <trkpt lat="44.42114" lon="1.51547">
        <ele>164.6</ele>
        <time>2024-12-03T13:40:55Z</time>
      </trkpt>
      <trkpt lat="44.42116" lon="1.51546">
        <ele>164.7</ele>
        <time>2024-12-03T13:40:54Z</time>
      </trkpt>
      <trkpt lat="44.42116" lon="1.51545">
        <ele>164.7</ele>
        <time>2024-12-03T13:40:53Z</time>
      </trkpt>
      <trkpt lat="44.42117" lon="1.51544">
        <ele>164.7</ele>
        <time>2024-12-03T13:40:52Z</time>
      </trkpt>
      <trkpt lat="44.42118" lon="1.51543">
        <ele>164.8</ele>
        <time>2024-12-03T13:40:51Z</time>
      </trkpt>
      <trkpt lat="44.4212" lon="1.51542">
        <ele>164.8</ele>
        <time>2024-12-03T13:40:50Z</time>
      </trkpt>
      <trkpt lat="44.42121" lon="1.51541">
        <ele>164.8</ele>
        <time>2024-12-03T13:40:49Z</time>
      </trkpt>
      <trkpt lat="44.42121" lon="1.51541">
        <ele>164.8</ele>
        <time>2024-12-03T13:40:48Z</time>
      </trkpt>
      <trkpt lat="44.42122" lon="1.51541">
        <ele>164.8</ele>
        <time>2024-12-03T13:40:47Z</time>
      </trkpt>
      <trkpt lat="44.42122" lon="1.5154">
        <ele>164.8</ele>
        <time>2024-12-03T13:40:46Z</time>
      </trkpt>
      <trkpt lat="44.42123" lon="1.51539">
        <ele>164.8</ele>
        <time>2024-12-03T13:40:45Z</time>
      </trkpt>
      <trkpt lat="44.42123" lon="1.51538">
        <ele>164.7</ele>
        <time>2024-12-03T13:40:44Z</time>
      </trkpt>
      <trkpt lat="44.42124" lon="1.51538">
        <ele>164.7</ele>
        <time>2024-12-03T13:40:43Z</time>
      </trkpt>
      <trkpt lat="44.42124" lon="1.51537">
        <ele>164.7</ele>
        <time>2024-12-03T13:40:42Z</time>
      </trkpt>
      <trkpt lat="44.42125" lon="1.51537">
        <ele>164.6</ele>
        <time>2024-12-03T13:40:41Z</time>
      </trkpt>
      <trkpt lat="44.42125" lon="1.51536">
        <ele>164.6</ele>
        <time>2024-12-03T13:40:40Z</time>
      </trkpt>
      <trkpt lat="44.42126" lon="1.51535">
        <ele>164.5</ele>
        <time>2024-12-03T13:40:38Z</time>
      </trkpt>
      <trkpt lat="44.42126" lon="1.51534">
        <ele>164.4</ele>
        <time>2024-12-03T13:40:37Z</time>
      </trkpt>
      <trkpt lat="44.42127" lon="1.51533">
        <ele>164.4</ele>
        <time>2024-12-03T13:40:36Z</time>
      </trkpt>
      <trkpt lat="44.42127" lon="1.51532">
        <ele>164.3</ele>
        <time>2024-12-03T13:40:35Z</time>
      </trkpt>
      <trkpt lat="44.42128" lon="1.5153">
        <ele>164</ele>
        <time>2024-12-03T13:40:34Z</time>
      </trkpt>
      <trkpt lat="44.42129" lon="1.51529">
        <ele>163.9</ele>
        <time>2024-12-03T13:40:33Z</time>
      </trkpt>
      <trkpt lat="44.42129" lon="1.51528">
        <ele>163.7</ele>
        <time>2024-12-03T13:40:32Z</time>
      </trkpt>
      <trkpt lat="44.42131" lon="1.51527">
        <ele>163.6</ele>
        <time>2024-12-03T13:40:31Z</time>
      </trkpt>
      <trkpt lat="44.42132" lon="1.51526">
        <ele>163.5</ele>
        <time>2024-12-03T13:40:30Z</time>
      </trkpt>
      <trkpt lat="44.42132" lon="1.51526">
        <ele>163.5</ele>
        <time>2024-12-03T13:40:29Z</time>
      </trkpt>
      <trkpt lat="44.42133" lon="1.51525">
        <ele>163.4</ele>
        <time>2024-12-03T13:40:28Z</time>
      </trkpt>
      <trkpt lat="44.42133" lon="1.51524">
        <ele>163.4</ele>
        <time>2024-12-03T13:40:27Z</time>
      </trkpt>
      <trkpt lat="44.42134" lon="1.51523">
        <ele>163.3</ele>
        <time>2024-12-03T13:40:26Z</time>
      </trkpt>
      <trkpt lat="44.42135" lon="1.51522">
        <ele>163.2</ele>
        <time>2024-12-03T13:40:25Z</time>
      </trkpt>
      <trkpt lat="44.42135" lon="1.51521">
        <ele>163.1</ele>
        <time>2024-12-03T13:40:24Z</time>
      </trkpt>
      <trkpt lat="44.42136" lon="1.5152">
        <ele>163</ele>
        <time>2024-12-03T13:40:23Z</time>
      </trkpt>
      <trkpt lat="44.42137" lon="1.51519">
        <ele>162.9</ele>
        <time>2024-12-03T13:40:22Z</time>
      </trkpt>
      <trkpt lat="44.42139" lon="1.51518">
        <ele>162.7</ele>
        <time>2024-12-03T13:40:20Z</time>
      </trkpt>
      <trkpt lat="44.4214" lon="1.51516">
        <ele>162.7</ele>
        <time>2024-12-03T13:40:19Z</time>
      </trkpt>
      <trkpt lat="44.4214" lon="1.51516">
        <ele>162.7</ele>
        <time>2024-12-03T13:40:18Z</time>
      </trkpt>
      <trkpt lat="44.42141" lon="1.51515">
        <ele>162.7</ele>
        <time>2024-12-03T13:40:17Z</time>
      </trkpt>
      <trkpt lat="44.42141" lon="1.51514">
        <ele>162.7</ele>
        <time>2024-12-03T13:40:16Z</time>
      </trkpt>
      <trkpt lat="44.42142" lon="1.51513">
        <ele>162.6</ele>
        <time>2024-12-03T13:40:15Z</time>
      </trkpt>
      <trkpt lat="44.42142" lon="1.51511">
        <ele>162.6</ele>
        <time>2024-12-03T13:40:14Z</time>
      </trkpt>
      <trkpt lat="44.42143" lon="1.51509">
        <ele>162.5</ele>
        <time>2024-12-03T13:40:13Z</time>
      </trkpt>
      <trkpt lat="44.42144" lon="1.51508">
        <ele>162.4</ele>
        <time>2024-12-03T13:40:12Z</time>
      </trkpt>
      <trkpt lat="44.42144" lon="1.51506">
        <ele>162.3</ele>
        <time>2024-12-03T13:40:11Z</time>
      </trkpt>
      <trkpt lat="44.42145" lon="1.51505">
        <ele>162.2</ele>
        <time>2024-12-03T13:40:10Z</time>
      </trkpt>
      <trkpt lat="44.42146" lon="1.51504">
        <ele>162.1</ele>
        <time>2024-12-03T13:40:09Z</time>
      </trkpt>
      <trkpt lat="44.42147" lon="1.51503">
        <ele>162</ele>
        <time>2024-12-03T13:40:08Z</time>
      </trkpt>
      <trkpt lat="44.42148" lon="1.51502">
        <ele>161.9</ele>
        <time>2024-12-03T13:40:07Z</time>
      </trkpt>
      <trkpt lat="44.42149" lon="1.51501">
        <ele>161.8</ele>
        <time>2024-12-03T13:40:06Z</time>
      </trkpt>
      <trkpt lat="44.4215" lon="1.515">
        <ele>161.7</ele>
        <time>2024-12-03T13:40:05Z</time>
      </trkpt>
      <trkpt lat="44.42151" lon="1.515">
        <ele>161.6</ele>
        <time>2024-12-03T13:40:04Z</time>
      </trkpt>
      <trkpt lat="44.42151" lon="1.515">
        <ele>161.6</ele>
        <time>2024-12-03T13:40:03Z</time>
      </trkpt>
      <trkpt lat="44.42152" lon="1.51499">
        <ele>161.6</ele>
        <time>2024-12-03T13:40:02Z</time>
      </trkpt>
      <trkpt lat="44.42153" lon="1.51499">
        <ele>161.6</ele>
        <time>2024-12-03T13:40:01Z</time>
      </trkpt>
      <trkpt lat="44.42154" lon="1.51498">
        <ele>161.6</ele>
        <time>2024-12-03T13:40:00Z</time>
      </trkpt>
      <trkpt lat="44.42155" lon="1.51497">
        <ele>161.6</ele>
        <time>2024-12-03T13:39:59Z</time>
      </trkpt>
      <trkpt lat="44.42156" lon="1.51497">
        <ele>161.6</ele>
        <time>2024-12-03T13:39:58Z</time>
      </trkpt>
      <trkpt lat="44.42157" lon="1.51495">
        <ele>161.6</ele>
        <time>2024-12-03T13:39:57Z</time>
      </trkpt>
      <trkpt lat="44.42158" lon="1.51494">
        <ele>161.6</ele>
        <time>2024-12-03T13:39:56Z</time>
      </trkpt>
      <trkpt lat="44.42159" lon="1.51494">
        <ele>161.5</ele>
        <time>2024-12-03T13:39:55Z</time>
      </trkpt>
      <trkpt lat="44.4216" lon="1.51493">
        <ele>161.5</ele>
        <time>2024-12-03T13:39:54Z</time>
      </trkpt>
      <trkpt lat="44.42161" lon="1.51493">
        <ele>161.4</ele>
        <time>2024-12-03T13:39:53Z</time>
      </trkpt>
      <trkpt lat="44.42162" lon="1.51492">
        <ele>161.3</ele>
        <time>2024-12-03T13:39:52Z</time>
      </trkpt>
      <trkpt lat="44.42164" lon="1.51491">
        <ele>161.2</ele>
        <time>2024-12-03T13:39:51Z</time>
      </trkpt>
      <trkpt lat="44.42165" lon="1.51491">
        <ele>161.2</ele>
        <time>2024-12-03T13:39:50Z</time>
      </trkpt>
      <trkpt lat="44.42166" lon="1.5149">
        <ele>161.1</ele>
        <time>2024-12-03T13:39:49Z</time>
      </trkpt>
      <trkpt lat="44.42167" lon="1.5149">
        <ele>161</ele>
        <time>2024-12-03T13:39:48Z</time>
      </trkpt>
      <trkpt lat="44.42169" lon="1.51489">
        <ele>161.1</ele>
        <time>2024-12-03T13:39:47Z</time>
      </trkpt>
      <trkpt lat="44.4217" lon="1.51489">
        <ele>161.1</ele>
        <time>2024-12-03T13:39:46Z</time>
      </trkpt>
      <trkpt lat="44.42171" lon="1.51488">
        <ele>161.1</ele>
        <time>2024-12-03T13:39:45Z</time>
      </trkpt>
      <trkpt lat="44.42172" lon="1.51488">
        <ele>161.2</ele>
        <time>2024-12-03T13:39:44Z</time>
      </trkpt>
      <trkpt lat="44.42173" lon="1.51488">
        <ele>161.2</ele>
        <time>2024-12-03T13:39:43Z</time>
      </trkpt>
      <trkpt lat="44.42173" lon="1.51487">
        <ele>161.2</ele>
        <time>2024-12-03T13:39:42Z</time>
      </trkpt>
      <trkpt lat="44.42175" lon="1.51486">
        <ele>161.1</ele>
        <time>2024-12-03T13:39:41Z</time>
      </trkpt>
      <trkpt lat="44.42176" lon="1.51485">
        <ele>161.1</ele>
        <time>2024-12-03T13:39:40Z</time>
      </trkpt>
      <trkpt lat="44.42177" lon="1.51485">
        <ele>161.1</ele>
        <time>2024-12-03T13:39:39Z</time>
      </trkpt>
      <trkpt lat="44.42179" lon="1.51484">
        <ele>161.1</ele>
        <time>2024-12-03T13:39:38Z</time>
      </trkpt>
      <trkpt lat="44.4218" lon="1.51484">
        <ele>161</ele>
        <time>2024-12-03T13:39:37Z</time>
      </trkpt>
      <trkpt lat="44.42181" lon="1.51483">
        <ele>161</ele>
        <time>2024-12-03T13:39:36Z</time>
      </trkpt>
      <trkpt lat="44.42182" lon="1.51482">
        <ele>160.9</ele>
        <time>2024-12-03T13:39:35Z</time>
      </trkpt>
      <trkpt lat="44.42182" lon="1.51482">
        <ele>160.8</ele>
        <time>2024-12-03T13:39:34Z</time>
      </trkpt>
      <trkpt lat="44.42183" lon="1.51481">
        <ele>160.7</ele>
        <time>2024-12-03T13:39:33Z</time>
      </trkpt>
      <trkpt lat="44.42183" lon="1.5148">
        <ele>160.6</ele>
        <time>2024-12-03T13:39:32Z</time>
      </trkpt>
      <trkpt lat="44.42184" lon="1.5148">
        <ele>160.6</ele>
        <time>2024-12-03T13:39:31Z</time>
      </trkpt>
      <trkpt lat="44.42185" lon="1.51479">
        <ele>160.5</ele>
        <time>2024-12-03T13:39:30Z</time>
      </trkpt>
      <trkpt lat="44.42187" lon="1.51479">
        <ele>160.4</ele>
        <time>2024-12-03T13:39:29Z</time>
      </trkpt>
      <trkpt lat="44.42188" lon="1.51478">
        <ele>160.3</ele>
        <time>2024-12-03T13:39:28Z</time>
      </trkpt>
      <trkpt lat="44.42188" lon="1.51478">
        <ele>160.3</ele>
        <time>2024-12-03T13:39:27Z</time>
      </trkpt>
      <trkpt lat="44.42189" lon="1.51477">
        <ele>160.1</ele>
        <time>2024-12-03T13:39:26Z</time>
      </trkpt>
      <trkpt lat="44.4219" lon="1.51476">
        <ele>159.9</ele>
        <time>2024-12-03T13:39:25Z</time>
      </trkpt>
      <trkpt lat="44.42191" lon="1.51476">
        <ele>159.8</ele>
        <time>2024-12-03T13:39:24Z</time>
      </trkpt>
      <trkpt lat="44.42192" lon="1.51475">
        <ele>159.6</ele>
        <time>2024-12-03T13:39:23Z</time>
      </trkpt>
      <trkpt lat="44.42192" lon="1.51474">
        <ele>159.4</ele>
        <time>2024-12-03T13:39:22Z</time>
      </trkpt>
      <trkpt lat="44.42193" lon="1.51473">
        <ele>159.3</ele>
        <time>2024-12-03T13:39:21Z</time>
      </trkpt>
      <trkpt lat="44.42193" lon="1.51473">
        <ele>159.2</ele>
        <time>2024-12-03T13:39:20Z</time>
      </trkpt>
      <trkpt lat="44.42194" lon="1.51473">
        <ele>159.1</ele>
        <time>2024-12-03T13:39:19Z</time>
      </trkpt>
      <trkpt lat="44.42195" lon="1.51472">
        <ele>159.1</ele>
        <time>2024-12-03T13:39:18Z</time>
      </trkpt>
      <trkpt lat="44.42195" lon="1.51471">
        <ele>159.1</ele>
        <time>2024-12-03T13:39:17Z</time>
      </trkpt>
      <trkpt lat="44.42195" lon="1.51471">
        <ele>159.1</ele>
        <time>2024-12-03T13:39:16Z</time>
      </trkpt>
      <trkpt lat="44.42195" lon="1.5147">
        <ele>159.1</ele>
        <time>2024-12-03T13:39:15Z</time>
      </trkpt>
      <trkpt lat="44.42196" lon="1.5147">
        <ele>159.2</ele>
        <time>2024-12-03T13:39:14Z</time>
      </trkpt>
      <trkpt lat="44.42198" lon="1.51469">
        <ele>159.2</ele>
        <time>2024-12-03T13:39:13Z</time>
      </trkpt>
      <trkpt lat="44.42198" lon="1.51468">
        <ele>159.2</ele>
        <time>2024-12-03T13:39:12Z</time>
      </trkpt>
      <trkpt lat="44.42199" lon="1.51468">
        <ele>159.2</ele>
        <time>2024-12-03T13:39:11Z</time>
      </trkpt>
      <trkpt lat="44.422" lon="1.51468">
        <ele>159.2</ele>
        <time>2024-12-03T13:39:10Z</time>
      </trkpt>
      <trkpt lat="44.422" lon="1.51468">
        <ele>159.2</ele>
        <time>2024-12-03T13:39:09Z</time>
      </trkpt>
      <trkpt lat="44.42201" lon="1.51467">
        <ele>159.2</ele>
        <time>2024-12-03T13:39:08Z</time>
      </trkpt>
      <trkpt lat="44.42203" lon="1.51466">
        <ele>159.2</ele>
        <time>2024-12-03T13:39:07Z</time>
      </trkpt>
      <trkpt lat="44.42204" lon="1.51466">
        <ele>159.2</ele>
        <time>2024-12-03T13:39:06Z</time>
      </trkpt>
      <trkpt lat="44.42204" lon="1.51466">
        <ele>159.2</ele>
        <time>2024-12-03T13:39:05Z</time>
      </trkpt>
      <trkpt lat="44.42204" lon="1.51465">
        <ele>159.3</ele>
        <time>2024-12-03T13:39:04Z</time>
      </trkpt>
      <trkpt lat="44.42205" lon="1.51464">
        <ele>159.3</ele>
        <time>2024-12-03T13:39:03Z</time>
      </trkpt>
      <trkpt lat="44.42205" lon="1.51463">
        <ele>159.3</ele>
        <time>2024-12-03T13:39:02Z</time>
      </trkpt>
      <trkpt lat="44.42206" lon="1.51463">
        <ele>159.3</ele>
        <time>2024-12-03T13:39:01Z</time>
      </trkpt>
      <trkpt lat="44.42206" lon="1.51462">
        <ele>159.3</ele>
        <time>2024-12-03T13:39:00Z</time>
      </trkpt>
      <trkpt lat="44.42207" lon="1.51461">
        <ele>159.3</ele>
        <time>2024-12-03T13:38:59Z</time>
      </trkpt>
      <trkpt lat="44.42208" lon="1.51461">
        <ele>159.2</ele>
        <time>2024-12-03T13:38:58Z</time>
      </trkpt>
      <trkpt lat="44.42209" lon="1.51461">
        <ele>159.2</ele>
        <time>2024-12-03T13:38:57Z</time>
      </trkpt>
      <trkpt lat="44.42209" lon="1.51461">
        <ele>159.2</ele>
        <time>2024-12-03T13:38:56Z</time>
      </trkpt>
      <trkpt lat="44.42209" lon="1.51461">
        <ele>159.2</ele>
        <time>2024-12-03T13:38:55Z</time>
      </trkpt>
      <trkpt lat="44.4221" lon="1.5146">
        <ele>159.1</ele>
        <time>2024-12-03T13:38:54Z</time>
      </trkpt>
      <trkpt lat="44.4221" lon="1.51459">
        <ele>159.1</ele>
        <time>2024-12-03T13:38:53Z</time>
      </trkpt>
      <trkpt lat="44.42212" lon="1.51456">
        <ele>159.1</ele>
        <time>2024-12-03T13:38:52Z</time>
      </trkpt>
      <trkpt lat="44.42221" lon="1.51446">
        <ele>158.2</ele>
        <time>2024-11-27T23:01:28.135Z</time>
      </trkpt>
      <trkpt lat="44.42233" lon="1.51414">
        <ele>158.8</ele>
        <time>2024-11-27T23:01:31.689Z</time>
      </trkpt>
      <trkpt lat="44.4224" lon="1.5135">
        <ele>157.1</ele>
        <time>2024-11-27T23:01:38.054Z</time>
      </trkpt>
      <trkpt lat="44.4224" lon="1.5135">
        <ele>157.1</ele>
        <time>2024-11-27T23:01:38.073Z</time>
      </trkpt>
      <trkpt lat="44.42241" lon="1.51313">
        <ele>155.4</ele>
        <time>2024-11-27T23:01:41.742Z</time>
      </trkpt>
      <trkpt lat="44.42239" lon="1.51264">
        <ele>151</ele>
        <time>2024-11-27T23:01:46.822Z</time>
      </trkpt>
      <trkpt lat="44.42227" lon="1.51196">
        <ele>147.1</ele>
        <time>2024-11-27T23:01:54.415Z</time>
      </trkpt>
      <trkpt lat="44.42124" lon="1.51244">
        <ele>148.8</ele>
        <time>2024-11-27T23:02:14.824Z</time>
      </trkpt>
      <trkpt lat="44.42082" lon="1.51249">
        <ele>149</ele>
        <time>2024-11-27T23:02:27.704Z</time>
      </trkpt>
      <trkpt lat="44.4206" lon="1.51247">
        <ele>149.6</ele>
        <time>2024-11-27T23:02:34.511Z</time>
      </trkpt>
      <trkpt lat="44.42026" lon="1.51236">
        <ele>150.1</ele>
        <time>2024-11-27T23:02:45.180Z</time>
      </trkpt>
      <trkpt lat="44.42026" lon="1.51212">
        <ele>149.1</ele>
        <time>2024-11-27T23:02:50.243Z</time>
      </trkpt>
      <trkpt lat="44.4202" lon="1.51201">
        <ele>149.1</ele>
        <time>2024-11-27T23:02:52.960Z</time>
      </trkpt>
      <trkpt lat="44.41967" lon="1.5118">
        <ele>151.7</ele>
        <time>2024-11-27T23:03:06.786Z</time>
      </trkpt>
      <trkpt lat="44.41958" lon="1.51174">
        <ele>153.5</ele>
        <time>2024-11-27T23:03:08.931Z</time>
      </trkpt>
      <trkpt lat="44.41905" lon="1.51123">
        <ele>153.1</ele>
        <time>2024-11-27T23:03:21.847Z</time>
      </trkpt>
      <trkpt lat="44.4189" lon="1.51106">
        <ele>150</ele>
        <time>2024-11-27T23:03:25.630Z</time>
      </trkpt>
      <trkpt lat="44.41873" lon="1.51097">
        <ele>151.1</ele>
        <time>2024-11-27T23:03:28.986Z</time>
      </trkpt>
      <trkpt lat="44.41824" lon="1.51108">
        <ele>152.1</ele>
        <time>2024-11-27T23:03:37.719Z</time>
      </trkpt>
      <trkpt lat="44.41767" lon="1.51136">
        <ele>151.9</ele>
        <time>2024-11-27T23:03:49.363Z</time>
      </trkpt>
      <trkpt lat="44.41749" lon="1.51153">
        <ele>151.5</ele>
        <time>2024-11-27T23:03:54.273Z</time>
      </trkpt>
      <trkpt lat="44.41727" lon="1.51181">
        <ele>151.8</ele>
        <time>2024-11-27T23:04:01.859Z</time>
      </trkpt>
      <trkpt lat="44.41716" lon="1.51191">
        <ele>152.4</ele>
        <time>2024-11-27T23:04:05.511Z</time>
      </trkpt>
      <trkpt lat="44.41706" lon="1.51196">
        <ele>153.1</ele>
        <time>2024-11-27T23:04:08.798Z</time>
      </trkpt>
      <trkpt lat="44.41657" lon="1.51207">
        <ele>156.4</ele>
        <time>2024-11-27T23:04:24.441Z</time>
      </trkpt>
      <trkpt lat="44.41633" lon="1.5122">
        <ele>157.2</ele>
        <time>2024-11-27T23:04:33.304Z</time>
      </trkpt>
      <trkpt lat="44.41516" lon="1.51429">
        <ele>159.5</ele>
        <time>2024-11-27T23:05:41.025Z</time>
      </trkpt>
      <trkpt lat="44.41505" lon="1.5144">
        <ele>160.5</ele>
        <time>2024-11-27T23:05:46.766Z</time>
      </trkpt>
      <trkpt lat="44.41478" lon="1.51442">
        <ele>160.6</ele>
        <time>2024-11-27T23:05:58.516Z</time>
      </trkpt>
      <trkpt lat="44.41477" lon="1.51423">
        <ele>163.2</ele>
        <time>2024-11-27T23:06:04.993Z</time>
      </trkpt>
      <trkpt lat="44.41471" lon="1.51395">
        <ele>166</ele>
        <time>2024-11-27T23:06:15.491Z</time>
      </trkpt>
      <trkpt lat="44.41462" lon="1.51399">
        <ele>163.9</ele>
        <time>2024-11-27T23:06:19.404Z</time>
      </trkpt>
      <trkpt lat="44.41459" lon="1.51395">
        <ele>163.5</ele>
        <time>2024-11-27T23:06:21.380Z</time>
      </trkpt>
      <trkpt lat="44.41454" lon="1.51391">
        <ele>163</ele>
        <time>2024-11-27T23:06:23.733Z</time>
      </trkpt>
      <trkpt lat="44.41449" lon="1.51387">
        <ele>162.3</ele>
        <time>2024-11-27T23:06:26.325Z</time>
      </trkpt>
      <trkpt lat="44.41443" lon="1.51384">
        <ele>162</ele>
        <time>2024-11-27T23:06:29.067Z</time>
      </trkpt>
      <trkpt lat="44.41436" lon="1.51381">
        <ele>162.7</ele>
        <time>2024-11-27T23:06:31.926Z</time>
      </trkpt>
      <trkpt lat="44.4143" lon="1.51379">
        <ele>163.1</ele>
        <time>2024-11-27T23:06:34.676Z</time>
      </trkpt>
      <trkpt lat="44.41425" lon="1.51376">
        <ele>163.1</ele>
        <time>2024-11-27T23:06:37.188Z</time>
      </trkpt>
      <trkpt lat="44.41419" lon="1.51374">
        <ele>163</ele>
        <time>2024-11-27T23:06:39.567Z</time>
      </trkpt>
      <trkpt lat="44.41415" lon="1.51372">
        <ele>163</ele>
        <time>2024-11-27T23:06:41.773Z</time>
      </trkpt>
      <trkpt lat="44.4141" lon="1.5137">
        <ele>163.3</ele>
        <time>2024-11-27T23:06:43.739Z</time>
      </trkpt>
      <trkpt lat="44.41407" lon="1.51368">
        <ele>163.5</ele>
        <time>2024-11-27T23:06:45.384Z</time>
      </trkpt>
      <trkpt lat="44.41402" lon="1.51365">
        <ele>163.8</ele>
        <time>2024-11-27T23:06:47.405Z</time>
      </trkpt>
      <trkpt lat="44.41398" lon="1.51362">
        <ele>164.1</ele>
        <time>2024-11-27T23:06:49.334Z</time>
      </trkpt>
      <trkpt lat="44.41394" lon="1.51359">
        <ele>164.5</ele>
        <time>2024-11-27T23:06:51.510Z</time>
      </trkpt>
      <trkpt lat="44.41388" lon="1.51355">
        <ele>164.9</ele>
        <time>2024-11-27T23:06:54.025Z</time>
      </trkpt>
      <trkpt lat="44.41383" lon="1.51352">
        <ele>165.4</ele>
        <time>2024-11-27T23:06:56.668Z</time>
      </trkpt>
      <trkpt lat="44.4138" lon="1.51349">
        <ele>165.6</ele>
        <time>2024-11-27T23:06:58.376Z</time>
      </trkpt>
      <trkpt lat="44.41375" lon="1.51344">
        <ele>165.8</ele>
        <time>2024-11-27T23:07:00.924Z</time>
      </trkpt>
      <trkpt lat="44.41371" lon="1.51341">
        <ele>165.9</ele>
        <time>2024-11-27T23:07:02.821Z</time>
      </trkpt>
      <trkpt lat="44.41367" lon="1.51337">
        <ele>165.9</ele>
        <time>2024-11-27T23:07:04.614Z</time>
      </trkpt>
      <trkpt lat="44.41364" lon="1.51335">
        <ele>166</ele>
        <time>2024-11-27T23:07:06.077Z</time>
      </trkpt>
      <trkpt lat="44.41361" lon="1.51333">
        <ele>166.1</ele>
        <time>2024-11-27T23:07:07.828Z</time>
      </trkpt>
      <trkpt lat="44.41357" lon="1.51331">
        <ele>166.6</ele>
        <time>2024-11-27T23:07:09.667Z</time>
      </trkpt>
      <trkpt lat="44.41353" lon="1.51329">
        <ele>167.1</ele>
        <time>2024-11-27T23:07:11.509Z</time>
      </trkpt>
      <trkpt lat="44.41348" lon="1.51326">
        <ele>167.5</ele>
        <time>2024-11-27T23:07:13.501Z</time>
      </trkpt>
      <trkpt lat="44.41344" lon="1.51324">
        <ele>167.8</ele>
        <time>2024-11-27T23:07:15.303Z</time>
      </trkpt>
      <trkpt lat="44.41341" lon="1.51322">
        <ele>168</ele>
        <time>2024-11-27T23:07:16.822Z</time>
      </trkpt>
      <trkpt lat="44.41337" lon="1.5132">
        <ele>168.3</ele>
        <time>2024-11-27T23:07:18.795Z</time>
      </trkpt>
      <trkpt lat="44.41327" lon="1.51315">
        <ele>168.9</ele>
        <time>2024-11-27T23:07:23.238Z</time>
      </trkpt>
      <trkpt lat="44.41323" lon="1.51313">
        <ele>169.1</ele>
        <time>2024-11-27T23:07:25.110Z</time>
      </trkpt>
      <trkpt lat="44.41319" lon="1.51311">
        <ele>169.3</ele>
        <time>2024-11-27T23:07:26.822Z</time>
      </trkpt>
      <trkpt lat="44.41315" lon="1.51308">
        <ele>169.4</ele>
        <time>2024-11-27T23:07:28.985Z</time>
      </trkpt>
      <trkpt lat="44.4131" lon="1.51305">
        <ele>169.5</ele>
        <time>2024-11-27T23:07:31.136Z</time>
      </trkpt>
      <trkpt lat="44.41305" lon="1.51302">
        <ele>170</ele>
        <time>2024-11-27T23:07:33.299Z</time>
      </trkpt>
      <trkpt lat="44.413" lon="1.51299">
        <ele>170.6</ele>
        <time>2024-11-27T23:07:35.799Z</time>
      </trkpt>
      <trkpt lat="44.41297" lon="1.51297">
        <ele>170.8</ele>
        <time>2024-11-27T23:07:37.289Z</time>
      </trkpt>
      <trkpt lat="44.41293" lon="1.51294">
        <ele>171.1</ele>
        <time>2024-11-27T23:07:39.246Z</time>
      </trkpt>
      <trkpt lat="44.41288" lon="1.51291">
        <ele>171.2</ele>
        <time>2024-11-27T23:07:41.733Z</time>
      </trkpt>
      <trkpt lat="44.41283" lon="1.51288">
        <ele>171.2</ele>
        <time>2024-11-27T23:07:43.740Z</time>
      </trkpt>
      <trkpt lat="44.41279" lon="1.51286">
        <ele>171.1</ele>
        <time>2024-11-27T23:07:45.742Z</time>
      </trkpt>
      <trkpt lat="44.41275" lon="1.51285">
        <ele>171.4</ele>
        <time>2024-11-27T23:07:47.558Z</time>
      </trkpt>
      <trkpt lat="44.41271" lon="1.51283">
        <ele>171.6</ele>
        <time>2024-11-27T23:07:49.308Z</time>
      </trkpt>
      <trkpt lat="44.41266" lon="1.51281">
        <ele>171.8</ele>
        <time>2024-11-27T23:07:51.536Z</time>
      </trkpt>
      <trkpt lat="44.41261" lon="1.51279">
        <ele>172</ele>
        <time>2024-11-27T23:07:53.781Z</time>
      </trkpt>
      <trkpt lat="44.41258" lon="1.51278">
        <ele>172.2</ele>
        <time>2024-11-27T23:07:55.151Z</time>
      </trkpt>
      <trkpt lat="44.41253" lon="1.51276">
        <ele>172.7</ele>
        <time>2024-11-27T23:07:57.077Z</time>
      </trkpt>
      <trkpt lat="44.4125" lon="1.51274">
        <ele>173</ele>
        <time>2024-11-27T23:07:58.539Z</time>
      </trkpt>
      <trkpt lat="44.41245" lon="1.51271">
        <ele>173.7</ele>
        <time>2024-11-27T23:08:00.920Z</time>
      </trkpt>
      <trkpt lat="44.41239" lon="1.51267">
        <ele>174.4</ele>
        <time>2024-11-27T23:08:03.805Z</time>
      </trkpt>
      <trkpt lat="44.41235" lon="1.51265">
        <ele>174.7</ele>
        <time>2024-11-27T23:08:05.554Z</time>
      </trkpt>
      <trkpt lat="44.41231" lon="1.51263">
        <ele>174.9</ele>
        <time>2024-11-27T23:08:07.367Z</time>
      </trkpt>
      <trkpt lat="44.41228" lon="1.51261">
        <ele>175</ele>
        <time>2024-11-27T23:08:08.765Z</time>
      </trkpt>
      <trkpt lat="44.41224" lon="1.51259">
        <ele>175.1</ele>
        <time>2024-11-27T23:08:10.897Z</time>
      </trkpt>
      <trkpt lat="44.4122" lon="1.51257">
        <ele>175.3</ele>
        <time>2024-11-27T23:08:12.392Z</time>
      </trkpt>
      <trkpt lat="44.41216" lon="1.51255">
        <ele>175.6</ele>
        <time>2024-11-27T23:08:14.471Z</time>
      </trkpt>
      <trkpt lat="44.41212" lon="1.51253">
        <ele>175.7</ele>
        <time>2024-11-27T23:08:16.129Z</time>
      </trkpt>
      <trkpt lat="44.41208" lon="1.51251">
        <ele>175.8</ele>
        <time>2024-11-27T23:08:18.088Z</time>
      </trkpt>
      <trkpt lat="44.41204" lon="1.51249">
        <ele>176</ele>
        <time>2024-11-27T23:08:19.977Z</time>
      </trkpt>
      <trkpt lat="44.412" lon="1.51248">
        <ele>176.4</ele>
        <time>2024-11-27T23:08:21.734Z</time>
      </trkpt>
      <trkpt lat="44.41195" lon="1.51247">
        <ele>176.8</ele>
        <time>2024-11-27T23:08:23.647Z</time>
      </trkpt>
      <trkpt lat="44.41191" lon="1.51245">
        <ele>177.3</ele>
        <time>2024-11-27T23:08:25.517Z</time>
      </trkpt>
      <trkpt lat="44.41187" lon="1.51244">
        <ele>177.7</ele>
        <time>2024-11-27T23:08:27.303Z</time>
      </trkpt>
      <trkpt lat="44.41182" lon="1.51242">
        <ele>178.1</ele>
        <time>2024-11-27T23:08:29.347Z</time>
      </trkpt>
      <trkpt lat="44.41177" lon="1.5124">
        <ele>178.5</ele>
        <time>2024-11-27T23:08:31.730Z</time>
      </trkpt>
      <trkpt lat="44.41173" lon="1.51238">
        <ele>178.6</ele>
        <time>2024-11-27T23:08:33.699Z</time>
      </trkpt>
      <trkpt lat="44.41169" lon="1.51235">
        <ele>178.7</ele>
        <time>2024-11-27T23:08:35.288Z</time>
      </trkpt>
      <trkpt lat="44.41166" lon="1.51234">
        <ele>178.8</ele>
        <time>2024-11-27T23:08:36.883Z</time>
      </trkpt>
      <trkpt lat="44.41162" lon="1.51232">
        <ele>179.1</ele>
        <time>2024-11-27T23:08:38.590Z</time>
      </trkpt>
      <trkpt lat="44.41158" lon="1.51229">
        <ele>179.3</ele>
        <time>2024-11-27T23:08:40.493Z</time>
      </trkpt>
      <trkpt lat="44.41154" lon="1.51226">
        <ele>179.5</ele>
        <time>2024-11-27T23:08:42.625Z</time>
      </trkpt>
      <trkpt lat="44.41149" lon="1.51222">
        <ele>179.5</ele>
        <time>2024-11-27T23:08:44.769Z</time>
      </trkpt>
      <trkpt lat="44.41145" lon="1.5122">
        <ele>180.1</ele>
        <time>2024-11-27T23:08:46.749Z</time>
      </trkpt>
      <trkpt lat="44.41141" lon="1.51219">
        <ele>180.6</ele>
        <time>2024-11-27T23:08:48.555Z</time>
      </trkpt>
      <trkpt lat="44.41137" lon="1.51216">
        <ele>181</ele>
        <time>2024-11-27T23:08:50.303Z</time>
      </trkpt>
      <trkpt lat="44.41133" lon="1.51214">
        <ele>181.2</ele>
        <time>2024-11-27T23:08:52.272Z</time>
      </trkpt>
      <trkpt lat="44.41128" lon="1.51212">
        <ele>181.5</ele>
        <time>2024-11-27T23:08:54.283Z</time>
      </trkpt>
      <trkpt lat="44.41124" lon="1.5121">
        <ele>181.7</ele>
        <time>2024-11-27T23:08:56.237Z</time>
      </trkpt>
      <trkpt lat="44.41118" lon="1.51208">
        <ele>181.9</ele>
        <time>2024-11-27T23:08:58.763Z</time>
      </trkpt>
      <trkpt lat="44.41114" lon="1.51206">
        <ele>182.1</ele>
        <time>2024-11-27T23:09:00.850Z</time>
      </trkpt>
      <trkpt lat="44.41109" lon="1.51204">
        <ele>182.3</ele>
        <time>2024-11-27T23:09:02.824Z</time>
      </trkpt>
      <trkpt lat="44.41105" lon="1.51203">
        <ele>182.5</ele>
        <time>2024-11-27T23:09:04.617Z</time>
      </trkpt>
      <trkpt lat="44.41101" lon="1.51202">
        <ele>182.8</ele>
        <time>2024-11-27T23:09:06.357Z</time>
      </trkpt>
      <trkpt lat="44.41097" lon="1.51202">
        <ele>183.1</ele>
        <time>2024-11-27T23:09:08.201Z</time>
      </trkpt>
      <trkpt lat="44.41093" lon="1.51201">
        <ele>183.4</ele>
        <time>2024-11-27T23:09:10.005Z</time>
      </trkpt>
      <trkpt lat="44.41089" lon="1.51201">
        <ele>183.6</ele>
        <time>2024-11-27T23:09:11.740Z</time>
      </trkpt>
      <trkpt lat="44.41084" lon="1.51199">
        <ele>183.8</ele>
        <time>2024-11-27T23:09:13.582Z</time>
      </trkpt>
      <trkpt lat="44.4108" lon="1.51198">
        <ele>183.8</ele>
        <time>2024-11-27T23:09:15.407Z</time>
      </trkpt>
      <trkpt lat="44.41076" lon="1.51198">
        <ele>183.8</ele>
        <time>2024-11-27T23:09:17.262Z</time>
      </trkpt>
      <trkpt lat="44.41072" lon="1.51197">
        <ele>183.8</ele>
        <time>2024-11-27T23:09:19.116Z</time>
      </trkpt>
      <trkpt lat="44.41067" lon="1.51196">
        <ele>183.8</ele>
        <time>2024-11-27T23:09:20.975Z</time>
      </trkpt>
      <trkpt lat="44.41063" lon="1.51195">
        <ele>183.9</ele>
        <time>2024-11-27T23:09:22.876Z</time>
      </trkpt>
      <trkpt lat="44.41058" lon="1.51194">
        <ele>183.9</ele>
        <time>2024-11-27T23:09:24.781Z</time>
      </trkpt>
      <trkpt lat="44.41054" lon="1.51194">
        <ele>184.1</ele>
        <time>2024-11-27T23:09:26.555Z</time>
      </trkpt>
      <trkpt lat="44.4105" lon="1.51192">
        <ele>184.6</ele>
        <time>2024-11-27T23:09:28.554Z</time>
      </trkpt>
      <trkpt lat="44.41045" lon="1.51191">
        <ele>185.1</ele>
        <time>2024-11-27T23:09:30.554Z</time>
      </trkpt>
      <trkpt lat="44.41041" lon="1.5119">
        <ele>185.5</ele>
        <time>2024-11-27T23:09:32.327Z</time>
      </trkpt>
      <trkpt lat="44.41038" lon="1.51188">
        <ele>185.8</ele>
        <time>2024-11-27T23:09:34.022Z</time>
      </trkpt>
      <trkpt lat="44.41034" lon="1.51185">
        <ele>186.1</ele>
        <time>2024-11-27T23:09:35.824Z</time>
      </trkpt>
      <trkpt lat="44.41031" lon="1.51182">
        <ele>186.3</ele>
        <time>2024-11-27T23:09:37.492Z</time>
      </trkpt>
      <trkpt lat="44.41028" lon="1.51179">
        <ele>186.5</ele>
        <time>2024-11-27T23:09:39.053Z</time>
      </trkpt>
      <trkpt lat="44.41025" lon="1.51176">
        <ele>186.7</ele>
        <time>2024-11-27T23:09:40.513Z</time>
      </trkpt>
      <trkpt lat="44.41021" lon="1.51174">
        <ele>186.9</ele>
        <time>2024-11-27T23:09:42.121Z</time>
      </trkpt>
      <trkpt lat="44.41018" lon="1.51172">
        <ele>187.2</ele>
        <time>2024-11-27T23:09:43.764Z</time>
      </trkpt>
      <trkpt lat="44.41014" lon="1.51171">
        <ele>187.5</ele>
        <time>2024-11-27T23:09:45.294Z</time>
      </trkpt>
      <trkpt lat="44.41011" lon="1.51171">
        <ele>187.8</ele>
        <time>2024-11-27T23:09:46.885Z</time>
      </trkpt>
      <trkpt lat="44.41007" lon="1.51171">
        <ele>188.1</ele>
        <time>2024-11-27T23:09:48.430Z</time>
      </trkpt>
      <trkpt lat="44.41003" lon="1.51172">
        <ele>188.6</ele>
        <time>2024-11-27T23:09:49.984Z</time>
      </trkpt>
      <trkpt lat="44.40999" lon="1.51172">
        <ele>189.1</ele>
        <time>2024-11-27T23:09:51.666Z</time>
      </trkpt>
      <trkpt lat="44.40996" lon="1.51173">
        <ele>189.3</ele>
        <time>2024-11-27T23:09:53.172Z</time>
      </trkpt>
      <trkpt lat="44.40993" lon="1.51174">
        <ele>189.7</ele>
        <time>2024-11-27T23:09:54.525Z</time>
      </trkpt>
      <trkpt lat="44.4099" lon="1.51174">
        <ele>190</ele>
        <time>2024-11-27T23:09:55.884Z</time>
      </trkpt>
      <trkpt lat="44.40987" lon="1.51175">
        <ele>190.4</ele>
        <time>2024-11-27T23:09:57.248Z</time>
      </trkpt>
      <trkpt lat="44.40983" lon="1.51176">
        <ele>190.7</ele>
        <time>2024-11-27T23:09:58.649Z</time>
      </trkpt>
      <trkpt lat="44.4098" lon="1.51177">
        <ele>191</ele>
        <time>2024-11-27T23:10:00.082Z</time>
      </trkpt>
      <trkpt lat="44.40977" lon="1.51178">
        <ele>191.3</ele>
        <time>2024-11-27T23:10:01.483Z</time>
      </trkpt>
      <trkpt lat="44.40974" lon="1.51179">
        <ele>191.6</ele>
        <time>2024-11-27T23:10:02.827Z</time>
      </trkpt>
      <trkpt lat="44.40971" lon="1.51179">
        <ele>192</ele>
        <time>2024-11-27T23:10:04.222Z</time>
      </trkpt>
      <trkpt lat="44.40967" lon="1.5118">
        <ele>192.5</ele>
        <time>2024-11-27T23:10:05.623Z</time>
      </trkpt>
      <trkpt lat="44.40964" lon="1.51181">
        <ele>192.9</ele>
        <time>2024-11-27T23:10:07.006Z</time>
      </trkpt>
      <trkpt lat="44.40961" lon="1.51181">
        <ele>193.3</ele>
        <time>2024-11-27T23:10:08.427Z</time>
      </trkpt>
      <trkpt lat="44.40958" lon="1.51181">
        <ele>193.7</ele>
        <time>2024-11-27T23:10:09.845Z</time>
      </trkpt>
      <trkpt lat="44.40954" lon="1.51181">
        <ele>193.9</ele>
        <time>2024-11-27T23:10:11.232Z</time>
      </trkpt>
      <trkpt lat="44.40951" lon="1.5118">
        <ele>194.1</ele>
        <time>2024-11-27T23:10:12.587Z</time>
      </trkpt>
      <trkpt lat="44.40948" lon="1.51179">
        <ele>194.4</ele>
        <time>2024-11-27T23:10:14.008Z</time>
      </trkpt>
      <trkpt lat="44.40945" lon="1.51179">
        <ele>194.8</ele>
        <time>2024-11-27T23:10:15.515Z</time>
      </trkpt>
      <trkpt lat="44.40941" lon="1.51178">
        <ele>195.1</ele>
        <time>2024-11-27T23:10:17.128Z</time>
      </trkpt>
      <trkpt lat="44.40937" lon="1.51177">
        <ele>195.4</ele>
        <time>2024-11-27T23:10:18.663Z</time>
      </trkpt>
      <trkpt lat="44.40934" lon="1.51176">
        <ele>195.6</ele>
        <time>2024-11-27T23:10:20.295Z</time>
      </trkpt>
      <trkpt lat="44.4093" lon="1.51175">
        <ele>195.8</ele>
        <time>2024-11-27T23:10:21.859Z</time>
      </trkpt>
      <trkpt lat="44.40927" lon="1.51173">
        <ele>196</ele>
        <time>2024-11-27T23:10:23.341Z</time>
      </trkpt>
      <trkpt lat="44.40923" lon="1.51172">
        <ele>196.2</ele>
        <time>2024-11-27T23:10:24.931Z</time>
      </trkpt>
      <trkpt lat="44.4092" lon="1.5117">
        <ele>196.3</ele>
        <time>2024-11-27T23:10:26.350Z</time>
      </trkpt>
      <trkpt lat="44.40917" lon="1.51169">
        <ele>196.4</ele>
        <time>2024-11-27T23:10:27.860Z</time>
      </trkpt>
      <trkpt lat="44.40914" lon="1.51167">
        <ele>196.6</ele>
        <time>2024-11-27T23:10:29.290Z</time>
      </trkpt>
      <trkpt lat="44.4091" lon="1.51165">
        <ele>197.1</ele>
        <time>2024-11-27T23:10:30.821Z</time>
      </trkpt>
      <trkpt lat="44.40907" lon="1.51163">
        <ele>197.6</ele>
        <time>2024-11-27T23:10:32.330Z</time>
      </trkpt>
      <trkpt lat="44.40904" lon="1.51162">
        <ele>198.1</ele>
        <time>2024-11-27T23:10:33.850Z</time>
      </trkpt>
      <trkpt lat="44.40901" lon="1.5116">
        <ele>198.5</ele>
        <time>2024-11-27T23:10:35.329Z</time>
      </trkpt>
      <trkpt lat="44.40898" lon="1.51158">
        <ele>198.8</ele>
        <time>2024-11-27T23:10:36.746Z</time>
      </trkpt>
      <trkpt lat="44.40895" lon="1.51157">
        <ele>199.1</ele>
        <time>2024-11-27T23:10:38.112Z</time>
      </trkpt>
      <trkpt lat="44.40892" lon="1.51155">
        <ele>199.4</ele>
        <time>2024-11-27T23:10:39.387Z</time>
      </trkpt>
      <trkpt lat="44.40889" lon="1.51154">
        <ele>199.7</ele>
        <time>2024-11-27T23:10:40.825Z</time>
      </trkpt>
      <trkpt lat="44.40885" lon="1.51152">
        <ele>200.2</ele>
        <time>2024-11-27T23:10:42.333Z</time>
      </trkpt>
      <trkpt lat="44.40882" lon="1.5115">
        <ele>200.6</ele>
        <time>2024-11-27T23:10:43.693Z</time>
      </trkpt>
      <trkpt lat="44.4088" lon="1.51149">
        <ele>201</ele>
        <time>2024-11-27T23:10:44.976Z</time>
      </trkpt>
      <trkpt lat="44.40877" lon="1.51147">
        <ele>201.4</ele>
        <time>2024-11-27T23:10:46.332Z</time>
      </trkpt>
      <trkpt lat="44.40873" lon="1.51146">
        <ele>201.8</ele>
        <time>2024-11-27T23:10:47.870Z</time>
      </trkpt>
      <trkpt lat="44.4087" lon="1.51144">
        <ele>202.2</ele>
        <time>2024-11-27T23:10:49.469Z</time>
      </trkpt>
      <trkpt lat="44.40867" lon="1.51142">
        <ele>202.6</ele>
        <time>2024-11-27T23:10:50.906Z</time>
      </trkpt>
      <trkpt lat="44.40863" lon="1.5114">
        <ele>202.9</ele>
        <time>2024-11-27T23:10:52.500Z</time>
      </trkpt>
      <trkpt lat="44.4086" lon="1.51139">
        <ele>203.2</ele>
        <time>2024-11-27T23:10:53.939Z</time>
      </trkpt>
      <trkpt lat="44.40856" lon="1.51137">
        <ele>203.8</ele>
        <time>2024-11-27T23:10:55.609Z</time>
      </trkpt>
      <trkpt lat="44.40853" lon="1.51134">
        <ele>204.2</ele>
        <time>2024-11-27T23:10:57.280Z</time>
      </trkpt>
      <trkpt lat="44.4085" lon="1.51132">
        <ele>204.6</ele>
        <time>2024-11-27T23:10:58.666Z</time>
      </trkpt>
      <trkpt lat="44.40847" lon="1.51131">
        <ele>205</ele>
        <time>2024-11-27T23:11:00.157Z</time>
      </trkpt>
      <trkpt lat="44.40843" lon="1.51129">
        <ele>205.4</ele>
        <time>2024-11-27T23:11:01.755Z</time>
      </trkpt>
      <trkpt lat="44.4084" lon="1.51127">
        <ele>205.8</ele>
        <time>2024-11-27T23:11:03.455Z</time>
      </trkpt>
      <trkpt lat="44.40836" lon="1.51125">
        <ele>206.1</ele>
        <time>2024-11-27T23:11:05.094Z</time>
      </trkpt>
      <trkpt lat="44.40833" lon="1.51123">
        <ele>206.4</ele>
        <time>2024-11-27T23:11:06.637Z</time>
      </trkpt>
      <trkpt lat="44.40829" lon="1.51121">
        <ele>206.7</ele>
        <time>2024-11-27T23:11:08.372Z</time>
      </trkpt>
      <trkpt lat="44.40826" lon="1.51119">
        <ele>207</ele>
        <time>2024-11-27T23:11:09.879Z</time>
      </trkpt>
      <trkpt lat="44.40822" lon="1.51118">
        <ele>207.4</ele>
        <time>2024-11-27T23:11:11.363Z</time>
      </trkpt>
      <trkpt lat="44.4082" lon="1.51115">
        <ele>207.5</ele>
        <time>2024-11-27T23:11:12.703Z</time>
      </trkpt>
      <trkpt lat="44.40818" lon="1.51115">
        <ele>207.7</ele>
        <time>2024-11-27T23:11:13.628Z</time>
      </trkpt>
      <trkpt lat="44.40815" lon="1.51113">
        <ele>207.9</ele>
        <time>2024-11-27T23:11:15.118Z</time>
      </trkpt>
      <trkpt lat="44.40812" lon="1.51111">
        <ele>208.1</ele>
        <time>2024-11-27T23:11:16.442Z</time>
      </trkpt>
      <trkpt lat="44.40808" lon="1.51109">
        <ele>208.7</ele>
        <time>2024-11-27T23:11:18.284Z</time>
      </trkpt>
      <trkpt lat="44.40804" lon="1.51108">
        <ele>209</ele>
        <time>2024-11-27T23:11:19.681Z</time>
      </trkpt>
      <trkpt lat="44.40802" lon="1.51107">
        <ele>209.2</ele>
        <time>2024-11-27T23:11:20.653Z</time>
      </trkpt>
      <trkpt lat="44.40799" lon="1.51105">
        <ele>209.5</ele>
        <time>2024-11-27T23:11:21.999Z</time>
      </trkpt>
      <trkpt lat="44.40796" lon="1.51104">
        <ele>209.8</ele>
        <time>2024-11-27T23:11:23.550Z</time>
      </trkpt>
      <trkpt lat="44.40792" lon="1.51104">
        <ele>210.1</ele>
        <time>2024-11-27T23:11:25.019Z</time>
      </trkpt>
      <trkpt lat="44.40789" lon="1.51103">
        <ele>210.5</ele>
        <time>2024-11-27T23:11:26.311Z</time>
      </trkpt>
      <trkpt lat="44.40786" lon="1.51103">
        <ele>210.8</ele>
        <time>2024-11-27T23:11:27.603Z</time>
      </trkpt>
      <trkpt lat="44.40783" lon="1.51102">
        <ele>211.1</ele>
        <time>2024-11-27T23:11:29.086Z</time>
      </trkpt>
      <trkpt lat="44.4078" lon="1.51101">
        <ele>211.4</ele>
        <time>2024-11-27T23:11:30.506Z</time>
      </trkpt>
      <trkpt lat="44.40777" lon="1.51099">
        <ele>211.6</ele>
        <time>2024-11-27T23:11:31.821Z</time>
      </trkpt>
      <trkpt lat="44.40774" lon="1.51098">
        <ele>211.8</ele>
        <time>2024-11-27T23:11:33.144Z</time>
      </trkpt>
      <trkpt lat="44.40771" lon="1.51098">
        <ele>212</ele>
        <time>2024-11-27T23:11:34.521Z</time>
      </trkpt>
      <trkpt lat="44.40768" lon="1.51098">
        <ele>212.3</ele>
        <time>2024-11-27T23:11:35.893Z</time>
      </trkpt>
      <trkpt lat="44.40764" lon="1.51097">
        <ele>212.5</ele>
        <time>2024-11-27T23:11:37.287Z</time>
      </trkpt>
      <trkpt lat="44.40761" lon="1.51096">
        <ele>212.6</ele>
        <time>2024-11-27T23:11:38.726Z</time>
      </trkpt>
      <trkpt lat="44.40758" lon="1.51095">
        <ele>212.8</ele>
        <time>2024-11-27T23:11:40.056Z</time>
      </trkpt>
      <trkpt lat="44.40755" lon="1.51094">
        <ele>213</ele>
        <time>2024-11-27T23:11:41.413Z</time>
      </trkpt>
      <trkpt lat="44.40752" lon="1.51093">
        <ele>213.2</ele>
        <time>2024-11-27T23:11:42.659Z</time>
      </trkpt>
      <trkpt lat="44.40749" lon="1.51093">
        <ele>213.5</ele>
        <time>2024-11-27T23:11:43.884Z</time>
      </trkpt>
      <trkpt lat="44.40747" lon="1.51091">
        <ele>214</ele>
        <time>2024-11-27T23:11:45.049Z</time>
      </trkpt>
      <trkpt lat="44.40744" lon="1.51091">
        <ele>214.4</ele>
        <time>2024-11-27T23:11:46.150Z</time>
      </trkpt>
      <trkpt lat="44.40742" lon="1.51089">
        <ele>214.8</ele>
        <time>2024-11-27T23:11:47.242Z</time>
      </trkpt>
      <trkpt lat="44.40739" lon="1.51088">
        <ele>215.2</ele>
        <time>2024-11-27T23:11:48.510Z</time>
      </trkpt>
      <trkpt lat="44.40736" lon="1.51087">
        <ele>215.7</ele>
        <time>2024-11-27T23:11:49.724Z</time>
      </trkpt>
      <trkpt lat="44.40733" lon="1.51086">
        <ele>216.2</ele>
        <time>2024-11-27T23:11:51.033Z</time>
      </trkpt>
      <trkpt lat="44.40731" lon="1.51085">
        <ele>216.7</ele>
        <time>2024-11-27T23:11:52.238Z</time>
      </trkpt>
      <trkpt lat="44.40728" lon="1.51085">
        <ele>217.2</ele>
        <time>2024-11-27T23:11:53.483Z</time>
      </trkpt>
      <trkpt lat="44.40725" lon="1.51085">
        <ele>217.7</ele>
        <time>2024-11-27T23:11:54.824Z</time>
      </trkpt>
      <trkpt lat="44.40722" lon="1.51084">
        <ele>218.1</ele>
        <time>2024-11-27T23:11:56.187Z</time>
      </trkpt>
      <trkpt lat="44.40718" lon="1.51083">
        <ele>218.5</ele>
        <time>2024-11-27T23:11:57.522Z</time>
      </trkpt>
      <trkpt lat="44.40715" lon="1.51083">
        <ele>219</ele>
        <time>2024-11-27T23:11:58.911Z</time>
      </trkpt>
      <trkpt lat="44.40712" lon="1.51082">
        <ele>219.4</ele>
        <time>2024-11-27T23:12:00.253Z</time>
      </trkpt>
      <trkpt lat="44.40709" lon="1.51081">
        <ele>219.8</ele>
        <time>2024-11-27T23:12:01.594Z</time>
      </trkpt>
      <trkpt lat="44.40706" lon="1.51081">
        <ele>220.3</ele>
        <time>2024-11-27T23:12:02.966Z</time>
      </trkpt>
      <trkpt lat="44.40703" lon="1.51082">
        <ele>220.7</ele>
        <time>2024-11-27T23:12:04.210Z</time>
      </trkpt>
      <trkpt lat="44.407" lon="1.51082">
        <ele>221.1</ele>
        <time>2024-11-27T23:12:05.454Z</time>
      </trkpt>
      <trkpt lat="44.40697" lon="1.51081">
        <ele>221.5</ele>
        <time>2024-11-27T23:12:06.831Z</time>
      </trkpt>
      <trkpt lat="44.40694" lon="1.51081">
        <ele>221.9</ele>
        <time>2024-11-27T23:12:07.988Z</time>
      </trkpt>
      <trkpt lat="44.40691" lon="1.51081">
        <ele>222.2</ele>
        <time>2024-11-27T23:12:09.317Z</time>
      </trkpt>
      <trkpt lat="44.40688" lon="1.51081">
        <ele>222.5</ele>
        <time>2024-11-27T23:12:10.690Z</time>
      </trkpt>
      <trkpt lat="44.40685" lon="1.51081">
        <ele>222.9</ele>
        <time>2024-11-27T23:12:12.106Z</time>
      </trkpt>
      <trkpt lat="44.40681" lon="1.5108">
        <ele>223.2</ele>
        <time>2024-11-27T23:12:13.525Z</time>
      </trkpt>
      <trkpt lat="44.40678" lon="1.51081">
        <ele>223.6</ele>
        <time>2024-11-27T23:12:14.939Z</time>
      </trkpt>
      <trkpt lat="44.40675" lon="1.51081">
        <ele>223.9</ele>
        <time>2024-11-27T23:12:16.273Z</time>
      </trkpt>
      <trkpt lat="44.40672" lon="1.51082">
        <ele>224.3</ele>
        <time>2024-11-27T23:12:17.594Z</time>
      </trkpt>
      <trkpt lat="44.40669" lon="1.51083">
        <ele>224.7</ele>
        <time>2024-11-27T23:12:18.935Z</time>
      </trkpt>
      <trkpt lat="44.40665" lon="1.51082">
        <ele>225</ele>
        <time>2024-11-27T23:12:20.349Z</time>
      </trkpt>
      <trkpt lat="44.40662" lon="1.51082">
        <ele>225.2</ele>
        <time>2024-11-27T23:12:21.808Z</time>
      </trkpt>
      <trkpt lat="44.40659" lon="1.51082">
        <ele>225.5</ele>
        <time>2024-11-27T23:12:23.180Z</time>
      </trkpt>
      <trkpt lat="44.40656" lon="1.51081">
        <ele>225.7</ele>
        <time>2024-11-27T23:12:24.559Z</time>
      </trkpt>
      <trkpt lat="44.40652" lon="1.51081">
        <ele>225.9</ele>
        <time>2024-11-27T23:12:25.935Z</time>
      </trkpt>
      <trkpt lat="44.40649" lon="1.51081">
        <ele>226.1</ele>
        <time>2024-11-27T23:12:27.308Z</time>
      </trkpt>
      <trkpt lat="44.40646" lon="1.5108">
        <ele>226.4</ele>
        <time>2024-11-27T23:12:28.765Z</time>
      </trkpt>
      <trkpt lat="44.40643" lon="1.5108">
        <ele>226.6</ele>
        <time>2024-11-27T23:12:30.183Z</time>
      </trkpt>
      <trkpt lat="44.40639" lon="1.5108">
        <ele>226.9</ele>
        <time>2024-11-27T23:12:31.689Z</time>
      </trkpt>
      <trkpt lat="44.40636" lon="1.51079">
        <ele>227.2</ele>
        <time>2024-11-27T23:12:33.207Z</time>
      </trkpt>
      <trkpt lat="44.40632" lon="1.51078">
        <ele>227.5</ele>
        <time>2024-11-27T23:12:34.585Z</time>
      </trkpt>
      <trkpt lat="44.40629" lon="1.51078">
        <ele>227.9</ele>
        <time>2024-11-27T23:12:36.046Z</time>
      </trkpt>
      <trkpt lat="44.40625" lon="1.51078">
        <ele>228.3</ele>
        <time>2024-11-27T23:12:37.544Z</time>
      </trkpt>
      <trkpt lat="44.40622" lon="1.51077">
        <ele>228.6</ele>
        <time>2024-11-27T23:12:39.045Z</time>
      </trkpt>
      <trkpt lat="44.40618" lon="1.51077">
        <ele>229</ele>
        <time>2024-11-27T23:12:40.543Z</time>
      </trkpt>
      <trkpt lat="44.40615" lon="1.51077">
        <ele>229.4</ele>
        <time>2024-11-27T23:12:42.000Z</time>
      </trkpt>
      <trkpt lat="44.40611" lon="1.51077">
        <ele>229.7</ele>
        <time>2024-11-27T23:12:43.541Z</time>
      </trkpt>
      <trkpt lat="44.40607" lon="1.51077">
        <ele>229.9</ele>
        <time>2024-11-27T23:12:45.255Z</time>
      </trkpt>
      <trkpt lat="44.40604" lon="1.51078">
        <ele>230.1</ele>
        <time>2024-11-27T23:12:46.889Z</time>
      </trkpt>
      <trkpt lat="44.40601" lon="1.51078">
        <ele>230.3</ele>
        <time>2024-11-27T23:12:48.225Z</time>
      </trkpt>
      <trkpt lat="44.40596" lon="1.51079">
        <ele>230.5</ele>
        <time>2024-11-27T23:12:50.170Z</time>
      </trkpt>
      <trkpt lat="44.40593" lon="1.5108">
        <ele>230.6</ele>
        <time>2024-11-27T23:12:51.436Z</time>
      </trkpt>
      <trkpt lat="44.40589" lon="1.51081">
        <ele>230.8</ele>
        <time>2024-11-27T23:12:53.169Z</time>
      </trkpt>
      <trkpt lat="44.40585" lon="1.51082">
        <ele>230.9</ele>
        <time>2024-11-27T23:12:55.040Z</time>
      </trkpt>
      <trkpt lat="44.40581" lon="1.51083">
        <ele>231.2</ele>
        <time>2024-11-27T23:12:56.624Z</time>
      </trkpt>
      <trkpt lat="44.40578" lon="1.51085">
        <ele>231.5</ele>
        <time>2024-11-27T23:12:58.264Z</time>
      </trkpt>
      <trkpt lat="44.40575" lon="1.51086">
        <ele>231.7</ele>
        <time>2024-11-27T23:12:59.542Z</time>
      </trkpt>
      <trkpt lat="44.4057" lon="1.51087">
        <ele>232</ele>
        <time>2024-11-27T23:13:01.438Z</time>
      </trkpt>
      <trkpt lat="44.40567" lon="1.51088">
        <ele>232.3</ele>
        <time>2024-11-27T23:13:02.979Z</time>
      </trkpt>
      <trkpt lat="44.40564" lon="1.51089">
        <ele>232.5</ele>
        <time>2024-11-27T23:13:04.424Z</time>
      </trkpt>
      <trkpt lat="44.40561" lon="1.5109">
        <ele>232.7</ele>
        <time>2024-11-27T23:13:05.547Z</time>
      </trkpt>
      <trkpt lat="44.40557" lon="1.51091">
        <ele>232.9</ele>
        <time>2024-11-27T23:13:07.249Z</time>
      </trkpt>
      <trkpt lat="44.40551" lon="1.51109">
        <ele>233</ele>
      </trkpt>
      <trkpt lat="44.40546" lon="1.51222">
        <ele>235.3</ele>
      </trkpt>
      <trkpt lat="44.40548" lon="1.51241">
        <ele>235.6</ele>
      </trkpt>
      <trkpt lat="44.40559" lon="1.51249">
        <ele>236.1</ele>
      </trkpt>
      <trkpt lat="44.40634" lon="1.51281">
        <ele>234.9</ele>
      </trkpt>
      <trkpt lat="44.4064" lon="1.51285">
        <ele>234.7</ele>
      </trkpt>
      <trkpt lat="44.40646" lon="1.51295">
        <ele>234.3</ele>
      </trkpt>
      <trkpt lat="44.40648" lon="1.51308">
        <ele>233.9</ele>
      </trkpt>
      <trkpt lat="44.40647" lon="1.51318">
        <ele>233.6</ele>
      </trkpt>
      <trkpt lat="44.40643" lon="1.5133">
        <ele>233.1</ele>
      </trkpt>
      <trkpt lat="44.40634" lon="1.51354">
        <ele>232.1</ele>
      </trkpt>
      <trkpt lat="44.40621" lon="1.51384">
        <ele>230.5</ele>
      </trkpt>
      <trkpt lat="44.4059" lon="1.5147">
        <ele>226.6</ele>
      </trkpt>
      <trkpt lat="44.4055" lon="1.51567">
        <ele>220.1</ele>
      </trkpt>
      <trkpt lat="44.40533" lon="1.51605">
        <ele>217.6</ele>
      </trkpt>
      <trkpt lat="44.40519" lon="1.5162">
        <ele>216.1</ele>
      </trkpt>
      <trkpt lat="44.40492" lon="1.51645">
        <ele>213.3</ele>
      </trkpt>
      <trkpt lat="44.40425" lon="1.51694">
        <ele>206.6</ele>
      </trkpt>
      <trkpt lat="44.40387" lon="1.51741">
        <ele>202</ele>
      </trkpt>
      <trkpt lat="44.40378" lon="1.5175">
        <ele>201</ele>
      </trkpt>
      <trkpt lat="44.40369" lon="1.51756">
        <ele>200.5</ele>
      </trkpt>
      <trkpt lat="44.40264" lon="1.51797">
        <ele>190.6</ele>
      </trkpt>
      <trkpt lat="44.40247" lon="1.51811">
        <ele>188.7</ele>
      </trkpt>
      <trkpt lat="44.40223" lon="1.51837">
        <ele>185.8</ele>
      </trkpt>
      <trkpt lat="44.40167" lon="1.51913">
        <ele>179</ele>
      </trkpt>
      <trkpt lat="44.40165" lon="1.51904">
        <ele>178.9</ele>
      </trkpt>
      <trkpt lat="44.4016" lon="1.51884">
        <ele>179.2</ele>
      </trkpt>
      <trkpt lat="44.40157" lon="1.51857">
        <ele>181.3</ele>
      </trkpt>
      <trkpt lat="44.40157" lon="1.51842">
        <ele>182.3</ele>
      </trkpt>
      <trkpt lat="44.40159" lon="1.51831">
        <ele>183.1</ele>
      </trkpt>
      <trkpt lat="44.40163" lon="1.5182">
        <ele>183.3</ele>
      </trkpt>
      <trkpt lat="44.40187" lon="1.51785">
        <ele>185.6</ele>
      </trkpt>
      <trkpt lat="44.40197" lon="1.51767">
        <ele>185.7</ele>
      </trkpt>
      <trkpt lat="44.40207" lon="1.51742">
        <ele>186.9</ele>
      </trkpt>
      <trkpt lat="44.40213" lon="1.51715">
        <ele>188.4</ele>
      </trkpt>
      <trkpt lat="44.40212" lon="1.51702">
        <ele>188.4</ele>
      </trkpt>
      <trkpt lat="44.40209" lon="1.51661">
        <ele>188.9</ele>
      </trkpt>
      <trkpt lat="44.40189" lon="1.51543">
        <ele>194.1</ele>
      </trkpt>
      <trkpt lat="44.40179" lon="1.51421">
        <ele>198.2</ele>
      </trkpt>
      <trkpt lat="44.40177" lon="1.51408">
        <ele>199.4</ele>
      </trkpt>
      <trkpt lat="44.4016" lon="1.51379">
        <ele>203.6</ele>
      </trkpt>
      <trkpt lat="44.40158" lon="1.51371">
        <ele>204.8</ele>
      </trkpt>
      <trkpt lat="44.40158" lon="1.51335">
        <ele>208.8</ele>
      </trkpt>
      <trkpt lat="44.40156" lon="1.51328">
        <ele>209.5</ele>
      </trkpt>
      <trkpt lat="44.40143" lon="1.51309">
        <ele>212.3</ele>
      </trkpt>
      <trkpt lat="44.40135" lon="1.51289">
        <ele>213.5</ele>
      </trkpt>
      <trkpt lat="44.40131" lon="1.51272">
        <ele>214.2</ele>
      </trkpt>
      <trkpt lat="44.40126" lon="1.51241">
        <ele>216</ele>
      </trkpt>
      <trkpt lat="44.40124" lon="1.5121">
        <ele>218.7</ele>
      </trkpt>
      <trkpt lat="44.40124" lon="1.51204">
        <ele>219.3</ele>
      </trkpt>
      <trkpt lat="44.40125" lon="1.51181">
        <ele>221.7</ele>
      </trkpt>
      <trkpt lat="44.40137" lon="1.51161">
        <ele>223.5</ele>
      </trkpt>
      <trkpt lat="44.40188" lon="1.51096">
        <ele>228.2</ele>
      </trkpt>
      <trkpt lat="44.40196" lon="1.51079">
        <ele>229.4</ele>
      </trkpt>
      <trkpt lat="44.402" lon="1.51057">
        <ele>231.1</ele>
      </trkpt>
      <trkpt lat="44.40201" lon="1.51018">
        <ele>232.1</ele>
      </trkpt>
      <trkpt lat="44.40207" lon="1.50962">
        <ele>228.8</ele>
      </trkpt>
      <trkpt lat="44.40213" lon="1.50944">
        <ele>226.3</ele>
      </trkpt>
      <trkpt lat="44.40246" lon="1.5089">
        <ele>222.7</ele>
      </trkpt>
      <trkpt lat="44.40253" lon="1.50877">
        <ele>221.7</ele>
      </trkpt>
      <trkpt lat="44.40246" lon="1.5089">
        <ele>222.7</ele>
      </trkpt>
      <trkpt lat="44.40251" lon="1.50893">
        <ele>223.7</ele>
      </trkpt>
      <trkpt lat="44.40265" lon="1.5089">
        <ele>224.8</ele>
      </trkpt>
      <trkpt lat="44.40294" lon="1.50872">
        <ele>226</ele>
      </trkpt>
      <trkpt lat="44.40313" lon="1.50866">
        <ele>226.6</ele>
      </trkpt>
      <trkpt lat="44.40356" lon="1.50864">
        <ele>228.8</ele>
      </trkpt>
      <trkpt lat="44.40375" lon="1.50863">
        <ele>230</ele>
      </trkpt>
      <trkpt lat="44.40391" lon="1.5086">
        <ele>231.2</ele>
        <time>2024-11-27T23:14:17.693Z</time>
      </trkpt>
      <trkpt lat="44.40391" lon="1.5086">
        <ele>231.2</ele>
        <time>2024-11-27T23:14:17.708Z</time>
      </trkpt>
      <trkpt lat="44.40391" lon="1.5086">
        <ele>231.2</ele>
        <time>2024-11-27T23:14:17.837Z</time>
      </trkpt>
      <trkpt lat="44.40391" lon="1.50749">
        <ele>229</ele>
        <time>2024-11-27T23:14:51.875Z</time>
      </trkpt>
      <trkpt lat="44.40382" lon="1.50697">
        <ele>225.4</ele>
        <time>2024-11-27T23:15:08.122Z</time>
      </trkpt>
      <trkpt lat="44.40385" lon="1.50584">
        <ele>215.6</ele>
        <time>2024-11-27T23:15:43.021Z</time>
      </trkpt>
      <trkpt lat="44.40388" lon="1.5047">
        <ele>203.9</ele>
        <time>2024-11-27T23:16:17.894Z</time>
      </trkpt>
      <trkpt lat="44.40383" lon="1.50427">
        <ele>199.4</ele>
        <time>2024-11-27T23:16:31.171Z</time>
      </trkpt>
      <trkpt lat="44.40338" lon="1.50429">
        <ele>201.6</ele>
        <time>2024-11-27T23:16:50.568Z</time>
      </trkpt>
      <trkpt lat="44.40338" lon="1.50433">
        <ele>202.5</ele>
        <time>2024-11-27T23:16:51.801Z</time>
      </trkpt>
      <trkpt lat="44.40328" lon="1.50435">
        <ele>202.6</ele>
        <time>2024-11-27T23:16:54.609Z</time>
      </trkpt>
      <trkpt lat="44.40308" lon="1.50434">
        <ele>201.6</ele>
        <time>2024-11-27T23:17:00.979Z</time>
      </trkpt>
      <trkpt lat="44.40291" lon="1.5044">
        <ele>201.1</ele>
        <time>2024-11-27T23:17:07.845Z</time>
      </trkpt>
      <trkpt lat="44.40286" lon="1.50446">
        <ele>201.1</ele>
        <time>2024-11-27T23:17:10.399Z</time>
      </trkpt>
      <trkpt lat="44.40276" lon="1.50473">
        <ele>203.1</ele>
        <time>2024-11-27T23:17:20.011Z</time>
      </trkpt>
      <trkpt lat="44.40271" lon="1.5048">
        <ele>203.8</ele>
        <time>2024-11-27T23:17:23.091Z</time>
      </trkpt>
      <trkpt lat="44.40265" lon="1.50483">
        <ele>203.8</ele>
        <time>2024-11-27T23:17:25.642Z</time>
      </trkpt>
      <trkpt lat="44.40256" lon="1.50483">
        <ele>202.9</ele>
        <time>2024-11-27T23:17:29.721Z</time>
      </trkpt>
      <trkpt lat="44.40257" lon="1.50466">
        <ele>201.9</ele>
        <time>2024-11-27T23:17:33.171Z</time>
      </trkpt>
      <trkpt lat="44.4021" lon="1.50413">
        <ele>202.5</ele>
        <time>2024-11-27T23:17:53.154Z</time>
      </trkpt>
      <trkpt lat="44.40198" lon="1.50404">
        <ele>202.9</ele>
        <time>2024-11-27T23:17:57.725Z</time>
      </trkpt>
      <trkpt lat="44.4018" lon="1.50397">
        <ele>203.8</ele>
        <time>2024-11-27T23:18:03.964Z</time>
      </trkpt>
      <trkpt lat="44.40127" lon="1.50399">
        <ele>205.1</ele>
        <time>2024-11-27T23:18:21.743Z</time>
      </trkpt>
      <trkpt lat="44.40053" lon="1.50383">
        <ele>206.8</ele>
        <time>2024-11-27T23:18:45.681Z</time>
      </trkpt>
      <trkpt lat="44.40036" lon="1.50388">
        <ele>207</ele>
        <time>2024-11-27T23:18:51.449Z</time>
      </trkpt>
      <trkpt lat="44.40009" lon="1.50401">
        <ele>207.7</ele>
        <time>2024-11-27T23:19:00.545Z</time>
      </trkpt>
      <trkpt lat="44.39995" lon="1.50412">
        <ele>208</ele>
        <time>2024-11-27T23:19:06.158Z</time>
      </trkpt>
      <trkpt lat="44.39924" lon="1.50493">
        <ele>212.1</ele>
        <time>2024-11-27T23:19:42.301Z</time>
      </trkpt>
      <trkpt lat="44.39892" lon="1.50544">
        <ele>213</ele>
        <time>2024-11-27T23:20:04.134Z</time>
      </trkpt>
      <trkpt lat="44.39882" lon="1.50555">
        <ele>213</ele>
        <time>2024-11-27T23:20:09.948Z</time>
      </trkpt>
      <trkpt lat="44.39869" lon="1.50563">
        <ele>213.8</ele>
        <time>2024-11-27T23:20:16.156Z</time>
      </trkpt>
      <trkpt lat="44.39863" lon="1.50564">
        <ele>213.6</ele>
        <time>2024-11-27T23:20:18.905Z</time>
      </trkpt>
      <trkpt lat="44.39853" lon="1.50562">
        <ele>214.1</ele>
        <time>2024-11-27T23:20:23.188Z</time>
      </trkpt>
      <trkpt lat="44.39804" lon="1.50534">
        <ele>215.5</ele>
        <time>2024-11-27T23:20:45.785Z</time>
      </trkpt>
      <trkpt lat="44.39726" lon="1.505">
        <ele>216.9</ele>
        <time>2024-11-27T23:21:16.672Z</time>
      </trkpt>
      <trkpt lat="44.39676" lon="1.50472">
        <ele>218.3</ele>
        <time>2024-11-27T23:21:34.751Z</time>
      </trkpt>
      <trkpt lat="44.39536" lon="1.50447">
        <ele>223.1</ele>
        <time>2024-11-27T23:22:22.271Z</time>
      </trkpt>
      <trkpt lat="44.39475" lon="1.50426">
        <ele>224.5</ele>
        <time>2024-11-27T23:22:44.700Z</time>
      </trkpt>
      <trkpt lat="44.39469" lon="1.50419">
        <ele>224.9</ele>
        <time>2024-11-27T23:22:47.815Z</time>
      </trkpt>
      <trkpt lat="44.39411" lon="1.50451">
        <ele>229.7</ele>
        <time>2024-11-27T23:23:20.798Z</time>
      </trkpt>
      <trkpt lat="44.3937" lon="1.50463">
        <ele>235.8</ele>
        <time>2024-11-27T23:23:46.069Z</time>
      </trkpt>
      <trkpt lat="44.39272" lon="1.5047">
        <ele>246.5</ele>
        <time>2024-11-27T23:24:53.028Z</time>
      </trkpt>
      <trkpt lat="44.39203" lon="1.50539">
        <ele>251.8</ele>
        <time>2024-11-27T23:25:50.514Z</time>
      </trkpt>
      <trkpt lat="44.39162" lon="1.50554">
        <ele>253.1</ele>
        <time>2024-11-27T23:26:13.861Z</time>
      </trkpt>
      <trkpt lat="44.39132" lon="1.50574">
        <ele>254.1</ele>
        <time>2024-11-27T23:26:29.413Z</time>
      </trkpt>
      <trkpt lat="44.39132" lon="1.50574">
        <ele>254.1</ele>
        <time>2024-11-27T23:26:29.423Z</time>
      </trkpt>
      <trkpt lat="44.39132" lon="1.50574">
        <ele>254.1</ele>
        <time>2024-11-27T23:26:29.498Z</time>
      </trkpt>
      <trkpt lat="44.39118" lon="1.50575">
        <ele>254.2</ele>
        <time>2024-11-27T23:26:35.540Z</time>
      </trkpt>
      <trkpt lat="44.39138" lon="1.50588">
        <ele>253.8</ele>
        <time>2024-11-27T23:26:44.998Z</time>
      </trkpt>
      <trkpt lat="44.39154" lon="1.50593">
        <ele>253.5</ele>
        <time>2024-11-27T23:26:51.936Z</time>
      </trkpt>
      <trkpt lat="44.39158" lon="1.50594">
        <ele>253.5</ele>
        <time>2024-11-27T23:26:53.547Z</time>
      </trkpt>
      <trkpt lat="44.39161" lon="1.50595">
        <ele>253.5</ele>
        <time>2024-11-27T23:26:55.165Z</time>
      </trkpt>
      <trkpt lat="44.39165" lon="1.50596">
        <ele>253.5</ele>
        <time>2024-11-27T23:26:56.762Z</time>
      </trkpt>
      <trkpt lat="44.39168" lon="1.50596">
        <ele>253.4</ele>
        <time>2024-11-27T23:26:58.088Z</time>
      </trkpt>
      <trkpt lat="44.39171" lon="1.50595">
        <ele>253.4</ele>
        <time>2024-11-27T23:26:59.330Z</time>
      </trkpt>
      <trkpt lat="44.39174" lon="1.50595">
        <ele>253.4</ele>
        <time>2024-11-27T23:27:00.800Z</time>
      </trkpt>
      <trkpt lat="44.39178" lon="1.50595">
        <ele>253.4</ele>
        <time>2024-11-27T23:27:02.298Z</time>
      </trkpt>
      <trkpt lat="44.39182" lon="1.50594">
        <ele>253.4</ele>
        <time>2024-11-27T23:27:03.880Z</time>
      </trkpt>
      <trkpt lat="44.39185" lon="1.50594">
        <ele>253.4</ele>
        <time>2024-11-27T23:27:05.423Z</time>
      </trkpt>
      <trkpt lat="44.39188" lon="1.50595">
        <ele>253.4</ele>
        <time>2024-11-27T23:27:06.783Z</time>
      </trkpt>
      <trkpt lat="44.3919" lon="1.50598">
        <ele>253.5</ele>
        <time>2024-11-27T23:27:08.076Z</time>
      </trkpt>
      <trkpt lat="44.39192" lon="1.50602">
        <ele>253.7</ele>
        <time>2024-11-27T23:27:09.318Z</time>
      </trkpt>
      <trkpt lat="44.39192" lon="1.50606">
        <ele>253.8</ele>
        <time>2024-11-27T23:27:10.541Z</time>
      </trkpt>
      <trkpt lat="44.39191" lon="1.5061">
        <ele>253.9</ele>
        <time>2024-11-27T23:27:11.794Z</time>
      </trkpt>
      <trkpt lat="44.39189" lon="1.50613">
        <ele>254</ele>
        <time>2024-11-27T23:27:13.118Z</time>
      </trkpt>
      <trkpt lat="44.39186" lon="1.50615">
        <ele>253.9</ele>
        <time>2024-11-27T23:27:14.425Z</time>
      </trkpt>
      <trkpt lat="44.39183" lon="1.50616">
        <ele>253.8</ele>
        <time>2024-11-27T23:27:15.809Z</time>
      </trkpt>
      <trkpt lat="44.3918" lon="1.50617">
        <ele>253.8</ele>
        <time>2024-11-27T23:27:17.172Z</time>
      </trkpt>
      <trkpt lat="44.39177" lon="1.50619">
        <ele>253.7</ele>
        <time>2024-11-27T23:27:18.474Z</time>
      </trkpt>
      <trkpt lat="44.39174" lon="1.5062">
        <ele>253.7</ele>
        <time>2024-11-27T23:27:19.768Z</time>
      </trkpt>
      <trkpt lat="44.39171" lon="1.50621">
        <ele>253.6</ele>
        <time>2024-11-27T23:27:20.949Z</time>
      </trkpt>
      <trkpt lat="44.39168" lon="1.50622">
        <ele>253.6</ele>
        <time>2024-11-27T23:27:22.234Z</time>
      </trkpt>
      <trkpt lat="44.39166" lon="1.50623">
        <ele>253.5</ele>
        <time>2024-11-27T23:27:23.528Z</time>
      </trkpt>
      <trkpt lat="44.39163" lon="1.50625">
        <ele>253.4</ele>
        <time>2024-11-27T23:27:24.855Z</time>
      </trkpt>
      <trkpt lat="44.39159" lon="1.50625">
        <ele>253.2</ele>
        <time>2024-11-27T23:27:26.315Z</time>
      </trkpt>
      <trkpt lat="44.39156" lon="1.50625">
        <ele>253.1</ele>
        <time>2024-11-27T23:27:27.727Z</time>
      </trkpt>
      <trkpt lat="44.39153" lon="1.50625">
        <ele>253</ele>
        <time>2024-11-27T23:27:29.102Z</time>
      </trkpt>
      <trkpt lat="44.39153" lon="1.50625">
        <ele>253</ele>
        <time>2024-11-27T23:27:29.338Z</time>
      </trkpt>
      <trkpt lat="44.3914" lon="1.50628">
        <ele>252.5</ele>
        <time>2024-11-27T23:27:32.471Z</time>
      </trkpt>
      <trkpt lat="44.39112" lon="1.50628">
        <ele>251.8</ele>
        <time>2024-11-27T23:27:39.376Z</time>
      </trkpt>
      <trkpt lat="44.3909" lon="1.50653">
        <ele>249.1</ele>
        <time>2024-11-27T23:27:45.897Z</time>
      </trkpt>
      <trkpt lat="44.3909" lon="1.50653">
        <ele>249.1</ele>
        <time>2024-11-27T23:27:45.909Z</time>
      </trkpt>
      <trkpt lat="44.39089" lon="1.50651">
        <ele>249.3</ele>
        <time>2024-11-27T23:27:46.857Z</time>
      </trkpt>
      <trkpt lat="44.39087" lon="1.50654">
        <ele>249</ele>
        <time>2024-11-27T23:27:48.029Z</time>
      </trkpt>
      <trkpt lat="44.39086" lon="1.50657">
        <ele>248.8</ele>
        <time>2024-11-27T23:27:49.205Z</time>
      </trkpt>
      <trkpt lat="44.39084" lon="1.5066">
        <ele>248.5</ele>
        <time>2024-11-27T23:27:50.305Z</time>
      </trkpt>
      <trkpt lat="44.39083" lon="1.50664">
        <ele>248.2</ele>
        <time>2024-11-27T23:27:51.635Z</time>
      </trkpt>
      <trkpt lat="44.39082" lon="1.50667">
        <ele>248</ele>
        <time>2024-11-27T23:27:52.918Z</time>
      </trkpt>
      <trkpt lat="44.39081" lon="1.50671">
        <ele>247.4</ele>
        <time>2024-11-27T23:27:54.203Z</time>
      </trkpt>
      <trkpt lat="44.39079" lon="1.50675">
        <ele>247</ele>
        <time>2024-11-27T23:27:55.553Z</time>
      </trkpt>
      <trkpt lat="44.39078" lon="1.50679">
        <ele>246.5</ele>
        <time>2024-11-27T23:27:56.823Z</time>
      </trkpt>
      <trkpt lat="44.39077" lon="1.50683">
        <ele>246</ele>
        <time>2024-11-27T23:27:58.124Z</time>
      </trkpt>
      <trkpt lat="44.39076" lon="1.50687">
        <ele>245.5</ele>
        <time>2024-11-27T23:27:59.415Z</time>
      </trkpt>
      <trkpt lat="44.39076" lon="1.5069">
        <ele>245.1</ele>
        <time>2024-11-27T23:28:00.488Z</time>
      </trkpt>
      <trkpt lat="44.39075" lon="1.50694">
        <ele>244.7</ele>
        <time>2024-11-27T23:28:01.447Z</time>
      </trkpt>
      <trkpt lat="44.39075" lon="1.50697">
        <ele>244.4</ele>
        <time>2024-11-27T23:28:02.397Z</time>
      </trkpt>
      <trkpt lat="44.39075" lon="1.507">
        <ele>244</ele>
        <time>2024-11-27T23:28:03.501Z</time>
      </trkpt>
      <trkpt lat="44.39075" lon="1.50704">
        <ele>243.6</ele>
        <time>2024-11-27T23:28:04.574Z</time>
      </trkpt>
      <trkpt lat="44.39075" lon="1.50708">
        <ele>243.2</ele>
        <time>2024-11-27T23:28:05.751Z</time>
      </trkpt>
      <trkpt lat="44.39074" lon="1.50711">
        <ele>242.9</ele>
        <time>2024-11-27T23:28:06.874Z</time>
      </trkpt>
      <trkpt lat="44.39073" lon="1.50715">
        <ele>242.5</ele>
        <time>2024-11-27T23:28:08.017Z</time>
      </trkpt>
      <trkpt lat="44.39072" lon="1.50718">
        <ele>242.2</ele>
        <time>2024-11-27T23:28:09.201Z</time>
      </trkpt>
      <trkpt lat="44.39071" lon="1.50722">
        <ele>241.9</ele>
        <time>2024-11-27T23:28:10.442Z</time>
      </trkpt>
      <trkpt lat="44.39071" lon="1.50726">
        <ele>241.6</ele>
        <time>2024-11-27T23:28:11.615Z</time>
      </trkpt>
      <trkpt lat="44.3907" lon="1.50729">
        <ele>241.4</ele>
        <time>2024-11-27T23:28:12.803Z</time>
      </trkpt>
      <trkpt lat="44.39069" lon="1.50733">
        <ele>241</ele>
        <time>2024-11-27T23:28:13.980Z</time>
      </trkpt>
      <trkpt lat="44.39068" lon="1.50737">
        <ele>240.7</ele>
        <time>2024-11-27T23:28:15.195Z</time>
      </trkpt>
      <trkpt lat="44.39067" lon="1.50741">
        <ele>240.5</ele>
        <time>2024-11-27T23:28:16.440Z</time>
      </trkpt>
      <trkpt lat="44.39066" lon="1.50744">
        <ele>240.1</ele>
        <time>2024-11-27T23:28:17.626Z</time>
      </trkpt>
      <trkpt lat="44.39066" lon="1.50748">
        <ele>239.8</ele>
        <time>2024-11-27T23:28:18.848Z</time>
      </trkpt>
      <trkpt lat="44.39065" lon="1.50752">
        <ele>239.5</ele>
        <time>2024-11-27T23:28:20.075Z</time>
      </trkpt>
      <trkpt lat="44.39064" lon="1.50756">
        <ele>239.2</ele>
        <time>2024-11-27T23:28:21.332Z</time>
      </trkpt>
      <trkpt lat="44.39063" lon="1.50759">
        <ele>238.9</ele>
        <time>2024-11-27T23:28:22.416Z</time>
      </trkpt>
      <trkpt lat="44.39062" lon="1.50763">
        <ele>238.6</ele>
        <time>2024-11-27T23:28:23.514Z</time>
      </trkpt>
      <trkpt lat="44.39061" lon="1.50766">
        <ele>238.3</ele>
        <time>2024-11-27T23:28:24.642Z</time>
      </trkpt>
      <trkpt lat="44.3906" lon="1.5077">
        <ele>237.9</ele>
        <time>2024-11-27T23:28:25.856Z</time>
      </trkpt>
      <trkpt lat="44.39059" lon="1.50773">
        <ele>237.6</ele>
        <time>2024-11-27T23:28:27.056Z</time>
      </trkpt>
      <trkpt lat="44.39058" lon="1.50777">
        <ele>237.2</ele>
        <time>2024-11-27T23:28:28.241Z</time>
      </trkpt>
      <trkpt lat="44.39057" lon="1.5078">
        <ele>236.9</ele>
        <time>2024-11-27T23:28:29.341Z</time>
      </trkpt>
      <trkpt lat="44.39057" lon="1.50784">
        <ele>236.6</ele>
        <time>2024-11-27T23:28:30.440Z</time>
      </trkpt>
      <trkpt lat="44.39055" lon="1.50787">
        <ele>236.4</ele>
        <time>2024-11-27T23:28:31.564Z</time>
      </trkpt>
      <trkpt lat="44.39053" lon="1.50791">
        <ele>236.1</ele>
        <time>2024-11-27T23:28:33.162Z</time>
      </trkpt>
      <trkpt lat="44.39051" lon="1.50794">
        <ele>235.8</ele>
        <time>2024-11-27T23:28:34.239Z</time>
      </trkpt>
      <trkpt lat="44.3905" lon="1.50797">
        <ele>235.5</ele>
        <time>2024-11-27T23:28:35.505Z</time>
      </trkpt>
      <trkpt lat="44.39048" lon="1.50802">
        <ele>235.1</ele>
        <time>2024-11-27T23:28:37.076Z</time>
      </trkpt>
      <trkpt lat="44.39047" lon="1.50806">
        <ele>234.7</ele>
        <time>2024-11-27T23:28:38.341Z</time>
      </trkpt>
      <trkpt lat="44.39045" lon="1.5081">
        <ele>234.3</ele>
        <time>2024-11-27T23:28:39.844Z</time>
      </trkpt>
      <trkpt lat="44.39043" lon="1.50813">
        <ele>234</ele>
        <time>2024-11-27T23:28:41.093Z</time>
      </trkpt>
      <trkpt lat="44.39042" lon="1.50816">
        <ele>233.7</ele>
        <time>2024-11-27T23:28:42.367Z</time>
      </trkpt>
      <trkpt lat="44.39039" lon="1.5082">
        <ele>233.3</ele>
        <time>2024-11-27T23:28:43.970Z</time>
      </trkpt>
      <trkpt lat="44.39037" lon="1.50824">
        <ele>233</ele>
        <time>2024-11-27T23:28:45.369Z</time>
      </trkpt>
      <trkpt lat="44.39036" lon="1.50827">
        <ele>232.7</ele>
        <time>2024-11-27T23:28:46.618Z</time>
      </trkpt>
      <trkpt lat="44.39034" lon="1.50831">
        <ele>232.4</ele>
        <time>2024-11-27T23:28:47.792Z</time>
      </trkpt>
      <trkpt lat="44.39033" lon="1.50834">
        <ele>232.2</ele>
        <time>2024-11-27T23:28:48.921Z</time>
      </trkpt>
      <trkpt lat="44.39031" lon="1.50837">
        <ele>231.8</ele>
        <time>2024-11-27T23:28:50.402Z</time>
      </trkpt>
      <trkpt lat="44.39029" lon="1.50841">
        <ele>231.6</ele>
        <time>2024-11-27T23:28:51.491Z</time>
      </trkpt>
      <trkpt lat="44.39028" lon="1.50843">
        <ele>231.3</ele>
        <time>2024-11-27T23:28:52.642Z</time>
      </trkpt>
      <trkpt lat="44.39026" lon="1.50847">
        <ele>231.2</ele>
        <time>2024-11-27T23:28:53.865Z</time>
      </trkpt>
      <trkpt lat="44.39024" lon="1.5085">
        <ele>231.1</ele>
        <time>2024-11-27T23:28:55.089Z</time>
      </trkpt>
      <trkpt lat="44.39022" lon="1.50854">
        <ele>230.9</ele>
        <time>2024-11-27T23:28:56.718Z</time>
      </trkpt>
      <trkpt lat="44.3902" lon="1.50857">
        <ele>230.9</ele>
        <time>2024-11-27T23:28:58.132Z</time>
      </trkpt>
      <trkpt lat="44.39018" lon="1.50861">
        <ele>230.7</ele>
        <time>2024-11-27T23:28:59.464Z</time>
      </trkpt>
      <trkpt lat="44.39017" lon="1.50865">
        <ele>230.5</ele>
        <time>2024-11-27T23:29:00.674Z</time>
      </trkpt>
      <trkpt lat="44.39016" lon="1.50868">
        <ele>230.3</ele>
        <time>2024-11-27T23:29:01.920Z</time>
      </trkpt>
      <trkpt lat="44.39016" lon="1.50872">
        <ele>230.1</ele>
        <time>2024-11-27T23:29:02.933Z</time>
      </trkpt>
      <trkpt lat="44.39016" lon="1.50875">
        <ele>229.8</ele>
        <time>2024-11-27T23:29:03.989Z</time>
      </trkpt>
      <trkpt lat="44.39017" lon="1.50879">
        <ele>229.4</ele>
        <time>2024-11-27T23:29:05.123Z</time>
      </trkpt>
      <trkpt lat="44.39017" lon="1.50882">
        <ele>229.1</ele>
        <time>2024-11-27T23:29:06.250Z</time>
      </trkpt>
      <trkpt lat="44.39019" lon="1.50885">
        <ele>228.6</ele>
        <time>2024-11-27T23:29:07.324Z</time>
      </trkpt>
      <trkpt lat="44.3902" lon="1.50888">
        <ele>228.2</ele>
        <time>2024-11-27T23:29:08.358Z</time>
      </trkpt>
      <trkpt lat="44.39021" lon="1.50891">
        <ele>227.9</ele>
        <time>2024-11-27T23:29:09.456Z</time>
      </trkpt>
      <trkpt lat="44.39021" lon="1.50894">
        <ele>227.7</ele>
        <time>2024-11-27T23:29:10.410Z</time>
      </trkpt>
      <trkpt lat="44.39021" lon="1.50898">
        <ele>227.4</ele>
        <time>2024-11-27T23:29:11.546Z</time>
      </trkpt>
      <trkpt lat="44.39021" lon="1.50901">
        <ele>227.1</ele>
        <time>2024-11-27T23:29:12.521Z</time>
      </trkpt>
      <trkpt lat="44.39022" lon="1.50905">
        <ele>226.9</ele>
        <time>2024-11-27T23:29:13.572Z</time>
      </trkpt>
      <trkpt lat="44.39022" lon="1.50908">
        <ele>226.5</ele>
        <time>2024-11-27T23:29:14.658Z</time>
      </trkpt>
      <trkpt lat="44.39023" lon="1.50912">
        <ele>226.2</ele>
        <time>2024-11-27T23:29:15.802Z</time>
      </trkpt>
      <trkpt lat="44.39025" lon="1.50915">
        <ele>225.7</ele>
        <time>2024-11-27T23:29:16.927Z</time>
      </trkpt>
      <trkpt lat="44.39024" lon="1.50917">
        <ele>225.6</ele>
        <time>2024-11-27T23:29:17.633Z</time>
      </trkpt>
      <trkpt lat="44.39027" lon="1.50919">
        <ele>224.9</ele>
        <time>2024-11-27T23:29:18.983Z</time>
      </trkpt>
      <trkpt lat="44.39029" lon="1.50922">
        <ele>224.5</ele>
        <time>2024-11-27T23:29:20.180Z</time>
      </trkpt>
      <trkpt lat="44.3903" lon="1.50926">
        <ele>224.1</ele>
        <time>2024-11-27T23:29:21.464Z</time>
      </trkpt>
      <trkpt lat="44.39031" lon="1.50929">
        <ele>223.8</ele>
        <time>2024-11-27T23:29:22.331Z</time>
      </trkpt>
      <trkpt lat="44.39031" lon="1.50932">
        <ele>223.5</ele>
        <time>2024-11-27T23:29:23.260Z</time>
      </trkpt>
      <trkpt lat="44.39032" lon="1.50935">
        <ele>223.1</ele>
        <time>2024-11-27T23:29:24.407Z</time>
      </trkpt>
      <trkpt lat="44.39031" lon="1.50939">
        <ele>222.6</ele>
        <time>2024-11-27T23:29:25.585Z</time>
      </trkpt>
      <trkpt lat="44.39032" lon="1.50943">
        <ele>222.1</ele>
        <time>2024-11-27T23:29:26.884Z</time>
      </trkpt>
      <trkpt lat="44.39032" lon="1.50947">
        <ele>221.8</ele>
        <time>2024-11-27T23:29:28.026Z</time>
      </trkpt>
      <trkpt lat="44.39032" lon="1.50951">
        <ele>221.4</ele>
        <time>2024-11-27T23:29:29.290Z</time>
      </trkpt>
      <trkpt lat="44.39031" lon="1.50955">
        <ele>221</ele>
        <time>2024-11-27T23:29:30.463Z</time>
      </trkpt>
      <trkpt lat="44.39031" lon="1.50959">
        <ele>220.6</ele>
        <time>2024-11-27T23:29:31.635Z</time>
      </trkpt>
      <trkpt lat="44.39031" lon="1.50962">
        <ele>220.3</ele>
        <time>2024-11-27T23:29:32.646Z</time>
      </trkpt>
      <trkpt lat="44.39031" lon="1.50965">
        <ele>220</ele>
        <time>2024-11-27T23:29:33.540Z</time>
      </trkpt>
      <trkpt lat="44.39031" lon="1.50968">
        <ele>219.7</ele>
        <time>2024-11-27T23:29:34.522Z</time>
      </trkpt>
      <trkpt lat="44.3903" lon="1.50971">
        <ele>219.3</ele>
        <time>2024-11-27T23:29:35.595Z</time>
      </trkpt>
      <trkpt lat="44.39029" lon="1.50974">
        <ele>219.1</ele>
        <time>2024-11-27T23:29:36.562Z</time>
      </trkpt>
      <trkpt lat="44.39028" lon="1.50977">
        <ele>218.9</ele>
        <time>2024-11-27T23:29:37.515Z</time>
      </trkpt>
      <trkpt lat="44.39027" lon="1.5098">
        <ele>218.9</ele>
        <time>2024-11-27T23:29:38.665Z</time>
      </trkpt>
      <trkpt lat="44.39025" lon="1.50983">
        <ele>219.2</ele>
        <time>2024-11-27T23:29:39.701Z</time>
      </trkpt>
      <trkpt lat="44.39024" lon="1.50985">
        <ele>219.4</ele>
        <time>2024-11-27T23:29:40.651Z</time>
      </trkpt>
      <trkpt lat="44.39023" lon="1.50987">
        <ele>219.4</ele>
        <time>2024-11-27T23:29:41.401Z</time>
      </trkpt>
      <trkpt lat="44.39022" lon="1.50991">
        <ele>219.5</ele>
        <time>2024-11-27T23:29:42.427Z</time>
      </trkpt>
      <trkpt lat="44.39021" lon="1.50994">
        <ele>219.5</ele>
        <time>2024-11-27T23:29:43.510Z</time>
      </trkpt>
      <trkpt lat="44.39021" lon="1.50997">
        <ele>219.4</ele>
        <time>2024-11-27T23:29:44.424Z</time>
      </trkpt>
      <trkpt lat="44.39021" lon="1.51">
        <ele>219.3</ele>
        <time>2024-11-27T23:29:45.353Z</time>
      </trkpt>
      <trkpt lat="44.39021" lon="1.51003">
        <ele>219.1</ele>
        <time>2024-11-27T23:29:46.307Z</time>
      </trkpt>
      <trkpt lat="44.39021" lon="1.51006">
        <ele>218.9</ele>
        <time>2024-11-27T23:29:47.231Z</time>
      </trkpt>
      <trkpt lat="44.3902" lon="1.51009">
        <ele>218.8</ele>
        <time>2024-11-27T23:29:48.175Z</time>
      </trkpt>
      <trkpt lat="44.3902" lon="1.51012">
        <ele>218.7</ele>
        <time>2024-11-27T23:29:49.214Z</time>
      </trkpt>
      <trkpt lat="44.39019" lon="1.51014">
        <ele>218.6</ele>
        <time>2024-11-27T23:29:49.940Z</time>
      </trkpt>
      <trkpt lat="44.3902" lon="1.51018">
        <ele>218.3</ele>
        <time>2024-11-27T23:29:51.057Z</time>
      </trkpt>
      <trkpt lat="44.3902" lon="1.51021">
        <ele>218</ele>
        <time>2024-11-27T23:29:52.171Z</time>
      </trkpt>
      <trkpt lat="44.3902" lon="1.51025">
        <ele>217.7</ele>
        <time>2024-11-27T23:29:53.336Z</time>
      </trkpt>
      <trkpt lat="44.3902" lon="1.51029">
        <ele>217.5</ele>
        <time>2024-11-27T23:29:54.568Z</time>
      </trkpt>
      <trkpt lat="44.3902" lon="1.51033">
        <ele>217.2</ele>
        <time>2024-11-27T23:29:55.715Z</time>
      </trkpt>
      <trkpt lat="44.3902" lon="1.51036">
        <ele>217</ele>
        <time>2024-11-27T23:29:56.659Z</time>
      </trkpt>
      <trkpt lat="44.39021" lon="1.51039">
        <ele>216.7</ele>
        <time>2024-11-27T23:29:57.701Z</time>
      </trkpt>
      <trkpt lat="44.39021" lon="1.51043">
        <ele>216.4</ele>
        <time>2024-11-27T23:29:58.866Z</time>
      </trkpt>
      <trkpt lat="44.39022" lon="1.51046">
        <ele>216.1</ele>
        <time>2024-11-27T23:29:59.885Z</time>
      </trkpt>
      <trkpt lat="44.39022" lon="1.5105">
        <ele>215.8</ele>
        <time>2024-11-27T23:30:01.008Z</time>
      </trkpt>
      <trkpt lat="44.39022" lon="1.51053">
        <ele>215.6</ele>
        <time>2024-11-27T23:30:02.102Z</time>
      </trkpt>
      <trkpt lat="44.39021" lon="1.51056">
        <ele>215.5</ele>
        <time>2024-11-27T23:30:03.171Z</time>
      </trkpt>
      <trkpt lat="44.39022" lon="1.5106">
        <ele>215.2</ele>
        <time>2024-11-27T23:30:04.213Z</time>
      </trkpt>
      <trkpt lat="44.39022" lon="1.51063">
        <ele>215</ele>
        <time>2024-11-27T23:30:05.285Z</time>
      </trkpt>
      <trkpt lat="44.39021" lon="1.51068">
        <ele>214.7</ele>
        <time>2024-11-27T23:30:06.787Z</time>
      </trkpt>
      <trkpt lat="44.39019" lon="1.51071">
        <ele>214.7</ele>
        <time>2024-11-27T23:30:08.007Z</time>
      </trkpt>
      <trkpt lat="44.39019" lon="1.51075">
        <ele>214.5</ele>
        <time>2024-11-27T23:30:09.160Z</time>
      </trkpt>
      <trkpt lat="44.39018" lon="1.51079">
        <ele>214.3</ele>
        <time>2024-11-27T23:30:10.331Z</time>
      </trkpt>
      <trkpt lat="44.39018" lon="1.51082">
        <ele>214.1</ele>
        <time>2024-11-27T23:30:11.311Z</time>
      </trkpt>
      <trkpt lat="44.39019" lon="1.51085">
        <ele>213.8</ele>
        <time>2024-11-27T23:30:12.449Z</time>
      </trkpt>
      <trkpt lat="44.3902" lon="1.51088">
        <ele>213.7</ele>
        <time>2024-11-27T23:30:13.353Z</time>
      </trkpt>
      <trkpt lat="44.3902" lon="1.51092">
        <ele>213.5</ele>
        <time>2024-11-27T23:30:14.493Z</time>
      </trkpt>
      <trkpt lat="44.39019" lon="1.51096">
        <ele>213.4</ele>
        <time>2024-11-27T23:30:15.782Z</time>
      </trkpt>
      <trkpt lat="44.39018" lon="1.51099">
        <ele>213.3</ele>
        <time>2024-11-27T23:30:16.791Z</time>
      </trkpt>
      <trkpt lat="44.39015" lon="1.51103">
        <ele>213.4</ele>
        <time>2024-11-27T23:30:18.628Z</time>
      </trkpt>
      <trkpt lat="44.39014" lon="1.51106">
        <ele>213.3</ele>
        <time>2024-11-27T23:30:19.826Z</time>
      </trkpt>
      <trkpt lat="44.39012" lon="1.5111">
        <ele>213.2</ele>
        <time>2024-11-27T23:30:21.146Z</time>
      </trkpt>
      <trkpt lat="44.39011" lon="1.51113">
        <ele>213.1</ele>
        <time>2024-11-27T23:30:22.198Z</time>
      </trkpt>
      <trkpt lat="44.39009" lon="1.51116">
        <ele>212.8</ele>
        <time>2024-11-27T23:30:23.258Z</time>
      </trkpt>
      <trkpt lat="44.39008" lon="1.5112">
        <ele>212.4</ele>
        <time>2024-11-27T23:30:24.555Z</time>
      </trkpt>
      <trkpt lat="44.39008" lon="1.51123">
        <ele>212.1</ele>
        <time>2024-11-27T23:30:25.578Z</time>
      </trkpt>
      <trkpt lat="44.39007" lon="1.51127">
        <ele>211.7</ele>
        <time>2024-11-27T23:30:26.748Z</time>
      </trkpt>
      <trkpt lat="44.39006" lon="1.51131">
        <ele>211.2</ele>
        <time>2024-11-27T23:30:28.016Z</time>
      </trkpt>
      <trkpt lat="44.39005" lon="1.51134">
        <ele>210.8</ele>
        <time>2024-11-27T23:30:29.170Z</time>
      </trkpt>
      <trkpt lat="44.39004" lon="1.51137">
        <ele>210.4</ele>
        <time>2024-11-27T23:30:30.121Z</time>
      </trkpt>
      <trkpt lat="44.39003" lon="1.5114">
        <ele>210</ele>
        <time>2024-11-27T23:30:31.173Z</time>
      </trkpt>
      <trkpt lat="44.39003" lon="1.51144">
        <ele>209.6</ele>
        <time>2024-11-27T23:30:32.274Z</time>
      </trkpt>
      <trkpt lat="44.39002" lon="1.51147">
        <ele>209.2</ele>
        <time>2024-11-27T23:30:33.355Z</time>
      </trkpt>
      <trkpt lat="44.39001" lon="1.5115">
        <ele>208.8</ele>
        <time>2024-11-27T23:30:34.497Z</time>
      </trkpt>
      <trkpt lat="44.39" lon="1.51154">
        <ele>208.4</ele>
        <time>2024-11-27T23:30:35.563Z</time>
      </trkpt>
      <trkpt lat="44.38998" lon="1.51157">
        <ele>208.3</ele>
        <time>2024-11-27T23:30:36.817Z</time>
      </trkpt>
      <trkpt lat="44.38997" lon="1.51161">
        <ele>208.1</ele>
        <time>2024-11-27T23:30:37.970Z</time>
      </trkpt>
      <trkpt lat="44.38997" lon="1.51164">
        <ele>207.7</ele>
        <time>2024-11-27T23:30:39.044Z</time>
      </trkpt>
      <trkpt lat="44.38997" lon="1.51168">
        <ele>207.4</ele>
        <time>2024-11-27T23:30:40.270Z</time>
      </trkpt>
      <trkpt lat="44.38996" lon="1.51172">
        <ele>207.4</ele>
        <time>2024-11-27T23:30:41.366Z</time>
      </trkpt>
      <trkpt lat="44.38995" lon="1.51175">
        <ele>207.3</ele>
        <time>2024-11-27T23:30:42.563Z</time>
      </trkpt>
      <trkpt lat="44.38994" lon="1.51179">
        <ele>207.2</ele>
        <time>2024-11-27T23:30:43.687Z</time>
      </trkpt>
      <trkpt lat="44.38994" lon="1.51182">
        <ele>207</ele>
        <time>2024-11-27T23:30:44.772Z</time>
      </trkpt>
      <trkpt lat="44.38993" lon="1.51186">
        <ele>206.8</ele>
        <time>2024-11-27T23:30:45.895Z</time>
      </trkpt>
      <trkpt lat="44.38992" lon="1.51189">
        <ele>206.6</ele>
        <time>2024-11-27T23:30:46.957Z</time>
      </trkpt>
      <trkpt lat="44.38992" lon="1.51192">
        <ele>206.4</ele>
        <time>2024-11-27T23:30:48.019Z</time>
      </trkpt>
      <trkpt lat="44.38991" lon="1.51196">
        <ele>206.3</ele>
        <time>2024-11-27T23:30:49.081Z</time>
      </trkpt>
      <trkpt lat="44.38991" lon="1.51199">
        <ele>206.2</ele>
        <time>2024-11-27T23:30:50.082Z</time>
      </trkpt>
      <trkpt lat="44.3899" lon="1.51202">
        <ele>206.2</ele>
        <time>2024-11-27T23:30:51.076Z</time>
      </trkpt>
      <trkpt lat="44.3899" lon="1.51206">
        <ele>206.1</ele>
        <time>2024-11-27T23:30:52.158Z</time>
      </trkpt>
      <trkpt lat="44.38989" lon="1.5121">
        <ele>206</ele>
        <time>2024-11-27T23:30:53.536Z</time>
      </trkpt>
      <trkpt lat="44.38989" lon="1.51215">
        <ele>205.8</ele>
        <time>2024-11-27T23:30:55.135Z</time>
      </trkpt>
      <trkpt lat="44.38988" lon="1.51219">
        <ele>205.7</ele>
        <time>2024-11-27T23:30:56.227Z</time>
      </trkpt>
      <trkpt lat="44.38987" lon="1.51221">
        <ele>205.6</ele>
        <time>2024-11-27T23:30:57.197Z</time>
      </trkpt>
      <trkpt lat="44.38986" lon="1.51225">
        <ele>205.5</ele>
        <time>2024-11-27T23:30:58.393Z</time>
      </trkpt>
      <trkpt lat="44.38984" lon="1.51228">
        <ele>205.4</ele>
        <time>2024-11-27T23:30:59.637Z</time>
      </trkpt>
      <trkpt lat="44.38982" lon="1.51233">
        <ele>205.1</ele>
        <time>2024-11-27T23:31:01.310Z</time>
      </trkpt>
      <trkpt lat="44.38981" lon="1.51238">
        <ele>204.9</ele>
        <time>2024-11-27T23:31:02.851Z</time>
      </trkpt>
      <trkpt lat="44.3898" lon="1.51242">
        <ele>204.7</ele>
        <time>2024-11-27T23:31:04.151Z</time>
      </trkpt>
      <trkpt lat="44.38979" lon="1.51245">
        <ele>204.5</ele>
        <time>2024-11-27T23:31:05.087Z</time>
      </trkpt>
      <trkpt lat="44.3898" lon="1.51248">
        <ele>204.5</ele>
        <time>2024-11-27T23:31:05.999Z</time>
      </trkpt>
      <trkpt lat="44.3898" lon="1.51251">
        <ele>204.5</ele>
        <time>2024-11-27T23:31:06.902Z</time>
      </trkpt>
      <trkpt lat="44.38981" lon="1.51255">
        <ele>204.6</ele>
        <time>2024-11-27T23:31:08.234Z</time>
      </trkpt>
      <trkpt lat="44.3898" lon="1.51258">
        <ele>204.4</ele>
        <time>2024-11-27T23:31:09.357Z</time>
      </trkpt>
      <trkpt lat="44.3898" lon="1.51263">
        <ele>204.4</ele>
        <time>2024-11-27T23:31:10.861Z</time>
      </trkpt>
      <trkpt lat="44.3898" lon="1.51266">
        <ele>204.6</ele>
        <time>2024-11-27T23:31:11.768Z</time>
      </trkpt>
      <trkpt lat="44.3898" lon="1.51269">
        <ele>204.4</ele>
        <time>2024-11-27T23:31:12.791Z</time>
      </trkpt>
      <trkpt lat="44.38978" lon="1.51273">
        <ele>204</ele>
        <time>2024-11-27T23:31:14.135Z</time>
      </trkpt>
      <trkpt lat="44.38977" lon="1.51278">
        <ele>203.6</ele>
        <time>2024-11-27T23:31:15.589Z</time>
      </trkpt>
      <trkpt lat="44.38976" lon="1.51282">
        <ele>203.4</ele>
        <time>2024-11-27T23:31:16.972Z</time>
      </trkpt>
      <trkpt lat="44.38974" lon="1.51286">
        <ele>202.8</ele>
        <time>2024-11-27T23:31:18.440Z</time>
      </trkpt>
      <trkpt lat="44.38972" lon="1.5129">
        <ele>202</ele>
        <time>2024-11-27T23:31:20.014Z</time>
      </trkpt>
      <trkpt lat="44.3897" lon="1.51293">
        <ele>202.1</ele>
        <time>2024-11-27T23:31:21.416Z</time>
      </trkpt>
      <trkpt lat="44.38968" lon="1.51297">
        <ele>202</ele>
        <time>2024-11-27T23:31:22.664Z</time>
      </trkpt>
      <trkpt lat="44.38966" lon="1.51301">
        <ele>201.9</ele>
        <time>2024-11-27T23:31:24.085Z</time>
      </trkpt>
      <trkpt lat="44.38965" lon="1.51305">
        <ele>201.8</ele>
        <time>2024-11-27T23:31:25.412Z</time>
      </trkpt>
      <trkpt lat="44.38965" lon="1.51308">
        <ele>201.9</ele>
        <time>2024-11-27T23:31:26.520Z</time>
      </trkpt>
      <trkpt lat="44.38963" lon="1.51311">
        <ele>202</ele>
        <time>2024-11-27T23:31:27.619Z</time>
      </trkpt>
      <trkpt lat="44.38961" lon="1.51315">
        <ele>201.9</ele>
        <time>2024-11-27T23:31:29.111Z</time>
      </trkpt>
      <trkpt lat="44.3896" lon="1.51317">
        <ele>201.8</ele>
        <time>2024-11-27T23:31:30.132Z</time>
      </trkpt>
      <trkpt lat="44.38958" lon="1.51321">
        <ele>201.8</ele>
        <time>2024-11-27T23:31:31.430Z</time>
      </trkpt>
      <trkpt lat="44.38952" lon="1.5134">
        <ele>200.7</ele>
        <time>2024-11-27T23:31:37.627Z</time>
      </trkpt>
      <trkpt lat="44.38951" lon="1.51344">
        <ele>200.2</ele>
        <time>2024-11-27T23:31:39.147Z</time>
      </trkpt>
      <trkpt lat="44.38947" lon="1.51353">
        <ele>199</ele>
        <time>2024-11-27T23:31:42.241Z</time>
      </trkpt>
      <trkpt lat="44.38946" lon="1.51357">
        <ele>198.5</ele>
        <time>2024-11-27T23:31:43.654Z</time>
      </trkpt>
      <trkpt lat="44.38943" lon="1.51371">
        <ele>198</ele>
        <time>2024-11-27T23:31:47.964Z</time>
      </trkpt>
      <trkpt lat="44.38942" lon="1.51378">
        <ele>197.9</ele>
        <time>2024-11-27T23:31:50.258Z</time>
      </trkpt>
      <trkpt lat="44.38942" lon="1.51389">
        <ele>197.5</ele>
        <time>2024-11-27T23:31:53.814Z</time>
      </trkpt>
      <trkpt lat="44.38941" lon="1.51394">
        <ele>197.4</ele>
        <time>2024-11-27T23:31:55.082Z</time>
      </trkpt>
      <trkpt lat="44.38941" lon="1.51405">
        <ele>197</ele>
        <time>2024-11-27T23:31:58.651Z</time>
      </trkpt>
      <trkpt lat="44.3894" lon="1.51409">
        <ele>197</ele>
        <time>2024-11-27T23:31:59.973Z</time>
      </trkpt>
      <trkpt lat="44.38939" lon="1.51414">
        <ele>196.9</ele>
        <time>2024-11-27T23:32:01.316Z</time>
      </trkpt>
      <trkpt lat="44.38939" lon="1.51418">
        <ele>196.7</ele>
        <time>2024-11-27T23:32:02.513Z</time>
      </trkpt>
      <trkpt lat="44.3894" lon="1.5142">
        <ele>196.6</ele>
        <time>2024-11-27T23:32:03.322Z</time>
      </trkpt>
      <trkpt lat="44.38949" lon="1.51482">
        <ele>194.7</ele>
        <time>2024-11-27T23:32:22.582Z</time>
      </trkpt>
      <trkpt lat="44.38983" lon="1.51561">
        <ele>192.1</ele>
        <time>2024-11-27T23:32:50.873Z</time>
      </trkpt>
      <trkpt lat="44.38976" lon="1.5159">
        <ele>189</ele>
        <time>2024-11-27T23:33:00.228Z</time>
      </trkpt>
      <trkpt lat="44.38975" lon="1.51584">
        <ele>189.1</ele>
        <time>2024-11-27T23:33:01.947Z</time>
      </trkpt>
      <trkpt lat="44.3897" lon="1.51586">
        <ele>189.2</ele>
        <time>2024-11-27T23:33:03.086Z</time>
      </trkpt>
      <trkpt lat="44.38905" lon="1.51552">
        <ele>199.1</ele>
        <time>2024-11-27T23:33:21.983Z</time>
      </trkpt>
      <trkpt lat="44.38795" lon="1.5152">
        <ele>201.3</ele>
        <time>2024-11-27T23:34:14.592Z</time>
      </trkpt>
      <trkpt lat="44.38716" lon="1.51482">
        <ele>207.5</ele>
        <time>2024-11-27T23:34:46.967Z</time>
      </trkpt>
      <trkpt lat="44.38697" lon="1.51475">
        <ele>207.5</ele>
        <time>2024-11-27T23:34:53.246Z</time>
      </trkpt>
      <trkpt lat="44.3861" lon="1.51456">
        <ele>201.7</ele>
        <time>2024-11-27T23:35:18.146Z</time>
      </trkpt>
      <trkpt lat="44.38592" lon="1.51442">
        <ele>200.9</ele>
        <time>2024-11-27T23:35:23.555Z</time>
      </trkpt>
      <trkpt lat="44.38582" lon="1.51419">
        <ele>202.5</ele>
        <time>2024-11-27T23:35:28.628Z</time>
      </trkpt>
      <trkpt lat="44.38575" lon="1.51408">
        <ele>202.9</ele>
        <time>2024-11-27T23:35:31.394Z</time>
      </trkpt>
      <trkpt lat="44.3855" lon="1.5139">
        <ele>201.8</ele>
        <time>2024-11-27T23:35:38.832Z</time>
      </trkpt>
      <trkpt lat="44.38531" lon="1.51363">
        <ele>203.1</ele>
        <time>2024-11-27T23:35:46.561Z</time>
      </trkpt>
      <trkpt lat="44.38518" lon="1.51347">
        <ele>200.1</ele>
        <time>2024-11-27T23:35:51.364Z</time>
      </trkpt>
      <trkpt lat="44.38446" lon="1.51312">
        <ele>197.9</ele>
        <time>2024-11-27T23:36:14.327Z</time>
      </trkpt>
      <trkpt lat="44.38421" lon="1.51304">
        <ele>199.3</ele>
        <time>2024-11-27T23:36:23.129Z</time>
      </trkpt>
      <trkpt lat="44.38396" lon="1.51285">
        <ele>198.9</ele>
        <time>2024-11-27T23:36:33.122Z</time>
      </trkpt>
      <trkpt lat="44.3838" lon="1.51268">
        <ele>199.1</ele>
        <time>2024-11-27T23:36:39.883Z</time>
      </trkpt>
      <trkpt lat="44.38323" lon="1.51186">
        <ele>196.8</ele>
        <time>2024-11-27T23:37:06.141Z</time>
      </trkpt>
      <trkpt lat="44.38305" lon="1.51184">
        <ele>198.7</ele>
        <time>2024-11-27T23:37:11.574Z</time>
      </trkpt>
      <trkpt lat="44.3833" lon="1.51243">
        <ele>194.5</ele>
        <time>2024-11-27T23:37:20.343Z</time>
      </trkpt>
      <trkpt lat="44.38348" lon="1.51278">
        <ele>194</ele>
        <time>2024-11-27T23:37:25.724Z</time>
      </trkpt>
      <trkpt lat="44.38329" lon="1.51295">
        <ele>193.9</ele>
        <time>2024-11-27T23:37:29.506Z</time>
      </trkpt>
      <trkpt lat="44.38321" lon="1.51297">
        <ele>193.7</ele>
        <time>2024-11-27T23:37:30.971Z</time>
      </trkpt>
      <trkpt lat="44.38313" lon="1.51292">
        <ele>193.2</ele>
        <time>2024-11-27T23:37:32.626Z</time>
      </trkpt>
      <trkpt lat="44.38278" lon="1.51179">
        <ele>192.6</ele>
        <time>2024-11-27T23:37:49.268Z</time>
      </trkpt>
      <trkpt lat="44.3827" lon="1.51161">
        <ele>192.3</ele>
        <time>2024-11-27T23:37:52.119Z</time>
      </trkpt>
      <trkpt lat="44.38276" lon="1.51135">
        <ele>192.8</ele>
        <time>2024-11-27T23:37:58.578Z</time>
      </trkpt>
      <trkpt lat="44.38288" lon="1.51048">
        <ele>196</ele>
        <time>2024-11-27T23:38:20.926Z</time>
      </trkpt>
      <trkpt lat="44.3829" lon="1.51018">
        <ele>196.4</ele>
        <time>2024-11-27T23:38:28.876Z</time>
      </trkpt>
      <trkpt lat="44.38289" lon="1.5099">
        <ele>196.3</ele>
        <time>2024-11-27T23:38:36.409Z</time>
      </trkpt>
      <trkpt lat="44.38279" lon="1.50928">
        <ele>194.4</ele>
        <time>2024-11-27T23:38:53.068Z</time>
      </trkpt>
      <trkpt lat="44.38277" lon="1.5087">
        <ele>196.6</ele>
        <time>2024-11-27T23:39:07.847Z</time>
      </trkpt>
      <trkpt lat="44.38271" lon="1.50853">
        <ele>196.7</ele>
        <time>2024-11-27T23:39:12.527Z</time>
      </trkpt>
      <trkpt lat="44.38255" lon="1.50827">
        <ele>195.5</ele>
        <time>2024-11-27T23:39:20.877Z</time>
      </trkpt>
      <trkpt lat="44.38228" lon="1.50747">
        <ele>195.9</ele>
        <time>2024-11-27T23:39:42.894Z</time>
      </trkpt>
      <trkpt lat="44.38206" lon="1.50633">
        <ele>198.7</ele>
        <time>2024-11-27T23:40:12.853Z</time>
      </trkpt>
      <trkpt lat="44.38179" lon="1.50557">
        <ele>199.5</ele>
        <time>2024-11-27T23:40:35.186Z</time>
      </trkpt>
      <trkpt lat="44.3816" lon="1.50488">
        <ele>201</ele>
        <time>2024-11-27T23:40:54.822Z</time>
      </trkpt>
      <trkpt lat="44.38134" lon="1.50441">
        <ele>200.8</ele>
        <time>2024-11-27T23:41:10.395Z</time>
      </trkpt>
      <trkpt lat="44.38114" lon="1.50415">
        <ele>199.8</ele>
        <time>2024-11-27T23:41:20.437Z</time>
      </trkpt>
      <trkpt lat="44.38041" lon="1.50362">
        <ele>198.9</ele>
        <time>2024-11-27T23:41:52.788Z</time>
      </trkpt>
      <trkpt lat="44.3797" lon="1.50287">
        <ele>200.9</ele>
        <time>2024-11-27T23:42:41.450Z</time>
      </trkpt>
      <trkpt lat="44.3797" lon="1.50287">
        <ele>200.9</ele>
        <time>2024-11-27T23:42:41.467Z</time>
      </trkpt>
      <trkpt lat="44.3797" lon="1.50287">
        <ele>200.9</ele>
        <time>2024-11-27T23:42:41.520Z</time>
      </trkpt>
      <trkpt lat="44.3797" lon="1.50287">
        <ele>200.9</ele>
        <time>2024-11-27T23:42:41.573Z</time>
      </trkpt>
      <trkpt lat="44.37966" lon="1.5028">
        <ele>201.4</ele>
        <time>2024-11-27T23:42:44.319Z</time>
      </trkpt>
      <trkpt lat="44.3797" lon="1.50286">
        <ele>201</ele>
        <time>2024-11-27T23:42:46.834Z</time>
      </trkpt>
      <trkpt lat="44.37963" lon="1.50274">
        <ele>201.5</ele>
        <time>2024-11-27T23:42:51.585Z</time>
      </trkpt>
      <trkpt lat="44.37933" lon="1.5032">
        <ele>201.5</ele>
        <time>2024-11-27T23:43:10.586Z</time>
      </trkpt>
      <trkpt lat="44.37875" lon="1.50373">
        <ele>216.1</ele>
        <time>2024-11-27T23:43:40.608Z</time>
      </trkpt>
      <trkpt lat="44.37835" lon="1.50448">
        <ele>224.2</ele>
        <time>2024-11-27T23:44:09.373Z</time>
      </trkpt>
      <trkpt lat="44.37795" lon="1.50523">
        <ele>230</ele>
        <time>2024-11-27T23:44:38.056Z</time>
      </trkpt>
      <trkpt lat="44.3781" lon="1.50577">
        <ele>235.2</ele>
        <time>2024-11-27T23:44:55.763Z</time>
      </trkpt>
      <trkpt lat="44.37775" lon="1.50584">
        <ele>238.6</ele>
        <time>2024-11-27T23:45:10.999Z</time>
      </trkpt>
      <trkpt lat="44.37708" lon="1.50538">
        <ele>239.8</ele>
        <time>2024-11-27T23:45:43.018Z</time>
      </trkpt>
      <trkpt lat="44.37709" lon="1.50537">
        <ele>239.8</ele>
        <time>2024-11-27T23:45:43.702Z</time>
      </trkpt>
      <trkpt lat="44.37672" lon="1.50487">
        <ele>245.7</ele>
        <time>2024-11-27T23:46:10.465Z</time>
      </trkpt>
      <trkpt lat="44.37648" lon="1.50443">
        <ele>248</ele>
        <time>2024-11-27T23:46:26.687Z</time>
      </trkpt>
      <trkpt lat="44.3762" lon="1.50375">
        <ele>249.3</ele>
        <time>2024-11-27T23:46:49.875Z</time>
      </trkpt>
      <trkpt lat="44.37578" lon="1.50287">
        <ele>250.4</ele>
        <time>2024-11-27T23:47:19.371Z</time>
      </trkpt>
      <trkpt lat="44.37515" lon="1.50158">
        <ele>254.1</ele>
        <time>2024-11-27T23:47:43.878Z</time>
      </trkpt>
      <trkpt lat="44.37461" lon="1.50217">
        <ele>251.6</ele>
        <time>2024-11-27T23:47:53.316Z</time>
      </trkpt>
      <trkpt lat="44.37453" lon="1.50224">
        <ele>250.3</ele>
        <time>2024-11-27T23:47:55.391Z</time>
      </trkpt>
      <trkpt lat="44.37442" lon="1.50225">
        <ele>249.3</ele>
        <time>2024-11-27T23:47:57.900Z</time>
      </trkpt>
      <trkpt lat="44.37421" lon="1.50216">
        <ele>248.8</ele>
        <time>2024-11-27T23:48:02.550Z</time>
      </trkpt>
      <trkpt lat="44.37343" lon="1.50157">
        <ele>235.8</ele>
        <time>2024-11-27T23:48:21.541Z</time>
      </trkpt>
      <trkpt lat="44.37287" lon="1.5014">
        <ele>230.8</ele>
        <time>2024-11-27T23:48:34.607Z</time>
      </trkpt>
      <trkpt lat="44.37258" lon="1.50119">
        <ele>228.5</ele>
        <time>2024-11-27T23:48:42.054Z</time>
      </trkpt>
      <trkpt lat="44.37244" lon="1.50079">
        <ele>227.4</ele>
        <time>2024-11-27T23:48:49.809Z</time>
      </trkpt>
      <trkpt lat="44.37229" lon="1.50066">
        <ele>225.7</ele>
        <time>2024-11-27T23:48:54.049Z</time>
      </trkpt>
      <trkpt lat="44.37216" lon="1.50057">
        <ele>224.7</ele>
        <time>2024-11-27T23:48:56.207Z</time>
      </trkpt>
      <trkpt lat="44.3719" lon="1.50094">
        <ele>222.5</ele>
        <time>2024-11-27T23:49:02.109Z</time>
      </trkpt>
      <trkpt lat="44.37163" lon="1.50143">
        <ele>220.9</ele>
        <time>2024-11-27T23:49:09.916Z</time>
      </trkpt>
      <trkpt lat="44.37152" lon="1.50168">
        <ele>219.1</ele>
        <time>2024-11-27T23:49:14.041Z</time>
      </trkpt>
      <trkpt lat="44.37149" lon="1.50187">
        <ele>219.9</ele>
        <time>2024-11-27T23:49:17.003Z</time>
      </trkpt>
      <trkpt lat="44.3715" lon="1.50197">
        <ele>220.1</ele>
        <time>2024-11-27T23:49:18.888Z</time>
      </trkpt>
      <trkpt lat="44.37187" lon="1.50297">
        <ele>223.9</ele>
        <time>2024-11-27T23:49:38.024Z</time>
      </trkpt>
      <trkpt lat="44.37191" lon="1.50314">
        <ele>225</ele>
        <time>2024-11-27T23:49:40.469Z</time>
      </trkpt>
      <trkpt lat="44.37202" lon="1.50336">
        <ele>225</ele>
        <time>2024-11-27T23:49:45.699Z</time>
      </trkpt>
      <trkpt lat="44.37211" lon="1.50347">
        <ele>224.2</ele>
        <time>2024-11-27T23:49:48.843Z</time>
      </trkpt>
      <trkpt lat="44.37219" lon="1.50349">
        <ele>223.5</ele>
        <time>2024-11-27T23:49:50.989Z</time>
      </trkpt>
      <trkpt lat="44.3724" lon="1.50337">
        <ele>221</ele>
        <time>2024-11-27T23:49:56.805Z</time>
      </trkpt>
      <trkpt lat="44.37249" lon="1.50338">
        <ele>220.4</ele>
        <time>2024-11-27T23:49:58.948Z</time>
      </trkpt>
      <trkpt lat="44.3727" lon="1.50331">
        <ele>216</ele>
        <time>2024-11-27T23:50:04.264Z</time>
      </trkpt>
      <trkpt lat="44.37279" lon="1.50334">
        <ele>214.9</ele>
        <time>2024-11-27T23:50:06.451Z</time>
      </trkpt>
      <trkpt lat="44.37288" lon="1.50342">
        <ele>214</ele>
        <time>2024-11-27T23:50:09.033Z</time>
      </trkpt>
      <trkpt lat="44.37328" lon="1.504">
        <ele>207.6</ele>
        <time>2024-11-27T23:50:22.493Z</time>
      </trkpt>
      <trkpt lat="44.37352" lon="1.50427">
        <ele>206.7</ele>
        <time>2024-11-27T23:50:29.967Z</time>
      </trkpt>
      <trkpt lat="44.37366" lon="1.50457">
        <ele>208.6</ele>
        <time>2024-11-27T23:50:36.600Z</time>
      </trkpt>
      <trkpt lat="44.37402" lon="1.50482">
        <ele>208.7</ele>
        <time>2024-11-27T23:50:47.100Z</time>
      </trkpt>
      <trkpt lat="44.3741" lon="1.50495">
        <ele>208.7</ele>
        <time>2024-11-27T23:50:50.479Z</time>
      </trkpt>
      <trkpt lat="44.3744" lon="1.50563">
        <ele>206.2</ele>
        <time>2024-11-27T23:51:06.224Z</time>
      </trkpt>
      <trkpt lat="44.37456" lon="1.5061">
        <ele>205.7</ele>
        <time>2024-11-27T23:51:16.153Z</time>
      </trkpt>
      <trkpt lat="44.37461" lon="1.50613">
        <ele>205.3</ele>
        <time>2024-11-27T23:51:17.620Z</time>
      </trkpt>
      <trkpt lat="44.37468" lon="1.5061">
        <ele>204.4</ele>
        <time>2024-11-27T23:51:19.733Z</time>
      </trkpt>
      <trkpt lat="44.37478" lon="1.50611">
        <ele>203.8</ele>
        <time>2024-11-27T23:51:22.384Z</time>
      </trkpt>
      <trkpt lat="44.37485" lon="1.50615">
        <ele>203.6</ele>
        <time>2024-11-27T23:51:24.156Z</time>
      </trkpt>
      <trkpt lat="44.3749" lon="1.50623">
        <ele>203.3</ele>
        <time>2024-11-27T23:51:26.381Z</time>
      </trkpt>
      <trkpt lat="44.37544" lon="1.50737">
        <ele>202.8</ele>
        <time>2024-11-27T23:51:52.269Z</time>
      </trkpt>
      <trkpt lat="44.37578" lon="1.50832">
        <ele>200.2</ele>
        <time>2024-11-27T23:52:20.324Z</time>
      </trkpt>
      <trkpt lat="44.37578" lon="1.50832">
        <ele>200.2</ele>
        <time>2024-11-27T23:52:20.332Z</time>
      </trkpt>
      <trkpt lat="44.37583" lon="1.5084">
        <ele>200</ele>
        <time>2024-11-27T23:52:23.696Z</time>
      </trkpt>
      <trkpt lat="44.3758" lon="1.50844">
        <ele>200.2</ele>
        <time>2024-11-27T23:52:25.396Z</time>
      </trkpt>
      <trkpt lat="44.3758" lon="1.50844">
        <ele>200.2</ele>
        <time>2024-11-27T23:52:25.680Z</time>
      </trkpt>
      <trkpt lat="44.3758" lon="1.50845">
        <ele>200.2</ele>
        <time>2024-11-27T23:52:25.930Z</time>
      </trkpt>
      <trkpt lat="44.37579" lon="1.50845">
        <ele>200.3</ele>
        <time>2024-11-27T23:52:26.160Z</time>
      </trkpt>
      <trkpt lat="44.37575" lon="1.50851">
        <ele>200.7</ele>
        <time>2024-11-27T23:52:28.611Z</time>
      </trkpt>
      <trkpt lat="44.37573" lon="1.50853">
        <ele>200.9</ele>
        <time>2024-11-27T23:52:29.800Z</time>
      </trkpt>
      <trkpt lat="44.37571" lon="1.50856">
        <ele>201.2</ele>
        <time>2024-11-27T23:52:31.114Z</time>
      </trkpt>
      <trkpt lat="44.37564" lon="1.50867">
        <ele>202.2</ele>
        <time>2024-11-27T23:52:35.439Z</time>
      </trkpt>
      <trkpt lat="44.37555" lon="1.50879">
        <ele>203.1</ele>
        <time>2024-11-27T23:52:40.793Z</time>
      </trkpt>
      <trkpt lat="44.37553" lon="1.50882">
        <ele>203.6</ele>
        <time>2024-11-27T23:52:42.093Z</time>
      </trkpt>
      <trkpt lat="44.3755" lon="1.50885">
        <ele>204.1</ele>
        <time>2024-11-27T23:52:43.575Z</time>
      </trkpt>
      <trkpt lat="44.37548" lon="1.50889">
        <ele>204.7</ele>
        <time>2024-11-27T23:52:45.078Z</time>
      </trkpt>
      <trkpt lat="44.3754" lon="1.509">
        <ele>205.7</ele>
        <time>2024-11-27T23:52:49.736Z</time>
      </trkpt>
      <trkpt lat="44.37533" lon="1.50911">
        <ele>206</ele>
        <time>2024-11-27T23:52:54.381Z</time>
      </trkpt>
      <trkpt lat="44.37527" lon="1.50917">
        <ele>206.1</ele>
        <time>2024-11-27T23:52:57.522Z</time>
      </trkpt>
      <trkpt lat="44.37524" lon="1.5092">
        <ele>206.4</ele>
        <time>2024-11-27T23:52:59.154Z</time>
      </trkpt>
      <trkpt lat="44.37521" lon="1.50923">
        <ele>206.6</ele>
        <time>2024-11-27T23:53:00.814Z</time>
      </trkpt>
      <trkpt lat="44.37518" lon="1.50928">
        <ele>206.7</ele>
        <time>2024-11-27T23:53:02.533Z</time>
      </trkpt>
      <trkpt lat="44.37517" lon="1.50933">
        <ele>206.5</ele>
        <time>2024-11-27T23:53:04.182Z</time>
      </trkpt>
      <trkpt lat="44.37517" lon="1.50939">
        <ele>206.2</ele>
        <time>2024-11-27T23:53:05.886Z</time>
      </trkpt>
      <trkpt lat="44.37516" lon="1.50944">
        <ele>205.9</ele>
        <time>2024-11-27T23:53:07.523Z</time>
      </trkpt>
      <trkpt lat="44.37515" lon="1.50949">
        <ele>206.4</ele>
        <time>2024-11-27T23:53:09.084Z</time>
      </trkpt>
      <trkpt lat="44.37514" lon="1.50954">
        <ele>207</ele>
        <time>2024-11-27T23:53:10.733Z</time>
      </trkpt>
      <trkpt lat="44.37513" lon="1.50959">
        <ele>207.6</ele>
        <time>2024-11-27T23:53:12.264Z</time>
      </trkpt>
      <trkpt lat="44.37512" lon="1.50963">
        <ele>208.1</ele>
        <time>2024-11-27T23:53:13.677Z</time>
      </trkpt>
      <trkpt lat="44.3751" lon="1.50966">
        <ele>208.4</ele>
        <time>2024-11-27T23:53:14.973Z</time>
      </trkpt>
      <trkpt lat="44.37507" lon="1.50969">
        <ele>208.7</ele>
        <time>2024-11-27T23:53:16.401Z</time>
      </trkpt>
      <trkpt lat="44.37504" lon="1.50971">
        <ele>208.9</ele>
        <time>2024-11-27T23:53:17.735Z</time>
      </trkpt>
      <trkpt lat="44.37501" lon="1.50972">
        <ele>209</ele>
        <time>2024-11-27T23:53:19.281Z</time>
      </trkpt>
      <trkpt lat="44.37497" lon="1.50974">
        <ele>209.4</ele>
        <time>2024-11-27T23:53:20.828Z</time>
      </trkpt>
      <trkpt lat="44.37494" lon="1.50976">
        <ele>209.7</ele>
        <time>2024-11-27T23:53:22.255Z</time>
      </trkpt>
      <trkpt lat="44.37491" lon="1.50977">
        <ele>210.1</ele>
        <time>2024-11-27T23:53:23.722Z</time>
      </trkpt>
      <trkpt lat="44.37488" lon="1.5098">
        <ele>210.5</ele>
        <time>2024-11-27T23:53:25.172Z</time>
      </trkpt>
      <trkpt lat="44.37485" lon="1.50982">
        <ele>210.9</ele>
        <time>2024-11-27T23:53:26.542Z</time>
      </trkpt>
      <trkpt lat="44.37482" lon="1.50984">
        <ele>211.2</ele>
        <time>2024-11-27T23:53:28.129Z</time>
      </trkpt>
      <trkpt lat="44.37479" lon="1.50986">
        <ele>211.5</ele>
        <time>2024-11-27T23:53:29.539Z</time>
      </trkpt>
      <trkpt lat="44.37476" lon="1.50988">
        <ele>211.8</ele>
        <time>2024-11-27T23:53:30.795Z</time>
      </trkpt>
      <trkpt lat="44.37474" lon="1.5099">
        <ele>212.2</ele>
        <time>2024-11-27T23:53:32.076Z</time>
      </trkpt>
      <trkpt lat="44.37472" lon="1.50992">
        <ele>212.5</ele>
        <time>2024-11-27T23:53:33.252Z</time>
      </trkpt>
      <trkpt lat="44.37469" lon="1.50994">
        <ele>212.8</ele>
        <time>2024-11-27T23:53:34.463Z</time>
      </trkpt>
      <trkpt lat="44.37467" lon="1.50997">
        <ele>213.1</ele>
        <time>2024-11-27T23:53:35.761Z</time>
      </trkpt>
      <trkpt lat="44.37464" lon="1.50999">
        <ele>213.3</ele>
        <time>2024-11-27T23:53:37.060Z</time>
      </trkpt>
      <trkpt lat="44.37462" lon="1.51002">
        <ele>213.7</ele>
        <time>2024-11-27T23:53:38.323Z</time>
      </trkpt>
      <trkpt lat="44.3746" lon="1.51004">
        <ele>213.9</ele>
        <time>2024-11-27T23:53:39.519Z</time>
      </trkpt>
      <trkpt lat="44.37457" lon="1.51006">
        <ele>214.2</ele>
        <time>2024-11-27T23:53:40.857Z</time>
      </trkpt>
      <trkpt lat="44.37454" lon="1.51008">
        <ele>214.5</ele>
        <time>2024-11-27T23:53:42.232Z</time>
      </trkpt>
      <trkpt lat="44.37451" lon="1.5101">
        <ele>214.6</ele>
        <time>2024-11-27T23:53:43.527Z</time>
      </trkpt>
      <trkpt lat="44.37448" lon="1.51011">
        <ele>214.6</ele>
        <time>2024-11-27T23:53:44.840Z</time>
      </trkpt>
      <trkpt lat="44.37445" lon="1.51012">
        <ele>214.6</ele>
        <time>2024-11-27T23:53:46.258Z</time>
      </trkpt>
      <trkpt lat="44.37441" lon="1.51014">
        <ele>214.8</ele>
        <time>2024-11-27T23:53:47.926Z</time>
      </trkpt>
      <trkpt lat="44.37438" lon="1.51016">
        <ele>215</ele>
        <time>2024-11-27T23:53:49.664Z</time>
      </trkpt>
      <trkpt lat="44.37434" lon="1.51017">
        <ele>215</ele>
        <time>2024-11-27T23:53:51.297Z</time>
      </trkpt>
      <trkpt lat="44.37431" lon="1.51018">
        <ele>215.1</ele>
        <time>2024-11-27T23:53:52.749Z</time>
      </trkpt>
      <trkpt lat="44.37427" lon="1.51019">
        <ele>215</ele>
        <time>2024-11-27T23:53:54.189Z</time>
      </trkpt>
      <trkpt lat="44.37424" lon="1.5102">
        <ele>215</ele>
        <time>2024-11-27T23:53:55.656Z</time>
      </trkpt>
      <trkpt lat="44.3742" lon="1.51021">
        <ele>214.9</ele>
        <time>2024-11-27T23:53:57.354Z</time>
      </trkpt>
      <trkpt lat="44.37416" lon="1.51022">
        <ele>214.9</ele>
        <time>2024-11-27T23:53:59.036Z</time>
      </trkpt>
      <trkpt lat="44.37412" lon="1.51024">
        <ele>215.1</ele>
        <time>2024-11-27T23:54:00.805Z</time>
      </trkpt>
      <trkpt lat="44.37409" lon="1.51026">
        <ele>215.1</ele>
        <time>2024-11-27T23:54:02.492Z</time>
      </trkpt>
      <trkpt lat="44.37405" lon="1.51027">
        <ele>215.1</ele>
        <time>2024-11-27T23:54:04.190Z</time>
      </trkpt>
      <trkpt lat="44.37401" lon="1.51029">
        <ele>215.2</ele>
        <time>2024-11-27T23:54:05.726Z</time>
      </trkpt>
      <trkpt lat="44.37398" lon="1.51031">
        <ele>215.3</ele>
        <time>2024-11-27T23:54:07.352Z</time>
      </trkpt>
      <trkpt lat="44.37394" lon="1.51032">
        <ele>215.4</ele>
        <time>2024-11-27T23:54:08.861Z</time>
      </trkpt>
      <trkpt lat="44.37391" lon="1.51033">
        <ele>215.4</ele>
        <time>2024-11-27T23:54:10.480Z</time>
      </trkpt>
      <trkpt lat="44.37387" lon="1.51034">
        <ele>215.5</ele>
        <time>2024-11-27T23:54:12.113Z</time>
      </trkpt>
      <trkpt lat="44.37384" lon="1.51035">
        <ele>215.8</ele>
        <time>2024-11-27T23:54:13.622Z</time>
      </trkpt>
      <trkpt lat="44.3738" lon="1.51036">
        <ele>216.2</ele>
        <time>2024-11-27T23:54:15.108Z</time>
      </trkpt>
      <trkpt lat="44.37377" lon="1.51038">
        <ele>216.5</ele>
        <time>2024-11-27T23:54:16.666Z</time>
      </trkpt>
      <trkpt lat="44.37374" lon="1.51039">
        <ele>216.8</ele>
        <time>2024-11-27T23:54:18.080Z</time>
      </trkpt>
      <trkpt lat="44.37371" lon="1.51041">
        <ele>217</ele>
        <time>2024-11-27T23:54:19.414Z</time>
      </trkpt>
      <trkpt lat="44.37368" lon="1.51042">
        <ele>217.2</ele>
        <time>2024-11-27T23:54:20.718Z</time>
      </trkpt>
      <trkpt lat="44.37365" lon="1.51044">
        <ele>217.4</ele>
        <time>2024-11-27T23:54:21.910Z</time>
      </trkpt>
      <trkpt lat="44.37362" lon="1.51045">
        <ele>217.6</ele>
        <time>2024-11-27T23:54:23.255Z</time>
      </trkpt>
      <trkpt lat="44.37359" lon="1.51047">
        <ele>217.8</ele>
        <time>2024-11-27T23:54:24.795Z</time>
      </trkpt>
      <trkpt lat="44.37355" lon="1.51049">
        <ele>217.9</ele>
        <time>2024-11-27T23:54:26.386Z</time>
      </trkpt>
      <trkpt lat="44.37352" lon="1.5105">
        <ele>218</ele>
        <time>2024-11-27T23:54:28.035Z</time>
      </trkpt>
      <trkpt lat="44.37349" lon="1.51051">
        <ele>218.1</ele>
        <time>2024-11-27T23:54:29.320Z</time>
      </trkpt>
      <trkpt lat="44.37346" lon="1.51052">
        <ele>218.1</ele>
        <time>2024-11-27T23:54:30.759Z</time>
      </trkpt>
      <trkpt lat="44.37342" lon="1.51053">
        <ele>218</ele>
        <time>2024-11-27T23:54:32.180Z</time>
      </trkpt>
      <trkpt lat="44.37339" lon="1.51053">
        <ele>217.9</ele>
        <time>2024-11-27T23:54:33.592Z</time>
      </trkpt>
      <trkpt lat="44.37335" lon="1.51053">
        <ele>217.9</ele>
        <time>2024-11-27T23:54:35.348Z</time>
      </trkpt>
      <trkpt lat="44.37331" lon="1.51054">
        <ele>217.9</ele>
        <time>2024-11-27T23:54:36.988Z</time>
      </trkpt>
      <trkpt lat="44.37327" lon="1.51056">
        <ele>218.1</ele>
        <time>2024-11-27T23:54:38.715Z</time>
      </trkpt>
      <trkpt lat="44.37324" lon="1.51059">
        <ele>218.6</ele>
        <time>2024-11-27T23:54:40.217Z</time>
      </trkpt>
      <trkpt lat="44.37322" lon="1.51061">
        <ele>219.2</ele>
        <time>2024-11-27T23:54:41.521Z</time>
      </trkpt>
      <trkpt lat="44.37319" lon="1.51064">
        <ele>219.6</ele>
        <time>2024-11-27T23:54:42.926Z</time>
      </trkpt>
      <trkpt lat="44.37316" lon="1.51066">
        <ele>219.9</ele>
        <time>2024-11-27T23:54:44.284Z</time>
      </trkpt>
      <trkpt lat="44.37313" lon="1.51067">
        <ele>220.2</ele>
        <time>2024-11-27T23:54:45.630Z</time>
      </trkpt>
      <trkpt lat="44.3731" lon="1.51069">
        <ele>220.5</ele>
        <time>2024-11-27T23:54:47.003Z</time>
      </trkpt>
      <trkpt lat="44.37308" lon="1.51071">
        <ele>220.9</ele>
        <time>2024-11-27T23:54:48.301Z</time>
      </trkpt>
      <trkpt lat="44.37305" lon="1.51074">
        <ele>221.3</ele>
        <time>2024-11-27T23:54:49.633Z</time>
      </trkpt>
      <trkpt lat="44.37304" lon="1.51076">
        <ele>221.5</ele>
        <time>2024-11-27T23:54:50.656Z</time>
      </trkpt>
      <trkpt lat="44.37301" lon="1.5108">
        <ele>221.7</ele>
        <time>2024-11-27T23:54:52.222Z</time>
      </trkpt>
      <trkpt lat="44.37299" lon="1.51083">
        <ele>221.9</ele>
        <time>2024-11-27T23:54:53.567Z</time>
      </trkpt>
      <trkpt lat="44.37297" lon="1.51086">
        <ele>222</ele>
        <time>2024-11-27T23:54:54.799Z</time>
      </trkpt>
      <trkpt lat="44.37295" lon="1.51089">
        <ele>222.3</ele>
        <time>2024-11-27T23:54:56.093Z</time>
      </trkpt>
      <trkpt lat="44.37293" lon="1.51092">
        <ele>222.4</ele>
        <time>2024-11-27T23:54:57.467Z</time>
      </trkpt>
      <trkpt lat="44.37291" lon="1.51096">
        <ele>222.7</ele>
        <time>2024-11-27T23:54:58.837Z</time>
      </trkpt>
      <trkpt lat="44.37289" lon="1.51099">
        <ele>222.9</ele>
        <time>2024-11-27T23:55:00.184Z</time>
      </trkpt>
      <trkpt lat="44.37288" lon="1.51103">
        <ele>223.3</ele>
        <time>2024-11-27T23:55:01.492Z</time>
      </trkpt>
      <trkpt lat="44.37286" lon="1.51107">
        <ele>223.6</ele>
        <time>2024-11-27T23:55:02.699Z</time>
      </trkpt>
      <trkpt lat="44.37286" lon="1.5111">
        <ele>224</ele>
        <time>2024-11-27T23:55:03.731Z</time>
      </trkpt>
      <trkpt lat="44.37286" lon="1.51113">
        <ele>224.4</ele>
        <time>2024-11-27T23:55:04.501Z</time>
      </trkpt>
      <trkpt lat="44.37286" lon="1.51114">
        <ele>224.7</ele>
        <time>2024-11-27T23:55:04.992Z</time>
      </trkpt>
      <trkpt lat="44.37287" lon="1.51114">
        <ele>224.8</ele>
        <time>2024-11-27T23:55:05.209Z</time>
      </trkpt>
      <trkpt lat="44.37287" lon="1.51114">
        <ele>224.8</ele>
        <time>2024-11-27T23:55:05.380Z</time>
      </trkpt>
      <trkpt lat="44.37292" lon="1.51114">
        <ele>225.4</ele>
        <time>2024-11-27T23:55:07.231Z</time>
      </trkpt>
      <trkpt lat="44.37294" lon="1.51113">
        <ele>225.7</ele>
        <time>2024-11-27T23:55:08.398Z</time>
      </trkpt>
      <trkpt lat="44.37296" lon="1.51113">
        <ele>225.9</ele>
        <time>2024-11-27T23:55:09.306Z</time>
      </trkpt>
      <trkpt lat="44.37299" lon="1.51112">
        <ele>226.2</ele>
        <time>2024-11-27T23:55:10.561Z</time>
      </trkpt>
      <trkpt lat="44.37302" lon="1.51111">
        <ele>226.5</ele>
        <time>2024-11-27T23:55:11.786Z</time>
      </trkpt>
      <trkpt lat="44.37305" lon="1.5111">
        <ele>226.7</ele>
        <time>2024-11-27T23:55:12.900Z</time>
      </trkpt>
      <trkpt lat="44.37307" lon="1.51109">
        <ele>226.9</ele>
        <time>2024-11-27T23:55:14.097Z</time>
      </trkpt>
      <trkpt lat="44.3731" lon="1.51109">
        <ele>227.1</ele>
        <time>2024-11-27T23:55:15.315Z</time>
      </trkpt>
      <trkpt lat="44.37313" lon="1.51108">
        <ele>227.3</ele>
        <time>2024-11-27T23:55:16.521Z</time>
      </trkpt>
      <trkpt lat="44.37316" lon="1.51108">
        <ele>227.6</ele>
        <time>2024-11-27T23:55:17.892Z</time>
      </trkpt>
      <trkpt lat="44.37319" lon="1.51108">
        <ele>228</ele>
        <time>2024-11-27T23:55:19.179Z</time>
      </trkpt>
      <trkpt lat="44.37322" lon="1.51109">
        <ele>228.3</ele>
        <time>2024-11-27T23:55:20.422Z</time>
      </trkpt>
      <trkpt lat="44.37325" lon="1.51109">
        <ele>228.6</ele>
        <time>2024-11-27T23:55:21.710Z</time>
      </trkpt>
      <trkpt lat="44.37328" lon="1.51109">
        <ele>229</ele>
        <time>2024-11-27T23:55:23.041Z</time>
      </trkpt>
      <trkpt lat="44.37331" lon="1.51109">
        <ele>229.4</ele>
        <time>2024-11-27T23:55:24.329Z</time>
      </trkpt>
      <trkpt lat="44.37334" lon="1.5111">
        <ele>229.7</ele>
        <time>2024-11-27T23:55:25.702Z</time>
      </trkpt>
      <trkpt lat="44.37338" lon="1.5111">
        <ele>230.1</ele>
        <time>2024-11-27T23:55:27.122Z</time>
      </trkpt>
      <trkpt lat="44.3734" lon="1.5111">
        <ele>230.3</ele>
        <time>2024-11-27T23:55:28.328Z</time>
      </trkpt>
      <trkpt lat="44.37346" lon="1.51109">
        <ele>230.4</ele>
        <time>2024-11-27T23:55:30.729Z</time>
      </trkpt>
      <trkpt lat="44.37347" lon="1.51109">
        <ele>230.5</ele>
        <time>2024-11-27T23:55:31.290Z</time>
      </trkpt>
      <trkpt lat="44.37351" lon="1.5111">
        <ele>230.9</ele>
        <time>2024-11-27T23:55:32.767Z</time>
      </trkpt>
      <trkpt lat="44.37356" lon="1.51111">
        <ele>231.7</ele>
        <time>2024-11-27T23:55:35.113Z</time>
      </trkpt>
      <trkpt lat="44.37359" lon="1.51113">
        <ele>232.2</ele>
        <time>2024-11-27T23:55:36.650Z</time>
      </trkpt>
      <trkpt lat="44.37364" lon="1.51114">
        <ele>232.7</ele>
        <time>2024-11-27T23:55:38.487Z</time>
      </trkpt>
      <trkpt lat="44.37367" lon="1.51114">
        <ele>233</ele>
        <time>2024-11-27T23:55:39.875Z</time>
      </trkpt>
      <trkpt lat="44.3737" lon="1.51114">
        <ele>233.1</ele>
        <time>2024-11-27T23:55:41.076Z</time>
      </trkpt>
      <trkpt lat="44.37372" lon="1.51115">
        <ele>233.4</ele>
        <time>2024-11-27T23:55:42.248Z</time>
      </trkpt>
      <trkpt lat="44.37375" lon="1.51115">
        <ele>233.5</ele>
        <time>2024-11-27T23:55:43.447Z</time>
      </trkpt>
      <trkpt lat="44.37378" lon="1.51115">
        <ele>233.7</ele>
        <time>2024-11-27T23:55:44.782Z</time>
      </trkpt>
      <trkpt lat="44.37381" lon="1.51116">
        <ele>233.9</ele>
        <time>2024-11-27T23:55:45.950Z</time>
      </trkpt>
      <trkpt lat="44.37384" lon="1.51116">
        <ele>234.1</ele>
        <time>2024-11-27T23:55:47.154Z</time>
      </trkpt>
      <trkpt lat="44.37386" lon="1.51116">
        <ele>234.2</ele>
        <time>2024-11-27T23:55:48.313Z</time>
      </trkpt>
      <trkpt lat="44.37389" lon="1.51117">
        <ele>234.6</ele>
        <time>2024-11-27T23:55:49.580Z</time>
      </trkpt>
      <trkpt lat="44.37392" lon="1.51118">
        <ele>235</ele>
        <time>2024-11-27T23:55:50.853Z</time>
      </trkpt>
      <trkpt lat="44.37395" lon="1.51119">
        <ele>235.4</ele>
        <time>2024-11-27T23:55:52.181Z</time>
      </trkpt>
      <trkpt lat="44.37398" lon="1.5112">
        <ele>235.9</ele>
        <time>2024-11-27T23:55:53.544Z</time>
      </trkpt>
      <trkpt lat="44.37401" lon="1.51121">
        <ele>236.1</ele>
        <time>2024-11-27T23:55:54.839Z</time>
      </trkpt>
      <trkpt lat="44.37404" lon="1.51121">
        <ele>236.5</ele>
        <time>2024-11-27T23:55:56.099Z</time>
      </trkpt>
      <trkpt lat="44.37407" lon="1.51122">
        <ele>236.9</ele>
        <time>2024-11-27T23:55:57.545Z</time>
      </trkpt>
      <trkpt lat="44.3741" lon="1.51123">
        <ele>237.3</ele>
        <time>2024-11-27T23:55:58.817Z</time>
      </trkpt>
      <trkpt lat="44.37413" lon="1.51124">
        <ele>237.7</ele>
        <time>2024-11-27T23:56:00.188Z</time>
      </trkpt>
      <trkpt lat="44.37416" lon="1.51125">
        <ele>238</ele>
        <time>2024-11-27T23:56:01.461Z</time>
      </trkpt>
      <trkpt lat="44.37419" lon="1.51126">
        <ele>238.4</ele>
        <time>2024-11-27T23:56:02.830Z</time>
      </trkpt>
      <trkpt lat="44.37423" lon="1.51128">
        <ele>238.9</ele>
        <time>2024-11-27T23:56:04.492Z</time>
      </trkpt>
      <trkpt lat="44.37426" lon="1.51128">
        <ele>239.2</ele>
        <time>2024-11-27T23:56:05.801Z</time>
      </trkpt>
      <trkpt lat="44.37429" lon="1.51129">
        <ele>239.5</ele>
        <time>2024-11-27T23:56:07.020Z</time>
      </trkpt>
      <trkpt lat="44.37432" lon="1.5113">
        <ele>239.7</ele>
        <time>2024-11-27T23:56:08.277Z</time>
      </trkpt>
      <trkpt lat="44.37435" lon="1.5113">
        <ele>240</ele>
        <time>2024-11-27T23:56:09.486Z</time>
      </trkpt>
      <trkpt lat="44.37438" lon="1.51131">
        <ele>240.2</ele>
        <time>2024-11-27T23:56:10.777Z</time>
      </trkpt>
      <trkpt lat="44.3744" lon="1.51132">
        <ele>240.5</ele>
        <time>2024-11-27T23:56:12.001Z</time>
      </trkpt>
      <trkpt lat="44.37443" lon="1.51134">
        <ele>241.1</ele>
        <time>2024-11-27T23:56:13.303Z</time>
      </trkpt>
      <trkpt lat="44.37444" lon="1.51137">
        <ele>241.7</ele>
        <time>2024-11-27T23:56:14.244Z</time>
      </trkpt>
      <trkpt lat="44.37444" lon="1.5114">
        <ele>242</ele>
        <time>2024-11-27T23:56:15.042Z</time>
      </trkpt>
      <trkpt lat="44.37442" lon="1.51142">
        <ele>242.2</ele>
        <time>2024-11-27T23:56:16.041Z</time>
      </trkpt>
      <trkpt lat="44.3744" lon="1.51145">
        <ele>242.3</ele>
        <time>2024-11-27T23:56:17.055Z</time>
      </trkpt>
      <trkpt lat="44.37439" lon="1.51147">
        <ele>242.5</ele>
        <time>2024-11-27T23:56:18.047Z</time>
      </trkpt>
      <trkpt lat="44.37437" lon="1.51149">
        <ele>242.7</ele>
        <time>2024-11-27T23:56:19.124Z</time>
      </trkpt>
      <trkpt lat="44.37435" lon="1.51151">
        <ele>242.9</ele>
        <time>2024-11-27T23:56:20.283Z</time>
      </trkpt>
      <trkpt lat="44.37432" lon="1.51153">
        <ele>243</ele>
        <time>2024-11-27T23:56:21.566Z</time>
      </trkpt>
      <trkpt lat="44.37429" lon="1.51155">
        <ele>243.2</ele>
        <time>2024-11-27T23:56:22.834Z</time>
      </trkpt>
      <trkpt lat="44.37427" lon="1.51157">
        <ele>243.5</ele>
        <time>2024-11-27T23:56:24.121Z</time>
      </trkpt>
      <trkpt lat="44.37424" lon="1.51159">
        <ele>243.8</ele>
        <time>2024-11-27T23:56:25.460Z</time>
      </trkpt>
      <trkpt lat="44.37421" lon="1.51161">
        <ele>244.1</ele>
        <time>2024-11-27T23:56:26.846Z</time>
      </trkpt>
      <trkpt lat="44.37418" lon="1.51163">
        <ele>244.4</ele>
        <time>2024-11-27T23:56:28.157Z</time>
      </trkpt>
      <trkpt lat="44.37416" lon="1.51165">
        <ele>244.8</ele>
        <time>2024-11-27T23:56:29.480Z</time>
      </trkpt>
      <trkpt lat="44.37413" lon="1.51167">
        <ele>245.1</ele>
        <time>2024-11-27T23:56:30.857Z</time>
      </trkpt>
      <trkpt lat="44.3741" lon="1.5117">
        <ele>245.3</ele>
        <time>2024-11-27T23:56:32.287Z</time>
      </trkpt>
      <trkpt lat="44.37407" lon="1.51172">
        <ele>245.5</ele>
        <time>2024-11-27T23:56:33.571Z</time>
      </trkpt>
      <trkpt lat="44.37404" lon="1.51174">
        <ele>245.7</ele>
        <time>2024-11-27T23:56:35.036Z</time>
      </trkpt>
      <trkpt lat="44.37401" lon="1.51175">
        <ele>246</ele>
        <time>2024-11-27T23:56:36.463Z</time>
      </trkpt>
      <trkpt lat="44.37398" lon="1.51177">
        <ele>246.2</ele>
        <time>2024-11-27T23:56:37.940Z</time>
      </trkpt>
      <trkpt lat="44.37395" lon="1.51179">
        <ele>246.6</ele>
        <time>2024-11-27T23:56:39.458Z</time>
      </trkpt>
      <trkpt lat="44.37392" lon="1.51181">
        <ele>246.9</ele>
        <time>2024-11-27T23:56:40.870Z</time>
      </trkpt>
      <trkpt lat="44.37389" lon="1.51183">
        <ele>247.3</ele>
        <time>2024-11-27T23:56:42.202Z</time>
      </trkpt>
      <trkpt lat="44.37386" lon="1.51185">
        <ele>247.5</ele>
        <time>2024-11-27T23:56:43.548Z</time>
      </trkpt>
      <trkpt lat="44.37383" lon="1.51187">
        <ele>247.8</ele>
        <time>2024-11-27T23:56:44.998Z</time>
      </trkpt>
      <trkpt lat="44.3738" lon="1.51189">
        <ele>248.2</ele>
        <time>2024-11-27T23:56:46.279Z</time>
      </trkpt>
      <trkpt lat="44.37378" lon="1.51191">
        <ele>248.5</ele>
        <time>2024-11-27T23:56:47.601Z</time>
      </trkpt>
      <trkpt lat="44.37375" lon="1.51193">
        <ele>248.8</ele>
        <time>2024-11-27T23:56:48.976Z</time>
      </trkpt>
      <trkpt lat="44.37373" lon="1.51196">
        <ele>249.1</ele>
        <time>2024-11-27T23:56:50.256Z</time>
      </trkpt>
      <trkpt lat="44.3737" lon="1.51198">
        <ele>249.3</ele>
        <time>2024-11-27T23:56:51.553Z</time>
      </trkpt>
      <trkpt lat="44.37368" lon="1.51201">
        <ele>249.6</ele>
        <time>2024-11-27T23:56:52.838Z</time>
      </trkpt>
      <trkpt lat="44.37365" lon="1.51204">
        <ele>249.9</ele>
        <time>2024-11-27T23:56:54.156Z</time>
      </trkpt>
      <trkpt lat="44.37363" lon="1.51206">
        <ele>250.2</ele>
        <time>2024-11-27T23:56:55.523Z</time>
      </trkpt>
      <trkpt lat="44.3736" lon="1.51209">
        <ele>250.5</ele>
        <time>2024-11-27T23:56:57.001Z</time>
      </trkpt>
      <trkpt lat="44.37357" lon="1.51211">
        <ele>250.7</ele>
        <time>2024-11-27T23:56:58.489Z</time>
      </trkpt>
      <trkpt lat="44.37354" lon="1.51213">
        <ele>250.9</ele>
        <time>2024-11-27T23:56:59.938Z</time>
      </trkpt>
      <trkpt lat="44.37351" lon="1.51215">
        <ele>251.1</ele>
        <time>2024-11-27T23:57:01.373Z</time>
      </trkpt>
      <trkpt lat="44.37348" lon="1.51218">
        <ele>251.4</ele>
        <time>2024-11-27T23:57:02.618Z</time>
      </trkpt>
      <trkpt lat="44.37346" lon="1.5122">
        <ele>251.7</ele>
        <time>2024-11-27T23:57:03.954Z</time>
      </trkpt>
      <trkpt lat="44.37343" lon="1.51222">
        <ele>251.9</ele>
        <time>2024-11-27T23:57:05.314Z</time>
      </trkpt>
      <trkpt lat="44.3734" lon="1.51224">
        <ele>252.2</ele>
        <time>2024-11-27T23:57:06.711Z</time>
      </trkpt>
      <trkpt lat="44.37337" lon="1.51226">
        <ele>252.4</ele>
        <time>2024-11-27T23:57:08.107Z</time>
      </trkpt>
      <trkpt lat="44.37334" lon="1.51228">
        <ele>252.6</ele>
        <time>2024-11-27T23:57:09.519Z</time>
      </trkpt>
      <trkpt lat="44.37331" lon="1.51231">
        <ele>252.8</ele>
        <time>2024-11-27T23:57:10.908Z</time>
      </trkpt>
      <trkpt lat="44.37328" lon="1.51233">
        <ele>252.9</ele>
        <time>2024-11-27T23:57:12.297Z</time>
      </trkpt>
      <trkpt lat="44.37326" lon="1.51235">
        <ele>253</ele>
        <time>2024-11-27T23:57:13.594Z</time>
      </trkpt>
      <trkpt lat="44.37323" lon="1.51238">
        <ele>253.1</ele>
        <time>2024-11-27T23:57:14.963Z</time>
      </trkpt>
      <trkpt lat="44.37321" lon="1.5124">
        <ele>253.3</ele>
        <time>2024-11-27T23:57:16.229Z</time>
      </trkpt>
      <trkpt lat="44.37318" lon="1.51243">
        <ele>253.5</ele>
        <time>2024-11-27T23:57:17.631Z</time>
      </trkpt>
      <trkpt lat="44.37316" lon="1.51245">
        <ele>253.7</ele>
        <time>2024-11-27T23:57:18.896Z</time>
      </trkpt>
      <trkpt lat="44.37313" lon="1.51247">
        <ele>253.8</ele>
        <time>2024-11-27T23:57:20.202Z</time>
      </trkpt>
      <trkpt lat="44.3731" lon="1.51248">
        <ele>253.9</ele>
        <time>2024-11-27T23:57:21.446Z</time>
      </trkpt>
      <trkpt lat="44.37308" lon="1.51251">
        <ele>254.1</ele>
        <time>2024-11-27T23:57:22.799Z</time>
      </trkpt>
      <trkpt lat="44.37305" lon="1.51253">
        <ele>254.2</ele>
        <time>2024-11-27T23:57:24.290Z</time>
      </trkpt>
      <trkpt lat="44.37301" lon="1.51256">
        <ele>254.2</ele>
        <time>2024-11-27T23:57:26.077Z</time>
      </trkpt>
      <trkpt lat="44.37299" lon="1.51258">
        <ele>254.2</ele>
        <time>2024-11-27T23:57:27.129Z</time>
      </trkpt>
      <trkpt lat="44.37296" lon="1.5126">
        <ele>254.3</ele>
        <time>2024-11-27T23:57:28.591Z</time>
      </trkpt>
      <trkpt lat="44.37292" lon="1.51262">
        <ele>254.3</ele>
        <time>2024-11-27T23:57:30.421Z</time>
      </trkpt>
      <trkpt lat="44.37289" lon="1.51263">
        <ele>254.3</ele>
        <time>2024-11-27T23:57:31.849Z</time>
      </trkpt>
      <trkpt lat="44.37285" lon="1.51265">
        <ele>254.4</ele>
        <time>2024-11-27T23:57:33.376Z</time>
      </trkpt>
      <trkpt lat="44.37282" lon="1.51267">
        <ele>254.5</ele>
        <time>2024-11-27T23:57:35.025Z</time>
      </trkpt>
      <trkpt lat="44.37279" lon="1.51269">
        <ele>254.7</ele>
        <time>2024-11-27T23:57:36.436Z</time>
      </trkpt>
      <trkpt lat="44.37275" lon="1.51271">
        <ele>254.8</ele>
        <time>2024-11-27T23:57:37.938Z</time>
      </trkpt>
      <trkpt lat="44.37272" lon="1.51273">
        <ele>254.8</ele>
        <time>2024-11-27T23:57:39.505Z</time>
      </trkpt>
      <trkpt lat="44.37269" lon="1.51275">
        <ele>254.9</ele>
        <time>2024-11-27T23:57:40.916Z</time>
      </trkpt>
      <trkpt lat="44.37265" lon="1.51277">
        <ele>255</ele>
        <time>2024-11-27T23:57:42.743Z</time>
      </trkpt>
      <trkpt lat="44.37262" lon="1.5128">
        <ele>255.1</ele>
        <time>2024-11-27T23:57:44.396Z</time>
      </trkpt>
      <trkpt lat="44.37258" lon="1.51283">
        <ele>255</ele>
        <time>2024-11-27T23:57:46.146Z</time>
      </trkpt>
      <trkpt lat="44.37255" lon="1.51286">
        <ele>255.1</ele>
        <time>2024-11-27T23:57:47.763Z</time>
      </trkpt>
      <trkpt lat="44.37252" lon="1.51289">
        <ele>255.2</ele>
        <time>2024-11-27T23:57:49.379Z</time>
      </trkpt>
      <trkpt lat="44.37249" lon="1.51292">
        <ele>255.3</ele>
        <time>2024-11-27T23:57:51.029Z</time>
      </trkpt>
      <trkpt lat="44.37246" lon="1.51296">
        <ele>255.4</ele>
        <time>2024-11-27T23:57:52.762Z</time>
      </trkpt>
      <trkpt lat="44.37243" lon="1.51299">
        <ele>255.4</ele>
        <time>2024-11-27T23:57:54.350Z</time>
      </trkpt>
      <trkpt lat="44.3724" lon="1.51302">
        <ele>255.5</ele>
        <time>2024-11-27T23:57:55.966Z</time>
      </trkpt>
      <trkpt lat="44.37238" lon="1.51305">
        <ele>255.6</ele>
        <time>2024-11-27T23:57:57.470Z</time>
      </trkpt>
      <trkpt lat="44.37235" lon="1.51309">
        <ele>255.6</ele>
        <time>2024-11-27T23:57:58.985Z</time>
      </trkpt>
      <trkpt lat="44.37232" lon="1.51312">
        <ele>255.5</ele>
        <time>2024-11-27T23:58:00.776Z</time>
      </trkpt>
      <trkpt lat="44.37229" lon="1.51315">
        <ele>255.5</ele>
        <time>2024-11-27T23:58:02.268Z</time>
      </trkpt>
      <trkpt lat="44.37227" lon="1.51318">
        <ele>255.6</ele>
        <time>2024-11-27T23:58:03.464Z</time>
      </trkpt>
      <trkpt lat="44.37224" lon="1.51321">
        <ele>255.7</ele>
        <time>2024-11-27T23:58:05.009Z</time>
      </trkpt>
      <trkpt lat="44.3722" lon="1.51324">
        <ele>255.8</ele>
        <time>2024-11-27T23:58:06.945Z</time>
      </trkpt>
      <trkpt lat="44.37217" lon="1.51327">
        <ele>256</ele>
        <time>2024-11-27T23:58:08.423Z</time>
      </trkpt>
      <trkpt lat="44.37214" lon="1.5133">
        <ele>256.2</ele>
        <time>2024-11-27T23:58:09.932Z</time>
      </trkpt>
      <trkpt lat="44.37211" lon="1.51332">
        <ele>256.4</ele>
        <time>2024-11-27T23:58:11.549Z</time>
      </trkpt>
      <trkpt lat="44.37208" lon="1.51335">
        <ele>256.6</ele>
        <time>2024-11-27T23:58:13.134Z</time>
      </trkpt>
      <trkpt lat="44.37205" lon="1.51338">
        <ele>256.7</ele>
        <time>2024-11-27T23:58:14.748Z</time>
      </trkpt>
      <trkpt lat="44.37187" lon="1.51357">
        <ele>257.9</ele>
        <time>2024-11-27T23:58:24.428Z</time>
      </trkpt>
      <trkpt lat="44.37181" lon="1.51364">
        <ele>258.1</ele>
        <time>2024-11-27T23:58:27.670Z</time>
      </trkpt>
      <trkpt lat="44.37163" lon="1.51391">
        <ele>259.7</ele>
        <time>2024-11-27T23:58:38.984Z</time>
      </trkpt>
      <trkpt lat="44.3716" lon="1.51395">
        <ele>259.7</ele>
        <time>2024-11-27T23:58:40.632Z</time>
      </trkpt>
      <trkpt lat="44.3715" lon="1.51411">
        <ele>260.3</ele>
        <time>2024-11-27T23:58:47.487Z</time>
      </trkpt>
      <trkpt lat="44.37147" lon="1.51416">
        <ele>260.6</ele>
        <time>2024-11-27T23:58:49.269Z</time>
      </trkpt>
      <trkpt lat="44.37144" lon="1.5142">
        <ele>260.8</ele>
        <time>2024-11-27T23:58:51.022Z</time>
      </trkpt>
      <trkpt lat="44.37142" lon="1.51423">
        <ele>260.9</ele>
        <time>2024-11-27T23:58:52.421Z</time>
      </trkpt>
      <trkpt lat="44.37139" lon="1.51428">
        <ele>261</ele>
        <time>2024-11-27T23:58:54.448Z</time>
      </trkpt>
      <trkpt lat="44.37136" lon="1.51433">
        <ele>261</ele>
        <time>2024-11-27T23:58:56.266Z</time>
      </trkpt>
      <trkpt lat="44.37134" lon="1.51436">
        <ele>261.1</ele>
        <time>2024-11-27T23:58:57.818Z</time>
      </trkpt>
      <trkpt lat="44.3713" lon="1.51441">
        <ele>261.2</ele>
        <time>2024-11-27T23:58:59.827Z</time>
      </trkpt>
      <trkpt lat="44.37127" lon="1.51446">
        <ele>261.5</ele>
        <time>2024-11-27T23:59:01.904Z</time>
      </trkpt>
      <trkpt lat="44.37124" lon="1.51451">
        <ele>261.8</ele>
        <time>2024-11-27T23:59:03.920Z</time>
      </trkpt>
      <trkpt lat="44.3712" lon="1.51455">
        <ele>262.1</ele>
        <time>2024-11-27T23:59:05.928Z</time>
      </trkpt>
      <trkpt lat="44.37117" lon="1.5146">
        <ele>262.4</ele>
        <time>2024-11-27T23:59:07.996Z</time>
      </trkpt>
      <trkpt lat="44.37114" lon="1.51465">
        <ele>262.7</ele>
        <time>2024-11-27T23:59:10.056Z</time>
      </trkpt>
      <trkpt lat="44.37111" lon="1.5147">
        <ele>262.9</ele>
        <time>2024-11-27T23:59:12.080Z</time>
      </trkpt>
      <trkpt lat="44.37107" lon="1.51475">
        <ele>263</ele>
        <time>2024-11-27T23:59:14.175Z</time>
      </trkpt>
      <trkpt lat="44.37104" lon="1.51481">
        <ele>263.1</ele>
        <time>2024-11-27T23:59:16.220Z</time>
      </trkpt>
      <trkpt lat="44.37102" lon="1.51486">
        <ele>263.2</ele>
        <time>2024-11-27T23:59:18.189Z</time>
      </trkpt>
      <trkpt lat="44.37098" lon="1.5149">
        <ele>263.3</ele>
        <time>2024-11-27T23:59:20.145Z</time>
      </trkpt>
      <trkpt lat="44.37096" lon="1.51495">
        <ele>263.5</ele>
        <time>2024-11-27T23:59:21.994Z</time>
      </trkpt>
      <trkpt lat="44.37093" lon="1.515">
        <ele>263.7</ele>
        <time>2024-11-27T23:59:23.899Z</time>
      </trkpt>
      <trkpt lat="44.37091" lon="1.51498">
        <ele>263.7</ele>
        <time>2024-11-27T23:59:24.639Z</time>
      </trkpt>
      <trkpt lat="44.3708" lon="1.51516">
        <ele>264</ele>
        <time>2024-11-27T23:59:31.530Z</time>
      </trkpt>
      <trkpt lat="44.37041" lon="1.51629">
        <ele>264.1</ele>
        <time>2024-11-28T00:00:00.828Z</time>
      </trkpt>
      <trkpt lat="44.37035" lon="1.51635">
        <ele>264.5</ele>
        <time>2024-11-28T00:00:02.652Z</time>
      </trkpt>
      <trkpt lat="44.36965" lon="1.51667">
        <ele>265.8</ele>
        <time>2024-11-28T00:00:17.204Z</time>
      </trkpt>
      <trkpt lat="44.36915" lon="1.51561">
        <ele>263.6</ele>
        <time>2024-11-28T00:00:31.874Z</time>
      </trkpt>
      <trkpt lat="44.36888" lon="1.51485">
        <ele>262.5</ele>
        <time>2024-11-28T00:00:40.975Z</time>
      </trkpt>
      <trkpt lat="44.3683" lon="1.51393">
        <ele>256.6</ele>
        <time>2024-11-28T00:00:54.298Z</time>
      </trkpt>
      <trkpt lat="44.36818" lon="1.51368">
        <ele>255.3</ele>
        <time>2024-11-28T00:00:57.628Z</time>
      </trkpt>
      <trkpt lat="44.3681" lon="1.51367">
        <ele>254.5</ele>
        <time>2024-11-28T00:00:58.894Z</time>
      </trkpt>
      <trkpt lat="44.36781" lon="1.5139">
        <ele>252.2</ele>
        <time>2024-11-28T00:01:04.226Z</time>
      </trkpt>
      <trkpt lat="44.36766" lon="1.51407">
        <ele>251.5</ele>
        <time>2024-11-28T00:01:07.572Z</time>
      </trkpt>
      <trkpt lat="44.36734" lon="1.51423">
        <ele>250.8</ele>
        <time>2024-11-28T00:01:13.493Z</time>
      </trkpt>
      <trkpt lat="44.36724" lon="1.51413">
        <ele>252.2</ele>
        <time>2024-11-28T00:01:15.761Z</time>
      </trkpt>
      <trkpt lat="44.36715" lon="1.51398">
        <ele>253.4</ele>
        <time>2024-11-28T00:01:18.182Z</time>
      </trkpt>
      <trkpt lat="44.36708" lon="1.51376">
        <ele>254.5</ele>
        <time>2024-11-28T00:01:21.137Z</time>
      </trkpt>
      <trkpt lat="44.36697" lon="1.51355">
        <ele>255.2</ele>
        <time>2024-11-28T00:01:24.271Z</time>
      </trkpt>
      <trkpt lat="44.36665" lon="1.5132">
        <ele>254.4</ele>
        <time>2024-11-28T00:01:31.435Z</time>
      </trkpt>
      <trkpt lat="44.3664" lon="1.51284">
        <ele>252.8</ele>
        <time>2024-11-28T00:01:36.954Z</time>
      </trkpt>
      <trkpt lat="44.36594" lon="1.51227">
        <ele>254.1</ele>
        <time>2024-11-28T00:01:45.175Z</time>
      </trkpt>
      <trkpt lat="44.36582" lon="1.51216">
        <ele>253.9</ele>
        <time>2024-11-28T00:01:47.017Z</time>
      </trkpt>
      <trkpt lat="44.36582" lon="1.51217">
        <ele>253.9</ele>
        <time>2024-11-28T00:01:47.081Z</time>
      </trkpt>
      <trkpt lat="44.36576" lon="1.51214">
        <ele>253.2</ele>
        <time>2024-11-28T00:01:50.004Z</time>
      </trkpt>
      <trkpt lat="44.36573" lon="1.51215">
        <ele>253</ele>
        <time>2024-11-28T00:01:51.072Z</time>
      </trkpt>
      <trkpt lat="44.36571" lon="1.51218">
        <ele>252.8</ele>
        <time>2024-11-28T00:01:52.304Z</time>
      </trkpt>
      <trkpt lat="44.3657" lon="1.51221">
        <ele>252.5</ele>
        <time>2024-11-28T00:01:53.634Z</time>
      </trkpt>
      <trkpt lat="44.36567" lon="1.51225">
        <ele>252.2</ele>
        <time>2024-11-28T00:01:55.044Z</time>
      </trkpt>
      <trkpt lat="44.36565" lon="1.51228">
        <ele>251.9</ele>
        <time>2024-11-28T00:01:56.527Z</time>
      </trkpt>
      <trkpt lat="44.36562" lon="1.5123">
        <ele>251.6</ele>
        <time>2024-11-28T00:01:57.944Z</time>
      </trkpt>
      <trkpt lat="44.36559" lon="1.51231">
        <ele>251.3</ele>
        <time>2024-11-28T00:01:59.336Z</time>
      </trkpt>
      <trkpt lat="44.36555" lon="1.51232">
        <ele>250.9</ele>
        <time>2024-11-28T00:02:00.832Z</time>
      </trkpt>
      <trkpt lat="44.36552" lon="1.51233">
        <ele>249.6</ele>
        <time>2024-11-28T00:02:02.257Z</time>
      </trkpt>
      <trkpt lat="44.36546" lon="1.51239">
        <ele>247.4</ele>
        <time>2024-11-28T00:02:05.269Z</time>
      </trkpt>
      <trkpt lat="44.36544" lon="1.51243">
        <ele>246.7</ele>
        <time>2024-11-28T00:02:06.821Z</time>
      </trkpt>
      <trkpt lat="44.36542" lon="1.51248">
        <ele>246</ele>
        <time>2024-11-28T00:02:08.546Z</time>
      </trkpt>
      <trkpt lat="44.3654" lon="1.51252">
        <ele>245.6</ele>
        <time>2024-11-28T00:02:10.100Z</time>
      </trkpt>
      <trkpt lat="44.36539" lon="1.51257">
        <ele>244.9</ele>
        <time>2024-11-28T00:02:11.684Z</time>
      </trkpt>
      <trkpt lat="44.36537" lon="1.5126">
        <ele>244.5</ele>
        <time>2024-11-28T00:02:12.890Z</time>
      </trkpt>
      <trkpt lat="44.36535" lon="1.51261">
        <ele>243.9</ele>
        <time>2024-11-28T00:02:13.680Z</time>
      </trkpt>
      <trkpt lat="44.36533" lon="1.51259">
        <ele>243.2</ele>
        <time>2024-11-28T00:02:14.719Z</time>
      </trkpt>
      <trkpt lat="44.36531" lon="1.51258">
        <ele>242.3</ele>
        <time>2024-11-28T00:02:15.900Z</time>
      </trkpt>
      <trkpt lat="44.36528" lon="1.5126">
        <ele>241.4</ele>
        <time>2024-11-28T00:02:17.290Z</time>
      </trkpt>
      <trkpt lat="44.36525" lon="1.51264">
        <ele>240.6</ele>
        <time>2024-11-28T00:02:18.942Z</time>
      </trkpt>
      <trkpt lat="44.3652" lon="1.51277">
        <ele>238.9</ele>
        <time>2024-11-28T00:02:23.563Z</time>
      </trkpt>
      <trkpt lat="44.36516" lon="1.51284">
        <ele>237.5</ele>
        <time>2024-11-28T00:02:26.545Z</time>
      </trkpt>
      <trkpt lat="44.3651" lon="1.51292">
        <ele>235.7</ele>
        <time>2024-11-28T00:02:29.815Z</time>
      </trkpt>
      <trkpt lat="44.36505" lon="1.513">
        <ele>233.8</ele>
        <time>2024-11-28T00:02:33.159Z</time>
      </trkpt>
      <trkpt lat="44.36499" lon="1.51307">
        <ele>231.9</ele>
        <time>2024-11-28T00:02:36.563Z</time>
      </trkpt>
      <trkpt lat="44.36482" lon="1.51328">
        <ele>228.5</ele>
        <time>2024-11-28T00:02:46.350Z</time>
      </trkpt>
      <trkpt lat="44.36481" lon="1.51326">
        <ele>228</ele>
        <time>2024-11-28T00:02:47.157Z</time>
      </trkpt>
      <trkpt lat="44.36458" lon="1.51348">
        <ele>222.6</ele>
        <time>2024-11-28T00:02:53.560Z</time>
      </trkpt>
      <trkpt lat="44.36449" lon="1.51386">
        <ele>217.9</ele>
        <time>2024-11-28T00:03:00.596Z</time>
      </trkpt>
      <trkpt lat="44.36446" lon="1.51415">
        <ele>217</ele>
        <time>2024-11-28T00:03:06.349Z</time>
      </trkpt>
      <trkpt lat="44.36459" lon="1.51592">
        <ele>218.8</ele>
        <time>2024-11-28T00:03:47.165Z</time>
      </trkpt>
      <trkpt lat="44.36478" lon="1.51737">
        <ele>215.5</ele>
        <time>2024-11-28T00:04:13.255Z</time>
      </trkpt>
      <trkpt lat="44.36488" lon="1.51759">
        <ele>214</ele>
        <time>2024-11-28T00:04:17.358Z</time>
      </trkpt>
      <trkpt lat="44.36501" lon="1.51767">
        <ele>212</ele>
        <time>2024-11-28T00:04:20.622Z</time>
      </trkpt>
      <trkpt lat="44.36472" lon="1.51843">
        <ele>211.7</ele>
        <time>2024-11-28T00:04:34.997Z</time>
      </trkpt>
      <trkpt lat="44.36447" lon="1.51874">
        <ele>211.9</ele>
        <time>2024-11-28T00:04:43.456Z</time>
      </trkpt>
      <trkpt lat="44.36442" lon="1.51875">
        <ele>212.1</ele>
        <time>2024-11-28T00:04:44.788Z</time>
      </trkpt>
      <trkpt lat="44.3644" lon="1.51884">
        <ele>211.4</ele>
        <time>2024-11-28T00:04:46.491Z</time>
      </trkpt>
      <trkpt lat="44.36421" lon="1.51914">
        <ele>211</ele>
        <time>2024-11-28T00:04:54.226Z</time>
      </trkpt>
      <trkpt lat="44.3641" lon="1.51927">
        <ele>211.2</ele>
        <time>2024-11-28T00:04:58.404Z</time>
      </trkpt>
      <trkpt lat="44.36393" lon="1.51939">
        <ele>211.9</ele>
        <time>2024-11-28T00:05:04.735Z</time>
      </trkpt>
      <trkpt lat="44.3638" lon="1.51958">
        <ele>213</ele>
        <time>2024-11-28T00:05:11.994Z</time>
      </trkpt>
      <trkpt lat="44.36387" lon="1.51973">
        <ele>213.2</ele>
        <time>2024-11-28T00:05:17.383Z</time>
      </trkpt>
      <trkpt lat="44.36418" lon="1.52018">
        <ele>213.8</ele>
        <time>2024-11-28T00:05:37.812Z</time>
      </trkpt>
      <trkpt lat="44.36448" lon="1.52045">
        <ele>212</ele>
        <time>2024-11-28T00:05:53.183Z</time>
      </trkpt>
      <trkpt lat="44.36458" lon="1.52071">
        <ele>212.6</ele>
        <time>2024-11-28T00:06:01.275Z</time>
      </trkpt>
      <trkpt lat="44.36453" lon="1.52118">
        <ele>216.7</ele>
        <time>2024-11-28T00:06:12.982Z</time>
      </trkpt>
      <trkpt lat="44.36454" lon="1.52145">
        <ele>216.9</ele>
        <time>2024-11-28T00:06:19.568Z</time>
      </trkpt>
      <trkpt lat="44.36468" lon="1.52192">
        <ele>213.3</ele>
        <time>2024-11-28T00:06:32.576Z</time>
      </trkpt>
      <trkpt lat="44.36472" lon="1.5222">
        <ele>212.9</ele>
        <time>2024-11-28T00:06:38.965Z</time>
      </trkpt>
      <trkpt lat="44.36472" lon="1.5222">
        <ele>212.9</ele>
        <time>2024-11-28T00:06:38.982Z</time>
      </trkpt>
      <trkpt lat="44.36472" lon="1.52226">
        <ele>212.9</ele>
        <time>2024-11-28T00:06:40.973Z</time>
      </trkpt>
      <trkpt lat="44.36477" lon="1.52227">
        <ele>212.5</ele>
        <time>2024-11-28T00:06:43.288Z</time>
      </trkpt>
      <trkpt lat="44.36468" lon="1.52241">
        <ele>212.7</ele>
        <time>2024-11-28T00:06:49.154Z</time>
      </trkpt>
      <trkpt lat="44.36467" lon="1.52245">
        <ele>212.7</ele>
        <time>2024-11-28T00:06:50.454Z</time>
      </trkpt>
      <trkpt lat="44.36465" lon="1.52248">
        <ele>212.7</ele>
        <time>2024-11-28T00:06:51.750Z</time>
      </trkpt>
      <trkpt lat="44.36463" lon="1.52251">
        <ele>212.6</ele>
        <time>2024-11-28T00:06:53.022Z</time>
      </trkpt>
      <trkpt lat="44.36461" lon="1.52254">
        <ele>212.7</ele>
        <time>2024-11-28T00:06:54.293Z</time>
      </trkpt>
      <trkpt lat="44.36459" lon="1.52258">
        <ele>212.7</ele>
        <time>2024-11-28T00:06:55.565Z</time>
      </trkpt>
      <trkpt lat="44.36457" lon="1.5226">
        <ele>212.7</ele>
        <time>2024-11-28T00:06:56.869Z</time>
      </trkpt>
      <trkpt lat="44.36454" lon="1.52263">
        <ele>212.7</ele>
        <time>2024-11-28T00:06:58.097Z</time>
      </trkpt>
      <trkpt lat="44.36452" lon="1.52265">
        <ele>212.6</ele>
        <time>2024-11-28T00:06:59.361Z</time>
      </trkpt>
      <trkpt lat="44.36448" lon="1.5227">
        <ele>212.5</ele>
        <time>2024-11-28T00:07:01.816Z</time>
      </trkpt>
      <trkpt lat="44.36445" lon="1.52272">
        <ele>212.4</ele>
        <time>2024-11-28T00:07:02.958Z</time>
      </trkpt>
      <trkpt lat="44.36443" lon="1.52274">
        <ele>212.4</ele>
        <time>2024-11-28T00:07:03.994Z</time>
      </trkpt>
      <trkpt lat="44.36441" lon="1.52276">
        <ele>212.4</ele>
        <time>2024-11-28T00:07:04.975Z</time>
      </trkpt>
      <trkpt lat="44.3644" lon="1.52278">
        <ele>212.4</ele>
        <time>2024-11-28T00:07:05.957Z</time>
      </trkpt>
      <trkpt lat="44.36437" lon="1.5228">
        <ele>212.5</ele>
        <time>2024-11-28T00:07:07.069Z</time>
      </trkpt>
      <trkpt lat="44.36435" lon="1.52281">
        <ele>212.6</ele>
        <time>2024-11-28T00:07:08.018Z</time>
      </trkpt>
      <trkpt lat="44.36433" lon="1.52283">
        <ele>212.7</ele>
        <time>2024-11-28T00:07:08.937Z</time>
      </trkpt>
      <trkpt lat="44.36432" lon="1.52283">
        <ele>212.7</ele>
        <time>2024-11-28T00:07:09.623Z</time>
      </trkpt>
      <trkpt lat="44.3643" lon="1.52284">
        <ele>212.8</ele>
        <time>2024-11-28T00:07:10.347Z</time>
      </trkpt>
      <trkpt lat="44.36429" lon="1.52286">
        <ele>212.8</ele>
        <time>2024-11-28T00:07:11.329Z</time>
      </trkpt>
      <trkpt lat="44.36426" lon="1.52288">
        <ele>212.8</ele>
        <time>2024-11-28T00:07:12.504Z</time>
      </trkpt>
      <trkpt lat="44.36424" lon="1.52291">
        <ele>212.8</ele>
        <time>2024-11-28T00:07:13.923Z</time>
      </trkpt>
      <trkpt lat="44.36421" lon="1.52294">
        <ele>212.7</ele>
        <time>2024-11-28T00:07:15.457Z</time>
      </trkpt>
      <trkpt lat="44.36418" lon="1.52298">
        <ele>212.5</ele>
        <time>2024-11-28T00:07:17.065Z</time>
      </trkpt>
      <trkpt lat="44.36416" lon="1.52303">
        <ele>212.3</ele>
        <time>2024-11-28T00:07:18.861Z</time>
      </trkpt>
      <trkpt lat="44.36413" lon="1.52307">
        <ele>212.1</ele>
        <time>2024-11-28T00:07:20.603Z</time>
      </trkpt>
      <trkpt lat="44.36411" lon="1.52312">
        <ele>212.2</ele>
        <time>2024-11-28T00:07:22.446Z</time>
      </trkpt>
      <trkpt lat="44.36408" lon="1.52318">
        <ele>212.3</ele>
        <time>2024-11-28T00:07:24.411Z</time>
      </trkpt>
      <trkpt lat="44.36406" lon="1.52323">
        <ele>212.4</ele>
        <time>2024-11-28T00:07:26.327Z</time>
      </trkpt>
      <trkpt lat="44.36403" lon="1.52328">
        <ele>212.5</ele>
        <time>2024-11-28T00:07:28.397Z</time>
      </trkpt>
      <trkpt lat="44.36399" lon="1.52333">
        <ele>212.6</ele>
        <time>2024-11-28T00:07:30.507Z</time>
      </trkpt>
      <trkpt lat="44.36396" lon="1.52338">
        <ele>212.8</ele>
        <time>2024-11-28T00:07:32.713Z</time>
      </trkpt>
      <trkpt lat="44.36392" lon="1.52343">
        <ele>212.9</ele>
        <time>2024-11-28T00:07:34.987Z</time>
      </trkpt>
      <trkpt lat="44.36388" lon="1.52349">
        <ele>213</ele>
        <time>2024-11-28T00:07:37.142Z</time>
      </trkpt>
      <trkpt lat="44.36385" lon="1.52354">
        <ele>213.1</ele>
        <time>2024-11-28T00:07:39.320Z</time>
      </trkpt>
      <trkpt lat="44.36382" lon="1.5236">
        <ele>213.3</ele>
        <time>2024-11-28T00:07:41.594Z</time>
      </trkpt>
      <trkpt lat="44.36379" lon="1.52365">
        <ele>213.3</ele>
        <time>2024-11-28T00:07:43.734Z</time>
      </trkpt>
      <trkpt lat="44.36376" lon="1.5237">
        <ele>213.3</ele>
        <time>2024-11-28T00:07:45.604Z</time>
      </trkpt>
      <trkpt lat="44.36374" lon="1.52375">
        <ele>213.3</ele>
        <time>2024-11-28T00:07:47.282Z</time>
      </trkpt>
      <trkpt lat="44.36372" lon="1.5238">
        <ele>213.2</ele>
        <time>2024-11-28T00:07:48.906Z</time>
      </trkpt>
      <trkpt lat="44.36371" lon="1.52384">
        <ele>213.1</ele>
        <time>2024-11-28T00:07:50.375Z</time>
      </trkpt>
      <trkpt lat="44.36368" lon="1.52388">
        <ele>213</ele>
        <time>2024-11-28T00:07:51.920Z</time>
      </trkpt>
      <trkpt lat="44.36366" lon="1.52391">
        <ele>213.1</ele>
        <time>2024-11-28T00:07:53.414Z</time>
      </trkpt>
      <trkpt lat="44.36363" lon="1.52393">
        <ele>213.1</ele>
        <time>2024-11-28T00:07:54.799Z</time>
      </trkpt>
      <trkpt lat="44.36359" lon="1.52396">
        <ele>213.3</ele>
        <time>2024-11-28T00:07:56.428Z</time>
      </trkpt>
      <trkpt lat="44.36355" lon="1.52398">
        <ele>213.5</ele>
        <time>2024-11-28T00:07:58.418Z</time>
      </trkpt>
      <trkpt lat="44.36345" lon="1.52405">
        <ele>213.8</ele>
        <time>2024-11-28T00:08:03.213Z</time>
      </trkpt>
      <trkpt lat="44.36339" lon="1.52407">
        <ele>213.9</ele>
        <time>2024-11-28T00:08:05.742Z</time>
      </trkpt>
      <trkpt lat="44.36334" lon="1.52408">
        <ele>214</ele>
        <time>2024-11-28T00:08:08.097Z</time>
      </trkpt>
      <trkpt lat="44.36329" lon="1.52409">
        <ele>214.2</ele>
        <time>2024-11-28T00:08:10.384Z</time>
      </trkpt>
      <trkpt lat="44.36323" lon="1.52411">
        <ele>214.4</ele>
        <time>2024-11-28T00:08:12.686Z</time>
      </trkpt>
      <trkpt lat="44.36317" lon="1.52411">
        <ele>214.7</ele>
        <time>2024-11-28T00:08:15.179Z</time>
      </trkpt>
      <trkpt lat="44.36312" lon="1.52412">
        <ele>214.9</ele>
        <time>2024-11-28T00:08:17.626Z</time>
      </trkpt>
      <trkpt lat="44.36306" lon="1.52413">
        <ele>215.1</ele>
        <time>2024-11-28T00:08:19.906Z</time>
      </trkpt>
      <trkpt lat="44.36301" lon="1.52414">
        <ele>215.3</ele>
        <time>2024-11-28T00:08:22.360Z</time>
      </trkpt>
      <trkpt lat="44.36295" lon="1.52415">
        <ele>215.5</ele>
        <time>2024-11-28T00:08:24.859Z</time>
      </trkpt>
      <trkpt lat="44.3629" lon="1.52416">
        <ele>215.6</ele>
        <time>2024-11-28T00:08:27.147Z</time>
      </trkpt>
      <trkpt lat="44.36279" lon="1.52418">
        <ele>216</ele>
        <time>2024-11-28T00:08:31.760Z</time>
      </trkpt>
      <trkpt lat="44.36274" lon="1.52419">
        <ele>216.2</ele>
        <time>2024-11-28T00:08:34.067Z</time>
      </trkpt>
      <trkpt lat="44.36268" lon="1.52421">
        <ele>216.3</ele>
        <time>2024-11-28T00:08:36.442Z</time>
      </trkpt>
      <trkpt lat="44.36263" lon="1.52423">
        <ele>216.5</ele>
        <time>2024-11-28T00:08:38.617Z</time>
      </trkpt>
      <trkpt lat="44.36258" lon="1.52425">
        <ele>216.7</ele>
        <time>2024-11-28T00:08:40.859Z</time>
      </trkpt>
      <trkpt lat="44.36253" lon="1.52427">
        <ele>216.9</ele>
        <time>2024-11-28T00:08:43.241Z</time>
      </trkpt>
      <trkpt lat="44.36248" lon="1.5243">
        <ele>217</ele>
        <time>2024-11-28T00:08:45.647Z</time>
      </trkpt>
      <trkpt lat="44.36243" lon="1.52432">
        <ele>217</ele>
        <time>2024-11-28T00:08:47.822Z</time>
      </trkpt>
      <trkpt lat="44.36238" lon="1.52433">
        <ele>217</ele>
        <time>2024-11-28T00:08:50.016Z</time>
      </trkpt>
      <trkpt lat="44.36233" lon="1.52435">
        <ele>217</ele>
        <time>2024-11-28T00:08:52.161Z</time>
      </trkpt>
      <trkpt lat="44.36228" lon="1.52436">
        <ele>217</ele>
        <time>2024-11-28T00:08:54.169Z</time>
      </trkpt>
      <trkpt lat="44.36224" lon="1.52437">
        <ele>217</ele>
        <time>2024-11-28T00:08:56.160Z</time>
      </trkpt>
      <trkpt lat="44.36219" lon="1.52438">
        <ele>217</ele>
        <time>2024-11-28T00:08:58.147Z</time>
      </trkpt>
      <trkpt lat="44.36214" lon="1.52439">
        <ele>217.1</ele>
        <time>2024-11-28T00:09:00.143Z</time>
      </trkpt>
      <trkpt lat="44.36205" lon="1.52442">
        <ele>217.1</ele>
        <time>2024-11-28T00:09:04.290Z</time>
      </trkpt>
      <trkpt lat="44.362" lon="1.52443">
        <ele>217</ele>
        <time>2024-11-28T00:09:06.435Z</time>
      </trkpt>
      <trkpt lat="44.36195" lon="1.52445">
        <ele>217</ele>
        <time>2024-11-28T00:09:08.623Z</time>
      </trkpt>
      <trkpt lat="44.3619" lon="1.52446">
        <ele>217.3</ele>
        <time>2024-11-28T00:09:10.816Z</time>
      </trkpt>
      <trkpt lat="44.3618" lon="1.5245">
        <ele>217.7</ele>
        <time>2024-11-28T00:09:15.177Z</time>
      </trkpt>
      <trkpt lat="44.36176" lon="1.52451">
        <ele>217.8</ele>
        <time>2024-11-28T00:09:17.191Z</time>
      </trkpt>
      <trkpt lat="44.36171" lon="1.52452">
        <ele>217.9</ele>
        <time>2024-11-28T00:09:19.305Z</time>
      </trkpt>
      <trkpt lat="44.36166" lon="1.52452">
        <ele>218</ele>
        <time>2024-11-28T00:09:21.279Z</time>
      </trkpt>
      <trkpt lat="44.36161" lon="1.52453">
        <ele>218.1</ele>
        <time>2024-11-28T00:09:23.262Z</time>
      </trkpt>
      <trkpt lat="44.36157" lon="1.52454">
        <ele>218.1</ele>
        <time>2024-11-28T00:09:25.249Z</time>
      </trkpt>
      <trkpt lat="44.36147" lon="1.52456">
        <ele>218.3</ele>
        <time>2024-11-28T00:09:29.350Z</time>
      </trkpt>
      <trkpt lat="44.36142" lon="1.52457">
        <ele>218.4</ele>
        <time>2024-11-28T00:09:31.520Z</time>
      </trkpt>
      <trkpt lat="44.36137" lon="1.52458">
        <ele>218.5</ele>
        <time>2024-11-28T00:09:33.639Z</time>
      </trkpt>
      <trkpt lat="44.36132" lon="1.52459">
        <ele>218.8</ele>
        <time>2024-11-28T00:09:35.809Z</time>
      </trkpt>
      <trkpt lat="44.36127" lon="1.52461">
        <ele>218.9</ele>
        <time>2024-11-28T00:09:38.111Z</time>
      </trkpt>
      <trkpt lat="44.36122" lon="1.52462">
        <ele>219.1</ele>
        <time>2024-11-28T00:09:40.472Z</time>
      </trkpt>
      <trkpt lat="44.36116" lon="1.52464">
        <ele>219.2</ele>
        <time>2024-11-28T00:09:42.813Z</time>
      </trkpt>
      <trkpt lat="44.36111" lon="1.52466">
        <ele>219.2</ele>
        <time>2024-11-28T00:09:45.321Z</time>
      </trkpt>
      <trkpt lat="44.36105" lon="1.52467">
        <ele>219.4</ele>
        <time>2024-11-28T00:09:47.666Z</time>
      </trkpt>
      <trkpt lat="44.361" lon="1.52468">
        <ele>219.6</ele>
        <time>2024-11-28T00:09:49.959Z</time>
      </trkpt>
      <trkpt lat="44.36095" lon="1.52469">
        <ele>219.8</ele>
        <time>2024-11-28T00:09:52.244Z</time>
      </trkpt>
      <trkpt lat="44.36089" lon="1.5247">
        <ele>219.9</ele>
        <time>2024-11-28T00:09:54.565Z</time>
      </trkpt>
      <trkpt lat="44.3608" lon="1.52472">
        <ele>220.3</ele>
        <time>2024-11-28T00:09:58.698Z</time>
      </trkpt>
      <trkpt lat="44.36076" lon="1.52475">
        <ele>220.5</ele>
        <time>2024-11-28T00:10:00.618Z</time>
      </trkpt>
      <trkpt lat="44.36071" lon="1.52477">
        <ele>220.8</ele>
        <time>2024-11-28T00:10:02.753Z</time>
      </trkpt>
      <trkpt lat="44.36066" lon="1.5248">
        <ele>221</ele>
        <time>2024-11-28T00:10:04.939Z</time>
      </trkpt>
      <trkpt lat="44.36062" lon="1.52484">
        <ele>221.2</ele>
        <time>2024-11-28T00:10:07.114Z</time>
      </trkpt>
      <trkpt lat="44.36057" lon="1.52487">
        <ele>221.4</ele>
        <time>2024-11-28T00:10:09.287Z</time>
      </trkpt>
      <trkpt lat="44.36053" lon="1.5249">
        <ele>221.5</ele>
        <time>2024-11-28T00:10:11.435Z</time>
      </trkpt>
      <trkpt lat="44.36043" lon="1.52495">
        <ele>221.7</ele>
        <time>2024-11-28T00:10:15.824Z</time>
      </trkpt>
      <trkpt lat="44.36038" lon="1.52498">
        <ele>221.8</ele>
        <time>2024-11-28T00:10:18.142Z</time>
      </trkpt>
      <trkpt lat="44.36033" lon="1.52501">
        <ele>221.8</ele>
        <time>2024-11-28T00:10:20.483Z</time>
      </trkpt>
      <trkpt lat="44.36023" lon="1.52507">
        <ele>222.3</ele>
        <time>2024-11-28T00:10:25.066Z</time>
      </trkpt>
      <trkpt lat="44.36018" lon="1.52509">
        <ele>222.6</ele>
        <time>2024-11-28T00:10:27.298Z</time>
      </trkpt>
      <trkpt lat="44.36014" lon="1.52511">
        <ele>222.8</ele>
        <time>2024-11-28T00:10:29.389Z</time>
      </trkpt>
      <trkpt lat="44.36009" lon="1.52514">
        <ele>223</ele>
        <time>2024-11-28T00:10:31.513Z</time>
      </trkpt>
      <trkpt lat="44.36005" lon="1.52517">
        <ele>223.2</ele>
        <time>2024-11-28T00:10:33.636Z</time>
      </trkpt>
      <trkpt lat="44.36" lon="1.52519">
        <ele>223.3</ele>
        <time>2024-11-28T00:10:35.602Z</time>
      </trkpt>
      <trkpt lat="44.35997" lon="1.52522">
        <ele>223.4</ele>
        <time>2024-11-28T00:10:37.387Z</time>
      </trkpt>
      <trkpt lat="44.35992" lon="1.52524">
        <ele>223.5</ele>
        <time>2024-11-28T00:10:39.340Z</time>
      </trkpt>
      <trkpt lat="44.35988" lon="1.52526">
        <ele>223.5</ele>
        <time>2024-11-28T00:10:41.371Z</time>
      </trkpt>
      <trkpt lat="44.35983" lon="1.52528">
        <ele>223.6</ele>
        <time>2024-11-28T00:10:43.433Z</time>
      </trkpt>
      <trkpt lat="44.35979" lon="1.52531">
        <ele>223.8</ele>
        <time>2024-11-28T00:10:45.375Z</time>
      </trkpt>
      <trkpt lat="44.35975" lon="1.52532">
        <ele>223.9</ele>
        <time>2024-11-28T00:10:47.092Z</time>
      </trkpt>
      <trkpt lat="44.35972" lon="1.52534">
        <ele>224</ele>
        <time>2024-11-28T00:10:48.650Z</time>
      </trkpt>
      <trkpt lat="44.35968" lon="1.52535">
        <ele>224.2</ele>
        <time>2024-11-28T00:10:50.186Z</time>
      </trkpt>
      <trkpt lat="44.35965" lon="1.52537">
        <ele>224.4</ele>
        <time>2024-11-28T00:10:51.731Z</time>
      </trkpt>
      <trkpt lat="44.35962" lon="1.52539">
        <ele>224.6</ele>
        <time>2024-11-28T00:10:53.219Z</time>
      </trkpt>
      <trkpt lat="44.35958" lon="1.52542">
        <ele>224.8</ele>
        <time>2024-11-28T00:10:55.043Z</time>
      </trkpt>
      <trkpt lat="44.35954" lon="1.52545">
        <ele>224.9</ele>
        <time>2024-11-28T00:10:57.203Z</time>
      </trkpt>
      <trkpt lat="44.35949" lon="1.52548">
        <ele>225</ele>
        <time>2024-11-28T00:10:59.236Z</time>
      </trkpt>
      <trkpt lat="44.35945" lon="1.5255">
        <ele>225.2</ele>
        <time>2024-11-28T00:11:01.145Z</time>
      </trkpt>
      <trkpt lat="44.35941" lon="1.52553">
        <ele>225.2</ele>
        <time>2024-11-28T00:11:03.100Z</time>
      </trkpt>
      <trkpt lat="44.35937" lon="1.52555">
        <ele>225.3</ele>
        <time>2024-11-28T00:11:04.849Z</time>
      </trkpt>
      <trkpt lat="44.35934" lon="1.52557">
        <ele>225.4</ele>
        <time>2024-11-28T00:11:06.417Z</time>
      </trkpt>
      <trkpt lat="44.35931" lon="1.52558">
        <ele>225.6</ele>
        <time>2024-11-28T00:11:07.855Z</time>
      </trkpt>
      <trkpt lat="44.35928" lon="1.5256">
        <ele>225.7</ele>
        <time>2024-11-28T00:11:09.097Z</time>
      </trkpt>
      <trkpt lat="44.35925" lon="1.52562">
        <ele>225.8</ele>
        <time>2024-11-28T00:11:10.405Z</time>
      </trkpt>
      <trkpt lat="44.35923" lon="1.52564">
        <ele>225.9</ele>
        <time>2024-11-28T00:11:11.533Z</time>
      </trkpt>
      <trkpt lat="44.35921" lon="1.52566">
        <ele>226</ele>
        <time>2024-11-28T00:11:12.620Z</time>
      </trkpt>
      <trkpt lat="44.35918" lon="1.52567">
        <ele>226</ele>
        <time>2024-11-28T00:11:13.815Z</time>
      </trkpt>
      <trkpt lat="44.35915" lon="1.52567">
        <ele>226.1</ele>
        <time>2024-11-28T00:11:14.930Z</time>
      </trkpt>
      <trkpt lat="44.35913" lon="1.52566">
        <ele>226.3</ele>
        <time>2024-11-28T00:11:16.126Z</time>
      </trkpt>
      <trkpt lat="44.3591" lon="1.52563">
        <ele>226.6</ele>
        <time>2024-11-28T00:11:17.372Z</time>
      </trkpt>
      <trkpt lat="44.35908" lon="1.5256">
        <ele>226.8</ele>
        <time>2024-11-28T00:11:18.850Z</time>
      </trkpt>
      <trkpt lat="44.35898" lon="1.5259">
        <ele>226.9</ele>
        <time>2024-11-28T00:11:29.123Z</time>
      </trkpt>
      <trkpt lat="44.35849" lon="1.52633">
        <ele>229.5</ele>
        <time>2024-11-28T00:11:53.617Z</time>
      </trkpt>
      <trkpt lat="44.35801" lon="1.52676">
        <ele>231.4</ele>
        <time>2024-11-28T00:12:18.108Z</time>
      </trkpt>
      <trkpt lat="44.35769" lon="1.52764">
        <ele>232.8</ele>
        <time>2024-11-28T00:12:48.336Z</time>
      </trkpt>
      <trkpt lat="44.35689" lon="1.52796">
        <ele>234.6</ele>
        <time>2024-11-28T00:13:23.858Z</time>
      </trkpt>
      <trkpt lat="44.35623" lon="1.52867">
        <ele>236.4</ele>
        <time>2024-11-28T00:13:59.442Z</time>
      </trkpt>
      <trkpt lat="44.35574" lon="1.52907">
        <ele>239.6</ele>
        <time>2024-11-28T00:14:23.880Z</time>
      </trkpt>
      <trkpt lat="44.35537" lon="1.52957">
        <ele>239.9</ele>
        <time>2024-11-28T00:14:45.684Z</time>
      </trkpt>
      <trkpt lat="44.35542" lon="1.52949">
        <ele>239.6</ele>
        <time>2024-11-28T00:14:48.797Z</time>
      </trkpt>
      <trkpt lat="44.35551" lon="1.5296">
        <ele>239.7</ele>
        <time>2024-11-28T00:14:55.020Z</time>
      </trkpt>
      <trkpt lat="44.35558" lon="1.52963">
        <ele>240.3</ele>
        <time>2024-11-28T00:14:58.870Z</time>
      </trkpt>
      <trkpt lat="44.35599" lon="1.5296">
        <ele>245.4</ele>
        <time>2024-11-28T00:15:19.790Z</time>
      </trkpt>
      <trkpt lat="44.35682" lon="1.52935">
        <ele>257.3</ele>
        <time>2024-11-28T00:16:11.568Z</time>
      </trkpt>
      <trkpt lat="44.35697" lon="1.52936">
        <ele>259.4</ele>
        <time>2024-11-28T00:16:21.435Z</time>
      </trkpt>
      <trkpt lat="44.3571" lon="1.52942">
        <ele>261.4</ele>
        <time>2024-11-28T00:16:30.766Z</time>
      </trkpt>
      <trkpt lat="44.35734" lon="1.52963">
        <ele>264.7</ele>
        <time>2024-11-28T00:16:49.515Z</time>
      </trkpt>
      <trkpt lat="44.35741" lon="1.52976">
        <ele>265.8</ele>
        <time>2024-11-28T00:16:57.482Z</time>
      </trkpt>
      <trkpt lat="44.35786" lon="1.53149">
        <ele>264.7</ele>
        <time>2024-11-28T00:18:10.651Z</time>
      </trkpt>
      <trkpt lat="44.35791" lon="1.53167">
        <ele>264.5</ele>
        <time>2024-11-28T00:18:16.277Z</time>
      </trkpt>
      <trkpt lat="44.35798" lon="1.5318">
        <ele>264.1</ele>
        <time>2024-11-28T00:18:20.754Z</time>
      </trkpt>
      <trkpt lat="44.35853" lon="1.53209">
        <ele>263.1</ele>
        <time>2024-11-28T00:18:41.302Z</time>
      </trkpt>
      <trkpt lat="44.35874" lon="1.53228">
        <ele>262.9</ele>
        <time>2024-11-28T00:18:48.568Z</time>
      </trkpt>
      <trkpt lat="44.35904" lon="1.53263">
        <ele>263.1</ele>
        <time>2024-11-28T00:18:58.727Z</time>
      </trkpt>
      <trkpt lat="44.35929" lon="1.53286">
        <ele>263.3</ele>
        <time>2024-11-28T00:19:05.970Z</time>
      </trkpt>
      <trkpt lat="44.35934" lon="1.53308">
        <ele>263.2</ele>
        <time>2024-11-28T00:19:09.695Z</time>
      </trkpt>
      <trkpt lat="44.35953" lon="1.53356">
        <ele>262.2</ele>
        <time>2024-11-28T00:19:18.516Z</time>
      </trkpt>
      <trkpt lat="44.35971" lon="1.53426">
        <ele>257.1</ele>
        <time>2024-11-28T00:19:29.896Z</time>
      </trkpt>
      <trkpt lat="44.35985" lon="1.53531">
        <ele>242.8</ele>
        <time>2024-11-28T00:19:46.298Z</time>
      </trkpt>
      <trkpt lat="44.35988" lon="1.53564">
        <ele>239.2</ele>
        <time>2024-11-28T00:19:51.707Z</time>
      </trkpt>
      <trkpt lat="44.35982" lon="1.5357">
        <ele>237</ele>
        <time>2024-11-28T00:19:53.417Z</time>
      </trkpt>
      <trkpt lat="44.35957" lon="1.53582">
        <ele>236.2</ele>
        <time>2024-11-28T00:19:59.562Z</time>
      </trkpt>
      <trkpt lat="44.35951" lon="1.53588">
        <ele>237.1</ele>
        <time>2024-11-28T00:20:01.323Z</time>
      </trkpt>
      <trkpt lat="44.35956" lon="1.53609">
        <ele>236.4</ele>
        <time>2024-11-28T00:20:05.425Z</time>
      </trkpt>
      <trkpt lat="44.35969" lon="1.53634">
        <ele>234.5</ele>
        <time>2024-11-28T00:20:11.197Z</time>
      </trkpt>
      <trkpt lat="44.35986" lon="1.5366">
        <ele>233.7</ele>
        <time>2024-11-28T00:20:18.741Z</time>
      </trkpt>
      <trkpt lat="44.35989" lon="1.53663">
        <ele>233.3</ele>
        <time>2024-11-28T00:20:19.930Z</time>
      </trkpt>
      <trkpt lat="44.35999" lon="1.53649">
        <ele>231.2</ele>
        <time>2024-11-28T00:20:22.963Z</time>
      </trkpt>
      <trkpt lat="44.35986" lon="1.53705">
        <ele>233.8</ele>
        <time>2024-11-28T00:20:38.856Z</time>
      </trkpt>
      <trkpt lat="44.35975" lon="1.53724">
        <ele>234.6</ele>
        <time>2024-11-28T00:20:45.810Z</time>
      </trkpt>
      <trkpt lat="44.35927" lon="1.5378">
        <ele>238</ele>
        <time>2024-11-28T00:21:16.308Z</time>
      </trkpt>
      <trkpt lat="44.35874" lon="1.53807">
        <ele>238.6</ele>
        <time>2024-11-28T00:21:47.769Z</time>
      </trkpt>
      <trkpt lat="44.35839" lon="1.53829">
        <ele>239.3</ele>
        <time>2024-11-28T00:22:08.583Z</time>
      </trkpt>
      <trkpt lat="44.35793" lon="1.53872">
        <ele>241.4</ele>
        <time>2024-11-28T00:22:37.385Z</time>
      </trkpt>
      <trkpt lat="44.35773" lon="1.53887">
        <ele>241.1</ele>
        <time>2024-11-28T00:22:48.653Z</time>
      </trkpt>
      <trkpt lat="44.35731" lon="1.53909">
        <ele>242.2</ele>
        <time>2024-11-28T00:23:10.975Z</time>
      </trkpt>
      <trkpt lat="44.35698" lon="1.53934">
        <ele>243.3</ele>
        <time>2024-11-28T00:23:30.127Z</time>
      </trkpt>
      <trkpt lat="44.35651" lon="1.53987">
        <ele>248.2</ele>
        <time>2024-11-28T00:24:02.070Z</time>
      </trkpt>
      <trkpt lat="44.35606" lon="1.54042">
        <ele>251.3</ele>
        <time>2024-11-28T00:24:35.448Z</time>
      </trkpt>
      <trkpt lat="44.3554" lon="1.54136">
        <ele>257.8</ele>
        <time>2024-11-28T00:25:29.180Z</time>
      </trkpt>
      <trkpt lat="44.35515" lon="1.54165">
        <ele>259.4</ele>
        <time>2024-11-28T00:25:46.852Z</time>
      </trkpt>
      <trkpt lat="44.35392" lon="1.54267">
        <ele>265.3</ele>
        <time>2024-11-28T00:26:57.922Z</time>
      </trkpt>
      <trkpt lat="44.35361" lon="1.54286">
        <ele>266.7</ele>
        <time>2024-11-28T00:27:14.180Z</time>
      </trkpt>
      <trkpt lat="44.35304" lon="1.54325">
        <ele>269</ele>
        <time>2024-11-28T00:27:45.408Z</time>
      </trkpt>
      <trkpt lat="44.35272" lon="1.54354">
        <ele>270.2</ele>
        <time>2024-11-28T00:28:04.511Z</time>
      </trkpt>
      <trkpt lat="44.35223" lon="1.54376">
        <ele>273.5</ele>
        <time>2024-11-28T00:28:29.450Z</time>
      </trkpt>
      <trkpt lat="44.35195" lon="1.54382">
        <ele>275</ele>
        <time>2024-11-28T00:28:42.322Z</time>
      </trkpt>
      <trkpt lat="44.35083" lon="1.54389">
        <ele>277</ele>
        <time>2024-11-28T00:29:23.772Z</time>
      </trkpt>
      <trkpt lat="44.34953" lon="1.54396">
        <ele>273.7</ele>
        <time>2024-11-28T00:29:45.697Z</time>
      </trkpt>
      <trkpt lat="44.34874" lon="1.54395">
        <ele>271.9</ele>
        <time>2024-11-28T00:29:59.506Z</time>
      </trkpt>
      <trkpt lat="44.34849" lon="1.544">
        <ele>272.3</ele>
        <time>2024-11-28T00:30:04.299Z</time>
      </trkpt>
      <trkpt lat="44.34794" lon="1.54429">
        <ele>273.8</ele>
        <time>2024-11-28T00:30:17.351Z</time>
      </trkpt>
      <trkpt lat="44.34791" lon="1.54434">
        <ele>273.8</ele>
        <time>2024-11-28T00:30:18.545Z</time>
      </trkpt>
      <trkpt lat="44.34702" lon="1.54434">
        <ele>274.5</ele>
        <time>2024-11-28T00:30:42.855Z</time>
      </trkpt>
      <trkpt lat="44.34612" lon="1.54413">
        <ele>276.8</ele>
        <time>2024-11-28T00:31:08.367Z</time>
      </trkpt>
      <trkpt lat="44.34565" lon="1.54402">
        <ele>277.7</ele>
        <time>2024-11-28T00:31:21.309Z</time>
      </trkpt>
      <trkpt lat="44.34525" lon="1.54393">
        <ele>279</ele>
        <time>2024-11-28T00:31:30.565Z</time>
      </trkpt>
      <trkpt lat="44.3445" lon="1.54384">
        <ele>279</ele>
        <time>2024-11-28T00:31:43.591Z</time>
      </trkpt>
      <trkpt lat="44.34401" lon="1.54381">
        <ele>277.7</ele>
        <time>2024-11-28T00:31:51.006Z</time>
      </trkpt>
      <trkpt lat="44.34365" lon="1.54377">
        <ele>275.7</ele>
        <time>2024-11-28T00:31:56.515Z</time>
      </trkpt>
      <trkpt lat="44.34341" lon="1.54372">
        <ele>275.3</ele>
        <time>2024-11-28T00:32:00.192Z</time>
      </trkpt>
      <trkpt lat="44.3429" lon="1.54362">
        <ele>274</ele>
        <time>2024-11-28T00:32:08.639Z</time>
      </trkpt>
      <trkpt lat="44.34277" lon="1.54362">
        <ele>273.9</ele>
        <time>2024-11-28T00:32:11.045Z</time>
      </trkpt>
      <trkpt lat="44.34211" lon="1.54363">
        <ele>274.9</ele>
        <time>2024-11-28T00:32:25.568Z</time>
      </trkpt>
      <trkpt lat="44.34196" lon="1.54371">
        <ele>274.6</ele>
        <time>2024-11-28T00:32:29.821Z</time>
      </trkpt>
      <trkpt lat="44.34187" lon="1.54383">
        <ele>274.2</ele>
        <time>2024-11-28T00:32:32.751Z</time>
      </trkpt>
      <trkpt lat="44.34183" lon="1.54377">
        <ele>274.4</ele>
        <time>2024-11-28T00:32:34.789Z</time>
      </trkpt>
      <trkpt lat="44.34171" lon="1.5438">
        <ele>274.3</ele>
        <time>2024-11-28T00:32:39.728Z</time>
      </trkpt>
      <trkpt lat="44.34167" lon="1.54371">
        <ele>274.7</ele>
        <time>2024-11-28T00:32:42.545Z</time>
      </trkpt>
      <trkpt lat="44.34163" lon="1.54375">
        <ele>274.5</ele>
        <time>2024-11-28T00:32:44.197Z</time>
      </trkpt>
      <trkpt lat="44.34155" lon="1.54361">
        <ele>275</ele>
        <time>2024-11-28T00:32:47.272Z</time>
      </trkpt>
      <trkpt lat="44.34157" lon="1.54356">
        <ele>275</ele>
        <time>2024-11-28T00:32:48.342Z</time>
      </trkpt>
      <trkpt lat="44.34156" lon="1.54343">
        <ele>275</ele>
        <time>2024-11-28T00:32:50.397Z</time>
      </trkpt>
      <trkpt lat="44.34148" lon="1.54338">
        <ele>275</ele>
        <time>2024-11-28T00:32:52.460Z</time>
      </trkpt>
      <trkpt lat="44.34142" lon="1.54342">
        <ele>275</ele>
        <time>2024-11-28T00:32:53.987Z</time>
      </trkpt>
      <trkpt lat="44.3414" lon="1.54356">
        <ele>275</ele>
        <time>2024-11-28T00:32:56.117Z</time>
      </trkpt>
      <trkpt lat="44.34099" lon="1.54383">
        <ele>275.1</ele>
        <time>2024-11-28T00:33:05.046Z</time>
      </trkpt>
      <trkpt lat="44.34063" lon="1.54404">
        <ele>275.9</ele>
        <time>2024-11-28T00:33:12.267Z</time>
      </trkpt>
      <trkpt lat="44.3404" lon="1.54416">
        <ele>275.4</ele>
        <time>2024-11-28T00:33:17.048Z</time>
      </trkpt>
      <trkpt lat="44.33964" lon="1.54451">
        <ele>274.8</ele>
        <time>2024-11-28T00:33:34.421Z</time>
      </trkpt>
      <trkpt lat="44.33903" lon="1.54482">
        <ele>275</ele>
        <time>2024-11-28T00:33:49.496Z</time>
      </trkpt>
      <trkpt lat="44.33876" lon="1.54496">
        <ele>275.1</ele>
        <time>2024-11-28T00:33:56.054Z</time>
      </trkpt>
      <trkpt lat="44.3386" lon="1.54505">
        <ele>275</ele>
        <time>2024-11-28T00:33:59.778Z</time>
      </trkpt>
      <trkpt lat="44.33845" lon="1.54515">
        <ele>274.7</ele>
        <time>2024-11-28T00:34:03.556Z</time>
      </trkpt>
      <trkpt lat="44.33831" lon="1.54529">
        <ele>274.1</ele>
        <time>2024-11-28T00:34:07.136Z</time>
      </trkpt>
    </trkseg>
  </trk>
</gpx>